<?xml version="1.0" encoding="UTF-8" standalone="no" ?>
<gpx xmlns="http://www.topografix.com/GPX/1/1" xmlns:xsi="http://www.w3.org/2001/XMLSchema-instance" xsi:schemaLocation="http://www.topografix.com/GPX/1/1 http://www.topografix.com/GPX/1/1/gpx.xsd" version="1.1" creator="VisuGPX - https://www.visugpx.com">
  <metadata>
    <name>Brunehaut-6-juin-2019 (B)</name>
    <desc><![CDATA[Circuit du groupe B Vélo Relax du 6 juin 2019 au départ de Brunehaut]]></desc>
  </metadata>
  <trk>
    <name><![CDATA[Brunehaut]]></name>
    <trkseg>
      <trkpt lat="50.51356" lon="3.416">
        <ele>34.340477</ele>
        <time>2019-06-06T12:02:01Z</time>
      </trkpt>
      <trkpt lat="50.51351" lon="3.4159">
        <ele>33.803082</ele>
        <time>2019-06-06T12:02:03Z</time>
      </trkpt>
      <trkpt lat="50.51346" lon="3.41578">
        <ele>33.738972</ele>
        <time>2019-06-06T12:02:05Z</time>
      </trkpt>
      <trkpt lat="50.51261" lon="3.41396">
        <ele>23.815996</ele>
        <time>2019-06-06T12:02:39Z</time>
      </trkpt>
      <trkpt lat="50.51255" lon="3.41384">
        <ele>23.251539</ele>
        <time>2019-06-06T12:02:41Z</time>
      </trkpt>
      <trkpt lat="50.5125" lon="3.41372">
        <ele>22.817509</ele>
        <time>2019-06-06T12:02:43Z</time>
      </trkpt>
      <trkpt lat="50.51244" lon="3.4136">
        <ele>22.727207</ele>
        <time>2019-06-06T12:02:45Z</time>
      </trkpt>
      <trkpt lat="50.51238" lon="3.41346">
        <ele>22.458065</ele>
        <time>2019-06-06T12:02:47Z</time>
      </trkpt>
      <trkpt lat="50.51233" lon="3.41332">
        <ele>22.344189</ele>
        <time>2019-06-06T12:02:49Z</time>
      </trkpt>
      <trkpt lat="50.51228" lon="3.41318">
        <ele>22.265923</ele>
        <time>2019-06-06T12:02:51Z</time>
      </trkpt>
      <trkpt lat="50.51224" lon="3.41303">
        <ele>22.182449</ele>
        <time>2019-06-06T12:02:53Z</time>
      </trkpt>
      <trkpt lat="50.51221" lon="3.41288">
        <ele>21.999157</ele>
        <time>2019-06-06T12:02:55Z</time>
      </trkpt>
      <trkpt lat="50.51218" lon="3.41273">
        <ele>21.989077</ele>
        <time>2019-06-06T12:02:57Z</time>
      </trkpt>
      <trkpt lat="50.51215" lon="3.41259">
        <ele>21.959476</ele>
        <time>2019-06-06T12:02:59Z</time>
      </trkpt>
      <trkpt lat="50.51211" lon="3.41246">
        <ele>21.919914</ele>
        <time>2019-06-06T12:03:01Z</time>
      </trkpt>
      <trkpt lat="50.51207" lon="3.41235">
        <ele>21.806932</ele>
        <time>2019-06-06T12:03:03Z</time>
      </trkpt>
      <trkpt lat="50.51204" lon="3.41226">
        <ele>21.707235</ele>
        <time>2019-06-06T12:03:05Z</time>
      </trkpt>
      <trkpt lat="50.51202" lon="3.41219">
        <ele>21.565084</ele>
        <time>2019-06-06T12:03:07Z</time>
      </trkpt>
      <trkpt lat="50.512" lon="3.41215">
        <ele>21.408939</ele>
        <time>2019-06-06T12:03:09Z</time>
      </trkpt>
      <trkpt lat="50.51198" lon="3.41212">
        <ele>21.565067</ele>
        <time>2019-06-06T12:03:11Z</time>
      </trkpt>
      <trkpt lat="50.51196" lon="3.41207">
        <ele>21.491114</ele>
        <time>2019-06-06T12:03:13Z</time>
      </trkpt>
      <trkpt lat="50.51195" lon="3.41204">
        <ele>21.395336</ele>
        <time>2019-06-06T12:03:15Z</time>
      </trkpt>
      <trkpt lat="50.51193" lon="3.41201">
        <ele>21.309856</ele>
        <time>2019-06-06T12:03:17Z</time>
      </trkpt>
      <trkpt lat="50.51191" lon="3.41197">
        <ele>21.22891</ele>
        <time>2019-06-06T12:03:19Z</time>
      </trkpt>
      <trkpt lat="50.51189" lon="3.4119">
        <ele>21.224747</ele>
        <time>2019-06-06T12:03:21Z</time>
      </trkpt>
      <trkpt lat="50.51187" lon="3.41181">
        <ele>21.080975</ele>
        <time>2019-06-06T12:03:23Z</time>
      </trkpt>
      <trkpt lat="50.51184" lon="3.41172">
        <ele>20.831043</ele>
        <time>2019-06-06T12:03:25Z</time>
      </trkpt>
      <trkpt lat="50.51181" lon="3.41162">
        <ele>20.817574</ele>
        <time>2019-06-06T12:03:27Z</time>
      </trkpt>
      <trkpt lat="50.51178" lon="3.41153">
        <ele>20.837065</ele>
        <time>2019-06-06T12:03:29Z</time>
      </trkpt>
      <trkpt lat="50.51175" lon="3.41145">
        <ele>20.82202</ele>
        <time>2019-06-06T12:03:31Z</time>
      </trkpt>
      <trkpt lat="50.51173" lon="3.41136">
        <ele>20.781591</ele>
        <time>2019-06-06T12:03:33Z</time>
      </trkpt>
      <trkpt lat="50.5117" lon="3.41125">
        <ele>20.772688</ele>
        <time>2019-06-06T12:03:35Z</time>
      </trkpt>
      <trkpt lat="50.51167" lon="3.41114">
        <ele>20.839315</ele>
        <time>2019-06-06T12:03:37Z</time>
      </trkpt>
      <trkpt lat="50.51163" lon="3.41103">
        <ele>20.83515</ele>
        <time>2019-06-06T12:03:39Z</time>
      </trkpt>
      <trkpt lat="50.5116" lon="3.41092">
        <ele>20.831478</ele>
        <time>2019-06-06T12:03:41Z</time>
      </trkpt>
      <trkpt lat="50.51157" lon="3.41081">
        <ele>20.843971</ele>
        <time>2019-06-06T12:03:43Z</time>
      </trkpt>
      <trkpt lat="50.51154" lon="3.41069">
        <ele>20.909897</ele>
        <time>2019-06-06T12:03:45Z</time>
      </trkpt>
      <trkpt lat="50.5115" lon="3.41058">
        <ele>20.970285</ele>
        <time>2019-06-06T12:03:47Z</time>
      </trkpt>
      <trkpt lat="50.51145" lon="3.41041">
        <ele>21.071157</ele>
        <time>2019-06-06T12:03:50Z</time>
      </trkpt>
      <trkpt lat="50.51142" lon="3.41029">
        <ele>21.123524</ele>
        <time>2019-06-06T12:03:52Z</time>
      </trkpt>
      <trkpt lat="50.51139" lon="3.41017">
        <ele>21.146427</ele>
        <time>2019-06-06T12:03:54Z</time>
      </trkpt>
      <trkpt lat="50.51135" lon="3.41005">
        <ele>21.240089</ele>
        <time>2019-06-06T12:03:56Z</time>
      </trkpt>
      <trkpt lat="50.51131" lon="3.40993">
        <ele>21.327892</ele>
        <time>2019-06-06T12:03:58Z</time>
      </trkpt>
      <trkpt lat="50.51128" lon="3.40981">
        <ele>21.406857</ele>
        <time>2019-06-06T12:04:00Z</time>
      </trkpt>
      <trkpt lat="50.51123" lon="3.40968">
        <ele>21.497065</ele>
        <time>2019-06-06T12:04:02Z</time>
      </trkpt>
      <trkpt lat="50.51119" lon="3.40955">
        <ele>21.590759</ele>
        <time>2019-06-06T12:04:04Z</time>
      </trkpt>
      <trkpt lat="50.51115" lon="3.40943">
        <ele>21.705067</ele>
        <time>2019-06-06T12:04:06Z</time>
      </trkpt>
      <trkpt lat="50.51111" lon="3.4093">
        <ele>21.784193</ele>
        <time>2019-06-06T12:04:08Z</time>
      </trkpt>
      <trkpt lat="50.51107" lon="3.40916">
        <ele>21.844488</ele>
        <time>2019-06-06T12:04:10Z</time>
      </trkpt>
      <trkpt lat="50.51104" lon="3.40903">
        <ele>21.865313</ele>
        <time>2019-06-06T12:04:12Z</time>
      </trkpt>
      <trkpt lat="50.51099" lon="3.4089">
        <ele>21.917179</ele>
        <time>2019-06-06T12:04:14Z</time>
      </trkpt>
      <trkpt lat="50.51096" lon="3.40878">
        <ele>21.998711</ele>
        <time>2019-06-06T12:04:16Z</time>
      </trkpt>
      <trkpt lat="50.51092" lon="3.40865">
        <ele>22.06818</ele>
        <time>2019-06-06T12:04:18Z</time>
      </trkpt>
      <trkpt lat="50.51088" lon="3.40853">
        <ele>22.146379</ele>
        <time>2019-06-06T12:04:20Z</time>
      </trkpt>
      <trkpt lat="50.51084" lon="3.40841">
        <ele>22.137028</ele>
        <time>2019-06-06T12:04:22Z</time>
      </trkpt>
      <trkpt lat="50.5108" lon="3.40829">
        <ele>22.228964</ele>
        <time>2019-06-06T12:04:24Z</time>
      </trkpt>
      <trkpt lat="50.51074" lon="3.40811">
        <ele>22.318506</ele>
        <time>2019-06-06T12:04:27Z</time>
      </trkpt>
      <trkpt lat="50.5107" lon="3.408">
        <ele>22.394226</ele>
        <time>2019-06-06T12:04:29Z</time>
      </trkpt>
      <trkpt lat="50.51067" lon="3.40788">
        <ele>22.506674</ele>
        <time>2019-06-06T12:04:31Z</time>
      </trkpt>
      <trkpt lat="50.51063" lon="3.40776">
        <ele>22.593956</ele>
        <time>2019-06-06T12:04:33Z</time>
      </trkpt>
      <trkpt lat="50.51059" lon="3.40764">
        <ele>22.697763</ele>
        <time>2019-06-06T12:04:35Z</time>
      </trkpt>
      <trkpt lat="50.51055" lon="3.40753">
        <ele>22.77191</ele>
        <time>2019-06-06T12:04:37Z</time>
      </trkpt>
      <trkpt lat="50.51051" lon="3.4074">
        <ele>22.82778</ele>
        <time>2019-06-06T12:04:39Z</time>
      </trkpt>
      <trkpt lat="50.51047" lon="3.40727">
        <ele>22.900106</ele>
        <time>2019-06-06T12:04:41Z</time>
      </trkpt>
      <trkpt lat="50.51042" lon="3.40715">
        <ele>22.956335</ele>
        <time>2019-06-06T12:04:43Z</time>
      </trkpt>
      <trkpt lat="50.51038" lon="3.40702">
        <ele>22.989882</ele>
        <time>2019-06-06T12:04:45Z</time>
      </trkpt>
      <trkpt lat="50.51034" lon="3.40688">
        <ele>23.098175</ele>
        <time>2019-06-06T12:04:47Z</time>
      </trkpt>
      <trkpt lat="50.5103" lon="3.40675">
        <ele>23.176693</ele>
        <time>2019-06-06T12:04:49Z</time>
      </trkpt>
      <trkpt lat="50.51026" lon="3.40662">
        <ele>23.274578</ele>
        <time>2019-06-06T12:04:51Z</time>
      </trkpt>
      <trkpt lat="50.51022" lon="3.40649">
        <ele>23.347897</ele>
        <time>2019-06-06T12:04:53Z</time>
      </trkpt>
      <trkpt lat="50.51017" lon="3.40637">
        <ele>23.483273</ele>
        <time>2019-06-06T12:04:55Z</time>
      </trkpt>
      <trkpt lat="50.51014" lon="3.40626">
        <ele>23.593025</ele>
        <time>2019-06-06T12:04:57Z</time>
      </trkpt>
      <trkpt lat="50.5101" lon="3.40615">
        <ele>23.688826</ele>
        <time>2019-06-06T12:04:59Z</time>
      </trkpt>
      <trkpt lat="50.51007" lon="3.40602">
        <ele>23.717983</ele>
        <time>2019-06-06T12:05:01Z</time>
      </trkpt>
      <trkpt lat="50.51003" lon="3.4059">
        <ele>23.768421</ele>
        <time>2019-06-06T12:05:03Z</time>
      </trkpt>
      <trkpt lat="50.50998" lon="3.40577">
        <ele>23.924608</ele>
        <time>2019-06-06T12:05:05Z</time>
      </trkpt>
      <trkpt lat="50.50994" lon="3.40565">
        <ele>23.976974</ele>
        <time>2019-06-06T12:05:07Z</time>
      </trkpt>
      <trkpt lat="50.5099" lon="3.40552">
        <ele>24.072781</ele>
        <time>2019-06-06T12:05:09Z</time>
      </trkpt>
      <trkpt lat="50.50986" lon="3.4054">
        <ele>24.131794</ele>
        <time>2019-06-06T12:05:11Z</time>
      </trkpt>
      <trkpt lat="50.50982" lon="3.40527">
        <ele>24.215107</ele>
        <time>2019-06-06T12:05:13Z</time>
      </trkpt>
      <trkpt lat="50.50978" lon="3.40514">
        <ele>24.321924</ele>
        <time>2019-06-06T12:05:15Z</time>
      </trkpt>
      <trkpt lat="50.50974" lon="3.40501">
        <ele>24.467726</ele>
        <time>2019-06-06T12:05:17Z</time>
      </trkpt>
      <trkpt lat="50.5097" lon="3.40489">
        <ele>24.588566</ele>
        <time>2019-06-06T12:05:18Z</time>
      </trkpt>
      <trkpt lat="50.50966" lon="3.40477">
        <ele>24.663548</ele>
        <time>2019-06-06T12:05:21Z</time>
      </trkpt>
      <trkpt lat="50.50962" lon="3.40465">
        <ele>24.820202</ele>
        <time>2019-06-06T12:05:23Z</time>
      </trkpt>
      <trkpt lat="50.50958" lon="3.40454">
        <ele>25.005581</ele>
        <time>2019-06-06T12:05:25Z</time>
      </trkpt>
      <trkpt lat="50.50954" lon="3.40442">
        <ele>25.15933</ele>
        <time>2019-06-06T12:05:27Z</time>
      </trkpt>
      <trkpt lat="50.50951" lon="3.4043">
        <ele>25.305143</ele>
        <time>2019-06-06T12:05:29Z</time>
      </trkpt>
      <trkpt lat="50.50946" lon="3.40418">
        <ele>25.477024</ele>
        <time>2019-06-06T12:05:31Z</time>
      </trkpt>
      <trkpt lat="50.50943" lon="3.40406">
        <ele>25.64159</ele>
        <time>2019-06-06T12:05:33Z</time>
      </trkpt>
      <trkpt lat="50.5094" lon="3.40397">
        <ele>25.716583</ele>
        <time>2019-06-06T12:05:35Z</time>
      </trkpt>
      <trkpt lat="50.50937" lon="3.40389">
        <ele>25.876215</ele>
        <time>2019-06-06T12:05:37Z</time>
      </trkpt>
      <trkpt lat="50.50934" lon="3.40379">
        <ele>25.96579</ele>
        <time>2019-06-06T12:05:39Z</time>
      </trkpt>
      <trkpt lat="50.50931" lon="3.4037">
        <ele>26.11879</ele>
        <time>2019-06-06T12:05:41Z</time>
      </trkpt>
      <trkpt lat="50.50928" lon="3.4036">
        <ele>26.308359</ele>
        <time>2019-06-06T12:05:43Z</time>
      </trkpt>
      <trkpt lat="50.50925" lon="3.4035">
        <ele>26.499237</ele>
        <time>2019-06-06T12:05:45Z</time>
      </trkpt>
      <trkpt lat="50.50921" lon="3.4034">
        <ele>26.597141</ele>
        <time>2019-06-06T12:05:47Z</time>
      </trkpt>
      <trkpt lat="50.50918" lon="3.40329">
        <ele>26.759678</ele>
        <time>2019-06-06T12:05:49Z</time>
      </trkpt>
      <trkpt lat="50.50914" lon="3.40319">
        <ele>26.935541</ele>
        <time>2019-06-06T12:05:51Z</time>
      </trkpt>
      <trkpt lat="50.50911" lon="3.40309">
        <ele>27.145199</ele>
        <time>2019-06-06T12:05:53Z</time>
      </trkpt>
      <trkpt lat="50.50908" lon="3.40299">
        <ele>27.370029</ele>
        <time>2019-06-06T12:05:55Z</time>
      </trkpt>
      <trkpt lat="50.50905" lon="3.40288">
        <ele>27.535034</ele>
        <time>2019-06-06T12:05:57Z</time>
      </trkpt>
      <trkpt lat="50.50901" lon="3.40278">
        <ele>27.677805</ele>
        <time>2019-06-06T12:05:59Z</time>
      </trkpt>
      <trkpt lat="50.50899" lon="3.4027">
        <ele>27.738224</ele>
        <time>2019-06-06T12:06:01Z</time>
      </trkpt>
      <trkpt lat="50.50896" lon="3.40261">
        <ele>27.897354</ele>
        <time>2019-06-06T12:06:03Z</time>
      </trkpt>
      <trkpt lat="50.50893" lon="3.40251">
        <ele>28.02236</ele>
        <time>2019-06-06T12:06:05Z</time>
      </trkpt>
      <trkpt lat="50.50889" lon="3.40241">
        <ele>28.174011</ele>
        <time>2019-06-06T12:06:07Z</time>
      </trkpt>
      <trkpt lat="50.50886" lon="3.4023">
        <ele>28.324032</ele>
        <time>2019-06-06T12:06:09Z</time>
      </trkpt>
      <trkpt lat="50.50883" lon="3.4022">
        <ele>28.468761</ele>
        <time>2019-06-06T12:06:11Z</time>
      </trkpt>
      <trkpt lat="50.50879" lon="3.40208">
        <ele>28.520849</ele>
        <time>2019-06-06T12:06:13Z</time>
      </trkpt>
      <trkpt lat="50.50876" lon="3.40197">
        <ele>28.614038</ele>
        <time>2019-06-06T12:06:15Z</time>
      </trkpt>
      <trkpt lat="50.50872" lon="3.40186">
        <ele>28.672375</ele>
        <time>2019-06-06T12:06:17Z</time>
      </trkpt>
      <trkpt lat="50.50869" lon="3.40175">
        <ele>28.725872</ele>
        <time>2019-06-06T12:06:19Z</time>
      </trkpt>
      <trkpt lat="50.50865" lon="3.40163">
        <ele>28.871344</ele>
        <time>2019-06-06T12:06:21Z</time>
      </trkpt>
      <trkpt lat="50.50861" lon="3.40151">
        <ele>28.898432</ele>
        <time>2019-06-06T12:06:23Z</time>
      </trkpt>
      <trkpt lat="50.50857" lon="3.40139">
        <ele>28.896612</ele>
        <time>2019-06-06T12:06:25Z</time>
      </trkpt>
      <trkpt lat="50.50854" lon="3.40127">
        <ele>29.002884</ele>
        <time>2019-06-06T12:06:27Z</time>
      </trkpt>
      <trkpt lat="50.50851" lon="3.40115">
        <ele>29.065298</ele>
        <time>2019-06-06T12:06:29Z</time>
      </trkpt>
      <trkpt lat="50.50848" lon="3.40103">
        <ele>29.142401</ele>
        <time>2019-06-06T12:06:31Z</time>
      </trkpt>
      <trkpt lat="50.50845" lon="3.40091">
        <ele>29.213949</ele>
        <time>2019-06-06T12:06:33Z</time>
      </trkpt>
      <trkpt lat="50.50843" lon="3.40078">
        <ele>29.280628</ele>
        <time>2019-06-06T12:06:35Z</time>
      </trkpt>
      <trkpt lat="50.50841" lon="3.40066">
        <ele>29.318295</ele>
        <time>2019-06-06T12:06:37Z</time>
      </trkpt>
      <trkpt lat="50.5084" lon="3.40054">
        <ele>29.359741</ele>
        <time>2019-06-06T12:06:39Z</time>
      </trkpt>
      <trkpt lat="50.50839" lon="3.40042">
        <ele>29.402401</ele>
        <time>2019-06-06T12:06:41Z</time>
      </trkpt>
      <trkpt lat="50.50838" lon="3.40029">
        <ele>29.433661</ele>
        <time>2019-06-06T12:06:43Z</time>
      </trkpt>
      <trkpt lat="50.50838" lon="3.40016">
        <ele>29.437824</ele>
        <time>2019-06-06T12:06:45Z</time>
      </trkpt>
      <trkpt lat="50.50838" lon="3.40003">
        <ele>29.485752</ele>
        <time>2019-06-06T12:06:47Z</time>
      </trkpt>
      <trkpt lat="50.50838" lon="3.3999">
        <ele>29.477417</ele>
        <time>2019-06-06T12:06:49Z</time>
      </trkpt>
      <trkpt lat="50.50839" lon="3.39977">
        <ele>29.496319</ele>
        <time>2019-06-06T12:06:51Z</time>
      </trkpt>
      <trkpt lat="50.50839" lon="3.39964">
        <ele>29.469229</ele>
        <time>2019-06-06T12:06:53Z</time>
      </trkpt>
      <trkpt lat="50.50839" lon="3.39952">
        <ele>29.507816</ele>
        <time>2019-06-06T12:06:55Z</time>
      </trkpt>
      <trkpt lat="50.5084" lon="3.39939">
        <ele>29.561956</ele>
        <time>2019-06-06T12:06:57Z</time>
      </trkpt>
      <trkpt lat="50.5084" lon="3.39927">
        <ele>29.614491</ele>
        <time>2019-06-06T12:06:59Z</time>
      </trkpt>
      <trkpt lat="50.5084" lon="3.39914">
        <ele>29.645746</ele>
        <time>2019-06-06T12:07:01Z</time>
      </trkpt>
      <trkpt lat="50.5084" lon="3.39901">
        <ele>29.634745</ele>
        <time>2019-06-06T12:07:03Z</time>
      </trkpt>
      <trkpt lat="50.50841" lon="3.39889">
        <ele>29.65975</ele>
        <time>2019-06-06T12:07:05Z</time>
      </trkpt>
      <trkpt lat="50.50841" lon="3.39876">
        <ele>29.740131</ele>
        <time>2019-06-06T12:07:07Z</time>
      </trkpt>
      <trkpt lat="50.50841" lon="3.39864">
        <ele>29.786291</ele>
        <time>2019-06-06T12:07:09Z</time>
      </trkpt>
      <trkpt lat="50.50842" lon="3.39852">
        <ele>29.808477</ele>
        <time>2019-06-06T12:07:11Z</time>
      </trkpt>
      <trkpt lat="50.50842" lon="3.39841">
        <ele>29.77305</ele>
        <time>2019-06-06T12:07:13Z</time>
      </trkpt>
      <trkpt lat="50.50842" lon="3.3983">
        <ele>29.787907</ele>
        <time>2019-06-06T12:07:15Z</time>
      </trkpt>
      <trkpt lat="50.50842" lon="3.39818">
        <ele>29.820957</ele>
        <time>2019-06-06T12:07:17Z</time>
      </trkpt>
      <trkpt lat="50.50842" lon="3.39808">
        <ele>29.818872</ele>
        <time>2019-06-06T12:07:19Z</time>
      </trkpt>
      <trkpt lat="50.50843" lon="3.39797">
        <ele>29.835773</ele>
        <time>2019-06-06T12:07:21Z</time>
      </trkpt>
      <trkpt lat="50.50843" lon="3.39786">
        <ele>29.831604</ele>
        <time>2019-06-06T12:07:23Z</time>
      </trkpt>
      <trkpt lat="50.50843" lon="3.39775">
        <ele>29.858816</ele>
        <time>2019-06-06T12:07:25Z</time>
      </trkpt>
      <trkpt lat="50.50843" lon="3.39763">
        <ele>29.869236</ele>
        <time>2019-06-06T12:07:27Z</time>
      </trkpt>
      <trkpt lat="50.50844" lon="3.39752">
        <ele>29.892935</ele>
        <time>2019-06-06T12:07:29Z</time>
      </trkpt>
      <trkpt lat="50.50844" lon="3.39741">
        <ele>29.924191</ele>
        <time>2019-06-06T12:07:31Z</time>
      </trkpt>
      <trkpt lat="50.50844" lon="3.3973">
        <ele>29.935587</ele>
        <time>2019-06-06T12:07:33Z</time>
      </trkpt>
      <trkpt lat="50.50845" lon="3.39719">
        <ele>29.457956</ele>
        <time>2019-06-06T12:07:35Z</time>
      </trkpt>
      <trkpt lat="50.50845" lon="3.39706">
        <ele>29.468374</ele>
        <time>2019-06-06T12:07:37Z</time>
      </trkpt>
      <trkpt lat="50.50844" lon="3.39693">
        <ele>29.501919</ele>
        <time>2019-06-06T12:07:39Z</time>
      </trkpt>
      <trkpt lat="50.50843" lon="3.3968">
        <ele>29.512339</ele>
        <time>2019-06-06T12:07:41Z</time>
      </trkpt>
      <trkpt lat="50.50842" lon="3.39667">
        <ele>29.584345</ele>
        <time>2019-06-06T12:07:43Z</time>
      </trkpt>
      <trkpt lat="50.5084" lon="3.39654">
        <ele>29.624908</ele>
        <time>2019-06-06T12:07:45Z</time>
      </trkpt>
      <trkpt lat="50.50838" lon="3.3964">
        <ele>29.691599</ele>
        <time>2019-06-06T12:07:47Z</time>
      </trkpt>
      <trkpt lat="50.50836" lon="3.39627">
        <ele>29.797888</ele>
        <time>2019-06-06T12:07:49Z</time>
      </trkpt>
      <trkpt lat="50.50834" lon="3.39614">
        <ele>29.865789</ele>
        <time>2019-06-06T12:07:51Z</time>
      </trkpt>
      <trkpt lat="50.50832" lon="3.39601">
        <ele>30.461842</ele>
        <time>2019-06-06T12:07:53Z</time>
      </trkpt>
      <trkpt lat="50.50829" lon="3.39589">
        <ele>30.553976</ele>
        <time>2019-06-06T12:07:55Z</time>
      </trkpt>
      <trkpt lat="50.50827" lon="3.39578">
        <ele>30.620895</ele>
        <time>2019-06-06T12:07:57Z</time>
      </trkpt>
      <trkpt lat="50.50826" lon="3.39567">
        <ele>30.659861</ele>
        <time>2019-06-06T12:07:59Z</time>
      </trkpt>
      <trkpt lat="50.50824" lon="3.39555">
        <ele>30.738276</ele>
        <time>2019-06-06T12:08:01Z</time>
      </trkpt>
      <trkpt lat="50.50822" lon="3.39542">
        <ele>30.849115</ele>
        <time>2019-06-06T12:08:03Z</time>
      </trkpt>
      <trkpt lat="50.50819" lon="3.39529">
        <ele>30.940815</ele>
        <time>2019-06-06T12:08:05Z</time>
      </trkpt>
      <trkpt lat="50.50817" lon="3.39516">
        <ele>31.537296</ele>
        <time>2019-06-06T12:08:07Z</time>
      </trkpt>
      <trkpt lat="50.50814" lon="3.39502">
        <ele>31.599726</ele>
        <time>2019-06-06T12:08:09Z</time>
      </trkpt>
      <trkpt lat="50.50813" lon="3.39489">
        <ele>31.640631</ele>
        <time>2019-06-06T12:08:11Z</time>
      </trkpt>
      <trkpt lat="50.5081" lon="3.39476">
        <ele>31.676926</ele>
        <time>2019-06-06T12:08:13Z</time>
      </trkpt>
      <trkpt lat="50.50808" lon="3.39463">
        <ele>31.709644</ele>
        <time>2019-06-06T12:08:15Z</time>
      </trkpt>
      <trkpt lat="50.50806" lon="3.39453">
        <ele>32.237564</ele>
        <time>2019-06-06T12:08:17Z</time>
      </trkpt>
      <trkpt lat="50.50804" lon="3.39438">
        <ele>32.240341</ele>
        <time>2019-06-06T12:08:20Z</time>
      </trkpt>
      <trkpt lat="50.50802" lon="3.39428">
        <ele>32.217251</ele>
        <time>2019-06-06T12:08:22Z</time>
      </trkpt>
      <trkpt lat="50.508" lon="3.39418">
        <ele>32.200741</ele>
        <time>2019-06-06T12:08:24Z</time>
      </trkpt>
      <trkpt lat="50.50799" lon="3.39408">
        <ele>32.113522</ele>
        <time>2019-06-06T12:08:26Z</time>
      </trkpt>
      <trkpt lat="50.50797" lon="3.39399">
        <ele>32.055168</ele>
        <time>2019-06-06T12:08:28Z</time>
      </trkpt>
      <trkpt lat="50.50795" lon="3.39388">
        <ele>31.964111</ele>
        <time>2019-06-06T12:08:30Z</time>
      </trkpt>
      <trkpt lat="50.50793" lon="3.39378">
        <ele>31.837717</ele>
        <time>2019-06-06T12:08:32Z</time>
      </trkpt>
      <trkpt lat="50.50791" lon="3.39368">
        <ele>31.717396</ele>
        <time>2019-06-06T12:08:34Z</time>
      </trkpt>
      <trkpt lat="50.5079" lon="3.39359">
        <ele>31.066986</ele>
        <time>2019-06-06T12:08:36Z</time>
      </trkpt>
      <trkpt lat="50.50788" lon="3.39351">
        <ele>30.992435</ele>
        <time>2019-06-06T12:08:38Z</time>
      </trkpt>
      <trkpt lat="50.50785" lon="3.39341">
        <ele>30.921581</ele>
        <time>2019-06-06T12:08:40Z</time>
      </trkpt>
      <trkpt lat="50.50781" lon="3.39332">
        <ele>30.782207</ele>
        <time>2019-06-06T12:08:42Z</time>
      </trkpt>
      <trkpt lat="50.50775" lon="3.39323">
        <ele>30.568369</ele>
        <time>2019-06-06T12:08:44Z</time>
      </trkpt>
      <trkpt lat="50.50768" lon="3.39315">
        <ele>30.396</ele>
        <time>2019-06-06T12:08:46Z</time>
      </trkpt>
      <trkpt lat="50.5076" lon="3.39306">
        <ele>30.148037</ele>
        <time>2019-06-06T12:08:48Z</time>
      </trkpt>
      <trkpt lat="50.50753" lon="3.39298">
        <ele>29.4734</ele>
        <time>2019-06-06T12:08:50Z</time>
      </trkpt>
      <trkpt lat="50.50746" lon="3.3929">
        <ele>29.360958</ele>
        <time>2019-06-06T12:08:52Z</time>
      </trkpt>
      <trkpt lat="50.50739" lon="3.39283">
        <ele>29.242178</ele>
        <time>2019-06-06T12:08:54Z</time>
      </trkpt>
      <trkpt lat="50.50731" lon="3.39282">
        <ele>29.093639</ele>
        <time>2019-06-06T12:08:56Z</time>
      </trkpt>
      <trkpt lat="50.50724" lon="3.39288">
        <ele>28.97793</ele>
        <time>2019-06-06T12:08:58Z</time>
      </trkpt>
      <trkpt lat="50.50718" lon="3.39297">
        <ele>28.904999</ele>
        <time>2019-06-06T12:09:00Z</time>
      </trkpt>
      <trkpt lat="50.5071" lon="3.39305">
        <ele>28.840405</ele>
        <time>2019-06-06T12:09:02Z</time>
      </trkpt>
      <trkpt lat="50.50701" lon="3.39314">
        <ele>28.689737</ele>
        <time>2019-06-06T12:09:04Z</time>
      </trkpt>
      <trkpt lat="50.50692" lon="3.39323">
        <ele>28.552221</ele>
        <time>2019-06-06T12:09:06Z</time>
      </trkpt>
      <trkpt lat="50.50682" lon="3.39331">
        <ele>28.463314</ele>
        <time>2019-06-06T12:09:08Z</time>
      </trkpt>
      <trkpt lat="50.50672" lon="3.3934">
        <ele>28.351429</ele>
        <time>2019-06-06T12:09:10Z</time>
      </trkpt>
      <trkpt lat="50.50662" lon="3.39349">
        <ele>28.244528</ele>
        <time>2019-06-06T12:09:12Z</time>
      </trkpt>
      <trkpt lat="50.50652" lon="3.39358">
        <ele>28.129196</ele>
        <time>2019-06-06T12:09:14Z</time>
      </trkpt>
      <trkpt lat="50.50642" lon="3.39367">
        <ele>28.075024</ele>
        <time>2019-06-06T12:09:16Z</time>
      </trkpt>
      <trkpt lat="50.50631" lon="3.39375">
        <ele>28.01478</ele>
        <time>2019-06-06T12:09:18Z</time>
      </trkpt>
      <trkpt lat="50.50619" lon="3.3938">
        <ele>27.901361</ele>
        <time>2019-06-06T12:09:20Z</time>
      </trkpt>
      <trkpt lat="50.50607" lon="3.39382">
        <ele>27.806911</ele>
        <time>2019-06-06T12:09:22Z</time>
      </trkpt>
      <trkpt lat="50.50594" lon="3.3938">
        <ele>27.761753</ele>
        <time>2019-06-06T12:09:24Z</time>
      </trkpt>
      <trkpt lat="50.50582" lon="3.39377">
        <ele>27.777567</ele>
        <time>2019-06-06T12:09:26Z</time>
      </trkpt>
      <trkpt lat="50.50569" lon="3.39375">
        <ele>27.728664</ele>
        <time>2019-06-06T12:09:28Z</time>
      </trkpt>
      <trkpt lat="50.50556" lon="3.39377">
        <ele>27.807514</ele>
        <time>2019-06-06T12:09:30Z</time>
      </trkpt>
      <trkpt lat="50.50544" lon="3.39387">
        <ele>27.74386</ele>
        <time>2019-06-06T12:09:32Z</time>
      </trkpt>
      <trkpt lat="50.50533" lon="3.39399">
        <ele>27.707453</ele>
        <time>2019-06-06T12:09:34Z</time>
      </trkpt>
      <trkpt lat="50.50523" lon="3.39411">
        <ele>27.630362</ele>
        <time>2019-06-06T12:09:36Z</time>
      </trkpt>
      <trkpt lat="50.50513" lon="3.39424">
        <ele>27.566309</ele>
        <time>2019-06-06T12:09:38Z</time>
      </trkpt>
      <trkpt lat="50.50502" lon="3.39436">
        <ele>27.530893</ele>
        <time>2019-06-06T12:09:40Z</time>
      </trkpt>
      <trkpt lat="50.50492" lon="3.39449">
        <ele>27.421402</ele>
        <time>2019-06-06T12:09:42Z</time>
      </trkpt>
      <trkpt lat="50.5048" lon="3.39459">
        <ele>27.426727</ele>
        <time>2019-06-06T12:09:44Z</time>
      </trkpt>
      <trkpt lat="50.50468" lon="3.39461">
        <ele>27.382797</ele>
        <time>2019-06-06T12:09:46Z</time>
      </trkpt>
      <trkpt lat="50.50456" lon="3.39457">
        <ele>27.311972</ele>
        <time>2019-06-06T12:09:48Z</time>
      </trkpt>
      <trkpt lat="50.50444" lon="3.39447">
        <ele>27.140301</ele>
        <time>2019-06-06T12:09:50Z</time>
      </trkpt>
      <trkpt lat="50.50434" lon="3.39436">
        <ele>27.025723</ele>
        <time>2019-06-06T12:09:52Z</time>
      </trkpt>
      <trkpt lat="50.50424" lon="3.39424">
        <ele>26.904245</ele>
        <time>2019-06-06T12:09:54Z</time>
      </trkpt>
      <trkpt lat="50.50415" lon="3.39411">
        <ele>26.792181</ele>
        <time>2019-06-06T12:09:56Z</time>
      </trkpt>
      <trkpt lat="50.50405" lon="3.39399">
        <ele>26.648447</ele>
        <time>2019-06-06T12:09:58Z</time>
      </trkpt>
      <trkpt lat="50.50398" lon="3.39384">
        <ele>26.510971</ele>
        <time>2019-06-06T12:10:00Z</time>
      </trkpt>
      <trkpt lat="50.5039" lon="3.3937">
        <ele>26.455835</ele>
        <time>2019-06-06T12:10:02Z</time>
      </trkpt>
      <trkpt lat="50.50383" lon="3.39355">
        <ele>26.24197</ele>
        <time>2019-06-06T12:10:04Z</time>
      </trkpt>
      <trkpt lat="50.50375" lon="3.39341">
        <ele>26.035854</ele>
        <time>2019-06-06T12:10:06Z</time>
      </trkpt>
      <trkpt lat="50.50368" lon="3.39327">
        <ele>25.786737</ele>
        <time>2019-06-06T12:10:08Z</time>
      </trkpt>
      <trkpt lat="50.50361" lon="3.39313">
        <ele>25.562904</ele>
        <time>2019-06-06T12:10:10Z</time>
      </trkpt>
      <trkpt lat="50.50353" lon="3.39298">
        <ele>25.265364</ele>
        <time>2019-06-06T12:10:12Z</time>
      </trkpt>
      <trkpt lat="50.50346" lon="3.39284">
        <ele>25.042763</ele>
        <time>2019-06-06T12:10:14Z</time>
      </trkpt>
      <trkpt lat="50.50338" lon="3.39269">
        <ele>24.720898</ele>
        <time>2019-06-06T12:10:16Z</time>
      </trkpt>
      <trkpt lat="50.50331" lon="3.39255">
        <ele>24.570942</ele>
        <time>2019-06-06T12:10:18Z</time>
      </trkpt>
      <trkpt lat="50.50324" lon="3.39241">
        <ele>24.323915</ele>
        <time>2019-06-06T12:10:20Z</time>
      </trkpt>
      <trkpt lat="50.50317" lon="3.39227">
        <ele>24.004429</ele>
        <time>2019-06-06T12:10:22Z</time>
      </trkpt>
      <trkpt lat="50.5031" lon="3.39214">
        <ele>23.7029</ele>
        <time>2019-06-06T12:10:24Z</time>
      </trkpt>
      <trkpt lat="50.50302" lon="3.39201">
        <ele>23.347698</ele>
        <time>2019-06-06T12:10:26Z</time>
      </trkpt>
      <trkpt lat="50.50293" lon="3.39191">
        <ele>23.052807</ele>
        <time>2019-06-06T12:10:28Z</time>
      </trkpt>
      <trkpt lat="50.50284" lon="3.39182">
        <ele>22.759186</ele>
        <time>2019-06-06T12:10:30Z</time>
      </trkpt>
      <trkpt lat="50.50274" lon="3.39178">
        <ele>22.539282</ele>
        <time>2019-06-06T12:10:32Z</time>
      </trkpt>
      <trkpt lat="50.50263" lon="3.39175">
        <ele>22.412258</ele>
        <time>2019-06-06T12:10:34Z</time>
      </trkpt>
      <trkpt lat="50.50252" lon="3.39175">
        <ele>22.119289</ele>
        <time>2019-06-06T12:10:36Z</time>
      </trkpt>
      <trkpt lat="50.50242" lon="3.39175">
        <ele>21.889856</ele>
        <time>2019-06-06T12:10:38Z</time>
      </trkpt>
      <trkpt lat="50.50231" lon="3.39175">
        <ele>21.574995</ele>
        <time>2019-06-06T12:10:40Z</time>
      </trkpt>
      <trkpt lat="50.50221" lon="3.39175">
        <ele>21.31263</ele>
        <time>2019-06-06T12:10:42Z</time>
      </trkpt>
      <trkpt lat="50.5021" lon="3.39175">
        <ele>21.015854</ele>
        <time>2019-06-06T12:10:44Z</time>
      </trkpt>
      <trkpt lat="50.502" lon="3.39175">
        <ele>20.784109</ele>
        <time>2019-06-06T12:10:46Z</time>
      </trkpt>
      <trkpt lat="50.50189" lon="3.39175">
        <ele>20.486273</ele>
        <time>2019-06-06T12:10:48Z</time>
      </trkpt>
      <trkpt lat="50.50178" lon="3.39174">
        <ele>20.251053</ele>
        <time>2019-06-06T12:10:50Z</time>
      </trkpt>
      <trkpt lat="50.50168" lon="3.39175">
        <ele>19.973038</ele>
        <time>2019-06-06T12:10:52Z</time>
      </trkpt>
      <trkpt lat="50.50158" lon="3.39174">
        <ele>19.723215</ele>
        <time>2019-06-06T12:10:54Z</time>
      </trkpt>
      <trkpt lat="50.5015" lon="3.39174">
        <ele>19.468945</ele>
        <time>2019-06-06T12:10:56Z</time>
      </trkpt>
      <trkpt lat="50.50141" lon="3.39174">
        <ele>19.300512</ele>
        <time>2019-06-06T12:10:58Z</time>
      </trkpt>
      <trkpt lat="50.50132" lon="3.39174">
        <ele>19.093582</ele>
        <time>2019-06-06T12:11:00Z</time>
      </trkpt>
      <trkpt lat="50.50122" lon="3.39173">
        <ele>18.993937</ele>
        <time>2019-06-06T12:11:02Z</time>
      </trkpt>
      <trkpt lat="50.50112" lon="3.39172">
        <ele>18.902332</ele>
        <time>2019-06-06T12:11:04Z</time>
      </trkpt>
      <trkpt lat="50.50102" lon="3.39172">
        <ele>18.758411</ele>
        <time>2019-06-06T12:11:06Z</time>
      </trkpt>
      <trkpt lat="50.50092" lon="3.39171">
        <ele>18.675144</ele>
        <time>2019-06-06T12:11:08Z</time>
      </trkpt>
      <trkpt lat="50.50083" lon="3.3917">
        <ele>18.525436</ele>
        <time>2019-06-06T12:11:10Z</time>
      </trkpt>
      <trkpt lat="50.50073" lon="3.39169">
        <ele>18.494211</ele>
        <time>2019-06-06T12:11:12Z</time>
      </trkpt>
      <trkpt lat="50.50064" lon="3.39168">
        <ele>18.345478</ele>
        <time>2019-06-06T12:11:14Z</time>
      </trkpt>
      <trkpt lat="50.50055" lon="3.39167">
        <ele>18.293432</ele>
        <time>2019-06-06T12:11:16Z</time>
      </trkpt>
      <trkpt lat="50.50045" lon="3.39167">
        <ele>18.213223</ele>
        <time>2019-06-06T12:11:18Z</time>
      </trkpt>
      <trkpt lat="50.50036" lon="3.39166">
        <ele>18.202816</ele>
        <time>2019-06-06T12:11:20Z</time>
      </trkpt>
      <trkpt lat="50.50027" lon="3.39165">
        <ele>18.187717</ele>
        <time>2019-06-06T12:11:22Z</time>
      </trkpt>
      <trkpt lat="50.50018" lon="3.39164">
        <ele>18.173145</ele>
        <time>2019-06-06T12:11:24Z</time>
      </trkpt>
      <trkpt lat="50.5001" lon="3.39163">
        <ele>18.216322</ele>
        <time>2019-06-06T12:11:26Z</time>
      </trkpt>
      <trkpt lat="50.50001" lon="3.39162">
        <ele>18.26692</ele>
        <time>2019-06-06T12:11:28Z</time>
      </trkpt>
      <trkpt lat="50.49992" lon="3.39164">
        <ele>18.221132</ele>
        <time>2019-06-06T12:11:30Z</time>
      </trkpt>
      <trkpt lat="50.49983" lon="3.39167">
        <ele>18.291862</ele>
        <time>2019-06-06T12:11:32Z</time>
      </trkpt>
      <trkpt lat="50.49974" lon="3.3917">
        <ele>18.452152</ele>
        <time>2019-06-06T12:11:34Z</time>
      </trkpt>
      <trkpt lat="50.49965" lon="3.39174">
        <ele>18.571678</ele>
        <time>2019-06-06T12:11:36Z</time>
      </trkpt>
      <trkpt lat="50.49957" lon="3.39178">
        <ele>18.673784</ele>
        <time>2019-06-06T12:11:38Z</time>
      </trkpt>
      <trkpt lat="50.49947" lon="3.39183">
        <ele>18.740191</ele>
        <time>2019-06-06T12:11:40Z</time>
      </trkpt>
      <trkpt lat="50.49939" lon="3.39187">
        <ele>18.863609</ele>
        <time>2019-06-06T12:11:42Z</time>
      </trkpt>
      <trkpt lat="50.49929" lon="3.39191">
        <ele>18.913286</ele>
        <time>2019-06-06T12:11:44Z</time>
      </trkpt>
      <trkpt lat="50.4992" lon="3.39196">
        <ele>18.932224</ele>
        <time>2019-06-06T12:11:46Z</time>
      </trkpt>
      <trkpt lat="50.4991" lon="3.392">
        <ele>19.041445</ele>
        <time>2019-06-06T12:11:48Z</time>
      </trkpt>
      <trkpt lat="50.49901" lon="3.39204">
        <ele>19.132816</ele>
        <time>2019-06-06T12:11:50Z</time>
      </trkpt>
      <trkpt lat="50.49892" lon="3.39208">
        <ele>19.232738</ele>
        <time>2019-06-06T12:11:52Z</time>
      </trkpt>
      <trkpt lat="50.49883" lon="3.39213">
        <ele>19.276457</ele>
        <time>2019-06-06T12:11:54Z</time>
      </trkpt>
      <trkpt lat="50.49873" lon="3.39214">
        <ele>19.432686</ele>
        <time>2019-06-06T12:11:56Z</time>
      </trkpt>
      <trkpt lat="50.49863" lon="3.39212">
        <ele>19.493059</ele>
        <time>2019-06-06T12:11:58Z</time>
      </trkpt>
      <trkpt lat="50.49855" lon="3.39203">
        <ele>19.574278</ele>
        <time>2019-06-06T12:12:00Z</time>
      </trkpt>
      <trkpt lat="50.49849" lon="3.39193">
        <ele>19.58885</ele>
        <time>2019-06-06T12:12:02Z</time>
      </trkpt>
      <trkpt lat="50.49843" lon="3.39181">
        <ele>19.631853</ele>
        <time>2019-06-06T12:12:04Z</time>
      </trkpt>
      <trkpt lat="50.49837" lon="3.39169">
        <ele>19.731779</ele>
        <time>2019-06-06T12:12:06Z</time>
      </trkpt>
      <trkpt lat="50.49831" lon="3.39157">
        <ele>19.730236</ele>
        <time>2019-06-06T12:12:08Z</time>
      </trkpt>
      <trkpt lat="50.49825" lon="3.39144">
        <ele>19.721909</ele>
        <time>2019-06-06T12:12:10Z</time>
      </trkpt>
      <trkpt lat="50.49818" lon="3.39132">
        <ele>19.895227</ele>
        <time>2019-06-06T12:12:12Z</time>
      </trkpt>
      <trkpt lat="50.49812" lon="3.39119">
        <ele>19.931747</ele>
        <time>2019-06-06T12:12:14Z</time>
      </trkpt>
      <trkpt lat="50.49804" lon="3.39107">
        <ele>19.91301</ele>
        <time>2019-06-06T12:12:16Z</time>
      </trkpt>
      <trkpt lat="50.49797" lon="3.39094">
        <ele>19.954916</ele>
        <time>2019-06-06T12:12:18Z</time>
      </trkpt>
      <trkpt lat="50.49789" lon="3.39081">
        <ele>19.969492</ele>
        <time>2019-06-06T12:12:20Z</time>
      </trkpt>
      <trkpt lat="50.49782" lon="3.39068">
        <ele>20.012606</ele>
        <time>2019-06-06T12:12:22Z</time>
      </trkpt>
      <trkpt lat="50.49773" lon="3.39057">
        <ele>20.084875</ele>
        <time>2019-06-06T12:12:24Z</time>
      </trkpt>
      <trkpt lat="50.49764" lon="3.39046">
        <ele>20.125706</ele>
        <time>2019-06-06T12:12:26Z</time>
      </trkpt>
      <trkpt lat="50.49755" lon="3.39037">
        <ele>20.160326</ele>
        <time>2019-06-06T12:12:28Z</time>
      </trkpt>
      <trkpt lat="50.49746" lon="3.39027">
        <ele>20.162487</ele>
        <time>2019-06-06T12:12:30Z</time>
      </trkpt>
      <trkpt lat="50.49736" lon="3.39018">
        <ele>20.156464</ele>
        <time>2019-06-06T12:12:32Z</time>
      </trkpt>
      <trkpt lat="50.49727" lon="3.39009">
        <ele>20.154383</ele>
        <time>2019-06-06T12:12:34Z</time>
      </trkpt>
      <trkpt lat="50.49717" lon="3.38999">
        <ele>20.125427</ele>
        <time>2019-06-06T12:12:36Z</time>
      </trkpt>
      <trkpt lat="50.49709" lon="3.3899">
        <ele>20.143148</ele>
        <time>2019-06-06T12:12:38Z</time>
      </trkpt>
      <trkpt lat="50.49699" lon="3.38981">
        <ele>20.093243</ele>
        <time>2019-06-06T12:12:40Z</time>
      </trkpt>
      <trkpt lat="50.4969" lon="3.38973">
        <ele>20.119497</ele>
        <time>2019-06-06T12:12:42Z</time>
      </trkpt>
      <trkpt lat="50.49681" lon="3.38964">
        <ele>20.128956</ele>
        <time>2019-06-06T12:12:44Z</time>
      </trkpt>
      <trkpt lat="50.49672" lon="3.38955">
        <ele>20.115625</ele>
        <time>2019-06-06T12:12:46Z</time>
      </trkpt>
      <trkpt lat="50.49663" lon="3.38947">
        <ele>20.076069</ele>
        <time>2019-06-06T12:12:48Z</time>
      </trkpt>
      <trkpt lat="50.49654" lon="3.38938">
        <ele>20.110552</ele>
        <time>2019-06-06T12:12:50Z</time>
      </trkpt>
      <trkpt lat="50.49646" lon="3.38929">
        <ele>20.125381</ele>
        <time>2019-06-06T12:12:52Z</time>
      </trkpt>
      <trkpt lat="50.49637" lon="3.38921">
        <ele>20.140633</ele>
        <time>2019-06-06T12:12:54Z</time>
      </trkpt>
      <trkpt lat="50.49628" lon="3.38912">
        <ele>20.121799</ele>
        <time>2019-06-06T12:12:56Z</time>
      </trkpt>
      <trkpt lat="50.49619" lon="3.38903">
        <ele>20.089821</ele>
        <time>2019-06-06T12:12:58Z</time>
      </trkpt>
      <trkpt lat="50.49611" lon="3.38895">
        <ele>20.022062</ele>
        <time>2019-06-06T12:13:00Z</time>
      </trkpt>
      <trkpt lat="50.49601" lon="3.38889">
        <ele>19.937502</ele>
        <time>2019-06-06T12:13:02Z</time>
      </trkpt>
      <trkpt lat="50.49592" lon="3.38887">
        <ele>19.877632</ele>
        <time>2019-06-06T12:13:04Z</time>
      </trkpt>
      <trkpt lat="50.49582" lon="3.38887">
        <ele>19.757093</ele>
        <time>2019-06-06T12:13:06Z</time>
      </trkpt>
      <trkpt lat="50.49571" lon="3.38886">
        <ele>19.71962</ele>
        <time>2019-06-06T12:13:08Z</time>
      </trkpt>
      <trkpt lat="50.49561" lon="3.38885">
        <ele>19.577221</ele>
        <time>2019-06-06T12:13:10Z</time>
      </trkpt>
      <trkpt lat="50.49551" lon="3.38885">
        <ele>19.486223</ele>
        <time>2019-06-06T12:13:12Z</time>
      </trkpt>
      <trkpt lat="50.49541" lon="3.38888">
        <ele>19.450832</ele>
        <time>2019-06-06T12:13:14Z</time>
      </trkpt>
      <trkpt lat="50.49531" lon="3.38893">
        <ele>19.35091</ele>
        <time>2019-06-06T12:13:16Z</time>
      </trkpt>
      <trkpt lat="50.49522" lon="3.38901">
        <ele>19.29023</ele>
        <time>2019-06-06T12:13:18Z</time>
      </trkpt>
      <trkpt lat="50.49514" lon="3.38912">
        <ele>19.153856</ele>
        <time>2019-06-06T12:13:20Z</time>
      </trkpt>
      <trkpt lat="50.49508" lon="3.38926">
        <ele>19.070532</ele>
        <time>2019-06-06T12:13:22Z</time>
      </trkpt>
      <trkpt lat="50.49503" lon="3.38941">
        <ele>18.929047</ele>
        <time>2019-06-06T12:13:24Z</time>
      </trkpt>
      <trkpt lat="50.49497" lon="3.38955">
        <ele>18.887413</ele>
        <time>2019-06-06T12:13:26Z</time>
      </trkpt>
      <trkpt lat="50.4949" lon="3.38969">
        <ele>18.844685</ele>
        <time>2019-06-06T12:13:28Z</time>
      </trkpt>
      <trkpt lat="50.49484" lon="3.38983">
        <ele>18.706873</ele>
        <time>2019-06-06T12:13:30Z</time>
      </trkpt>
      <trkpt lat="50.49478" lon="3.38997">
        <ele>18.554447</ele>
        <time>2019-06-06T12:13:32Z</time>
      </trkpt>
      <trkpt lat="50.49472" lon="3.3901">
        <ele>18.362692</ele>
        <time>2019-06-06T12:13:34Z</time>
      </trkpt>
      <trkpt lat="50.49466" lon="3.39023">
        <ele>18.174381</ele>
        <time>2019-06-06T12:13:36Z</time>
      </trkpt>
      <trkpt lat="50.4946" lon="3.39036">
        <ele>17.987047</ele>
        <time>2019-06-06T12:13:38Z</time>
      </trkpt>
      <trkpt lat="50.49454" lon="3.39047">
        <ele>17.792141</ele>
        <time>2019-06-06T12:13:40Z</time>
      </trkpt>
      <trkpt lat="50.49448" lon="3.3906">
        <ele>17.648527</ele>
        <time>2019-06-06T12:13:42Z</time>
      </trkpt>
      <trkpt lat="50.49442" lon="3.39073">
        <ele>17.599178</ele>
        <time>2019-06-06T12:13:44Z</time>
      </trkpt>
      <trkpt lat="50.49436" lon="3.39086">
        <ele>17.456852</ele>
        <time>2019-06-06T12:13:46Z</time>
      </trkpt>
      <trkpt lat="50.49429" lon="3.39099">
        <ele>17.238087</ele>
        <time>2019-06-06T12:13:48Z</time>
      </trkpt>
      <trkpt lat="50.49421" lon="3.39111">
        <ele>17.044529</ele>
        <time>2019-06-06T12:13:50Z</time>
      </trkpt>
      <trkpt lat="50.49413" lon="3.3912">
        <ele>16.893757</ele>
        <time>2019-06-06T12:13:52Z</time>
      </trkpt>
      <trkpt lat="50.49403" lon="3.39128">
        <ele>16.785915</ele>
        <time>2019-06-06T12:13:54Z</time>
      </trkpt>
      <trkpt lat="50.49393" lon="3.39134">
        <ele>16.726641</ele>
        <time>2019-06-06T12:13:56Z</time>
      </trkpt>
      <trkpt lat="50.49384" lon="3.39141">
        <ele>16.614246</ele>
        <time>2019-06-06T12:13:58Z</time>
      </trkpt>
      <trkpt lat="50.49375" lon="3.39148">
        <ele>16.561253</ele>
        <time>2019-06-06T12:14:00Z</time>
      </trkpt>
      <trkpt lat="50.49366" lon="3.39154">
        <ele>16.529041</ele>
        <time>2019-06-06T12:14:02Z</time>
      </trkpt>
      <trkpt lat="50.49358" lon="3.3916">
        <ele>16.539721</ele>
        <time>2019-06-06T12:14:04Z</time>
      </trkpt>
      <trkpt lat="50.4935" lon="3.39166">
        <ele>16.589676</ele>
        <time>2019-06-06T12:14:06Z</time>
      </trkpt>
      <trkpt lat="50.49342" lon="3.39173">
        <ele>16.611233</ele>
        <time>2019-06-06T12:14:08Z</time>
      </trkpt>
      <trkpt lat="50.49333" lon="3.39179">
        <ele>16.629297</ele>
        <time>2019-06-06T12:14:10Z</time>
      </trkpt>
      <trkpt lat="50.49324" lon="3.39185">
        <ele>16.740046</ele>
        <time>2019-06-06T12:14:12Z</time>
      </trkpt>
      <trkpt lat="50.49315" lon="3.39191">
        <ele>16.857544</ele>
        <time>2019-06-06T12:14:14Z</time>
      </trkpt>
      <trkpt lat="50.49307" lon="3.39198">
        <ele>17.076107</ele>
        <time>2019-06-06T12:14:16Z</time>
      </trkpt>
      <trkpt lat="50.49298" lon="3.39205">
        <ele>17.276733</ele>
        <time>2019-06-06T12:14:18Z</time>
      </trkpt>
      <trkpt lat="50.4929" lon="3.39212">
        <ele>17.495296</ele>
        <time>2019-06-06T12:14:20Z</time>
      </trkpt>
      <trkpt lat="50.49281" lon="3.3922">
        <ele>17.641003</ele>
        <time>2019-06-06T12:14:22Z</time>
      </trkpt>
      <trkpt lat="50.49273" lon="3.3923">
        <ele>17.882473</ele>
        <time>2019-06-06T12:14:24Z</time>
      </trkpt>
      <trkpt lat="50.49265" lon="3.39241">
        <ele>18.135263</ele>
        <time>2019-06-06T12:14:26Z</time>
      </trkpt>
      <trkpt lat="50.49257" lon="3.39252">
        <ele>18.404377</ele>
        <time>2019-06-06T12:14:28Z</time>
      </trkpt>
      <trkpt lat="50.4925" lon="3.39263">
        <ele>18.710373</ele>
        <time>2019-06-06T12:14:30Z</time>
      </trkpt>
      <trkpt lat="50.49242" lon="3.39274">
        <ele>19.038906</ele>
        <time>2019-06-06T12:14:32Z</time>
      </trkpt>
      <trkpt lat="50.49235" lon="3.39286">
        <ele>19.336761</ele>
        <time>2019-06-06T12:14:34Z</time>
      </trkpt>
      <trkpt lat="50.49228" lon="3.39297">
        <ele>19.5033</ele>
        <time>2019-06-06T12:14:36Z</time>
      </trkpt>
      <trkpt lat="50.49221" lon="3.39308">
        <ele>19.774637</ele>
        <time>2019-06-06T12:14:38Z</time>
      </trkpt>
      <trkpt lat="50.49215" lon="3.39319">
        <ele>20.06193</ele>
        <time>2019-06-06T12:14:40Z</time>
      </trkpt>
      <trkpt lat="50.49208" lon="3.39331">
        <ele>20.373201</ele>
        <time>2019-06-06T12:14:42Z</time>
      </trkpt>
      <trkpt lat="50.49202" lon="3.39345">
        <ele>20.640142</ele>
        <time>2019-06-06T12:14:44Z</time>
      </trkpt>
      <trkpt lat="50.49196" lon="3.39357">
        <ele>20.868889</ele>
        <time>2019-06-06T12:14:46Z</time>
      </trkpt>
      <trkpt lat="50.49191" lon="3.39369">
        <ele>21.075005</ele>
        <time>2019-06-06T12:14:48Z</time>
      </trkpt>
      <trkpt lat="50.49185" lon="3.39382">
        <ele>21.266178</ele>
        <time>2019-06-06T12:14:50Z</time>
      </trkpt>
      <trkpt lat="50.4918" lon="3.39396">
        <ele>21.410099</ele>
        <time>2019-06-06T12:14:52Z</time>
      </trkpt>
      <trkpt lat="50.49175" lon="3.39409">
        <ele>21.495461</ele>
        <time>2019-06-06T12:14:54Z</time>
      </trkpt>
      <trkpt lat="50.4917" lon="3.39424">
        <ele>21.669844</ele>
        <time>2019-06-06T12:14:56Z</time>
      </trkpt>
      <trkpt lat="50.49167" lon="3.39441">
        <ele>21.813513</ele>
        <time>2019-06-06T12:14:58Z</time>
      </trkpt>
      <trkpt lat="50.49163" lon="3.39457">
        <ele>21.933289</ele>
        <time>2019-06-06T12:15:00Z</time>
      </trkpt>
      <trkpt lat="50.49161" lon="3.39473">
        <ele>22.060608</ele>
        <time>2019-06-06T12:15:02Z</time>
      </trkpt>
      <trkpt lat="50.4916" lon="3.3949">
        <ele>22.160557</ele>
        <time>2019-06-06T12:15:04Z</time>
      </trkpt>
      <trkpt lat="50.49158" lon="3.39507">
        <ele>22.25013</ele>
        <time>2019-06-06T12:15:06Z</time>
      </trkpt>
      <trkpt lat="50.49157" lon="3.39524">
        <ele>22.318665</ele>
        <time>2019-06-06T12:15:08Z</time>
      </trkpt>
      <trkpt lat="50.49155" lon="3.39542">
        <ele>22.380016</ele>
        <time>2019-06-06T12:15:10Z</time>
      </trkpt>
      <trkpt lat="50.49154" lon="3.39559">
        <ele>22.40292</ele>
        <time>2019-06-06T12:15:12Z</time>
      </trkpt>
      <trkpt lat="50.49152" lon="3.39576">
        <ele>22.426447</ele>
        <time>2019-06-06T12:15:14Z</time>
      </trkpt>
      <trkpt lat="50.49151" lon="3.39593">
        <ele>22.454338</ele>
        <time>2019-06-06T12:15:16Z</time>
      </trkpt>
      <trkpt lat="50.49148" lon="3.39609">
        <ele>22.441845</ele>
        <time>2019-06-06T12:15:18Z</time>
      </trkpt>
      <trkpt lat="50.49145" lon="3.39626">
        <ele>22.456333</ele>
        <time>2019-06-06T12:15:20Z</time>
      </trkpt>
      <trkpt lat="50.49141" lon="3.39641">
        <ele>22.500065</ele>
        <time>2019-06-06T12:15:22Z</time>
      </trkpt>
      <trkpt lat="50.49135" lon="3.39654">
        <ele>22.488895</ele>
        <time>2019-06-06T12:15:24Z</time>
      </trkpt>
      <trkpt lat="50.49127" lon="3.39664">
        <ele>22.460066</ele>
        <time>2019-06-06T12:15:26Z</time>
      </trkpt>
      <trkpt lat="50.49117" lon="3.39672">
        <ele>22.444843</ele>
        <time>2019-06-06T12:15:28Z</time>
      </trkpt>
      <trkpt lat="50.49107" lon="3.39677">
        <ele>22.416437</ele>
        <time>2019-06-06T12:15:30Z</time>
      </trkpt>
      <trkpt lat="50.49097" lon="3.3968">
        <ele>22.385571</ele>
        <time>2019-06-06T12:15:32Z</time>
      </trkpt>
      <trkpt lat="50.49086" lon="3.39682">
        <ele>22.337421</ele>
        <time>2019-06-06T12:15:34Z</time>
      </trkpt>
      <trkpt lat="50.49076" lon="3.39683">
        <ele>22.285366</ele>
        <time>2019-06-06T12:15:36Z</time>
      </trkpt>
      <trkpt lat="50.49065" lon="3.39685">
        <ele>22.232435</ele>
        <time>2019-06-06T12:15:38Z</time>
      </trkpt>
      <trkpt lat="50.49055" lon="3.39686">
        <ele>22.117634</ele>
        <time>2019-06-06T12:15:40Z</time>
      </trkpt>
      <trkpt lat="50.49044" lon="3.39688">
        <ele>22.054073</ele>
        <time>2019-06-06T12:15:42Z</time>
      </trkpt>
      <trkpt lat="50.49034" lon="3.39689">
        <ele>21.935083</ele>
        <time>2019-06-06T12:15:44Z</time>
      </trkpt>
      <trkpt lat="50.49024" lon="3.39691">
        <ele>21.795277</ele>
        <time>2019-06-06T12:15:46Z</time>
      </trkpt>
      <trkpt lat="50.49014" lon="3.39692">
        <ele>21.587032</ele>
        <time>2019-06-06T12:15:48Z</time>
      </trkpt>
      <trkpt lat="50.49004" lon="3.39693">
        <ele>21.450354</ele>
        <time>2019-06-06T12:15:50Z</time>
      </trkpt>
      <trkpt lat="50.48993" lon="3.39694">
        <ele>21.392054</ele>
        <time>2019-06-06T12:15:52Z</time>
      </trkpt>
      <trkpt lat="50.48983" lon="3.39696">
        <ele>21.26799</ele>
        <time>2019-06-06T12:15:54Z</time>
      </trkpt>
      <trkpt lat="50.48972" lon="3.39697">
        <ele>21.04044</ele>
        <time>2019-06-06T12:15:56Z</time>
      </trkpt>
      <trkpt lat="50.48961" lon="3.39699">
        <ele>20.976746</ele>
        <time>2019-06-06T12:15:58Z</time>
      </trkpt>
      <trkpt lat="50.4895" lon="3.397">
        <ele>20.88097</ele>
        <time>2019-06-06T12:16:00Z</time>
      </trkpt>
      <trkpt lat="50.48939" lon="3.39703">
        <ele>20.783209</ele>
        <time>2019-06-06T12:16:02Z</time>
      </trkpt>
      <trkpt lat="50.48929" lon="3.39706">
        <ele>20.581242</ele>
        <time>2019-06-06T12:16:04Z</time>
      </trkpt>
      <trkpt lat="50.4892" lon="3.39711">
        <ele>20.442499</ele>
        <time>2019-06-06T12:16:06Z</time>
      </trkpt>
      <trkpt lat="50.4891" lon="3.39717">
        <ele>20.407858</ele>
        <time>2019-06-06T12:16:08Z</time>
      </trkpt>
      <trkpt lat="50.48901" lon="3.39724">
        <ele>20.362469</ele>
        <time>2019-06-06T12:16:10Z</time>
      </trkpt>
      <trkpt lat="50.48892" lon="3.39731">
        <ele>20.288853</ele>
        <time>2019-06-06T12:16:12Z</time>
      </trkpt>
      <trkpt lat="50.48883" lon="3.39738">
        <ele>20.165289</ele>
        <time>2019-06-06T12:16:14Z</time>
      </trkpt>
      <trkpt lat="50.48875" lon="3.39745">
        <ele>20.152796</ele>
        <time>2019-06-06T12:16:16Z</time>
      </trkpt>
      <trkpt lat="50.48867" lon="3.39752">
        <ele>20.120401</ele>
        <time>2019-06-06T12:16:18Z</time>
      </trkpt>
      <trkpt lat="50.48859" lon="3.39759">
        <ele>20.042807</ele>
        <time>2019-06-06T12:16:20Z</time>
      </trkpt>
      <trkpt lat="50.48851" lon="3.39767">
        <ele>20.022114</ele>
        <time>2019-06-06T12:16:22Z</time>
      </trkpt>
      <trkpt lat="50.48843" lon="3.39775">
        <ele>19.9557</ele>
        <time>2019-06-06T12:16:24Z</time>
      </trkpt>
      <trkpt lat="50.48835" lon="3.39784">
        <ele>19.884914</ele>
        <time>2019-06-06T12:16:26Z</time>
      </trkpt>
      <trkpt lat="50.48829" lon="3.39794">
        <ele>19.907907</ele>
        <time>2019-06-06T12:16:28Z</time>
      </trkpt>
      <trkpt lat="50.48822" lon="3.39806">
        <ele>19.953705</ele>
        <time>2019-06-06T12:16:30Z</time>
      </trkpt>
      <trkpt lat="50.48817" lon="3.39819">
        <ele>19.972229</ele>
        <time>2019-06-06T12:16:32Z</time>
      </trkpt>
      <trkpt lat="50.48812" lon="3.39833">
        <ele>19.98151</ele>
        <time>2019-06-06T12:16:34Z</time>
      </trkpt>
      <trkpt lat="50.48807" lon="3.39846">
        <ele>19.971317</ele>
        <time>2019-06-06T12:16:36Z</time>
      </trkpt>
      <trkpt lat="50.48803" lon="3.39859">
        <ele>20.023357</ele>
        <time>2019-06-06T12:16:38Z</time>
      </trkpt>
      <trkpt lat="50.488" lon="3.39872">
        <ele>19.968315</ele>
        <time>2019-06-06T12:16:40Z</time>
      </trkpt>
      <trkpt lat="50.48796" lon="3.39884">
        <ele>19.964226</ele>
        <time>2019-06-06T12:16:42Z</time>
      </trkpt>
      <trkpt lat="50.48793" lon="3.39895">
        <ele>19.888868</ele>
        <time>2019-06-06T12:16:44Z</time>
      </trkpt>
      <trkpt lat="50.4879" lon="3.39906">
        <ele>19.906128</ele>
        <time>2019-06-06T12:16:46Z</time>
      </trkpt>
      <trkpt lat="50.48786" lon="3.39916">
        <ele>19.886911</ele>
        <time>2019-06-06T12:16:48Z</time>
      </trkpt>
      <trkpt lat="50.48779" lon="3.3992">
        <ele>19.774582</ele>
        <time>2019-06-06T12:16:50Z</time>
      </trkpt>
      <trkpt lat="50.48771" lon="3.39917">
        <ele>19.684362</ele>
        <time>2019-06-06T12:16:52Z</time>
      </trkpt>
      <trkpt lat="50.48763" lon="3.39911">
        <ele>19.650738</ele>
        <time>2019-06-06T12:16:54Z</time>
      </trkpt>
      <trkpt lat="50.48754" lon="3.39904">
        <ele>19.602465</ele>
        <time>2019-06-06T12:16:56Z</time>
      </trkpt>
      <trkpt lat="50.48745" lon="3.39897">
        <ele>19.571238</ele>
        <time>2019-06-06T12:16:58Z</time>
      </trkpt>
      <trkpt lat="50.48735" lon="3.39889">
        <ele>19.531366</ele>
        <time>2019-06-06T12:17:00Z</time>
      </trkpt>
      <trkpt lat="50.48725" lon="3.39882">
        <ele>19.46925</ele>
        <time>2019-06-06T12:17:02Z</time>
      </trkpt>
      <trkpt lat="50.48716" lon="3.39875">
        <ele>19.429255</ele>
        <time>2019-06-06T12:17:04Z</time>
      </trkpt>
      <trkpt lat="50.48707" lon="3.39866">
        <ele>19.404058</ele>
        <time>2019-06-06T12:17:06Z</time>
      </trkpt>
      <trkpt lat="50.48697" lon="3.39859">
        <ele>19.410305</ele>
        <time>2019-06-06T12:17:08Z</time>
      </trkpt>
      <trkpt lat="50.48688" lon="3.39852">
        <ele>19.404272</ele>
        <time>2019-06-06T12:17:10Z</time>
      </trkpt>
      <trkpt lat="50.48679" lon="3.39844">
        <ele>19.333492</ele>
        <time>2019-06-06T12:17:12Z</time>
      </trkpt>
      <trkpt lat="50.48669" lon="3.39835">
        <ele>19.310806</ele>
        <time>2019-06-06T12:17:14Z</time>
      </trkpt>
      <trkpt lat="50.4866" lon="3.39827">
        <ele>19.23699</ele>
        <time>2019-06-06T12:17:16Z</time>
      </trkpt>
      <trkpt lat="50.4865" lon="3.3982">
        <ele>19.220749</ele>
        <time>2019-06-06T12:17:18Z</time>
      </trkpt>
      <trkpt lat="50.48636" lon="3.39809">
        <ele>19.237375</ele>
        <time>2019-06-06T12:17:21Z</time>
      </trkpt>
      <trkpt lat="50.48626" lon="3.39803">
        <ele>19.246052</ele>
        <time>2019-06-06T12:17:23Z</time>
      </trkpt>
      <trkpt lat="50.48616" lon="3.39798">
        <ele>19.200176</ele>
        <time>2019-06-06T12:17:25Z</time>
      </trkpt>
      <trkpt lat="50.48606" lon="3.39793">
        <ele>19.179205</ele>
        <time>2019-06-06T12:17:27Z</time>
      </trkpt>
      <trkpt lat="50.48596" lon="3.39787">
        <ele>19.180683</ele>
        <time>2019-06-06T12:17:29Z</time>
      </trkpt>
      <trkpt lat="50.48586" lon="3.39782">
        <ele>19.16659</ele>
        <time>2019-06-06T12:17:31Z</time>
      </trkpt>
      <trkpt lat="50.48576" lon="3.39777">
        <ele>19.216202</ele>
        <time>2019-06-06T12:17:33Z</time>
      </trkpt>
      <trkpt lat="50.48565" lon="3.39772">
        <ele>19.097866</ele>
        <time>2019-06-06T12:17:35Z</time>
      </trkpt>
      <trkpt lat="50.48555" lon="3.39766">
        <ele>19.129414</ele>
        <time>2019-06-06T12:17:37Z</time>
      </trkpt>
      <trkpt lat="50.48544" lon="3.39761">
        <ele>19.140928</ele>
        <time>2019-06-06T12:17:39Z</time>
      </trkpt>
      <trkpt lat="50.48534" lon="3.39759">
        <ele>19.167992</ele>
        <time>2019-06-06T12:17:41Z</time>
      </trkpt>
      <trkpt lat="50.48523" lon="3.39761">
        <ele>19.136169</ele>
        <time>2019-06-06T12:17:43Z</time>
      </trkpt>
      <trkpt lat="50.48513" lon="3.39766">
        <ele>19.127703</ele>
        <time>2019-06-06T12:17:45Z</time>
      </trkpt>
      <trkpt lat="50.48502" lon="3.39772">
        <ele>19.118795</ele>
        <time>2019-06-06T12:17:47Z</time>
      </trkpt>
      <trkpt lat="50.48491" lon="3.39777">
        <ele>19.055729</ele>
        <time>2019-06-06T12:17:49Z</time>
      </trkpt>
      <trkpt lat="50.48481" lon="3.39783">
        <ele>18.98646</ele>
        <time>2019-06-06T12:17:51Z</time>
      </trkpt>
      <trkpt lat="50.48471" lon="3.39789">
        <ele>18.936502</ele>
        <time>2019-06-06T12:17:53Z</time>
      </trkpt>
      <trkpt lat="50.4846" lon="3.39794">
        <ele>18.940975</ele>
        <time>2019-06-06T12:17:55Z</time>
      </trkpt>
      <trkpt lat="50.4845" lon="3.398">
        <ele>18.9163</ele>
        <time>2019-06-06T12:17:57Z</time>
      </trkpt>
      <trkpt lat="50.48439" lon="3.39805">
        <ele>18.918468</ele>
        <time>2019-06-06T12:17:59Z</time>
      </trkpt>
      <trkpt lat="50.4843" lon="3.3981">
        <ele>18.835638</ele>
        <time>2019-06-06T12:18:01Z</time>
      </trkpt>
      <trkpt lat="50.4842" lon="3.39815">
        <ele>18.775043</ele>
        <time>2019-06-06T12:18:03Z</time>
      </trkpt>
      <trkpt lat="50.4841" lon="3.3982">
        <ele>18.737574</ele>
        <time>2019-06-06T12:18:05Z</time>
      </trkpt>
      <trkpt lat="50.484" lon="3.39825">
        <ele>18.656042</ele>
        <time>2019-06-06T12:18:07Z</time>
      </trkpt>
      <trkpt lat="50.4839" lon="3.39828">
        <ele>18.60416</ele>
        <time>2019-06-06T12:18:09Z</time>
      </trkpt>
      <trkpt lat="50.4838" lon="3.3983">
        <ele>18.585434</ele>
        <time>2019-06-06T12:18:11Z</time>
      </trkpt>
      <trkpt lat="50.48371" lon="3.39833">
        <ele>18.552124</ele>
        <time>2019-06-06T12:18:13Z</time>
      </trkpt>
      <trkpt lat="50.48364" lon="3.39833">
        <ele>18.456369</ele>
        <time>2019-06-06T12:18:15Z</time>
      </trkpt>
      <trkpt lat="50.48358" lon="3.39826">
        <ele>18.496246</ele>
        <time>2019-06-06T12:18:17Z</time>
      </trkpt>
      <trkpt lat="50.48355" lon="3.39813">
        <ele>18.46084</ele>
        <time>2019-06-06T12:18:19Z</time>
      </trkpt>
      <trkpt lat="50.48352" lon="3.39799">
        <ele>18.369238</ele>
        <time>2019-06-06T12:18:21Z</time>
      </trkpt>
      <trkpt lat="50.48349" lon="3.39784">
        <ele>18.295437</ele>
        <time>2019-06-06T12:18:23Z</time>
      </trkpt>
      <trkpt lat="50.48346" lon="3.39768">
        <ele>18.226999</ele>
        <time>2019-06-06T12:18:25Z</time>
      </trkpt>
      <trkpt lat="50.48342" lon="3.39752">
        <ele>18.206186</ele>
        <time>2019-06-06T12:18:27Z</time>
      </trkpt>
      <trkpt lat="50.48338" lon="3.39735">
        <ele>18.111637</ele>
        <time>2019-06-06T12:18:29Z</time>
      </trkpt>
      <trkpt lat="50.48332" lon="3.39719">
        <ele>18.049788</ele>
        <time>2019-06-06T12:18:31Z</time>
      </trkpt>
      <trkpt lat="50.48327" lon="3.39703">
        <ele>17.990044</ele>
        <time>2019-06-06T12:18:33Z</time>
      </trkpt>
      <trkpt lat="50.48322" lon="3.39687">
        <ele>17.877972</ele>
        <time>2019-06-06T12:18:35Z</time>
      </trkpt>
      <trkpt lat="50.48317" lon="3.39671">
        <ele>17.780453</ele>
        <time>2019-06-06T12:18:37Z</time>
      </trkpt>
      <trkpt lat="50.48311" lon="3.39655">
        <ele>17.651218</ele>
        <time>2019-06-06T12:18:39Z</time>
      </trkpt>
      <trkpt lat="50.48306" lon="3.39641">
        <ele>17.578281</ele>
        <time>2019-06-06T12:18:41Z</time>
      </trkpt>
      <trkpt lat="50.48302" lon="3.39627">
        <ele>17.446239</ele>
        <time>2019-06-06T12:18:43Z</time>
      </trkpt>
      <trkpt lat="50.48297" lon="3.39613">
        <ele>17.321301</ele>
        <time>2019-06-06T12:18:45Z</time>
      </trkpt>
      <trkpt lat="50.48292" lon="3.39599">
        <ele>17.196424</ele>
        <time>2019-06-06T12:18:47Z</time>
      </trkpt>
      <trkpt lat="50.48287" lon="3.39586">
        <ele>17.056984</ele>
        <time>2019-06-06T12:18:49Z</time>
      </trkpt>
      <trkpt lat="50.48283" lon="3.39573">
        <ele>16.911303</ele>
        <time>2019-06-06T12:18:51Z</time>
      </trkpt>
      <trkpt lat="50.48279" lon="3.3956">
        <ele>16.793703</ele>
        <time>2019-06-06T12:18:53Z</time>
      </trkpt>
      <trkpt lat="50.48274" lon="3.39547">
        <ele>16.702126</ele>
        <time>2019-06-06T12:18:55Z</time>
      </trkpt>
      <trkpt lat="50.48268" lon="3.39535">
        <ele>16.562681</ele>
        <time>2019-06-06T12:18:57Z</time>
      </trkpt>
      <trkpt lat="50.48261" lon="3.39524">
        <ele>16.428511</ele>
        <time>2019-06-06T12:18:59Z</time>
      </trkpt>
      <trkpt lat="50.48253" lon="3.39514">
        <ele>16.305717</ele>
        <time>2019-06-06T12:19:01Z</time>
      </trkpt>
      <trkpt lat="50.48246" lon="3.39504">
        <ele>16.157972</ele>
        <time>2019-06-06T12:19:03Z</time>
      </trkpt>
      <trkpt lat="50.48238" lon="3.39495">
        <ele>16.006992</ele>
        <time>2019-06-06T12:19:05Z</time>
      </trkpt>
      <trkpt lat="50.48231" lon="3.39486">
        <ele>15.877962</ele>
        <time>2019-06-06T12:19:07Z</time>
      </trkpt>
      <trkpt lat="50.48224" lon="3.39477">
        <ele>15.705217</ele>
        <time>2019-06-06T12:19:09Z</time>
      </trkpt>
      <trkpt lat="50.48217" lon="3.39468">
        <ele>15.594226</ele>
        <time>2019-06-06T12:19:11Z</time>
      </trkpt>
      <trkpt lat="50.48211" lon="3.3946">
        <ele>15.505315</ele>
        <time>2019-06-06T12:19:13Z</time>
      </trkpt>
      <trkpt lat="50.48204" lon="3.3945">
        <ele>15.462709</ele>
        <time>2019-06-06T12:19:15Z</time>
      </trkpt>
      <trkpt lat="50.48197" lon="3.39442">
        <ele>15.367231</ele>
        <time>2019-06-06T12:19:17Z</time>
      </trkpt>
      <trkpt lat="50.4819" lon="3.39433">
        <ele>15.345045</ele>
        <time>2019-06-06T12:19:19Z</time>
      </trkpt>
      <trkpt lat="50.48183" lon="3.39424">
        <ele>15.265341</ele>
        <time>2019-06-06T12:19:21Z</time>
      </trkpt>
      <trkpt lat="50.48175" lon="3.39415">
        <ele>15.199489</ele>
        <time>2019-06-06T12:19:23Z</time>
      </trkpt>
      <trkpt lat="50.48169" lon="3.39406">
        <ele>15.130345</ele>
        <time>2019-06-06T12:19:25Z</time>
      </trkpt>
      <trkpt lat="50.48162" lon="3.39396">
        <ele>15.106526</ele>
        <time>2019-06-06T12:19:27Z</time>
      </trkpt>
      <trkpt lat="50.48156" lon="3.39384">
        <ele>15.037857</ele>
        <time>2019-06-06T12:19:29Z</time>
      </trkpt>
      <trkpt lat="50.4815" lon="3.39373">
        <ele>15.012888</ele>
        <time>2019-06-06T12:19:31Z</time>
      </trkpt>
      <trkpt lat="50.48145" lon="3.39361">
        <ele>14.984403</ele>
        <time>2019-06-06T12:19:33Z</time>
      </trkpt>
      <trkpt lat="50.4814" lon="3.3935">
        <ele>14.925099</ele>
        <time>2019-06-06T12:19:35Z</time>
      </trkpt>
      <trkpt lat="50.48134" lon="3.39341">
        <ele>14.877645</ele>
        <time>2019-06-06T12:19:37Z</time>
      </trkpt>
      <trkpt lat="50.48127" lon="3.39334">
        <ele>14.819382</ele>
        <time>2019-06-06T12:19:39Z</time>
      </trkpt>
      <trkpt lat="50.48118" lon="3.39329">
        <ele>14.753171</ele>
        <time>2019-06-06T12:19:41Z</time>
      </trkpt>
      <trkpt lat="50.48111" lon="3.39321">
        <ele>14.701149</ele>
        <time>2019-06-06T12:19:43Z</time>
      </trkpt>
      <trkpt lat="50.48105" lon="3.39309">
        <ele>14.643621</ele>
        <time>2019-06-06T12:19:45Z</time>
      </trkpt>
      <trkpt lat="50.48103" lon="3.39295">
        <ele>14.635298</ele>
        <time>2019-06-06T12:19:47Z</time>
      </trkpt>
      <trkpt lat="50.48103" lon="3.3928">
        <ele>14.621631</ele>
        <time>2019-06-06T12:19:49Z</time>
      </trkpt>
      <trkpt lat="50.48102" lon="3.39264">
        <ele>14.594617</ele>
        <time>2019-06-06T12:19:51Z</time>
      </trkpt>
      <trkpt lat="50.48101" lon="3.39248">
        <ele>14.542188</ele>
        <time>2019-06-06T12:19:53Z</time>
      </trkpt>
      <trkpt lat="50.481" lon="3.39232">
        <ele>14.501676</ele>
        <time>2019-06-06T12:19:55Z</time>
      </trkpt>
      <trkpt lat="50.48099" lon="3.39216">
        <ele>14.439642</ele>
        <time>2019-06-06T12:19:57Z</time>
      </trkpt>
      <trkpt lat="50.48098" lon="3.39202">
        <ele>14.41051</ele>
        <time>2019-06-06T12:19:59Z</time>
      </trkpt>
      <trkpt lat="50.48096" lon="3.39188">
        <ele>14.356415</ele>
        <time>2019-06-06T12:20:01Z</time>
      </trkpt>
      <trkpt lat="50.48093" lon="3.39174">
        <ele>14.299524</ele>
        <time>2019-06-06T12:20:03Z</time>
      </trkpt>
      <trkpt lat="50.48089" lon="3.39162">
        <ele>14.28624</ele>
        <time>2019-06-06T12:20:05Z</time>
      </trkpt>
      <trkpt lat="50.48082" lon="3.39151">
        <ele>14.293198</ele>
        <time>2019-06-06T12:20:07Z</time>
      </trkpt>
      <trkpt lat="50.48075" lon="3.3914">
        <ele>14.295279</ele>
        <time>2019-06-06T12:20:09Z</time>
      </trkpt>
      <trkpt lat="50.48066" lon="3.39132">
        <ele>14.300931</ele>
        <time>2019-06-06T12:20:11Z</time>
      </trkpt>
      <trkpt lat="50.48058" lon="3.39121">
        <ele>14.317576</ele>
        <time>2019-06-06T12:20:13Z</time>
      </trkpt>
      <trkpt lat="50.4805" lon="3.39111">
        <ele>14.350223</ele>
        <time>2019-06-06T12:20:15Z</time>
      </trkpt>
      <trkpt lat="50.48042" lon="3.391">
        <ele>14.398082</ele>
        <time>2019-06-06T12:20:17Z</time>
      </trkpt>
      <trkpt lat="50.48034" lon="3.39088">
        <ele>14.472994</ele>
        <time>2019-06-06T12:20:19Z</time>
      </trkpt>
      <trkpt lat="50.48027" lon="3.39077">
        <ele>14.518042</ele>
        <time>2019-06-06T12:20:21Z</time>
      </trkpt>
      <trkpt lat="50.4802" lon="3.39066">
        <ele>14.605438</ele>
        <time>2019-06-06T12:20:23Z</time>
      </trkpt>
      <trkpt lat="50.48013" lon="3.39055">
        <ele>14.684337</ele>
        <time>2019-06-06T12:20:25Z</time>
      </trkpt>
      <trkpt lat="50.48009" lon="3.39049">
        <ele>14.788383</ele>
        <time>2019-06-06T12:20:27Z</time>
      </trkpt>
      <trkpt lat="50.48006" lon="3.39043">
        <ele>14.831576</ele>
        <time>2019-06-06T12:20:29Z</time>
      </trkpt>
      <trkpt lat="50.48003" lon="3.39039">
        <ele>14.913618</ele>
        <time>2019-06-06T12:20:31Z</time>
      </trkpt>
      <trkpt lat="50.48" lon="3.39034">
        <ele>14.984372</ele>
        <time>2019-06-06T12:20:33Z</time>
      </trkpt>
      <trkpt lat="50.47995" lon="3.39027">
        <ele>15.119598</ele>
        <time>2019-06-06T12:20:35Z</time>
      </trkpt>
      <trkpt lat="50.47989" lon="3.39018">
        <ele>15.239337</ele>
        <time>2019-06-06T12:20:37Z</time>
      </trkpt>
      <trkpt lat="50.47983" lon="3.39008">
        <ele>15.378766</ele>
        <time>2019-06-06T12:20:39Z</time>
      </trkpt>
      <trkpt lat="50.47976" lon="3.38998">
        <ele>15.545708</ele>
        <time>2019-06-06T12:20:41Z</time>
      </trkpt>
      <trkpt lat="50.47969" lon="3.38987">
        <ele>15.724675</ele>
        <time>2019-06-06T12:20:43Z</time>
      </trkpt>
      <trkpt lat="50.47961" lon="3.38976">
        <ele>15.887003</ele>
        <time>2019-06-06T12:20:45Z</time>
      </trkpt>
      <trkpt lat="50.47954" lon="3.38965">
        <ele>15.957611</ele>
        <time>2019-06-06T12:20:47Z</time>
      </trkpt>
      <trkpt lat="50.47947" lon="3.38954">
        <ele>16.17078</ele>
        <time>2019-06-06T12:20:49Z</time>
      </trkpt>
      <trkpt lat="50.47939" lon="3.38942">
        <ele>16.251947</ele>
        <time>2019-06-06T12:20:51Z</time>
      </trkpt>
      <trkpt lat="50.47933" lon="3.38928">
        <ele>16.394697</ele>
        <time>2019-06-06T12:20:53Z</time>
      </trkpt>
      <trkpt lat="50.47931" lon="3.38912">
        <ele>16.541264</ele>
        <time>2019-06-06T12:20:55Z</time>
      </trkpt>
      <trkpt lat="50.47931" lon="3.38895">
        <ele>16.694376</ele>
        <time>2019-06-06T12:20:57Z</time>
      </trkpt>
      <trkpt lat="50.47932" lon="3.38879">
        <ele>16.848387</ele>
        <time>2019-06-06T12:20:59Z</time>
      </trkpt>
      <trkpt lat="50.47935" lon="3.38863">
        <ele>16.993382</ele>
        <time>2019-06-06T12:21:01Z</time>
      </trkpt>
      <trkpt lat="50.47938" lon="3.38848">
        <ele>17.141472</ele>
        <time>2019-06-06T12:21:03Z</time>
      </trkpt>
      <trkpt lat="50.4794" lon="3.38834">
        <ele>17.206467</ele>
        <time>2019-06-06T12:21:05Z</time>
      </trkpt>
      <trkpt lat="50.47943" lon="3.38821">
        <ele>17.287638</ele>
        <time>2019-06-06T12:21:07Z</time>
      </trkpt>
      <trkpt lat="50.47945" lon="3.38808">
        <ele>17.384163</ele>
        <time>2019-06-06T12:21:09Z</time>
      </trkpt>
      <trkpt lat="50.47946" lon="3.38795">
        <ele>17.507166</ele>
        <time>2019-06-06T12:21:11Z</time>
      </trkpt>
      <trkpt lat="50.47943" lon="3.38784">
        <ele>17.636251</ele>
        <time>2019-06-06T12:21:13Z</time>
      </trkpt>
      <trkpt lat="50.47937" lon="3.38775">
        <ele>17.704256</ele>
        <time>2019-06-06T12:21:15Z</time>
      </trkpt>
      <trkpt lat="50.47931" lon="3.38765">
        <ele>17.800001</ele>
        <time>2019-06-06T12:21:17Z</time>
      </trkpt>
      <trkpt lat="50.47923" lon="3.38756">
        <ele>17.886711</ele>
        <time>2019-06-06T12:21:19Z</time>
      </trkpt>
      <trkpt lat="50.47916" lon="3.38746">
        <ele>17.978294</ele>
        <time>2019-06-06T12:21:21Z</time>
      </trkpt>
      <trkpt lat="50.47909" lon="3.38736">
        <ele>18.078341</ele>
        <time>2019-06-06T12:21:23Z</time>
      </trkpt>
      <trkpt lat="50.47902" lon="3.38726">
        <ele>18.138704</ele>
        <time>2019-06-06T12:21:25Z</time>
      </trkpt>
      <trkpt lat="50.47895" lon="3.38716">
        <ele>18.159519</ele>
        <time>2019-06-06T12:21:27Z</time>
      </trkpt>
      <trkpt lat="50.47887" lon="3.38706">
        <ele>18.214663</ele>
        <time>2019-06-06T12:21:29Z</time>
      </trkpt>
      <trkpt lat="50.47881" lon="3.38697">
        <ele>18.276167</ele>
        <time>2019-06-06T12:21:31Z</time>
      </trkpt>
      <trkpt lat="50.47874" lon="3.38687">
        <ele>18.330313</ele>
        <time>2019-06-06T12:21:33Z</time>
      </trkpt>
      <trkpt lat="50.47867" lon="3.38678">
        <ele>18.386423</ele>
        <time>2019-06-06T12:21:35Z</time>
      </trkpt>
      <trkpt lat="50.4786" lon="3.38669">
        <ele>18.440472</ele>
        <time>2019-06-06T12:21:37Z</time>
      </trkpt>
      <trkpt lat="50.47854" lon="3.3866">
        <ele>18.470428</ele>
        <time>2019-06-06T12:21:39Z</time>
      </trkpt>
      <trkpt lat="50.47847" lon="3.38651">
        <ele>18.468349</ele>
        <time>2019-06-06T12:21:41Z</time>
      </trkpt>
      <trkpt lat="50.47841" lon="3.38641">
        <ele>18.439903</ele>
        <time>2019-06-06T12:21:43Z</time>
      </trkpt>
      <trkpt lat="50.47834" lon="3.38632">
        <ele>18.429495</ele>
        <time>2019-06-06T12:21:45Z</time>
      </trkpt>
      <trkpt lat="50.47828" lon="3.38623">
        <ele>18.446699</ele>
        <time>2019-06-06T12:21:47Z</time>
      </trkpt>
      <trkpt lat="50.47822" lon="3.38614">
        <ele>18.47584</ele>
        <time>2019-06-06T12:21:49Z</time>
      </trkpt>
      <trkpt lat="50.47815" lon="3.38606">
        <ele>18.490393</ele>
        <time>2019-06-06T12:21:51Z</time>
      </trkpt>
      <trkpt lat="50.47807" lon="3.386">
        <ele>18.435818</ele>
        <time>2019-06-06T12:21:53Z</time>
      </trkpt>
      <trkpt lat="50.47797" lon="3.38598">
        <ele>18.398594</ele>
        <time>2019-06-06T12:21:55Z</time>
      </trkpt>
      <trkpt lat="50.47788" lon="3.38599">
        <ele>18.357643</ele>
        <time>2019-06-06T12:21:57Z</time>
      </trkpt>
      <trkpt lat="50.47779" lon="3.386">
        <ele>18.30077</ele>
        <time>2019-06-06T12:21:59Z</time>
      </trkpt>
      <trkpt lat="50.47769" lon="3.38602">
        <ele>18.234161</ele>
        <time>2019-06-06T12:22:01Z</time>
      </trkpt>
      <trkpt lat="50.47759" lon="3.38604">
        <ele>18.150892</ele>
        <time>2019-06-06T12:22:03Z</time>
      </trkpt>
      <trkpt lat="50.47749" lon="3.38605">
        <ele>18.063471</ele>
        <time>2019-06-06T12:22:05Z</time>
      </trkpt>
      <trkpt lat="50.47739" lon="3.38606">
        <ele>17.990032</ele>
        <time>2019-06-06T12:22:07Z</time>
      </trkpt>
      <trkpt lat="50.4773" lon="3.38607">
        <ele>17.95504</ele>
        <time>2019-06-06T12:22:09Z</time>
      </trkpt>
      <trkpt lat="50.4772" lon="3.38609">
        <ele>17.881285</ele>
        <time>2019-06-06T12:22:11Z</time>
      </trkpt>
      <trkpt lat="50.47711" lon="3.3861">
        <ele>17.847797</ele>
        <time>2019-06-06T12:22:13Z</time>
      </trkpt>
      <trkpt lat="50.47701" lon="3.38612">
        <ele>17.797134</ele>
        <time>2019-06-06T12:22:15Z</time>
      </trkpt>
      <trkpt lat="50.47692" lon="3.38613">
        <ele>17.739788</ele>
        <time>2019-06-06T12:22:17Z</time>
      </trkpt>
      <trkpt lat="50.47682" lon="3.38614">
        <ele>17.657894</ele>
        <time>2019-06-06T12:22:19Z</time>
      </trkpt>
      <trkpt lat="50.47673" lon="3.38615">
        <ele>17.599697</ele>
        <time>2019-06-06T12:22:21Z</time>
      </trkpt>
      <trkpt lat="50.47664" lon="3.38615">
        <ele>17.553539</ele>
        <time>2019-06-06T12:22:23Z</time>
      </trkpt>
      <trkpt lat="50.47657" lon="3.38616">
        <ele>17.50983</ele>
        <time>2019-06-06T12:22:25Z</time>
      </trkpt>
      <trkpt lat="50.47649" lon="3.38616">
        <ele>17.476053</ele>
        <time>2019-06-06T12:22:27Z</time>
      </trkpt>
      <trkpt lat="50.47641" lon="3.38615">
        <ele>17.410501</ele>
        <time>2019-06-06T12:22:29Z</time>
      </trkpt>
      <trkpt lat="50.47633" lon="3.38615">
        <ele>17.371874</ele>
        <time>2019-06-06T12:22:31Z</time>
      </trkpt>
      <trkpt lat="50.47625" lon="3.38614">
        <ele>17.334408</ele>
        <time>2019-06-06T12:22:33Z</time>
      </trkpt>
      <trkpt lat="50.47617" lon="3.38613">
        <ele>17.314365</ele>
        <time>2019-06-06T12:22:35Z</time>
      </trkpt>
      <trkpt lat="50.47609" lon="3.38613">
        <ele>17.287306</ele>
        <time>2019-06-06T12:22:37Z</time>
      </trkpt>
      <trkpt lat="50.47601" lon="3.38612">
        <ele>17.285227</ele>
        <time>2019-06-06T12:22:39Z</time>
      </trkpt>
      <trkpt lat="50.47594" lon="3.38611">
        <ele>17.286726</ele>
        <time>2019-06-06T12:22:41Z</time>
      </trkpt>
      <trkpt lat="50.47586" lon="3.38609">
        <ele>17.282564</ele>
        <time>2019-06-06T12:22:43Z</time>
      </trkpt>
      <trkpt lat="50.47577" lon="3.38607">
        <ele>17.273031</ele>
        <time>2019-06-06T12:22:45Z</time>
      </trkpt>
      <trkpt lat="50.47569" lon="3.38604">
        <ele>17.260544</ele>
        <time>2019-06-06T12:22:47Z</time>
      </trkpt>
      <trkpt lat="50.47561" lon="3.38601">
        <ele>17.258627</ele>
        <time>2019-06-06T12:22:49Z</time>
      </trkpt>
      <trkpt lat="50.47552" lon="3.38598">
        <ele>17.246138</ele>
        <time>2019-06-06T12:22:51Z</time>
      </trkpt>
      <trkpt lat="50.47544" lon="3.38594">
        <ele>17.239101</ele>
        <time>2019-06-06T12:22:53Z</time>
      </trkpt>
      <trkpt lat="50.47535" lon="3.38591">
        <ele>17.241184</ele>
        <time>2019-06-06T12:22:55Z</time>
      </trkpt>
      <trkpt lat="50.47527" lon="3.38587">
        <ele>17.215567</ele>
        <time>2019-06-06T12:22:57Z</time>
      </trkpt>
      <trkpt lat="50.47519" lon="3.38581">
        <ele>17.178104</ele>
        <time>2019-06-06T12:22:59Z</time>
      </trkpt>
      <trkpt lat="50.4751" lon="3.38576">
        <ele>17.179159</ele>
        <time>2019-06-06T12:23:01Z</time>
      </trkpt>
      <trkpt lat="50.47501" lon="3.3857">
        <ele>17.168751</ele>
        <time>2019-06-06T12:23:03Z</time>
      </trkpt>
      <trkpt lat="50.47492" lon="3.38564">
        <ele>17.169626</ele>
        <time>2019-06-06T12:23:05Z</time>
      </trkpt>
      <trkpt lat="50.47483" lon="3.38559">
        <ele>17.182114</ele>
        <time>2019-06-06T12:23:07Z</time>
      </trkpt>
      <trkpt lat="50.47475" lon="3.38553">
        <ele>17.169626</ele>
        <time>2019-06-06T12:23:09Z</time>
      </trkpt>
      <trkpt lat="50.47466" lon="3.38547">
        <ele>17.162268</ele>
        <time>2019-06-06T12:23:11Z</time>
      </trkpt>
      <trkpt lat="50.47458" lon="3.38541">
        <ele>17.187244</ele>
        <time>2019-06-06T12:23:13Z</time>
      </trkpt>
      <trkpt lat="50.47449" lon="3.38536">
        <ele>17.163095</ele>
        <time>2019-06-06T12:23:15Z</time>
      </trkpt>
      <trkpt lat="50.4744" lon="3.3853">
        <ele>17.150608</ele>
        <time>2019-06-06T12:23:17Z</time>
      </trkpt>
      <trkpt lat="50.47432" lon="3.38526">
        <ele>17.140802</ele>
        <time>2019-06-06T12:23:19Z</time>
      </trkpt>
      <trkpt lat="50.47424" lon="3.38521">
        <ele>17.126232</ele>
        <time>2019-06-06T12:23:20Z</time>
      </trkpt>
      <trkpt lat="50.47416" lon="3.38516">
        <ele>17.103565</ele>
        <time>2019-06-06T12:23:23Z</time>
      </trkpt>
      <trkpt lat="50.47408" lon="3.38512">
        <ele>17.088997</ele>
        <time>2019-06-06T12:23:25Z</time>
      </trkpt>
      <trkpt lat="50.47401" lon="3.38507">
        <ele>17.090313</ele>
        <time>2019-06-06T12:23:27Z</time>
      </trkpt>
      <trkpt lat="50.47394" lon="3.38503">
        <ele>17.117371</ele>
        <time>2019-06-06T12:23:29Z</time>
      </trkpt>
      <trkpt lat="50.47389" lon="3.38501">
        <ele>17.123009</ele>
        <time>2019-06-06T12:23:31Z</time>
      </trkpt>
      <trkpt lat="50.47385" lon="3.38498">
        <ele>17.131756</ele>
        <time>2019-06-06T12:23:33Z</time>
      </trkpt>
      <trkpt lat="50.47382" lon="3.38496">
        <ele>17.112747</ele>
        <time>2019-06-06T12:23:35Z</time>
      </trkpt>
      <trkpt lat="50.4738" lon="3.38495">
        <ele>17.123102</ele>
        <time>2019-06-06T12:23:37Z</time>
      </trkpt>
      <trkpt lat="50.47379" lon="3.38494">
        <ele>17.148647</ele>
        <time>2019-06-06T12:23:41Z</time>
      </trkpt>
      <trkpt lat="50.47376" lon="3.38492">
        <ele>17.148647</ele>
        <time>2019-06-06T12:23:43Z</time>
      </trkpt>
      <trkpt lat="50.47371" lon="3.38489">
        <ele>17.122328</ele>
        <time>2019-06-06T12:23:45Z</time>
      </trkpt>
      <trkpt lat="50.47364" lon="3.38486">
        <ele>17.123949</ele>
        <time>2019-06-06T12:23:47Z</time>
      </trkpt>
      <trkpt lat="50.47357" lon="3.38485">
        <ele>17.094301</ele>
        <time>2019-06-06T12:23:49Z</time>
      </trkpt>
      <trkpt lat="50.47351" lon="3.38484">
        <ele>17.059422</ele>
        <time>2019-06-06T12:23:51Z</time>
      </trkpt>
      <trkpt lat="50.47344" lon="3.3848">
        <ele>17.006895</ele>
        <time>2019-06-06T12:23:53Z</time>
      </trkpt>
      <trkpt lat="50.47337" lon="3.38477">
        <ele>16.972805</ele>
        <time>2019-06-06T12:23:55Z</time>
      </trkpt>
      <trkpt lat="50.4733" lon="3.38472">
        <ele>16.981468</ele>
        <time>2019-06-06T12:23:57Z</time>
      </trkpt>
      <trkpt lat="50.47322" lon="3.38468">
        <ele>16.998119</ele>
        <time>2019-06-06T12:23:59Z</time>
      </trkpt>
      <trkpt lat="50.47315" lon="3.38464">
        <ele>17.008247</ele>
        <time>2019-06-06T12:24:01Z</time>
      </trkpt>
      <trkpt lat="50.47306" lon="3.38459">
        <ele>17.037853</ele>
        <time>2019-06-06T12:24:03Z</time>
      </trkpt>
      <trkpt lat="50.47299" lon="3.38455">
        <ele>17.050907</ele>
        <time>2019-06-06T12:24:05Z</time>
      </trkpt>
      <trkpt lat="50.47291" lon="3.38449">
        <ele>17.063847</ele>
        <time>2019-06-06T12:24:07Z</time>
      </trkpt>
      <trkpt lat="50.47283" lon="3.38442">
        <ele>17.076336</ele>
        <time>2019-06-06T12:24:09Z</time>
      </trkpt>
      <trkpt lat="50.47275" lon="3.38435">
        <ele>17.050838</ele>
        <time>2019-06-06T12:24:11Z</time>
      </trkpt>
      <trkpt lat="50.47267" lon="3.38426">
        <ele>17.065535</ele>
        <time>2019-06-06T12:24:13Z</time>
      </trkpt>
      <trkpt lat="50.47259" lon="3.38417">
        <ele>17.091118</ele>
        <time>2019-06-06T12:24:15Z</time>
      </trkpt>
      <trkpt lat="50.47251" lon="3.38408">
        <ele>17.143154</ele>
        <time>2019-06-06T12:24:17Z</time>
      </trkpt>
      <trkpt lat="50.47243" lon="3.38399">
        <ele>17.176662</ele>
        <time>2019-06-06T12:24:19Z</time>
      </trkpt>
      <trkpt lat="50.47235" lon="3.3839">
        <ele>17.200596</ele>
        <time>2019-06-06T12:24:21Z</time>
      </trkpt>
      <trkpt lat="50.47228" lon="3.38381">
        <ele>17.222023</ele>
        <time>2019-06-06T12:24:23Z</time>
      </trkpt>
      <trkpt lat="50.4722" lon="3.38373">
        <ele>17.307362</ele>
        <time>2019-06-06T12:24:25Z</time>
      </trkpt>
      <trkpt lat="50.47213" lon="3.38365">
        <ele>17.353153</ele>
        <time>2019-06-06T12:24:27Z</time>
      </trkpt>
      <trkpt lat="50.47205" lon="3.38356">
        <ele>17.386915</ele>
        <time>2019-06-06T12:24:29Z</time>
      </trkpt>
      <trkpt lat="50.47197" lon="3.38347">
        <ele>17.461845</ele>
        <time>2019-06-06T12:24:31Z</time>
      </trkpt>
      <trkpt lat="50.4719" lon="3.38338">
        <ele>17.54668</ele>
        <time>2019-06-06T12:24:33Z</time>
      </trkpt>
      <trkpt lat="50.47182" lon="3.38329">
        <ele>17.602879</ele>
        <time>2019-06-06T12:24:35Z</time>
      </trkpt>
      <trkpt lat="50.47174" lon="3.38319">
        <ele>17.685015</ele>
        <time>2019-06-06T12:24:37Z</time>
      </trkpt>
      <trkpt lat="50.47166" lon="3.38311">
        <ele>17.681643</ele>
        <time>2019-06-06T12:24:39Z</time>
      </trkpt>
      <trkpt lat="50.47159" lon="3.38302">
        <ele>17.667072</ele>
        <time>2019-06-06T12:24:41Z</time>
      </trkpt>
      <trkpt lat="50.47152" lon="3.38293">
        <ele>17.668724</ele>
        <time>2019-06-06T12:24:43Z</time>
      </trkpt>
      <trkpt lat="50.47144" lon="3.38283">
        <ele>17.639584</ele>
        <time>2019-06-06T12:24:45Z</time>
      </trkpt>
      <trkpt lat="50.47137" lon="3.38273">
        <ele>17.621998</ele>
        <time>2019-06-06T12:24:47Z</time>
      </trkpt>
      <trkpt lat="50.47131" lon="3.38262">
        <ele>17.613346</ele>
        <time>2019-06-06T12:24:49Z</time>
      </trkpt>
      <trkpt lat="50.47122" lon="3.38248">
        <ele>17.582127</ele>
        <time>2019-06-06T12:24:52Z</time>
      </trkpt>
      <trkpt lat="50.47115" lon="3.38235">
        <ele>17.553406</ele>
        <time>2019-06-06T12:24:54Z</time>
      </trkpt>
      <trkpt lat="50.47109" lon="3.38224">
        <ele>17.498898</ele>
        <time>2019-06-06T12:24:56Z</time>
      </trkpt>
      <trkpt lat="50.47103" lon="3.38213">
        <ele>17.466846</ele>
        <time>2019-06-06T12:24:58Z</time>
      </trkpt>
      <trkpt lat="50.47096" lon="3.38203">
        <ele>17.391916</ele>
        <time>2019-06-06T12:25:00Z</time>
      </trkpt>
      <trkpt lat="50.4709" lon="3.38192">
        <ele>17.3375</ele>
        <time>2019-06-06T12:25:02Z</time>
      </trkpt>
      <trkpt lat="50.47084" lon="3.3818">
        <ele>17.308344</ele>
        <time>2019-06-06T12:25:04Z</time>
      </trkpt>
      <trkpt lat="50.47078" lon="3.38169">
        <ele>17.23505</ele>
        <time>2019-06-06T12:25:06Z</time>
      </trkpt>
      <trkpt lat="50.47072" lon="3.38157">
        <ele>17.128902</ele>
        <time>2019-06-06T12:25:08Z</time>
      </trkpt>
      <trkpt lat="50.47066" lon="3.38146">
        <ele>17.059397</ele>
        <time>2019-06-06T12:25:10Z</time>
      </trkpt>
      <trkpt lat="50.4706" lon="3.38134">
        <ele>17.019913</ele>
        <time>2019-06-06T12:25:12Z</time>
      </trkpt>
      <trkpt lat="50.47054" lon="3.38122">
        <ele>16.961636</ele>
        <time>2019-06-06T12:25:14Z</time>
      </trkpt>
      <trkpt lat="50.4705" lon="3.38107">
        <ele>16.859936</ele>
        <time>2019-06-06T12:25:16Z</time>
      </trkpt>
      <trkpt lat="50.47047" lon="3.38093">
        <ele>16.749628</ele>
        <time>2019-06-06T12:25:18Z</time>
      </trkpt>
      <trkpt lat="50.47044" lon="3.38078">
        <ele>16.670588</ele>
        <time>2019-06-06T12:25:20Z</time>
      </trkpt>
      <trkpt lat="50.47041" lon="3.38063">
        <ele>16.649942</ele>
        <time>2019-06-06T12:25:22Z</time>
      </trkpt>
      <trkpt lat="50.47039" lon="3.38049">
        <ele>16.617352</ele>
        <time>2019-06-06T12:25:24Z</time>
      </trkpt>
      <trkpt lat="50.47036" lon="3.38035">
        <ele>16.58642</ele>
        <time>2019-06-06T12:25:26Z</time>
      </trkpt>
      <trkpt lat="50.47033" lon="3.3802">
        <ele>16.538143</ele>
        <time>2019-06-06T12:25:28Z</time>
      </trkpt>
      <trkpt lat="50.47031" lon="3.38006">
        <ele>16.517334</ele>
        <time>2019-06-06T12:25:30Z</time>
      </trkpt>
      <trkpt lat="50.47028" lon="3.37992">
        <ele>16.479538</ele>
        <time>2019-06-06T12:25:32Z</time>
      </trkpt>
      <trkpt lat="50.47026" lon="3.37979">
        <ele>16.415024</ele>
        <time>2019-06-06T12:25:34Z</time>
      </trkpt>
      <trkpt lat="50.47023" lon="3.37965">
        <ele>16.413639</ele>
        <time>2019-06-06T12:25:36Z</time>
      </trkpt>
      <trkpt lat="50.4702" lon="3.37951">
        <ele>16.424311</ele>
        <time>2019-06-06T12:25:38Z</time>
      </trkpt>
      <trkpt lat="50.47018" lon="3.37937">
        <ele>16.389988</ele>
        <time>2019-06-06T12:25:40Z</time>
      </trkpt>
      <trkpt lat="50.47015" lon="3.37923">
        <ele>16.363365</ele>
        <time>2019-06-06T12:25:42Z</time>
      </trkpt>
      <trkpt lat="50.47012" lon="3.37909">
        <ele>16.369911</ele>
        <time>2019-06-06T12:25:44Z</time>
      </trkpt>
      <trkpt lat="50.4701" lon="3.37896">
        <ele>16.362009</ele>
        <time>2019-06-06T12:25:46Z</time>
      </trkpt>
      <trkpt lat="50.47007" lon="3.37882">
        <ele>16.36622</ele>
        <time>2019-06-06T12:25:48Z</time>
      </trkpt>
      <trkpt lat="50.47005" lon="3.37869">
        <ele>16.349781</ele>
        <time>2019-06-06T12:25:50Z</time>
      </trkpt>
      <trkpt lat="50.47002" lon="3.37855">
        <ele>16.366428</ele>
        <time>2019-06-06T12:25:52Z</time>
      </trkpt>
      <trkpt lat="50.46999" lon="3.37842">
        <ele>16.35207</ele>
        <time>2019-06-06T12:25:54Z</time>
      </trkpt>
      <trkpt lat="50.46994" lon="3.37829">
        <ele>16.292522</ele>
        <time>2019-06-06T12:25:56Z</time>
      </trkpt>
      <trkpt lat="50.46989" lon="3.37816">
        <ele>16.317495</ele>
        <time>2019-06-06T12:25:58Z</time>
      </trkpt>
      <trkpt lat="50.46983" lon="3.37804">
        <ele>16.331089</ele>
        <time>2019-06-06T12:26:00Z</time>
      </trkpt>
      <trkpt lat="50.46977" lon="3.37792">
        <ele>16.420582</ele>
        <time>2019-06-06T12:26:02Z</time>
      </trkpt>
      <trkpt lat="50.4697" lon="3.37779">
        <ele>16.414181</ele>
        <time>2019-06-06T12:26:04Z</time>
      </trkpt>
      <trkpt lat="50.46963" lon="3.37767">
        <ele>16.413017</ele>
        <time>2019-06-06T12:26:06Z</time>
      </trkpt>
      <trkpt lat="50.46957" lon="3.37756">
        <ele>16.331856</ele>
        <time>2019-06-06T12:26:08Z</time>
      </trkpt>
      <trkpt lat="50.4695" lon="3.37743">
        <ele>16.342815</ele>
        <time>2019-06-06T12:26:10Z</time>
      </trkpt>
      <trkpt lat="50.46944" lon="3.37732">
        <ele>16.353951</ele>
        <time>2019-06-06T12:26:12Z</time>
      </trkpt>
      <trkpt lat="50.46937" lon="3.37721">
        <ele>16.347708</ele>
        <time>2019-06-06T12:26:14Z</time>
      </trkpt>
      <trkpt lat="50.4693" lon="3.37711">
        <ele>16.357731</ele>
        <time>2019-06-06T12:26:16Z</time>
      </trkpt>
      <trkpt lat="50.46923" lon="3.37701">
        <ele>16.369547</ele>
        <time>2019-06-06T12:26:18Z</time>
      </trkpt>
      <trkpt lat="50.46917" lon="3.37691">
        <ele>16.368023</ele>
        <time>2019-06-06T12:26:20Z</time>
      </trkpt>
      <trkpt lat="50.46911" lon="3.3768">
        <ele>16.311832</ele>
        <time>2019-06-06T12:26:22Z</time>
      </trkpt>
      <trkpt lat="50.46904" lon="3.37669">
        <ele>16.315609</ele>
        <time>2019-06-06T12:26:24Z</time>
      </trkpt>
      <trkpt lat="50.46897" lon="3.3766">
        <ele>16.286472</ele>
        <time>2019-06-06T12:26:26Z</time>
      </trkpt>
      <trkpt lat="50.46891" lon="3.3765">
        <ele>16.226118</ele>
        <time>2019-06-06T12:26:28Z</time>
      </trkpt>
      <trkpt lat="50.46884" lon="3.3764">
        <ele>16.212662</ele>
        <time>2019-06-06T12:26:30Z</time>
      </trkpt>
      <trkpt lat="50.46878" lon="3.3763">
        <ele>16.200022</ele>
        <time>2019-06-06T12:26:32Z</time>
      </trkpt>
      <trkpt lat="50.46871" lon="3.37619">
        <ele>16.214796</ele>
        <time>2019-06-06T12:26:34Z</time>
      </trkpt>
      <trkpt lat="50.46864" lon="3.37607">
        <ele>16.21841</ele>
        <time>2019-06-06T12:26:36Z</time>
      </trkpt>
      <trkpt lat="50.46857" lon="3.37596">
        <ele>16.255871</ele>
        <time>2019-06-06T12:26:38Z</time>
      </trkpt>
      <trkpt lat="50.46851" lon="3.37585">
        <ele>16.277351</ele>
        <time>2019-06-06T12:26:40Z</time>
      </trkpt>
      <trkpt lat="50.46844" lon="3.37574">
        <ele>16.342564</ele>
        <time>2019-06-06T12:26:42Z</time>
      </trkpt>
      <trkpt lat="50.46837" lon="3.37563">
        <ele>16.279491</ele>
        <time>2019-06-06T12:26:44Z</time>
      </trkpt>
      <trkpt lat="50.4683" lon="3.37552">
        <ele>16.328144</ele>
        <time>2019-06-06T12:26:46Z</time>
      </trkpt>
      <trkpt lat="50.46823" lon="3.37541">
        <ele>16.318827</ele>
        <time>2019-06-06T12:26:48Z</time>
      </trkpt>
      <trkpt lat="50.46816" lon="3.3753">
        <ele>16.398283</ele>
        <time>2019-06-06T12:26:50Z</time>
      </trkpt>
      <trkpt lat="50.46809" lon="3.37518">
        <ele>16.393282</ele>
        <time>2019-06-06T12:26:52Z</time>
      </trkpt>
      <trkpt lat="50.46803" lon="3.37507">
        <ele>16.398838</ele>
        <time>2019-06-06T12:26:54Z</time>
      </trkpt>
      <trkpt lat="50.46796" lon="3.37497">
        <ele>16.437681</ele>
        <time>2019-06-06T12:26:56Z</time>
      </trkpt>
      <trkpt lat="50.4679" lon="3.37486">
        <ele>16.467411</ele>
        <time>2019-06-06T12:26:58Z</time>
      </trkpt>
      <trkpt lat="50.46783" lon="3.37474">
        <ele>16.476145</ele>
        <time>2019-06-06T12:27:00Z</time>
      </trkpt>
      <trkpt lat="50.46777" lon="3.37462">
        <ele>16.482813</ele>
        <time>2019-06-06T12:27:02Z</time>
      </trkpt>
      <trkpt lat="50.46772" lon="3.3745">
        <ele>16.486975</ele>
        <time>2019-06-06T12:27:04Z</time>
      </trkpt>
      <trkpt lat="50.46766" lon="3.37438">
        <ele>16.473768</ele>
        <time>2019-06-06T12:27:06Z</time>
      </trkpt>
      <trkpt lat="50.46761" lon="3.37426">
        <ele>16.469606</ele>
        <time>2019-06-06T12:27:08Z</time>
      </trkpt>
      <trkpt lat="50.46756" lon="3.37414">
        <ele>16.482285</ele>
        <time>2019-06-06T12:27:10Z</time>
      </trkpt>
      <trkpt lat="50.46751" lon="3.37401">
        <ele>16.472689</ele>
        <time>2019-06-06T12:27:12Z</time>
      </trkpt>
      <trkpt lat="50.46745" lon="3.37389">
        <ele>16.464365</ele>
        <time>2019-06-06T12:27:14Z</time>
      </trkpt>
      <trkpt lat="50.4674" lon="3.37377">
        <ele>16.483929</ele>
        <time>2019-06-06T12:27:16Z</time>
      </trkpt>
      <trkpt lat="50.46735" lon="3.37364">
        <ele>16.488092</ele>
        <time>2019-06-06T12:27:18Z</time>
      </trkpt>
      <trkpt lat="50.4673" lon="3.3735">
        <ele>16.494465</ele>
        <time>2019-06-06T12:27:20Z</time>
      </trkpt>
      <trkpt lat="50.46726" lon="3.37337">
        <ele>16.458509</ele>
        <time>2019-06-06T12:27:22Z</time>
      </trkpt>
      <trkpt lat="50.46721" lon="3.37324">
        <ele>16.39607</ele>
        <time>2019-06-06T12:27:24Z</time>
      </trkpt>
      <trkpt lat="50.46717" lon="3.37311">
        <ele>16.386967</ele>
        <time>2019-06-06T12:27:26Z</time>
      </trkpt>
      <trkpt lat="50.46713" lon="3.37298">
        <ele>16.384884</ele>
        <time>2019-06-06T12:27:28Z</time>
      </trkpt>
      <trkpt lat="50.46709" lon="3.37285">
        <ele>16.375633</ele>
        <time>2019-06-06T12:27:30Z</time>
      </trkpt>
      <trkpt lat="50.46705" lon="3.37272">
        <ele>16.430233</ele>
        <time>2019-06-06T12:27:32Z</time>
      </trkpt>
      <trkpt lat="50.467" lon="3.37258">
        <ele>16.427074</ele>
        <time>2019-06-06T12:27:34Z</time>
      </trkpt>
      <trkpt lat="50.46696" lon="3.37245">
        <ele>16.414587</ele>
        <time>2019-06-06T12:27:36Z</time>
      </trkpt>
      <trkpt lat="50.46692" lon="3.37232">
        <ele>16.437168</ele>
        <time>2019-06-06T12:27:38Z</time>
      </trkpt>
      <trkpt lat="50.46689" lon="3.3722">
        <ele>16.375435</ele>
        <time>2019-06-06T12:27:40Z</time>
      </trkpt>
      <trkpt lat="50.46685" lon="3.37208">
        <ele>16.371929</ele>
        <time>2019-06-06T12:27:42Z</time>
      </trkpt>
      <trkpt lat="50.46681" lon="3.37195">
        <ele>16.351377</ele>
        <time>2019-06-06T12:27:44Z</time>
      </trkpt>
      <trkpt lat="50.46677" lon="3.37183">
        <ele>16.336807</ele>
        <time>2019-06-06T12:27:46Z</time>
      </trkpt>
      <trkpt lat="50.46673" lon="3.3717">
        <ele>16.3601</ele>
        <time>2019-06-06T12:27:48Z</time>
      </trkpt>
      <trkpt lat="50.46669" lon="3.37158">
        <ele>16.370909</ele>
        <time>2019-06-06T12:27:50Z</time>
      </trkpt>
      <trkpt lat="50.46665" lon="3.37145">
        <ele>16.357285</ele>
        <time>2019-06-06T12:27:52Z</time>
      </trkpt>
      <trkpt lat="50.46661" lon="3.37133">
        <ele>16.359173</ele>
        <time>2019-06-06T12:27:54Z</time>
      </trkpt>
      <trkpt lat="50.46657" lon="3.3712">
        <ele>16.351482</ele>
        <time>2019-06-06T12:27:56Z</time>
      </trkpt>
      <trkpt lat="50.46653" lon="3.37106">
        <ele>16.319454</ele>
        <time>2019-06-06T12:27:58Z</time>
      </trkpt>
      <trkpt lat="50.46649" lon="3.37093">
        <ele>16.278145</ele>
        <time>2019-06-06T12:28:00Z</time>
      </trkpt>
      <trkpt lat="50.46645" lon="3.3708">
        <ele>16.190737</ele>
        <time>2019-06-06T12:28:02Z</time>
      </trkpt>
      <trkpt lat="50.46641" lon="3.37067">
        <ele>16.162632</ele>
        <time>2019-06-06T12:28:04Z</time>
      </trkpt>
      <trkpt lat="50.46637" lon="3.37055">
        <ele>16.096592</ele>
        <time>2019-06-06T12:28:06Z</time>
      </trkpt>
      <trkpt lat="50.46633" lon="3.37042">
        <ele>16.085506</ele>
        <time>2019-06-06T12:28:08Z</time>
      </trkpt>
      <trkpt lat="50.46629" lon="3.37028">
        <ele>16.011997</ele>
        <time>2019-06-06T12:28:10Z</time>
      </trkpt>
      <trkpt lat="50.46625" lon="3.37015">
        <ele>15.954628</ele>
        <time>2019-06-06T12:28:12Z</time>
      </trkpt>
      <trkpt lat="50.4662" lon="3.37002">
        <ele>15.89225</ele>
        <time>2019-06-06T12:28:14Z</time>
      </trkpt>
      <trkpt lat="50.46616" lon="3.36988">
        <ele>15.768883</ele>
        <time>2019-06-06T12:28:16Z</time>
      </trkpt>
      <trkpt lat="50.46612" lon="3.36975">
        <ele>15.640559</ele>
        <time>2019-06-06T12:28:18Z</time>
      </trkpt>
      <trkpt lat="50.46608" lon="3.36962">
        <ele>15.590611</ele>
        <time>2019-06-06T12:28:20Z</time>
      </trkpt>
      <trkpt lat="50.46604" lon="3.36949">
        <ele>15.59949</ele>
        <time>2019-06-06T12:28:22Z</time>
      </trkpt>
      <trkpt lat="50.466" lon="3.36936">
        <ele>15.591166</ele>
        <time>2019-06-06T12:28:24Z</time>
      </trkpt>
      <trkpt lat="50.46596" lon="3.36923">
        <ele>15.540565</ele>
        <time>2019-06-06T12:28:26Z</time>
      </trkpt>
      <trkpt lat="50.46592" lon="3.3691">
        <ele>15.525999</ele>
        <time>2019-06-06T12:28:28Z</time>
      </trkpt>
      <trkpt lat="50.46587" lon="3.36897">
        <ele>15.501192</ele>
        <time>2019-06-06T12:28:30Z</time>
      </trkpt>
      <trkpt lat="50.46583" lon="3.36883">
        <ele>15.47072</ele>
        <time>2019-06-06T12:28:32Z</time>
      </trkpt>
      <trkpt lat="50.46579" lon="3.3687">
        <ele>15.444386</ele>
        <time>2019-06-06T12:28:34Z</time>
      </trkpt>
      <trkpt lat="50.46575" lon="3.36856">
        <ele>15.465347</ele>
        <time>2019-06-06T12:28:36Z</time>
      </trkpt>
      <trkpt lat="50.46571" lon="3.36843">
        <ele>15.473041</ele>
        <time>2019-06-06T12:28:38Z</time>
      </trkpt>
      <trkpt lat="50.46565" lon="3.3683">
        <ele>15.483446</ele>
        <time>2019-06-06T12:28:40Z</time>
      </trkpt>
      <trkpt lat="50.46559" lon="3.36818">
        <ele>15.490254</ele>
        <time>2019-06-06T12:28:42Z</time>
      </trkpt>
      <trkpt lat="50.46552" lon="3.36807">
        <ele>15.465283</ele>
        <time>2019-06-06T12:28:44Z</time>
      </trkpt>
      <trkpt lat="50.46544" lon="3.36797">
        <ele>15.488726</ele>
        <time>2019-06-06T12:28:46Z</time>
      </trkpt>
      <trkpt lat="50.46536" lon="3.36787">
        <ele>15.480345</ele>
        <time>2019-06-06T12:28:48Z</time>
      </trkpt>
      <trkpt lat="50.46528" lon="3.36778">
        <ele>15.508698</ele>
        <time>2019-06-06T12:28:50Z</time>
      </trkpt>
      <trkpt lat="50.4652" lon="3.36768">
        <ele>15.525477</ele>
        <time>2019-06-06T12:28:52Z</time>
      </trkpt>
      <trkpt lat="50.46512" lon="3.36759">
        <ele>15.51589</ele>
        <time>2019-06-06T12:28:54Z</time>
      </trkpt>
      <trkpt lat="50.46505" lon="3.3675">
        <ele>15.506801</ele>
        <time>2019-06-06T12:28:56Z</time>
      </trkpt>
      <trkpt lat="50.46497" lon="3.3674">
        <ele>15.530706</ele>
        <time>2019-06-06T12:28:58Z</time>
      </trkpt>
      <trkpt lat="50.46489" lon="3.36732">
        <ele>15.542399</ele>
        <time>2019-06-06T12:29:00Z</time>
      </trkpt>
      <trkpt lat="50.46481" lon="3.36727">
        <ele>15.552084</ele>
        <time>2019-06-06T12:29:02Z</time>
      </trkpt>
      <trkpt lat="50.46471" lon="3.36723">
        <ele>15.483416</ele>
        <time>2019-06-06T12:29:04Z</time>
      </trkpt>
      <trkpt lat="50.46462" lon="3.36721">
        <ele>15.409993</ele>
        <time>2019-06-06T12:29:06Z</time>
      </trkpt>
      <trkpt lat="50.46452" lon="3.36716">
        <ele>15.305951</ele>
        <time>2019-06-06T12:29:08Z</time>
      </trkpt>
      <trkpt lat="50.46444" lon="3.36707">
        <ele>15.250696</ele>
        <time>2019-06-06T12:29:10Z</time>
      </trkpt>
      <trkpt lat="50.46438" lon="3.36696">
        <ele>15.127767</ele>
        <time>2019-06-06T12:29:12Z</time>
      </trkpt>
      <trkpt lat="50.46432" lon="3.36683">
        <ele>15.073973</ele>
        <time>2019-06-06T12:29:14Z</time>
      </trkpt>
      <trkpt lat="50.46427" lon="3.3667">
        <ele>14.96427</ele>
        <time>2019-06-06T12:29:16Z</time>
      </trkpt>
      <trkpt lat="50.46422" lon="3.36656">
        <ele>14.862422</ele>
        <time>2019-06-06T12:29:18Z</time>
      </trkpt>
      <trkpt lat="50.46417" lon="3.36643">
        <ele>14.725317</ele>
        <time>2019-06-06T12:29:20Z</time>
      </trkpt>
      <trkpt lat="50.46411" lon="3.3663">
        <ele>14.605281</ele>
        <time>2019-06-06T12:29:21Z</time>
      </trkpt>
      <trkpt lat="50.46405" lon="3.36616">
        <ele>14.5491</ele>
        <time>2019-06-06T12:29:24Z</time>
      </trkpt>
      <trkpt lat="50.464" lon="3.36602">
        <ele>14.417232</ele>
        <time>2019-06-06T12:29:26Z</time>
      </trkpt>
      <trkpt lat="50.46394" lon="3.36588">
        <ele>14.308329</ele>
        <time>2019-06-06T12:29:28Z</time>
      </trkpt>
      <trkpt lat="50.46388" lon="3.36574">
        <ele>14.149641</ele>
        <time>2019-06-06T12:29:30Z</time>
      </trkpt>
      <trkpt lat="50.46383" lon="3.3656">
        <ele>13.999204</ele>
        <time>2019-06-06T12:29:32Z</time>
      </trkpt>
      <trkpt lat="50.46377" lon="3.36546">
        <ele>13.938861</ele>
        <time>2019-06-06T12:29:34Z</time>
      </trkpt>
      <trkpt lat="50.4637" lon="3.36532">
        <ele>13.842793</ele>
        <time>2019-06-06T12:29:36Z</time>
      </trkpt>
      <trkpt lat="50.46364" lon="3.36518">
        <ele>13.793215</ele>
        <time>2019-06-06T12:29:38Z</time>
      </trkpt>
      <trkpt lat="50.46357" lon="3.36505">
        <ele>13.755528</ele>
        <time>2019-06-06T12:29:40Z</time>
      </trkpt>
      <trkpt lat="50.46349" lon="3.36493">
        <ele>13.641658</ele>
        <time>2019-06-06T12:29:42Z</time>
      </trkpt>
      <trkpt lat="50.46343" lon="3.36481">
        <ele>13.602916</ele>
        <time>2019-06-06T12:29:44Z</time>
      </trkpt>
      <trkpt lat="50.46336" lon="3.36468">
        <ele>13.581105</ele>
        <time>2019-06-06T12:29:46Z</time>
      </trkpt>
      <trkpt lat="50.46328" lon="3.36456">
        <ele>13.591509</ele>
        <time>2019-06-06T12:29:48Z</time>
      </trkpt>
      <trkpt lat="50.46322" lon="3.36445">
        <ele>13.534281</ele>
        <time>2019-06-06T12:29:50Z</time>
      </trkpt>
      <trkpt lat="50.46315" lon="3.36433">
        <ele>13.536589</ele>
        <time>2019-06-06T12:29:52Z</time>
      </trkpt>
      <trkpt lat="50.46309" lon="3.36421">
        <ele>13.506533</ele>
        <time>2019-06-06T12:29:54Z</time>
      </trkpt>
      <trkpt lat="50.46302" lon="3.3641">
        <ele>13.502371</ele>
        <time>2019-06-06T12:29:56Z</time>
      </trkpt>
      <trkpt lat="50.46296" lon="3.36399">
        <ele>13.497066</ele>
        <time>2019-06-06T12:29:58Z</time>
      </trkpt>
      <trkpt lat="50.46289" lon="3.36388">
        <ele>13.489459</ele>
        <time>2019-06-06T12:30:00Z</time>
      </trkpt>
      <trkpt lat="50.46283" lon="3.36377">
        <ele>13.515863</ele>
        <time>2019-06-06T12:30:02Z</time>
      </trkpt>
      <trkpt lat="50.46277" lon="3.36366">
        <ele>13.506055</ele>
        <time>2019-06-06T12:30:04Z</time>
      </trkpt>
      <trkpt lat="50.46271" lon="3.36356">
        <ele>13.513725</ele>
        <time>2019-06-06T12:30:06Z</time>
      </trkpt>
      <trkpt lat="50.46264" lon="3.36345">
        <ele>13.561627</ele>
        <time>2019-06-06T12:30:08Z</time>
      </trkpt>
      <trkpt lat="50.46257" lon="3.36335">
        <ele>13.618429</ele>
        <time>2019-06-06T12:30:10Z</time>
      </trkpt>
      <trkpt lat="50.4625" lon="3.36325">
        <ele>13.702362</ele>
        <time>2019-06-06T12:30:12Z</time>
      </trkpt>
      <trkpt lat="50.46243" lon="3.36316">
        <ele>13.81703</ele>
        <time>2019-06-06T12:30:14Z</time>
      </trkpt>
      <trkpt lat="50.46236" lon="3.36306">
        <ele>13.915812</ele>
        <time>2019-06-06T12:30:16Z</time>
      </trkpt>
      <trkpt lat="50.46228" lon="3.36297">
        <ele>14.036501</ele>
        <time>2019-06-06T12:30:18Z</time>
      </trkpt>
      <trkpt lat="50.46222" lon="3.36288">
        <ele>14.110148</ele>
        <time>2019-06-06T12:30:20Z</time>
      </trkpt>
      <trkpt lat="50.46215" lon="3.3628">
        <ele>14.197171</ele>
        <time>2019-06-06T12:30:22Z</time>
      </trkpt>
      <trkpt lat="50.46208" lon="3.36272">
        <ele>14.300159</ele>
        <time>2019-06-06T12:30:24Z</time>
      </trkpt>
      <trkpt lat="50.46201" lon="3.36264">
        <ele>14.342142</ele>
        <time>2019-06-06T12:30:26Z</time>
      </trkpt>
      <trkpt lat="50.46195" lon="3.36256">
        <ele>14.429484</ele>
        <time>2019-06-06T12:30:28Z</time>
      </trkpt>
      <trkpt lat="50.46188" lon="3.36247">
        <ele>14.500476</ele>
        <time>2019-06-06T12:30:30Z</time>
      </trkpt>
      <trkpt lat="50.4618" lon="3.36238">
        <ele>14.563705</ele>
        <time>2019-06-06T12:30:32Z</time>
      </trkpt>
      <trkpt lat="50.46172" lon="3.36229">
        <ele>14.663971</ele>
        <time>2019-06-06T12:30:34Z</time>
      </trkpt>
      <trkpt lat="50.46164" lon="3.3622">
        <ele>14.752684</ele>
        <time>2019-06-06T12:30:36Z</time>
      </trkpt>
      <trkpt lat="50.46156" lon="3.36211">
        <ele>14.792923</ele>
        <time>2019-06-06T12:30:38Z</time>
      </trkpt>
      <trkpt lat="50.46148" lon="3.36202">
        <ele>14.83754</ele>
        <time>2019-06-06T12:30:40Z</time>
      </trkpt>
      <trkpt lat="50.4614" lon="3.36193">
        <ele>14.850594</ele>
        <time>2019-06-06T12:30:42Z</time>
      </trkpt>
      <trkpt lat="50.46132" lon="3.36183">
        <ele>14.866725</ele>
        <time>2019-06-06T12:30:44Z</time>
      </trkpt>
      <trkpt lat="50.46124" lon="3.36173">
        <ele>14.84301</ele>
        <time>2019-06-06T12:30:46Z</time>
      </trkpt>
      <trkpt lat="50.46116" lon="3.36163">
        <ele>14.831004</ele>
        <time>2019-06-06T12:30:48Z</time>
      </trkpt>
      <trkpt lat="50.46108" lon="3.36154">
        <ele>14.774442</ele>
        <time>2019-06-06T12:30:50Z</time>
      </trkpt>
      <trkpt lat="50.461" lon="3.36144">
        <ele>14.69294</ele>
        <time>2019-06-06T12:30:51Z</time>
      </trkpt>
      <trkpt lat="50.46093" lon="3.36134">
        <ele>14.628438</ele>
        <time>2019-06-06T12:30:54Z</time>
      </trkpt>
      <trkpt lat="50.46085" lon="3.36125">
        <ele>14.54225</ele>
        <time>2019-06-06T12:30:56Z</time>
      </trkpt>
      <trkpt lat="50.46078" lon="3.36116">
        <ele>14.455419</ele>
        <time>2019-06-06T12:30:58Z</time>
      </trkpt>
      <trkpt lat="50.46071" lon="3.36107">
        <ele>14.372187</ele>
        <time>2019-06-06T12:31:00Z</time>
      </trkpt>
      <trkpt lat="50.46065" lon="3.36099">
        <ele>14.270854</ele>
        <time>2019-06-06T12:31:02Z</time>
      </trkpt>
      <trkpt lat="50.46058" lon="3.3609">
        <ele>14.16799</ele>
        <time>2019-06-06T12:31:04Z</time>
      </trkpt>
      <trkpt lat="50.46052" lon="3.36081">
        <ele>14.068851</ele>
        <time>2019-06-06T12:31:06Z</time>
      </trkpt>
      <trkpt lat="50.46045" lon="3.36071">
        <ele>13.950371</ele>
        <time>2019-06-06T12:31:08Z</time>
      </trkpt>
      <trkpt lat="50.46038" lon="3.36062">
        <ele>13.852781</ele>
        <time>2019-06-06T12:31:10Z</time>
      </trkpt>
      <trkpt lat="50.46031" lon="3.36052">
        <ele>13.77099</ele>
        <time>2019-06-06T12:31:12Z</time>
      </trkpt>
      <trkpt lat="50.46025" lon="3.36042">
        <ele>13.76891</ele>
        <time>2019-06-06T12:31:14Z</time>
      </trkpt>
      <trkpt lat="50.46018" lon="3.36032">
        <ele>13.681859</ele>
        <time>2019-06-06T12:31:16Z</time>
      </trkpt>
      <trkpt lat="50.46011" lon="3.36023">
        <ele>13.6024</ele>
        <time>2019-06-06T12:31:18Z</time>
      </trkpt>
      <trkpt lat="50.46005" lon="3.36013">
        <ele>13.59628</ele>
        <time>2019-06-06T12:31:20Z</time>
      </trkpt>
      <trkpt lat="50.45997" lon="3.36005">
        <ele>13.613092</ele>
        <time>2019-06-06T12:31:22Z</time>
      </trkpt>
      <trkpt lat="50.4599" lon="3.35995">
        <ele>13.665331</ele>
        <time>2019-06-06T12:31:24Z</time>
      </trkpt>
      <trkpt lat="50.45984" lon="3.35986">
        <ele>13.663185</ele>
        <time>2019-06-06T12:31:26Z</time>
      </trkpt>
      <trkpt lat="50.45976" lon="3.35976">
        <ele>13.746828</ele>
        <time>2019-06-06T12:31:28Z</time>
      </trkpt>
      <trkpt lat="50.45969" lon="3.35967">
        <ele>13.871201</ele>
        <time>2019-06-06T12:31:30Z</time>
      </trkpt>
      <trkpt lat="50.45961" lon="3.35957">
        <ele>13.904315</ele>
        <time>2019-06-06T12:31:32Z</time>
      </trkpt>
      <trkpt lat="50.45955" lon="3.35947">
        <ele>14.058289</ele>
        <time>2019-06-06T12:31:34Z</time>
      </trkpt>
      <trkpt lat="50.45948" lon="3.35938">
        <ele>14.157457</ele>
        <time>2019-06-06T12:31:36Z</time>
      </trkpt>
      <trkpt lat="50.45941" lon="3.35929">
        <ele>14.250366</ele>
        <time>2019-06-06T12:31:38Z</time>
      </trkpt>
      <trkpt lat="50.45935" lon="3.35921">
        <ele>14.336827</ele>
        <time>2019-06-06T12:31:40Z</time>
      </trkpt>
      <trkpt lat="50.45929" lon="3.35914">
        <ele>14.448423</ele>
        <time>2019-06-06T12:31:42Z</time>
      </trkpt>
      <trkpt lat="50.45922" lon="3.35916">
        <ele>14.541597</ele>
        <time>2019-06-06T12:31:44Z</time>
      </trkpt>
      <trkpt lat="50.45915" lon="3.35923">
        <ele>14.657552</ele>
        <time>2019-06-06T12:31:46Z</time>
      </trkpt>
      <trkpt lat="50.45908" lon="3.35932">
        <ele>14.695005</ele>
        <time>2019-06-06T12:31:48Z</time>
      </trkpt>
      <trkpt lat="50.459" lon="3.35941">
        <ele>14.776347</ele>
        <time>2019-06-06T12:31:50Z</time>
      </trkpt>
      <trkpt lat="50.45893" lon="3.35949">
        <ele>14.847682</ele>
        <time>2019-06-06T12:31:52Z</time>
      </trkpt>
      <trkpt lat="50.45885" lon="3.35957">
        <ele>14.878894</ele>
        <time>2019-06-06T12:31:54Z</time>
      </trkpt>
      <trkpt lat="50.45876" lon="3.35964">
        <ele>14.913127</ele>
        <time>2019-06-06T12:31:56Z</time>
      </trkpt>
      <trkpt lat="50.45868" lon="3.35971">
        <ele>15.009333</ele>
        <time>2019-06-06T12:31:58Z</time>
      </trkpt>
      <trkpt lat="50.4586" lon="3.35978">
        <ele>15.075918</ele>
        <time>2019-06-06T12:32:00Z</time>
      </trkpt>
      <trkpt lat="50.45851" lon="3.35984">
        <ele>15.110843</ele>
        <time>2019-06-06T12:32:02Z</time>
      </trkpt>
      <trkpt lat="50.45842" lon="3.35992">
        <ele>15.11474</ele>
        <time>2019-06-06T12:32:04Z</time>
      </trkpt>
      <trkpt lat="50.45835" lon="3.36">
        <ele>15.153345</ele>
        <time>2019-06-06T12:32:06Z</time>
      </trkpt>
      <trkpt lat="50.45828" lon="3.3601">
        <ele>15.176201</ele>
        <time>2019-06-06T12:32:08Z</time>
      </trkpt>
      <trkpt lat="50.4582" lon="3.36018">
        <ele>15.20117</ele>
        <time>2019-06-06T12:32:10Z</time>
      </trkpt>
      <trkpt lat="50.45812" lon="3.36028">
        <ele>15.209804</ele>
        <time>2019-06-06T12:32:12Z</time>
      </trkpt>
      <trkpt lat="50.45804" lon="3.36037">
        <ele>15.177183</ele>
        <time>2019-06-06T12:32:14Z</time>
      </trkpt>
      <trkpt lat="50.45797" lon="3.36046">
        <ele>15.19383</ele>
        <time>2019-06-06T12:32:16Z</time>
      </trkpt>
      <trkpt lat="50.45789" lon="3.36056">
        <ele>15.189003</ele>
        <time>2019-06-06T12:32:18Z</time>
      </trkpt>
      <trkpt lat="50.45782" lon="3.36065">
        <ele>15.189682</ele>
        <time>2019-06-06T12:32:20Z</time>
      </trkpt>
      <trkpt lat="50.45774" lon="3.36075">
        <ele>15.223238</ele>
        <time>2019-06-06T12:32:21Z</time>
      </trkpt>
      <trkpt lat="50.45763" lon="3.3609">
        <ele>15.224002</ele>
        <time>2019-06-06T12:32:25Z</time>
      </trkpt>
      <trkpt lat="50.45757" lon="3.36104">
        <ele>15.235721</ele>
        <time>2019-06-06T12:32:27Z</time>
      </trkpt>
      <trkpt lat="50.45752" lon="3.36119">
        <ele>15.214911</ele>
        <time>2019-06-06T12:32:29Z</time>
      </trkpt>
      <trkpt lat="50.45747" lon="3.36135">
        <ele>15.156771</ele>
        <time>2019-06-06T12:32:31Z</time>
      </trkpt>
      <trkpt lat="50.45741" lon="3.36149">
        <ele>15.154689</ele>
        <time>2019-06-06T12:32:33Z</time>
      </trkpt>
      <trkpt lat="50.45735" lon="3.36162">
        <ele>15.141459</ele>
        <time>2019-06-06T12:32:35Z</time>
      </trkpt>
      <trkpt lat="50.45728" lon="3.36175">
        <ele>15.172496</ele>
        <time>2019-06-06T12:32:37Z</time>
      </trkpt>
      <trkpt lat="50.45722" lon="3.36187">
        <ele>15.187709</ele>
        <time>2019-06-06T12:32:39Z</time>
      </trkpt>
      <trkpt lat="50.45716" lon="3.362">
        <ele>15.175224</ele>
        <time>2019-06-06T12:32:41Z</time>
      </trkpt>
      <trkpt lat="50.45709" lon="3.36213">
        <ele>15.199839</ele>
        <time>2019-06-06T12:32:43Z</time>
      </trkpt>
      <trkpt lat="50.45702" lon="3.36225">
        <ele>15.204916</ele>
        <time>2019-06-06T12:32:45Z</time>
      </trkpt>
      <trkpt lat="50.45696" lon="3.36237">
        <ele>15.188535</ele>
        <time>2019-06-06T12:32:47Z</time>
      </trkpt>
      <trkpt lat="50.45688" lon="3.36248">
        <ele>15.245148</ele>
        <time>2019-06-06T12:32:49Z</time>
      </trkpt>
      <trkpt lat="50.4568" lon="3.36258">
        <ele>15.239517</ele>
        <time>2019-06-06T12:32:51Z</time>
      </trkpt>
      <trkpt lat="50.45672" lon="3.36268">
        <ele>15.21915</ele>
        <time>2019-06-06T12:32:53Z</time>
      </trkpt>
      <trkpt lat="50.45664" lon="3.36278">
        <ele>15.230161</ele>
        <time>2019-06-06T12:32:55Z</time>
      </trkpt>
      <trkpt lat="50.45656" lon="3.36288">
        <ele>15.257052</ele>
        <time>2019-06-06T12:32:57Z</time>
      </trkpt>
      <trkpt lat="50.45648" lon="3.36298">
        <ele>15.230512</ele>
        <time>2019-06-06T12:32:59Z</time>
      </trkpt>
      <trkpt lat="50.45641" lon="3.36309">
        <ele>15.262235</ele>
        <time>2019-06-06T12:33:01Z</time>
      </trkpt>
      <trkpt lat="50.45634" lon="3.36319">
        <ele>15.285818</ele>
        <time>2019-06-06T12:33:03Z</time>
      </trkpt>
      <trkpt lat="50.45626" lon="3.36329">
        <ele>15.297571</ele>
        <time>2019-06-06T12:33:05Z</time>
      </trkpt>
      <trkpt lat="50.45619" lon="3.36339">
        <ele>15.309799</ele>
        <time>2019-06-06T12:33:07Z</time>
      </trkpt>
      <trkpt lat="50.45612" lon="3.36348">
        <ele>15.349729</ele>
        <time>2019-06-06T12:33:09Z</time>
      </trkpt>
      <trkpt lat="50.45604" lon="3.36358">
        <ele>15.382406</ele>
        <time>2019-06-06T12:33:11Z</time>
      </trkpt>
      <trkpt lat="50.45597" lon="3.36369">
        <ele>15.444839</ele>
        <time>2019-06-06T12:33:13Z</time>
      </trkpt>
      <trkpt lat="50.45589" lon="3.36379">
        <ele>15.533963</ele>
        <time>2019-06-06T12:33:15Z</time>
      </trkpt>
      <trkpt lat="50.45581" lon="3.3639">
        <ele>15.575583</ele>
        <time>2019-06-06T12:33:17Z</time>
      </trkpt>
      <trkpt lat="50.45574" lon="3.36401">
        <ele>15.64343</ele>
        <time>2019-06-06T12:33:19Z</time>
      </trkpt>
      <trkpt lat="50.45566" lon="3.36412">
        <ele>15.696103</ele>
        <time>2019-06-06T12:33:21Z</time>
      </trkpt>
      <trkpt lat="50.45558" lon="3.36424">
        <ele>15.728754</ele>
        <time>2019-06-06T12:33:23Z</time>
      </trkpt>
      <trkpt lat="50.4555" lon="3.36436">
        <ele>15.77807</ele>
        <time>2019-06-06T12:33:25Z</time>
      </trkpt>
      <trkpt lat="50.45543" lon="3.36449">
        <ele>15.843317</ele>
        <time>2019-06-06T12:33:27Z</time>
      </trkpt>
      <trkpt lat="50.45535" lon="3.36461">
        <ele>15.89326</ele>
        <time>2019-06-06T12:33:29Z</time>
      </trkpt>
      <trkpt lat="50.45527" lon="3.36473">
        <ele>15.964027</ele>
        <time>2019-06-06T12:33:31Z</time>
      </trkpt>
      <trkpt lat="50.45519" lon="3.36485">
        <ele>15.940767</ele>
        <time>2019-06-06T12:33:33Z</time>
      </trkpt>
      <trkpt lat="50.45511" lon="3.36496">
        <ele>15.981909</ele>
        <time>2019-06-06T12:33:35Z</time>
      </trkpt>
      <trkpt lat="50.45504" lon="3.36507">
        <ele>16.026379</ele>
        <time>2019-06-06T12:33:37Z</time>
      </trkpt>
      <trkpt lat="50.45497" lon="3.36517">
        <ele>16.029217</ele>
        <time>2019-06-06T12:33:39Z</time>
      </trkpt>
      <trkpt lat="50.4549" lon="3.36528">
        <ele>16.034275</ele>
        <time>2019-06-06T12:33:41Z</time>
      </trkpt>
      <trkpt lat="50.45483" lon="3.36539">
        <ele>16.06498</ele>
        <time>2019-06-06T12:33:43Z</time>
      </trkpt>
      <trkpt lat="50.45476" lon="3.3655">
        <ele>16.073696</ele>
        <time>2019-06-06T12:33:45Z</time>
      </trkpt>
      <trkpt lat="50.45469" lon="3.36561">
        <ele>16.094509</ele>
        <time>2019-06-06T12:33:47Z</time>
      </trkpt>
      <trkpt lat="50.45461" lon="3.36572">
        <ele>16.10622</ele>
        <time>2019-06-06T12:33:49Z</time>
      </trkpt>
      <trkpt lat="50.45454" lon="3.36584">
        <ele>16.097746</ele>
        <time>2019-06-06T12:33:51Z</time>
      </trkpt>
      <trkpt lat="50.45446" lon="3.36595">
        <ele>16.132732</ele>
        <time>2019-06-06T12:33:53Z</time>
      </trkpt>
      <trkpt lat="50.45439" lon="3.36606">
        <ele>16.130222</ele>
        <time>2019-06-06T12:33:55Z</time>
      </trkpt>
      <trkpt lat="50.45432" lon="3.36618">
        <ele>16.115652</ele>
        <time>2019-06-06T12:33:57Z</time>
      </trkpt>
      <trkpt lat="50.45425" lon="3.36629">
        <ele>16.11965</ele>
        <time>2019-06-06T12:33:59Z</time>
      </trkpt>
      <trkpt lat="50.45417" lon="3.36639">
        <ele>16.127974</ele>
        <time>2019-06-06T12:34:01Z</time>
      </trkpt>
      <trkpt lat="50.4541" lon="3.3665">
        <ele>16.162853</ele>
        <time>2019-06-06T12:34:03Z</time>
      </trkpt>
      <trkpt lat="50.45403" lon="3.36661">
        <ele>16.136505</ele>
        <time>2019-06-06T12:34:05Z</time>
      </trkpt>
      <trkpt lat="50.45396" lon="3.36671">
        <ele>16.147594</ele>
        <time>2019-06-06T12:34:07Z</time>
      </trkpt>
      <trkpt lat="50.45389" lon="3.36682">
        <ele>16.141981</ele>
        <time>2019-06-06T12:34:09Z</time>
      </trkpt>
      <trkpt lat="50.45383" lon="3.36692">
        <ele>16.121387</ele>
        <time>2019-06-06T12:34:11Z</time>
      </trkpt>
      <trkpt lat="50.45376" lon="3.36702">
        <ele>16.099754</ele>
        <time>2019-06-06T12:34:13Z</time>
      </trkpt>
      <trkpt lat="50.4537" lon="3.36711">
        <ele>16.098856</ele>
        <time>2019-06-06T12:34:15Z</time>
      </trkpt>
      <trkpt lat="50.45364" lon="3.36719">
        <ele>16.080114</ele>
        <time>2019-06-06T12:34:17Z</time>
      </trkpt>
      <trkpt lat="50.45358" lon="3.36726">
        <ele>16.059134</ele>
        <time>2019-06-06T12:34:19Z</time>
      </trkpt>
      <trkpt lat="50.45352" lon="3.36731">
        <ele>16.092045</ele>
        <time>2019-06-06T12:34:21Z</time>
      </trkpt>
      <trkpt lat="50.45347" lon="3.36734">
        <ele>16.0996</ele>
        <time>2019-06-06T12:34:23Z</time>
      </trkpt>
      <trkpt lat="50.45342" lon="3.36737">
        <ele>16.127924</ele>
        <time>2019-06-06T12:34:25Z</time>
      </trkpt>
      <trkpt lat="50.45339" lon="3.3674">
        <ele>16.158211</ele>
        <time>2019-06-06T12:34:27Z</time>
      </trkpt>
      <trkpt lat="50.45337" lon="3.36742">
        <ele>16.16457</ele>
        <time>2019-06-06T12:34:29Z</time>
      </trkpt>
      <trkpt lat="50.45335" lon="3.36744">
        <ele>16.19062</ele>
        <time>2019-06-06T12:34:31Z</time>
      </trkpt>
      <trkpt lat="50.45333" lon="3.36747">
        <ele>16.242619</ele>
        <time>2019-06-06T12:34:33Z</time>
      </trkpt>
      <trkpt lat="50.45331" lon="3.36749">
        <ele>16.246929</ele>
        <time>2019-06-06T12:34:35Z</time>
      </trkpt>
      <trkpt lat="50.4533" lon="3.36751">
        <ele>16.236244</ele>
        <time>2019-06-06T12:34:37Z</time>
      </trkpt>
      <trkpt lat="50.4533" lon="3.36748">
        <ele>15.280887</ele>
        <time>2019-06-06T12:36:40Z</time>
      </trkpt>
      <trkpt lat="50.45328" lon="3.36745">
        <ele>14.871495</ele>
        <time>2019-06-06T12:37:05Z</time>
      </trkpt>
      <trkpt lat="50.45321" lon="3.36743">
        <ele>14.854085</ele>
        <time>2019-06-06T12:37:07Z</time>
      </trkpt>
      <trkpt lat="50.45314" lon="3.36743">
        <ele>14.836601</ele>
        <time>2019-06-06T12:37:09Z</time>
      </trkpt>
      <trkpt lat="50.45308" lon="3.3674">
        <ele>14.812284</ele>
        <time>2019-06-06T12:37:11Z</time>
      </trkpt>
      <trkpt lat="50.453" lon="3.36736">
        <ele>14.801424</ele>
        <time>2019-06-06T12:37:13Z</time>
      </trkpt>
      <trkpt lat="50.45293" lon="3.36729">
        <ele>14.828375</ele>
        <time>2019-06-06T12:37:15Z</time>
      </trkpt>
      <trkpt lat="50.45286" lon="3.3672">
        <ele>14.888725</ele>
        <time>2019-06-06T12:37:17Z</time>
      </trkpt>
      <trkpt lat="50.4528" lon="3.36711">
        <ele>14.93414</ele>
        <time>2019-06-06T12:37:19Z</time>
      </trkpt>
      <trkpt lat="50.45273" lon="3.36702">
        <ele>15.008514</ele>
        <time>2019-06-06T12:37:21Z</time>
      </trkpt>
      <trkpt lat="50.45268" lon="3.36693">
        <ele>15.029323</ele>
        <time>2019-06-06T12:37:23Z</time>
      </trkpt>
      <trkpt lat="50.45262" lon="3.36683">
        <ele>15.099915</ele>
        <time>2019-06-06T12:37:25Z</time>
      </trkpt>
      <trkpt lat="50.45256" lon="3.36672">
        <ele>15.243513</ele>
        <time>2019-06-06T12:37:27Z</time>
      </trkpt>
      <trkpt lat="50.4525" lon="3.3666">
        <ele>15.395807</ele>
        <time>2019-06-06T12:37:29Z</time>
      </trkpt>
      <trkpt lat="50.45242" lon="3.36647">
        <ele>15.506819</ele>
        <time>2019-06-06T12:37:31Z</time>
      </trkpt>
      <trkpt lat="50.45234" lon="3.36634">
        <ele>15.56946</ele>
        <time>2019-06-06T12:37:33Z</time>
      </trkpt>
      <trkpt lat="50.45225" lon="3.36621">
        <ele>15.708491</ele>
        <time>2019-06-06T12:37:35Z</time>
      </trkpt>
      <trkpt lat="50.45216" lon="3.36608">
        <ele>15.824069</ele>
        <time>2019-06-06T12:37:37Z</time>
      </trkpt>
      <trkpt lat="50.45207" lon="3.36596">
        <ele>16.004633</ele>
        <time>2019-06-06T12:37:39Z</time>
      </trkpt>
      <trkpt lat="50.45197" lon="3.36585">
        <ele>16.150108</ele>
        <time>2019-06-06T12:37:41Z</time>
      </trkpt>
      <trkpt lat="50.45187" lon="3.36575">
        <ele>16.294031</ele>
        <time>2019-06-06T12:37:43Z</time>
      </trkpt>
      <trkpt lat="50.45176" lon="3.36567">
        <ele>16.47747</ele>
        <time>2019-06-06T12:37:45Z</time>
      </trkpt>
      <trkpt lat="50.45166" lon="3.3656">
        <ele>16.544147</ele>
        <time>2019-06-06T12:37:47Z</time>
      </trkpt>
      <trkpt lat="50.45155" lon="3.36553">
        <ele>16.704819</ele>
        <time>2019-06-06T12:37:49Z</time>
      </trkpt>
      <trkpt lat="50.45144" lon="3.36546">
        <ele>16.861864</ele>
        <time>2019-06-06T12:37:51Z</time>
      </trkpt>
      <trkpt lat="50.45134" lon="3.36539">
        <ele>16.975166</ele>
        <time>2019-06-06T12:37:53Z</time>
      </trkpt>
      <trkpt lat="50.45124" lon="3.36532">
        <ele>17.108835</ele>
        <time>2019-06-06T12:37:55Z</time>
      </trkpt>
      <trkpt lat="50.45114" lon="3.36526">
        <ele>17.23</ele>
        <time>2019-06-06T12:37:57Z</time>
      </trkpt>
      <trkpt lat="50.45104" lon="3.36521">
        <ele>17.341539</ele>
        <time>2019-06-06T12:37:59Z</time>
      </trkpt>
      <trkpt lat="50.45094" lon="3.36514">
        <ele>17.469584</ele>
        <time>2019-06-06T12:38:01Z</time>
      </trkpt>
      <trkpt lat="50.45084" lon="3.36507">
        <ele>17.548674</ele>
        <time>2019-06-06T12:38:03Z</time>
      </trkpt>
      <trkpt lat="50.45075" lon="3.365">
        <ele>17.673416</ele>
        <time>2019-06-06T12:38:05Z</time>
      </trkpt>
      <trkpt lat="50.45065" lon="3.36494">
        <ele>17.707787</ele>
        <time>2019-06-06T12:38:07Z</time>
      </trkpt>
      <trkpt lat="50.45056" lon="3.36487">
        <ele>17.718195</ele>
        <time>2019-06-06T12:38:09Z</time>
      </trkpt>
      <trkpt lat="50.45047" lon="3.36481">
        <ele>17.712006</ele>
        <time>2019-06-06T12:38:11Z</time>
      </trkpt>
      <trkpt lat="50.45038" lon="3.36474">
        <ele>17.709925</ele>
        <time>2019-06-06T12:38:13Z</time>
      </trkpt>
      <trkpt lat="50.45029" lon="3.36468">
        <ele>17.675158</ele>
        <time>2019-06-06T12:38:15Z</time>
      </trkpt>
      <trkpt lat="50.4502" lon="3.36461">
        <ele>17.676907</ele>
        <time>2019-06-06T12:38:17Z</time>
      </trkpt>
      <trkpt lat="50.4501" lon="3.36454">
        <ele>17.718536</ele>
        <time>2019-06-06T12:38:19Z</time>
      </trkpt>
      <trkpt lat="50.45001" lon="3.36447">
        <ele>17.725773</ele>
        <time>2019-06-06T12:38:21Z</time>
      </trkpt>
      <trkpt lat="50.44991" lon="3.3644">
        <ele>17.69347</ele>
        <time>2019-06-06T12:38:23Z</time>
      </trkpt>
      <trkpt lat="50.44982" lon="3.36432">
        <ele>17.693773</ele>
        <time>2019-06-06T12:38:25Z</time>
      </trkpt>
      <trkpt lat="50.44973" lon="3.36423">
        <ele>17.682575</ele>
        <time>2019-06-06T12:38:27Z</time>
      </trkpt>
      <trkpt lat="50.44964" lon="3.36415">
        <ele>17.719618</ele>
        <time>2019-06-06T12:38:29Z</time>
      </trkpt>
      <trkpt lat="50.44955" lon="3.36407">
        <ele>17.722286</ele>
        <time>2019-06-06T12:38:31Z</time>
      </trkpt>
      <trkpt lat="50.44944" lon="3.36403">
        <ele>17.726255</ele>
        <time>2019-06-06T12:38:33Z</time>
      </trkpt>
      <trkpt lat="50.44934" lon="3.36405">
        <ele>17.7523</ele>
        <time>2019-06-06T12:38:35Z</time>
      </trkpt>
      <trkpt lat="50.44923" lon="3.3641">
        <ele>17.77754</ele>
        <time>2019-06-06T12:38:37Z</time>
      </trkpt>
      <trkpt lat="50.44913" lon="3.36416">
        <ele>17.800438</ele>
        <time>2019-06-06T12:38:39Z</time>
      </trkpt>
      <trkpt lat="50.44903" lon="3.36422">
        <ele>17.790943</ele>
        <time>2019-06-06T12:38:41Z</time>
      </trkpt>
      <trkpt lat="50.44893" lon="3.36428">
        <ele>17.79315</ele>
        <time>2019-06-06T12:38:43Z</time>
      </trkpt>
      <trkpt lat="50.44883" lon="3.36434">
        <ele>17.770254</ele>
        <time>2019-06-06T12:38:45Z</time>
      </trkpt>
      <trkpt lat="50.44873" lon="3.3644">
        <ele>17.776114</ele>
        <time>2019-06-06T12:38:47Z</time>
      </trkpt>
      <trkpt lat="50.44862" lon="3.36442">
        <ele>17.814199</ele>
        <time>2019-06-06T12:38:49Z</time>
      </trkpt>
      <trkpt lat="50.44852" lon="3.36442">
        <ele>17.822525</ele>
        <time>2019-06-06T12:38:51Z</time>
      </trkpt>
      <trkpt lat="50.44841" lon="3.3644">
        <ele>17.868507</ele>
        <time>2019-06-06T12:38:53Z</time>
      </trkpt>
      <trkpt lat="50.44831" lon="3.36437">
        <ele>17.870588</ele>
        <time>2019-06-06T12:38:55Z</time>
      </trkpt>
      <trkpt lat="50.4482" lon="3.36434">
        <ele>17.977833</ele>
        <time>2019-06-06T12:38:57Z</time>
      </trkpt>
      <trkpt lat="50.44809" lon="3.36432">
        <ele>17.995884</ele>
        <time>2019-06-06T12:38:59Z</time>
      </trkpt>
      <trkpt lat="50.44799" lon="3.36433">
        <ele>17.985477</ele>
        <time>2019-06-06T12:39:01Z</time>
      </trkpt>
      <trkpt lat="50.44788" lon="3.36435">
        <ele>17.976072</ele>
        <time>2019-06-06T12:39:03Z</time>
      </trkpt>
      <trkpt lat="50.44779" lon="3.36437">
        <ele>18.031212</ele>
        <time>2019-06-06T12:39:05Z</time>
      </trkpt>
      <trkpt lat="50.44769" lon="3.36439">
        <ele>18.03091</ele>
        <time>2019-06-06T12:39:07Z</time>
      </trkpt>
      <trkpt lat="50.44761" lon="3.36436">
        <ele>18.019993</ele>
        <time>2019-06-06T12:39:09Z</time>
      </trkpt>
      <trkpt lat="50.44755" lon="3.36427">
        <ele>17.974983</ele>
        <time>2019-06-06T12:39:11Z</time>
      </trkpt>
      <trkpt lat="50.44749" lon="3.36415">
        <ele>17.959827</ele>
        <time>2019-06-06T12:39:13Z</time>
      </trkpt>
      <trkpt lat="50.44743" lon="3.36402">
        <ele>17.95883</ele>
        <time>2019-06-06T12:39:15Z</time>
      </trkpt>
      <trkpt lat="50.44738" lon="3.36388">
        <ele>17.961693</ele>
        <time>2019-06-06T12:39:17Z</time>
      </trkpt>
      <trkpt lat="50.44733" lon="3.36374">
        <ele>17.958691</ele>
        <time>2019-06-06T12:39:19Z</time>
      </trkpt>
      <trkpt lat="50.44729" lon="3.36359">
        <ele>17.936152</ele>
        <time>2019-06-06T12:39:21Z</time>
      </trkpt>
      <trkpt lat="50.44725" lon="3.36344">
        <ele>17.928223</ele>
        <time>2019-06-06T12:39:23Z</time>
      </trkpt>
      <trkpt lat="50.44721" lon="3.36329">
        <ele>17.899229</ele>
        <time>2019-06-06T12:39:25Z</time>
      </trkpt>
      <trkpt lat="50.44717" lon="3.36313">
        <ele>17.901337</ele>
        <time>2019-06-06T12:39:27Z</time>
      </trkpt>
      <trkpt lat="50.44712" lon="3.36298">
        <ele>17.885723</ele>
        <time>2019-06-06T12:39:29Z</time>
      </trkpt>
      <trkpt lat="50.44708" lon="3.36283">
        <ele>17.856152</ele>
        <time>2019-06-06T12:39:31Z</time>
      </trkpt>
      <trkpt lat="50.44703" lon="3.36269">
        <ele>17.830193</ele>
        <time>2019-06-06T12:39:33Z</time>
      </trkpt>
      <trkpt lat="50.44699" lon="3.36254">
        <ele>17.791283</ele>
        <time>2019-06-06T12:39:35Z</time>
      </trkpt>
      <trkpt lat="50.44694" lon="3.36241">
        <ele>17.751736</ele>
        <time>2019-06-06T12:39:37Z</time>
      </trkpt>
      <trkpt lat="50.4469" lon="3.36228">
        <ele>17.728294</ele>
        <time>2019-06-06T12:39:39Z</time>
      </trkpt>
      <trkpt lat="50.44685" lon="3.36213">
        <ele>17.692909</ele>
        <time>2019-06-06T12:39:41Z</time>
      </trkpt>
      <trkpt lat="50.4468" lon="3.36197">
        <ele>17.642292</ele>
        <time>2019-06-06T12:39:43Z</time>
      </trkpt>
      <trkpt lat="50.44676" lon="3.36182">
        <ele>17.621506</ele>
        <time>2019-06-06T12:39:45Z</time>
      </trkpt>
      <trkpt lat="50.44671" lon="3.36166">
        <ele>17.628452</ele>
        <time>2019-06-06T12:39:47Z</time>
      </trkpt>
      <trkpt lat="50.44668" lon="3.3615">
        <ele>17.596436</ele>
        <time>2019-06-06T12:39:49Z</time>
      </trkpt>
      <trkpt lat="50.44665" lon="3.36135">
        <ele>17.592272</ele>
        <time>2019-06-06T12:39:51Z</time>
      </trkpt>
      <trkpt lat="50.44661" lon="3.36119">
        <ele>17.57246</ele>
        <time>2019-06-06T12:39:53Z</time>
      </trkpt>
      <trkpt lat="50.44658" lon="3.36103">
        <ele>17.572906</ele>
        <time>2019-06-06T12:39:55Z</time>
      </trkpt>
      <trkpt lat="50.44655" lon="3.36088">
        <ele>17.581232</ele>
        <time>2019-06-06T12:39:57Z</time>
      </trkpt>
      <trkpt lat="50.44651" lon="3.36074">
        <ele>17.547722</ele>
        <time>2019-06-06T12:39:59Z</time>
      </trkpt>
      <trkpt lat="50.44647" lon="3.36062">
        <ele>17.507191</ele>
        <time>2019-06-06T12:40:01Z</time>
      </trkpt>
      <trkpt lat="50.44644" lon="3.36055">
        <ele>17.479918</ele>
        <time>2019-06-06T12:40:03Z</time>
      </trkpt>
      <trkpt lat="50.44641" lon="3.36049">
        <ele>17.464991</ele>
        <time>2019-06-06T12:40:05Z</time>
      </trkpt>
      <trkpt lat="50.44638" lon="3.36043">
        <ele>17.458176</ele>
        <time>2019-06-06T12:40:07Z</time>
      </trkpt>
      <trkpt lat="50.44635" lon="3.36037">
        <ele>17.444307</ele>
        <time>2019-06-06T12:40:09Z</time>
      </trkpt>
      <trkpt lat="50.44636" lon="3.3603">
        <ele>17.418625</ele>
        <time>2019-06-06T12:40:11Z</time>
      </trkpt>
      <trkpt lat="50.44641" lon="3.36022">
        <ele>17.421251</ele>
        <time>2019-06-06T12:40:13Z</time>
      </trkpt>
      <trkpt lat="50.44648" lon="3.36016">
        <ele>17.353161</ele>
        <time>2019-06-06T12:40:15Z</time>
      </trkpt>
      <trkpt lat="50.44656" lon="3.36011">
        <ele>17.292263</ele>
        <time>2019-06-06T12:40:17Z</time>
      </trkpt>
      <trkpt lat="50.44665" lon="3.36004">
        <ele>17.29269</ele>
        <time>2019-06-06T12:40:19Z</time>
      </trkpt>
      <trkpt lat="50.44674" lon="3.35996">
        <ele>17.269796</ele>
        <time>2019-06-06T12:40:21Z</time>
      </trkpt>
      <trkpt lat="50.44684" lon="3.35989">
        <ele>17.271816</ele>
        <time>2019-06-06T12:40:23Z</time>
      </trkpt>
      <trkpt lat="50.44693" lon="3.35983">
        <ele>17.240891</ele>
        <time>2019-06-06T12:40:25Z</time>
      </trkpt>
      <trkpt lat="50.44703" lon="3.35977">
        <ele>17.224239</ele>
        <time>2019-06-06T12:40:27Z</time>
      </trkpt>
      <trkpt lat="50.44712" lon="3.3597">
        <ele>17.207378</ele>
        <time>2019-06-06T12:40:29Z</time>
      </trkpt>
      <trkpt lat="50.44722" lon="3.35962">
        <ele>17.155029</ele>
        <time>2019-06-06T12:40:31Z</time>
      </trkpt>
      <trkpt lat="50.44731" lon="3.35953">
        <ele>17.140461</ele>
        <time>2019-06-06T12:40:33Z</time>
      </trkpt>
      <trkpt lat="50.4474" lon="3.35943">
        <ele>17.08691</ele>
        <time>2019-06-06T12:40:35Z</time>
      </trkpt>
      <trkpt lat="50.44746" lon="3.35929">
        <ele>17.080666</ele>
        <time>2019-06-06T12:40:37Z</time>
      </trkpt>
      <trkpt lat="50.44751" lon="3.35915">
        <ele>17.019079</ele>
        <time>2019-06-06T12:40:39Z</time>
      </trkpt>
      <trkpt lat="50.44753" lon="3.35898">
        <ele>16.969128</ele>
        <time>2019-06-06T12:40:41Z</time>
      </trkpt>
      <trkpt lat="50.44753" lon="3.35882">
        <ele>16.952415</ele>
        <time>2019-06-06T12:40:43Z</time>
      </trkpt>
      <trkpt lat="50.44753" lon="3.35865">
        <ele>16.942043</ele>
        <time>2019-06-06T12:40:45Z</time>
      </trkpt>
      <trkpt lat="50.44754" lon="3.35849">
        <ele>16.877523</ele>
        <time>2019-06-06T12:40:47Z</time>
      </trkpt>
      <trkpt lat="50.44754" lon="3.35834">
        <ele>16.819498</ele>
        <time>2019-06-06T12:40:49Z</time>
      </trkpt>
      <trkpt lat="50.44753" lon="3.35818">
        <ele>16.791073</ele>
        <time>2019-06-06T12:40:51Z</time>
      </trkpt>
      <trkpt lat="50.44754" lon="3.35802">
        <ele>16.738121</ele>
        <time>2019-06-06T12:40:53Z</time>
      </trkpt>
      <trkpt lat="50.44754" lon="3.35787">
        <ele>16.699991</ele>
        <time>2019-06-06T12:40:55Z</time>
      </trkpt>
      <trkpt lat="50.44753" lon="3.3577">
        <ele>16.641712</ele>
        <time>2019-06-06T12:40:57Z</time>
      </trkpt>
      <trkpt lat="50.44753" lon="3.35753">
        <ele>16.668766</ele>
        <time>2019-06-06T12:40:59Z</time>
      </trkpt>
      <trkpt lat="50.44753" lon="3.35737">
        <ele>16.651777</ele>
        <time>2019-06-06T12:41:01Z</time>
      </trkpt>
      <trkpt lat="50.44753" lon="3.35719">
        <ele>16.6359</ele>
        <time>2019-06-06T12:41:03Z</time>
      </trkpt>
      <trkpt lat="50.44752" lon="3.35702">
        <ele>16.606762</ele>
        <time>2019-06-06T12:41:05Z</time>
      </trkpt>
      <trkpt lat="50.44752" lon="3.35686">
        <ele>16.590071</ele>
        <time>2019-06-06T12:41:07Z</time>
      </trkpt>
      <trkpt lat="50.44752" lon="3.35669">
        <ele>16.510983</ele>
        <time>2019-06-06T12:41:09Z</time>
      </trkpt>
      <trkpt lat="50.44752" lon="3.35653">
        <ele>16.459133</ele>
        <time>2019-06-06T12:41:11Z</time>
      </trkpt>
      <trkpt lat="50.44753" lon="3.35637">
        <ele>16.454971</ele>
        <time>2019-06-06T12:41:13Z</time>
      </trkpt>
      <trkpt lat="50.44753" lon="3.35621">
        <ele>16.427464</ele>
        <time>2019-06-06T12:41:15Z</time>
      </trkpt>
      <trkpt lat="50.44754" lon="3.35604">
        <ele>16.426851</ele>
        <time>2019-06-06T12:41:17Z</time>
      </trkpt>
      <trkpt lat="50.44756" lon="3.35587">
        <ele>16.438375</ele>
        <time>2019-06-06T12:41:19Z</time>
      </trkpt>
      <trkpt lat="50.44756" lon="3.35568">
        <ele>16.431271</ele>
        <time>2019-06-06T12:41:21Z</time>
      </trkpt>
      <trkpt lat="50.44755" lon="3.35543">
        <ele>16.452084</ele>
        <time>2019-06-06T12:41:24Z</time>
      </trkpt>
      <trkpt lat="50.44753" lon="3.35524">
        <ele>16.487476</ele>
        <time>2019-06-06T12:41:26Z</time>
      </trkpt>
      <trkpt lat="50.44753" lon="3.35508">
        <ele>16.511955</ele>
        <time>2019-06-06T12:41:28Z</time>
      </trkpt>
      <trkpt lat="50.44753" lon="3.35493">
        <ele>16.532734</ele>
        <time>2019-06-06T12:41:30Z</time>
      </trkpt>
      <trkpt lat="50.44753" lon="3.35477">
        <ele>16.551149</ele>
        <time>2019-06-06T12:41:32Z</time>
      </trkpt>
      <trkpt lat="50.44754" lon="3.35461">
        <ele>16.597546</ele>
        <time>2019-06-06T12:41:34Z</time>
      </trkpt>
      <trkpt lat="50.44757" lon="3.35446">
        <ele>16.644888</ele>
        <time>2019-06-06T12:41:36Z</time>
      </trkpt>
      <trkpt lat="50.44761" lon="3.3543">
        <ele>16.656033</ele>
        <time>2019-06-06T12:41:38Z</time>
      </trkpt>
      <trkpt lat="50.44765" lon="3.35414">
        <ele>16.67872</ele>
        <time>2019-06-06T12:41:40Z</time>
      </trkpt>
      <trkpt lat="50.44769" lon="3.35399">
        <ele>16.754704</ele>
        <time>2019-06-06T12:41:42Z</time>
      </trkpt>
      <trkpt lat="50.44772" lon="3.35383">
        <ele>16.796165</ele>
        <time>2019-06-06T12:41:44Z</time>
      </trkpt>
      <trkpt lat="50.44776" lon="3.35367">
        <ele>16.811769</ele>
        <time>2019-06-06T12:41:46Z</time>
      </trkpt>
      <trkpt lat="50.4478" lon="3.35353">
        <ele>16.816113</ele>
        <time>2019-06-06T12:41:48Z</time>
      </trkpt>
      <trkpt lat="50.44782" lon="3.35339">
        <ele>16.886869</ele>
        <time>2019-06-06T12:41:50Z</time>
      </trkpt>
      <trkpt lat="50.44784" lon="3.35326">
        <ele>16.936926</ele>
        <time>2019-06-06T12:41:52Z</time>
      </trkpt>
      <trkpt lat="50.44785" lon="3.35313">
        <ele>16.968143</ele>
        <time>2019-06-06T12:41:54Z</time>
      </trkpt>
      <trkpt lat="50.44785" lon="3.35302">
        <ele>17.070555</ele>
        <time>2019-06-06T12:41:56Z</time>
      </trkpt>
      <trkpt lat="50.44785" lon="3.3529">
        <ele>17.14501</ele>
        <time>2019-06-06T12:41:58Z</time>
      </trkpt>
      <trkpt lat="50.44783" lon="3.35278">
        <ele>17.198256</ele>
        <time>2019-06-06T12:42:00Z</time>
      </trkpt>
      <trkpt lat="50.44782" lon="3.35268">
        <ele>17.254475</ele>
        <time>2019-06-06T12:42:02Z</time>
      </trkpt>
      <trkpt lat="50.44785" lon="3.35259">
        <ele>17.280245</ele>
        <time>2019-06-06T12:42:04Z</time>
      </trkpt>
      <trkpt lat="50.44791" lon="3.35251">
        <ele>17.323652</ele>
        <time>2019-06-06T12:42:06Z</time>
      </trkpt>
      <trkpt lat="50.44798" lon="3.35242">
        <ele>17.379232</ele>
        <time>2019-06-06T12:42:08Z</time>
      </trkpt>
      <trkpt lat="50.44805" lon="3.35231">
        <ele>17.400013</ele>
        <time>2019-06-06T12:42:10Z</time>
      </trkpt>
      <trkpt lat="50.44812" lon="3.3522">
        <ele>17.433537</ele>
        <time>2019-06-06T12:42:12Z</time>
      </trkpt>
      <trkpt lat="50.4482" lon="3.35208">
        <ele>17.452271</ele>
        <time>2019-06-06T12:42:14Z</time>
      </trkpt>
      <trkpt lat="50.44827" lon="3.35195">
        <ele>17.470665</ele>
        <time>2019-06-06T12:42:16Z</time>
      </trkpt>
      <trkpt lat="50.44835" lon="3.35182">
        <ele>17.469234</ele>
        <time>2019-06-06T12:42:18Z</time>
      </trkpt>
      <trkpt lat="50.44842" lon="3.35169">
        <ele>17.485888</ele>
        <time>2019-06-06T12:42:20Z</time>
      </trkpt>
      <trkpt lat="50.44848" lon="3.35157">
        <ele>17.509819</ele>
        <time>2019-06-06T12:42:22Z</time>
      </trkpt>
      <trkpt lat="50.44854" lon="3.35145">
        <ele>17.5119</ele>
        <time>2019-06-06T12:42:24Z</time>
      </trkpt>
      <trkpt lat="50.44861" lon="3.35133">
        <ele>17.483408</ele>
        <time>2019-06-06T12:42:26Z</time>
      </trkpt>
      <trkpt lat="50.44867" lon="3.3512">
        <ele>17.495638</ele>
        <time>2019-06-06T12:42:28Z</time>
      </trkpt>
      <trkpt lat="50.44874" lon="3.35108">
        <ele>17.499258</ele>
        <time>2019-06-06T12:42:30Z</time>
      </trkpt>
      <trkpt lat="50.44882" lon="3.35095">
        <ele>17.510881</ele>
        <time>2019-06-06T12:42:32Z</time>
      </trkpt>
      <trkpt lat="50.44889" lon="3.35082">
        <ele>17.520992</ele>
        <time>2019-06-06T12:42:34Z</time>
      </trkpt>
      <trkpt lat="50.44897" lon="3.35069">
        <ele>17.490232</ele>
        <time>2019-06-06T12:42:36Z</time>
      </trkpt>
      <trkpt lat="50.44905" lon="3.35058">
        <ele>17.408636</ele>
        <time>2019-06-06T12:42:38Z</time>
      </trkpt>
      <trkpt lat="50.44912" lon="3.35046">
        <ele>17.312893</ele>
        <time>2019-06-06T12:42:40Z</time>
      </trkpt>
      <trkpt lat="50.4492" lon="3.35035">
        <ele>17.215075</ele>
        <time>2019-06-06T12:42:42Z</time>
      </trkpt>
      <trkpt lat="50.44927" lon="3.35023">
        <ele>17.113096</ele>
        <time>2019-06-06T12:42:44Z</time>
      </trkpt>
      <trkpt lat="50.44935" lon="3.35012">
        <ele>17.02037</ele>
        <time>2019-06-06T12:42:46Z</time>
      </trkpt>
      <trkpt lat="50.44942" lon="3.35001">
        <ele>16.955849</ele>
        <time>2019-06-06T12:42:48Z</time>
      </trkpt>
      <trkpt lat="50.44949" lon="3.3499">
        <ele>16.831404</ele>
        <time>2019-06-06T12:42:50Z</time>
      </trkpt>
      <trkpt lat="50.44957" lon="3.34979">
        <ele>16.746431</ele>
        <time>2019-06-06T12:42:52Z</time>
      </trkpt>
      <trkpt lat="50.44964" lon="3.34969">
        <ele>16.71521</ele>
        <time>2019-06-06T12:42:54Z</time>
      </trkpt>
      <trkpt lat="50.44972" lon="3.34959">
        <ele>16.621553</ele>
        <time>2019-06-06T12:42:56Z</time>
      </trkpt>
      <trkpt lat="50.44981" lon="3.34951">
        <ele>16.519129</ele>
        <time>2019-06-06T12:42:58Z</time>
      </trkpt>
      <trkpt lat="50.44989" lon="3.34943">
        <ele>16.469055</ele>
        <time>2019-06-06T12:43:00Z</time>
      </trkpt>
      <trkpt lat="50.44998" lon="3.34936">
        <ele>16.400372</ele>
        <time>2019-06-06T12:43:02Z</time>
      </trkpt>
      <trkpt lat="50.45007" lon="3.3493">
        <ele>16.356594</ele>
        <time>2019-06-06T12:43:04Z</time>
      </trkpt>
      <trkpt lat="50.45017" lon="3.34925">
        <ele>16.308727</ele>
        <time>2019-06-06T12:43:06Z</time>
      </trkpt>
      <trkpt lat="50.45027" lon="3.34921">
        <ele>16.252972</ele>
        <time>2019-06-06T12:43:08Z</time>
      </trkpt>
      <trkpt lat="50.45037" lon="3.34919">
        <ele>16.200966</ele>
        <time>2019-06-06T12:43:10Z</time>
      </trkpt>
      <trkpt lat="50.45047" lon="3.34917">
        <ele>16.189491</ele>
        <time>2019-06-06T12:43:12Z</time>
      </trkpt>
      <trkpt lat="50.45058" lon="3.34916">
        <ele>16.123791</ele>
        <time>2019-06-06T12:43:14Z</time>
      </trkpt>
      <trkpt lat="50.45068" lon="3.34914">
        <ele>16.093769</ele>
        <time>2019-06-06T12:43:16Z</time>
      </trkpt>
      <trkpt lat="50.45079" lon="3.34913">
        <ele>16.052004</ele>
        <time>2019-06-06T12:43:18Z</time>
      </trkpt>
      <trkpt lat="50.4509" lon="3.34911">
        <ele>16.02779</ele>
        <time>2019-06-06T12:43:20Z</time>
      </trkpt>
      <trkpt lat="50.451" lon="3.3491">
        <ele>16.052763</ele>
        <time>2019-06-06T12:43:22Z</time>
      </trkpt>
      <trkpt lat="50.45111" lon="3.34908">
        <ele>16.066893</ele>
        <time>2019-06-06T12:43:24Z</time>
      </trkpt>
      <trkpt lat="50.45122" lon="3.34907">
        <ele>16.124683</ele>
        <time>2019-06-06T12:43:26Z</time>
      </trkpt>
      <trkpt lat="50.45133" lon="3.34904">
        <ele>16.143414</ele>
        <time>2019-06-06T12:43:28Z</time>
      </trkpt>
      <trkpt lat="50.45144" lon="3.34901">
        <ele>16.149868</ele>
        <time>2019-06-06T12:43:30Z</time>
      </trkpt>
      <trkpt lat="50.45154" lon="3.34896">
        <ele>16.126978</ele>
        <time>2019-06-06T12:43:32Z</time>
      </trkpt>
      <trkpt lat="50.45165" lon="3.3489">
        <ele>16.183996</ele>
        <time>2019-06-06T12:43:34Z</time>
      </trkpt>
      <trkpt lat="50.45175" lon="3.34883">
        <ele>16.209158</ele>
        <time>2019-06-06T12:43:36Z</time>
      </trkpt>
      <trkpt lat="50.45185" lon="3.34875">
        <ele>16.196671</ele>
        <time>2019-06-06T12:43:38Z</time>
      </trkpt>
      <trkpt lat="50.45194" lon="3.34866">
        <ele>16.216312</ele>
        <time>2019-06-06T12:43:40Z</time>
      </trkpt>
      <trkpt lat="50.45204" lon="3.34858">
        <ele>16.254215</ele>
        <time>2019-06-06T12:43:42Z</time>
      </trkpt>
      <trkpt lat="50.45213" lon="3.3485">
        <ele>16.260168</ele>
        <time>2019-06-06T12:43:44Z</time>
      </trkpt>
      <trkpt lat="50.45223" lon="3.34843">
        <ele>16.253246</ele>
        <time>2019-06-06T12:43:46Z</time>
      </trkpt>
      <trkpt lat="50.45231" lon="3.34834">
        <ele>16.253317</ele>
        <time>2019-06-06T12:43:48Z</time>
      </trkpt>
      <trkpt lat="50.45241" lon="3.34827">
        <ele>16.237799</ele>
        <time>2019-06-06T12:43:50Z</time>
      </trkpt>
      <trkpt lat="50.45251" lon="3.34819">
        <ele>16.210323</ele>
        <time>2019-06-06T12:43:52Z</time>
      </trkpt>
      <trkpt lat="50.45261" lon="3.34811">
        <ele>16.163361</ele>
        <time>2019-06-06T12:43:54Z</time>
      </trkpt>
      <trkpt lat="50.45272" lon="3.34804">
        <ele>16.066299</ele>
        <time>2019-06-06T12:43:56Z</time>
      </trkpt>
      <trkpt lat="50.45283" lon="3.34799">
        <ele>16.044666</ele>
        <time>2019-06-06T12:43:58Z</time>
      </trkpt>
      <trkpt lat="50.45294" lon="3.34795">
        <ele>16.017054</ele>
        <time>2019-06-06T12:44:00Z</time>
      </trkpt>
      <trkpt lat="50.45305" lon="3.34793">
        <ele>15.998301</ele>
        <time>2019-06-06T12:44:02Z</time>
      </trkpt>
      <trkpt lat="50.45315" lon="3.34792">
        <ele>15.943686</ele>
        <time>2019-06-06T12:44:04Z</time>
      </trkpt>
      <trkpt lat="50.45325" lon="3.34792">
        <ele>15.919836</ele>
        <time>2019-06-06T12:44:06Z</time>
      </trkpt>
      <trkpt lat="50.45335" lon="3.34791">
        <ele>15.874491</ele>
        <time>2019-06-06T12:44:08Z</time>
      </trkpt>
      <trkpt lat="50.45345" lon="3.34791">
        <ele>15.853378</ele>
        <time>2019-06-06T12:44:10Z</time>
      </trkpt>
      <trkpt lat="50.45354" lon="3.34792">
        <ele>15.858019</ele>
        <time>2019-06-06T12:44:12Z</time>
      </trkpt>
      <trkpt lat="50.45363" lon="3.34791">
        <ele>15.826299</ele>
        <time>2019-06-06T12:44:14Z</time>
      </trkpt>
      <trkpt lat="50.45369" lon="3.34785">
        <ele>15.780275</ele>
        <time>2019-06-06T12:44:16Z</time>
      </trkpt>
      <trkpt lat="50.45373" lon="3.34772">
        <ele>15.702449</ele>
        <time>2019-06-06T12:44:18Z</time>
      </trkpt>
      <trkpt lat="50.45375" lon="3.34758">
        <ele>15.675394</ele>
        <time>2019-06-06T12:44:20Z</time>
      </trkpt>
      <trkpt lat="50.45376" lon="3.34741">
        <ele>15.650024</ele>
        <time>2019-06-06T12:44:22Z</time>
      </trkpt>
      <trkpt lat="50.45377" lon="3.34724">
        <ele>15.600794</ele>
        <time>2019-06-06T12:44:24Z</time>
      </trkpt>
      <trkpt lat="50.45378" lon="3.34706">
        <ele>15.557932</ele>
        <time>2019-06-06T12:44:26Z</time>
      </trkpt>
      <trkpt lat="50.45378" lon="3.34688">
        <ele>15.541698</ele>
        <time>2019-06-06T12:44:28Z</time>
      </trkpt>
      <trkpt lat="50.45378" lon="3.34671">
        <ele>15.526762</ele>
        <time>2019-06-06T12:44:30Z</time>
      </trkpt>
      <trkpt lat="50.45379" lon="3.34655">
        <ele>15.511363</ele>
        <time>2019-06-06T12:44:32Z</time>
      </trkpt>
      <trkpt lat="50.45377" lon="3.34639">
        <ele>15.537287</ele>
        <time>2019-06-06T12:44:34Z</time>
      </trkpt>
      <trkpt lat="50.45377" lon="3.34622">
        <ele>15.519635</ele>
        <time>2019-06-06T12:44:36Z</time>
      </trkpt>
      <trkpt lat="50.45376" lon="3.34605">
        <ele>15.571673</ele>
        <time>2019-06-06T12:44:38Z</time>
      </trkpt>
      <trkpt lat="50.45377" lon="3.34588">
        <ele>15.587573</ele>
        <time>2019-06-06T12:44:40Z</time>
      </trkpt>
      <trkpt lat="50.45377" lon="3.34572">
        <ele>15.624794</ele>
        <time>2019-06-06T12:44:42Z</time>
      </trkpt>
      <trkpt lat="50.4538" lon="3.34555">
        <ele>15.633003</ele>
        <time>2019-06-06T12:44:44Z</time>
      </trkpt>
      <trkpt lat="50.45386" lon="3.34541">
        <ele>15.649388</ele>
        <time>2019-06-06T12:44:46Z</time>
      </trkpt>
      <trkpt lat="50.45393" lon="3.3453">
        <ele>15.661875</ele>
        <time>2019-06-06T12:44:48Z</time>
      </trkpt>
      <trkpt lat="50.45401" lon="3.34518">
        <ele>15.679477</ele>
        <time>2019-06-06T12:44:50Z</time>
      </trkpt>
      <trkpt lat="50.45408" lon="3.34507">
        <ele>15.704753</ele>
        <time>2019-06-06T12:44:52Z</time>
      </trkpt>
      <trkpt lat="50.45416" lon="3.34496">
        <ele>15.683943</ele>
        <time>2019-06-06T12:44:54Z</time>
      </trkpt>
      <trkpt lat="50.45424" lon="3.34486">
        <ele>15.690478</ele>
        <time>2019-06-06T12:44:56Z</time>
      </trkpt>
      <trkpt lat="50.45431" lon="3.34475">
        <ele>15.750829</ele>
        <time>2019-06-06T12:44:58Z</time>
      </trkpt>
      <trkpt lat="50.45438" lon="3.34463">
        <ele>15.802983</ele>
        <time>2019-06-06T12:45:00Z</time>
      </trkpt>
      <trkpt lat="50.45443" lon="3.34448">
        <ele>15.839483</ele>
        <time>2019-06-06T12:45:02Z</time>
      </trkpt>
      <trkpt lat="50.45443" lon="3.34432">
        <ele>15.865046</ele>
        <time>2019-06-06T12:45:04Z</time>
      </trkpt>
      <trkpt lat="50.45441" lon="3.34417">
        <ele>15.901174</ele>
        <time>2019-06-06T12:45:06Z</time>
      </trkpt>
      <trkpt lat="50.45439" lon="3.34401">
        <ele>15.921143</ele>
        <time>2019-06-06T12:45:08Z</time>
      </trkpt>
      <trkpt lat="50.45438" lon="3.34386">
        <ele>15.906575</ele>
        <time>2019-06-06T12:45:10Z</time>
      </trkpt>
      <trkpt lat="50.45436" lon="3.3437">
        <ele>15.918025</ele>
        <time>2019-06-06T12:45:12Z</time>
      </trkpt>
      <trkpt lat="50.45434" lon="3.34354">
        <ele>15.935506</ele>
        <time>2019-06-06T12:45:14Z</time>
      </trkpt>
      <trkpt lat="50.45432" lon="3.34339">
        <ele>15.956319</ele>
        <time>2019-06-06T12:45:16Z</time>
      </trkpt>
      <trkpt lat="50.4543" lon="3.34324">
        <ele>15.993777</ele>
        <time>2019-06-06T12:45:18Z</time>
      </trkpt>
      <trkpt lat="50.45429" lon="3.34309">
        <ele>16.023569</ele>
        <time>2019-06-06T12:45:20Z</time>
      </trkpt>
      <trkpt lat="50.45427" lon="3.34294">
        <ele>16.050867</ele>
        <time>2019-06-06T12:45:22Z</time>
      </trkpt>
      <trkpt lat="50.45425" lon="3.34278">
        <ele>16.065502</ele>
        <time>2019-06-06T12:45:24Z</time>
      </trkpt>
      <trkpt lat="50.45423" lon="3.34261">
        <ele>16.092693</ele>
        <time>2019-06-06T12:45:26Z</time>
      </trkpt>
      <trkpt lat="50.45421" lon="3.34244">
        <ele>16.130161</ele>
        <time>2019-06-06T12:45:28Z</time>
      </trkpt>
      <trkpt lat="50.45419" lon="3.34227">
        <ele>16.159298</ele>
        <time>2019-06-06T12:45:30Z</time>
      </trkpt>
      <trkpt lat="50.45418" lon="3.34211">
        <ele>16.1791</ele>
        <time>2019-06-06T12:45:32Z</time>
      </trkpt>
      <trkpt lat="50.45416" lon="3.34194">
        <ele>16.202833</ele>
        <time>2019-06-06T12:45:34Z</time>
      </trkpt>
      <trkpt lat="50.45415" lon="3.34177">
        <ele>16.224026</ele>
        <time>2019-06-06T12:45:36Z</time>
      </trkpt>
      <trkpt lat="50.45413" lon="3.34161">
        <ele>16.240673</ele>
        <time>2019-06-06T12:45:38Z</time>
      </trkpt>
      <trkpt lat="50.45411" lon="3.34144">
        <ele>16.248997</ele>
        <time>2019-06-06T12:45:40Z</time>
      </trkpt>
      <trkpt lat="50.45408" lon="3.34127">
        <ele>16.25271</ele>
        <time>2019-06-06T12:45:42Z</time>
      </trkpt>
      <trkpt lat="50.45406" lon="3.3411">
        <ele>16.256681</ele>
        <time>2019-06-06T12:45:44Z</time>
      </trkpt>
      <trkpt lat="50.45404" lon="3.34093">
        <ele>16.280703</ele>
        <time>2019-06-06T12:45:46Z</time>
      </trkpt>
      <trkpt lat="50.45403" lon="3.34076">
        <ele>16.310001</ele>
        <time>2019-06-06T12:45:48Z</time>
      </trkpt>
      <trkpt lat="50.45401" lon="3.3406">
        <ele>16.350552</ele>
        <time>2019-06-06T12:45:50Z</time>
      </trkpt>
      <trkpt lat="50.45401" lon="3.34044">
        <ele>16.393658</ele>
        <time>2019-06-06T12:45:52Z</time>
      </trkpt>
      <trkpt lat="50.454" lon="3.34027">
        <ele>16.435282</ele>
        <time>2019-06-06T12:45:54Z</time>
      </trkpt>
      <trkpt lat="50.45399" lon="3.34011">
        <ele>16.441525</ele>
        <time>2019-06-06T12:45:56Z</time>
      </trkpt>
      <trkpt lat="50.45398" lon="3.33995">
        <ele>16.445686</ele>
        <time>2019-06-06T12:45:58Z</time>
      </trkpt>
      <trkpt lat="50.45397" lon="3.33979">
        <ele>16.451075</ele>
        <time>2019-06-06T12:46:00Z</time>
      </trkpt>
      <trkpt lat="50.45396" lon="3.33964">
        <ele>16.445721</ele>
        <time>2019-06-06T12:46:02Z</time>
      </trkpt>
      <trkpt lat="50.45395" lon="3.3395">
        <ele>16.451435</ele>
        <time>2019-06-06T12:46:04Z</time>
      </trkpt>
      <trkpt lat="50.45395" lon="3.33935">
        <ele>16.443378</ele>
        <time>2019-06-06T12:46:06Z</time>
      </trkpt>
      <trkpt lat="50.45393" lon="3.3392">
        <ele>16.39879</ele>
        <time>2019-06-06T12:46:08Z</time>
      </trkpt>
      <trkpt lat="50.45392" lon="3.33905">
        <ele>16.409054</ele>
        <time>2019-06-06T12:46:10Z</time>
      </trkpt>
      <trkpt lat="50.45391" lon="3.33889">
        <ele>16.391336</ele>
        <time>2019-06-06T12:46:12Z</time>
      </trkpt>
      <trkpt lat="50.45389" lon="3.33874">
        <ele>16.394123</ele>
        <time>2019-06-06T12:46:14Z</time>
      </trkpt>
      <trkpt lat="50.45387" lon="3.33859">
        <ele>16.399986</ele>
        <time>2019-06-06T12:46:16Z</time>
      </trkpt>
      <trkpt lat="50.45384" lon="3.33843">
        <ele>16.429121</ele>
        <time>2019-06-06T12:46:18Z</time>
      </trkpt>
      <trkpt lat="50.45382" lon="3.33827">
        <ele>16.426666</ele>
        <time>2019-06-06T12:46:20Z</time>
      </trkpt>
      <trkpt lat="50.4538" lon="3.33812">
        <ele>16.443844</ele>
        <time>2019-06-06T12:46:22Z</time>
      </trkpt>
      <trkpt lat="50.45378" lon="3.33797">
        <ele>16.444981</ele>
        <time>2019-06-06T12:46:24Z</time>
      </trkpt>
      <trkpt lat="50.45376" lon="3.33781">
        <ele>16.46805</ele>
        <time>2019-06-06T12:46:26Z</time>
      </trkpt>
      <trkpt lat="50.45374" lon="3.33766">
        <ele>16.469637</ele>
        <time>2019-06-06T12:46:28Z</time>
      </trkpt>
      <trkpt lat="50.45372" lon="3.3375">
        <ele>16.471785</ele>
        <time>2019-06-06T12:46:30Z</time>
      </trkpt>
      <trkpt lat="50.45371" lon="3.33734">
        <ele>16.487429</ele>
        <time>2019-06-06T12:46:32Z</time>
      </trkpt>
      <trkpt lat="50.4537" lon="3.33718">
        <ele>16.497644</ele>
        <time>2019-06-06T12:46:34Z</time>
      </trkpt>
      <trkpt lat="50.45368" lon="3.33702">
        <ele>16.499228</ele>
        <time>2019-06-06T12:46:36Z</time>
      </trkpt>
      <trkpt lat="50.45367" lon="3.33686">
        <ele>16.519655</ele>
        <time>2019-06-06T12:46:38Z</time>
      </trkpt>
      <trkpt lat="50.45366" lon="3.33671">
        <ele>16.526394</ele>
        <time>2019-06-06T12:46:40Z</time>
      </trkpt>
      <trkpt lat="50.45365" lon="3.33656">
        <ele>16.542774</ele>
        <time>2019-06-06T12:46:42Z</time>
      </trkpt>
      <trkpt lat="50.45364" lon="3.33641">
        <ele>16.552464</ele>
        <time>2019-06-06T12:46:44Z</time>
      </trkpt>
      <trkpt lat="50.45362" lon="3.33625">
        <ele>16.554893</ele>
        <time>2019-06-06T12:46:46Z</time>
      </trkpt>
      <trkpt lat="50.45359" lon="3.3361">
        <ele>16.590475</ele>
        <time>2019-06-06T12:46:48Z</time>
      </trkpt>
      <trkpt lat="50.45355" lon="3.33596">
        <ele>16.642511</ele>
        <time>2019-06-06T12:46:50Z</time>
      </trkpt>
      <trkpt lat="50.45348" lon="3.33583">
        <ele>16.690519</ele>
        <time>2019-06-06T12:46:52Z</time>
      </trkpt>
      <trkpt lat="50.45342" lon="3.33571">
        <ele>16.72382</ele>
        <time>2019-06-06T12:46:54Z</time>
      </trkpt>
      <trkpt lat="50.45335" lon="3.33558">
        <ele>16.740469</ele>
        <time>2019-06-06T12:46:56Z</time>
      </trkpt>
      <trkpt lat="50.45328" lon="3.33546">
        <ele>16.770138</ele>
        <time>2019-06-06T12:46:58Z</time>
      </trkpt>
      <trkpt lat="50.45322" lon="3.33534">
        <ele>16.743084</ele>
        <time>2019-06-06T12:47:00Z</time>
      </trkpt>
      <trkpt lat="50.45316" lon="3.33521">
        <ele>16.751598</ele>
        <time>2019-06-06T12:47:02Z</time>
      </trkpt>
      <trkpt lat="50.45309" lon="3.33508">
        <ele>16.787081</ele>
        <time>2019-06-06T12:47:04Z</time>
      </trkpt>
      <trkpt lat="50.45302" lon="3.33496">
        <ele>16.854525</ele>
        <time>2019-06-06T12:47:06Z</time>
      </trkpt>
      <trkpt lat="50.45296" lon="3.33483">
        <ele>16.891989</ele>
        <time>2019-06-06T12:47:08Z</time>
      </trkpt>
      <trkpt lat="50.4529" lon="3.33471">
        <ele>16.929926</ele>
        <time>2019-06-06T12:47:10Z</time>
      </trkpt>
      <trkpt lat="50.45283" lon="3.3346">
        <ele>17.003685</ele>
        <time>2019-06-06T12:47:12Z</time>
      </trkpt>
      <trkpt lat="50.45277" lon="3.33447">
        <ele>17.078972</ele>
        <time>2019-06-06T12:47:14Z</time>
      </trkpt>
      <trkpt lat="50.45271" lon="3.33434">
        <ele>17.13517</ele>
        <time>2019-06-06T12:47:16Z</time>
      </trkpt>
      <trkpt lat="50.45267" lon="3.3342">
        <ele>17.150526</ele>
        <time>2019-06-06T12:47:18Z</time>
      </trkpt>
      <trkpt lat="50.45263" lon="3.33405">
        <ele>17.194733</ele>
        <time>2019-06-06T12:47:20Z</time>
      </trkpt>
      <trkpt lat="50.4526" lon="3.33389">
        <ele>17.272512</ele>
        <time>2019-06-06T12:47:22Z</time>
      </trkpt>
      <trkpt lat="50.45258" lon="3.33373">
        <ele>17.325542</ele>
        <time>2019-06-06T12:47:24Z</time>
      </trkpt>
      <trkpt lat="50.45258" lon="3.33356">
        <ele>17.382416</ele>
        <time>2019-06-06T12:47:26Z</time>
      </trkpt>
      <trkpt lat="50.45259" lon="3.3334">
        <ele>17.424122</ele>
        <time>2019-06-06T12:47:28Z</time>
      </trkpt>
      <trkpt lat="50.45261" lon="3.33324">
        <ele>17.447016</ele>
        <time>2019-06-06T12:47:30Z</time>
      </trkpt>
      <trkpt lat="50.45264" lon="3.33307">
        <ele>17.459152</ele>
        <time>2019-06-06T12:47:32Z</time>
      </trkpt>
      <trkpt lat="50.45266" lon="3.33291">
        <ele>17.483669</ele>
        <time>2019-06-06T12:47:34Z</time>
      </trkpt>
      <trkpt lat="50.45269" lon="3.33276">
        <ele>17.513914</ele>
        <time>2019-06-06T12:47:36Z</time>
      </trkpt>
      <trkpt lat="50.45272" lon="3.33261">
        <ele>17.511175</ele>
        <time>2019-06-06T12:47:38Z</time>
      </trkpt>
      <trkpt lat="50.45274" lon="3.33245">
        <ele>17.540314</ele>
        <time>2019-06-06T12:47:40Z</time>
      </trkpt>
      <trkpt lat="50.45275" lon="3.33228">
        <ele>17.561504</ele>
        <time>2019-06-06T12:47:42Z</time>
      </trkpt>
      <trkpt lat="50.45276" lon="3.33212">
        <ele>17.612242</ele>
        <time>2019-06-06T12:47:44Z</time>
      </trkpt>
      <trkpt lat="50.45278" lon="3.33197">
        <ele>17.67531</ele>
        <time>2019-06-06T12:47:46Z</time>
      </trkpt>
      <trkpt lat="50.4528" lon="3.33179">
        <ele>17.679472</ele>
        <time>2019-06-06T12:47:48Z</time>
      </trkpt>
      <trkpt lat="50.45284" lon="3.33163">
        <ele>17.675312</ele>
        <time>2019-06-06T12:47:50Z</time>
      </trkpt>
      <trkpt lat="50.45287" lon="3.33145">
        <ele>17.680775</ele>
        <time>2019-06-06T12:47:52Z</time>
      </trkpt>
      <trkpt lat="50.45291" lon="3.33128">
        <ele>17.620432</ele>
        <time>2019-06-06T12:47:54Z</time>
      </trkpt>
      <trkpt lat="50.45295" lon="3.33111">
        <ele>17.595453</ele>
        <time>2019-06-06T12:47:56Z</time>
      </trkpt>
      <trkpt lat="50.45299" lon="3.33094">
        <ele>17.56007</ele>
        <time>2019-06-06T12:47:58Z</time>
      </trkpt>
      <trkpt lat="50.45303" lon="3.33077">
        <ele>17.566786</ele>
        <time>2019-06-06T12:48:00Z</time>
      </trkpt>
      <trkpt lat="50.45306" lon="3.33061">
        <ele>17.435665</ele>
        <time>2019-06-06T12:48:02Z</time>
      </trkpt>
      <trkpt lat="50.4531" lon="3.33044">
        <ele>17.413074</ele>
        <time>2019-06-06T12:48:04Z</time>
      </trkpt>
      <trkpt lat="50.45314" lon="3.33028">
        <ele>17.301914</ele>
        <time>2019-06-06T12:48:06Z</time>
      </trkpt>
      <trkpt lat="50.45318" lon="3.33012">
        <ele>17.146814</ele>
        <time>2019-06-06T12:48:08Z</time>
      </trkpt>
      <trkpt lat="50.45322" lon="3.32996">
        <ele>17.043161</ele>
        <time>2019-06-06T12:48:10Z</time>
      </trkpt>
      <trkpt lat="50.45326" lon="3.32979">
        <ele>16.962961</ele>
        <time>2019-06-06T12:48:12Z</time>
      </trkpt>
      <trkpt lat="50.4533" lon="3.32963">
        <ele>16.890308</ele>
        <time>2019-06-06T12:48:14Z</time>
      </trkpt>
      <trkpt lat="50.45334" lon="3.32946">
        <ele>16.822842</ele>
        <time>2019-06-06T12:48:16Z</time>
      </trkpt>
      <trkpt lat="50.45337" lon="3.32929">
        <ele>16.792646</ele>
        <time>2019-06-06T12:48:18Z</time>
      </trkpt>
      <trkpt lat="50.45341" lon="3.32913">
        <ele>16.662144</ele>
        <time>2019-06-06T12:48:20Z</time>
      </trkpt>
      <trkpt lat="50.45345" lon="3.32896">
        <ele>16.583965</ele>
        <time>2019-06-06T12:48:22Z</time>
      </trkpt>
      <trkpt lat="50.45349" lon="3.3288">
        <ele>16.565495</ele>
        <time>2019-06-06T12:48:24Z</time>
      </trkpt>
      <trkpt lat="50.45353" lon="3.32863">
        <ele>16.520285</ele>
        <time>2019-06-06T12:48:26Z</time>
      </trkpt>
      <trkpt lat="50.45356" lon="3.32847">
        <ele>16.400433</ele>
        <time>2019-06-06T12:48:28Z</time>
      </trkpt>
      <trkpt lat="50.4536" lon="3.3283">
        <ele>16.248764</ele>
        <time>2019-06-06T12:48:30Z</time>
      </trkpt>
      <trkpt lat="50.45364" lon="3.32814">
        <ele>16.12055</ele>
        <time>2019-06-06T12:48:32Z</time>
      </trkpt>
      <trkpt lat="50.45368" lon="3.32797">
        <ele>16.004053</ele>
        <time>2019-06-06T12:48:34Z</time>
      </trkpt>
      <trkpt lat="50.45372" lon="3.3278">
        <ele>16.030159</ele>
        <time>2019-06-06T12:48:36Z</time>
      </trkpt>
      <trkpt lat="50.45376" lon="3.32764">
        <ele>15.885533</ele>
        <time>2019-06-06T12:48:38Z</time>
      </trkpt>
      <trkpt lat="50.4538" lon="3.32747">
        <ele>15.781471</ele>
        <time>2019-06-06T12:48:40Z</time>
      </trkpt>
      <trkpt lat="50.45384" lon="3.3273">
        <ele>15.664932</ele>
        <time>2019-06-06T12:48:42Z</time>
      </trkpt>
      <trkpt lat="50.45388" lon="3.32714">
        <ele>15.624918</ele>
        <time>2019-06-06T12:48:44Z</time>
      </trkpt>
      <trkpt lat="50.45391" lon="3.32698">
        <ele>15.607409</ele>
        <time>2019-06-06T12:48:46Z</time>
      </trkpt>
      <trkpt lat="50.45395" lon="3.32682">
        <ele>15.612112</ele>
        <time>2019-06-06T12:48:48Z</time>
      </trkpt>
      <trkpt lat="50.45398" lon="3.32666">
        <ele>15.654329</ele>
        <time>2019-06-06T12:48:50Z</time>
      </trkpt>
      <trkpt lat="50.45401" lon="3.32651">
        <ele>15.666448</ele>
        <time>2019-06-06T12:48:52Z</time>
      </trkpt>
      <trkpt lat="50.45404" lon="3.32635">
        <ele>15.693102</ele>
        <time>2019-06-06T12:48:54Z</time>
      </trkpt>
      <trkpt lat="50.45408" lon="3.3262">
        <ele>15.699259</ele>
        <time>2019-06-06T12:48:56Z</time>
      </trkpt>
      <trkpt lat="50.4541" lon="3.32604">
        <ele>15.703067</ele>
        <time>2019-06-06T12:48:58Z</time>
      </trkpt>
      <trkpt lat="50.45413" lon="3.3259">
        <ele>15.723618</ele>
        <time>2019-06-06T12:49:00Z</time>
      </trkpt>
      <trkpt lat="50.45415" lon="3.32575">
        <ele>15.742346</ele>
        <time>2019-06-06T12:49:02Z</time>
      </trkpt>
      <trkpt lat="50.45418" lon="3.32562">
        <ele>15.800323</ele>
        <time>2019-06-06T12:49:04Z</time>
      </trkpt>
      <trkpt lat="50.45421" lon="3.32548">
        <ele>15.823282</ele>
        <time>2019-06-06T12:49:06Z</time>
      </trkpt>
      <trkpt lat="50.45424" lon="3.32534">
        <ele>15.88936</ele>
        <time>2019-06-06T12:49:08Z</time>
      </trkpt>
      <trkpt lat="50.45426" lon="3.32521">
        <ele>16.025404</ele>
        <time>2019-06-06T12:49:10Z</time>
      </trkpt>
      <trkpt lat="50.45429" lon="3.32508">
        <ele>16.074747</ele>
        <time>2019-06-06T12:49:12Z</time>
      </trkpt>
      <trkpt lat="50.45432" lon="3.32496">
        <ele>16.225227</ele>
        <time>2019-06-06T12:49:14Z</time>
      </trkpt>
      <trkpt lat="50.45434" lon="3.32483">
        <ele>16.316</ele>
        <time>2019-06-06T12:49:16Z</time>
      </trkpt>
      <trkpt lat="50.4544" lon="3.32471">
        <ele>16.360718</ele>
        <time>2019-06-06T12:49:18Z</time>
      </trkpt>
      <trkpt lat="50.45447" lon="3.32462">
        <ele>16.459637</ele>
        <time>2019-06-06T12:49:20Z</time>
      </trkpt>
      <trkpt lat="50.45455" lon="3.32453">
        <ele>16.517069</ele>
        <time>2019-06-06T12:49:22Z</time>
      </trkpt>
      <trkpt lat="50.45463" lon="3.32444">
        <ele>16.618862</ele>
        <time>2019-06-06T12:49:24Z</time>
      </trkpt>
      <trkpt lat="50.45472" lon="3.32436">
        <ele>16.715563</ele>
        <time>2019-06-06T12:49:26Z</time>
      </trkpt>
      <trkpt lat="50.45482" lon="3.32426">
        <ele>16.814884</ele>
        <time>2019-06-06T12:49:28Z</time>
      </trkpt>
      <trkpt lat="50.4549" lon="3.32417">
        <ele>16.914986</ele>
        <time>2019-06-06T12:49:30Z</time>
      </trkpt>
      <trkpt lat="50.45499" lon="3.32408">
        <ele>17.037163</ele>
        <time>2019-06-06T12:49:32Z</time>
      </trkpt>
      <trkpt lat="50.45509" lon="3.32399">
        <ele>17.131313</ele>
        <time>2019-06-06T12:49:34Z</time>
      </trkpt>
      <trkpt lat="50.45518" lon="3.3239">
        <ele>17.223188</ele>
        <time>2019-06-06T12:49:36Z</time>
      </trkpt>
      <trkpt lat="50.45527" lon="3.32381">
        <ele>17.304274</ele>
        <time>2019-06-06T12:49:38Z</time>
      </trkpt>
      <trkpt lat="50.45536" lon="3.32371">
        <ele>17.384525</ele>
        <time>2019-06-06T12:49:40Z</time>
      </trkpt>
      <trkpt lat="50.45546" lon="3.32361">
        <ele>17.453903</ele>
        <time>2019-06-06T12:49:42Z</time>
      </trkpt>
      <trkpt lat="50.45556" lon="3.32351">
        <ele>17.498579</ele>
        <time>2019-06-06T12:49:44Z</time>
      </trkpt>
      <trkpt lat="50.45565" lon="3.32341">
        <ele>17.543957</ele>
        <time>2019-06-06T12:49:46Z</time>
      </trkpt>
      <trkpt lat="50.45575" lon="3.32331">
        <ele>17.534397</ele>
        <time>2019-06-06T12:49:48Z</time>
      </trkpt>
      <trkpt lat="50.45584" lon="3.32321">
        <ele>17.564671</ele>
        <time>2019-06-06T12:49:50Z</time>
      </trkpt>
      <trkpt lat="50.45593" lon="3.32312">
        <ele>17.593332</ele>
        <time>2019-06-06T12:49:52Z</time>
      </trkpt>
      <trkpt lat="50.45602" lon="3.32303">
        <ele>17.615444</ele>
        <time>2019-06-06T12:49:54Z</time>
      </trkpt>
      <trkpt lat="50.45611" lon="3.32294">
        <ele>17.597921</ele>
        <time>2019-06-06T12:49:56Z</time>
      </trkpt>
      <trkpt lat="50.4562" lon="3.32285">
        <ele>17.585506</ele>
        <time>2019-06-06T12:49:58Z</time>
      </trkpt>
      <trkpt lat="50.45628" lon="3.32277">
        <ele>17.575571</ele>
        <time>2019-06-06T12:50:00Z</time>
      </trkpt>
      <trkpt lat="50.45637" lon="3.32269">
        <ele>17.557531</ele>
        <time>2019-06-06T12:50:02Z</time>
      </trkpt>
      <trkpt lat="50.45646" lon="3.3226">
        <ele>17.526669</ele>
        <time>2019-06-06T12:50:04Z</time>
      </trkpt>
      <trkpt lat="50.45654" lon="3.32252">
        <ele>17.48444</ele>
        <time>2019-06-06T12:50:06Z</time>
      </trkpt>
      <trkpt lat="50.45663" lon="3.32245">
        <ele>17.436543</ele>
        <time>2019-06-06T12:50:08Z</time>
      </trkpt>
      <trkpt lat="50.45671" lon="3.32237">
        <ele>17.384884</ele>
        <time>2019-06-06T12:50:10Z</time>
      </trkpt>
      <trkpt lat="50.4568" lon="3.32229">
        <ele>17.35289</ele>
        <time>2019-06-06T12:50:12Z</time>
      </trkpt>
      <trkpt lat="50.45687" lon="3.32221">
        <ele>17.31641</ele>
        <time>2019-06-06T12:50:14Z</time>
      </trkpt>
      <trkpt lat="50.45693" lon="3.32209">
        <ele>17.289358</ele>
        <time>2019-06-06T12:50:16Z</time>
      </trkpt>
      <trkpt lat="50.45696" lon="3.32195">
        <ele>17.265345</ele>
        <time>2019-06-06T12:50:18Z</time>
      </trkpt>
      <trkpt lat="50.45696" lon="3.32178">
        <ele>17.218708</ele>
        <time>2019-06-06T12:50:20Z</time>
      </trkpt>
      <trkpt lat="50.45694" lon="3.32162">
        <ele>17.174658</ele>
        <time>2019-06-06T12:50:22Z</time>
      </trkpt>
      <trkpt lat="50.45691" lon="3.32145">
        <ele>17.154999</ele>
        <time>2019-06-06T12:50:23Z</time>
      </trkpt>
      <trkpt lat="50.45688" lon="3.32121">
        <ele>17.103699</ele>
        <time>2019-06-06T12:50:27Z</time>
      </trkpt>
      <trkpt lat="50.45686" lon="3.32105">
        <ele>17.100061</ele>
        <time>2019-06-06T12:50:29Z</time>
      </trkpt>
      <trkpt lat="50.45683" lon="3.3209">
        <ele>17.115757</ele>
        <time>2019-06-06T12:50:31Z</time>
      </trkpt>
      <trkpt lat="50.45681" lon="3.32075">
        <ele>17.131618</ele>
        <time>2019-06-06T12:50:33Z</time>
      </trkpt>
      <trkpt lat="50.45679" lon="3.32059">
        <ele>17.15114</ele>
        <time>2019-06-06T12:50:35Z</time>
      </trkpt>
      <trkpt lat="50.45676" lon="3.32044">
        <ele>17.173481</ele>
        <time>2019-06-06T12:50:37Z</time>
      </trkpt>
      <trkpt lat="50.45674" lon="3.32028">
        <ele>17.224659</ele>
        <time>2019-06-06T12:50:39Z</time>
      </trkpt>
      <trkpt lat="50.45672" lon="3.32013">
        <ele>17.267986</ele>
        <time>2019-06-06T12:50:41Z</time>
      </trkpt>
      <trkpt lat="50.4567" lon="3.31997">
        <ele>17.334249</ele>
        <time>2019-06-06T12:50:43Z</time>
      </trkpt>
      <trkpt lat="50.45667" lon="3.31974">
        <ele>17.424047</ele>
        <time>2019-06-06T12:50:46Z</time>
      </trkpt>
      <trkpt lat="50.45661" lon="3.31962">
        <ele>17.508564</ele>
        <time>2019-06-06T12:50:48Z</time>
      </trkpt>
      <trkpt lat="50.45652" lon="3.31956">
        <ele>17.555506</ele>
        <time>2019-06-06T12:50:50Z</time>
      </trkpt>
      <trkpt lat="50.45643" lon="3.31951">
        <ele>17.657661</ele>
        <time>2019-06-06T12:50:52Z</time>
      </trkpt>
      <trkpt lat="50.45633" lon="3.31947">
        <ele>17.830437</ele>
        <time>2019-06-06T12:50:54Z</time>
      </trkpt>
      <trkpt lat="50.45624" lon="3.31943">
        <ele>17.950439</ele>
        <time>2019-06-06T12:50:56Z</time>
      </trkpt>
      <trkpt lat="50.45615" lon="3.31939">
        <ele>18.110626</ele>
        <time>2019-06-06T12:50:58Z</time>
      </trkpt>
      <trkpt lat="50.45606" lon="3.31935">
        <ele>18.260502</ele>
        <time>2019-06-06T12:51:00Z</time>
      </trkpt>
      <trkpt lat="50.45597" lon="3.31932">
        <ele>18.3447</ele>
        <time>2019-06-06T12:51:02Z</time>
      </trkpt>
      <trkpt lat="50.45588" lon="3.31928">
        <ele>18.536488</ele>
        <time>2019-06-06T12:51:04Z</time>
      </trkpt>
      <trkpt lat="50.4558" lon="3.31924">
        <ele>18.730366</ele>
        <time>2019-06-06T12:51:06Z</time>
      </trkpt>
      <trkpt lat="50.45571" lon="3.31921">
        <ele>18.910046</ele>
        <time>2019-06-06T12:51:08Z</time>
      </trkpt>
      <trkpt lat="50.45564" lon="3.31918">
        <ele>19.16876</ele>
        <time>2019-06-06T12:51:10Z</time>
      </trkpt>
      <trkpt lat="50.45556" lon="3.31914">
        <ele>19.41091</ele>
        <time>2019-06-06T12:51:12Z</time>
      </trkpt>
      <trkpt lat="50.45548" lon="3.31911">
        <ele>19.517094</ele>
        <time>2019-06-06T12:51:14Z</time>
      </trkpt>
      <trkpt lat="50.4554" lon="3.31908">
        <ele>19.796627</ele>
        <time>2019-06-06T12:51:16Z</time>
      </trkpt>
      <trkpt lat="50.45532" lon="3.31904">
        <ele>20.080481</ele>
        <time>2019-06-06T12:51:18Z</time>
      </trkpt>
      <trkpt lat="50.45523" lon="3.31901">
        <ele>20.391798</ele>
        <time>2019-06-06T12:51:20Z</time>
      </trkpt>
      <trkpt lat="50.45515" lon="3.31897">
        <ele>20.710072</ele>
        <time>2019-06-06T12:51:22Z</time>
      </trkpt>
      <trkpt lat="50.45506" lon="3.31894">
        <ele>21.030745</ele>
        <time>2019-06-06T12:51:24Z</time>
      </trkpt>
      <trkpt lat="50.45497" lon="3.3189">
        <ele>21.355686</ele>
        <time>2019-06-06T12:51:26Z</time>
      </trkpt>
      <trkpt lat="50.45488" lon="3.31886">
        <ele>21.64677</ele>
        <time>2019-06-06T12:51:28Z</time>
      </trkpt>
      <trkpt lat="50.45479" lon="3.31882">
        <ele>21.958752</ele>
        <time>2019-06-06T12:51:30Z</time>
      </trkpt>
      <trkpt lat="50.4547" lon="3.31877">
        <ele>22.257275</ele>
        <time>2019-06-06T12:51:32Z</time>
      </trkpt>
      <trkpt lat="50.4546" lon="3.31874">
        <ele>22.551619</ele>
        <time>2019-06-06T12:51:34Z</time>
      </trkpt>
      <trkpt lat="50.45451" lon="3.31871">
        <ele>22.795269</ele>
        <time>2019-06-06T12:51:36Z</time>
      </trkpt>
      <trkpt lat="50.45442" lon="3.31867">
        <ele>23.058376</ele>
        <time>2019-06-06T12:51:38Z</time>
      </trkpt>
      <trkpt lat="50.45432" lon="3.31862">
        <ele>23.177162</ele>
        <time>2019-06-06T12:51:40Z</time>
      </trkpt>
      <trkpt lat="50.45421" lon="3.31858">
        <ele>23.389555</ele>
        <time>2019-06-06T12:51:42Z</time>
      </trkpt>
      <trkpt lat="50.4541" lon="3.31853">
        <ele>23.464516</ele>
        <time>2019-06-06T12:51:44Z</time>
      </trkpt>
      <trkpt lat="50.45398" lon="3.31849">
        <ele>23.677204</ele>
        <time>2019-06-06T12:51:46Z</time>
      </trkpt>
      <trkpt lat="50.45386" lon="3.31844">
        <ele>23.836205</ele>
        <time>2019-06-06T12:51:48Z</time>
      </trkpt>
      <trkpt lat="50.45373" lon="3.31839">
        <ele>23.966063</ele>
        <time>2019-06-06T12:51:50Z</time>
      </trkpt>
      <trkpt lat="50.45361" lon="3.31834">
        <ele>24.05806</ele>
        <time>2019-06-06T12:51:52Z</time>
      </trkpt>
      <trkpt lat="50.4535" lon="3.31829">
        <ele>24.115944</ele>
        <time>2019-06-06T12:51:54Z</time>
      </trkpt>
      <trkpt lat="50.45338" lon="3.31824">
        <ele>24.082628</ele>
        <time>2019-06-06T12:51:56Z</time>
      </trkpt>
      <trkpt lat="50.45327" lon="3.3182">
        <ele>23.999332</ele>
        <time>2019-06-06T12:51:58Z</time>
      </trkpt>
      <trkpt lat="50.45319" lon="3.31817">
        <ele>23.913307</ele>
        <time>2019-06-06T12:52:00Z</time>
      </trkpt>
      <trkpt lat="50.45311" lon="3.31814">
        <ele>23.780029</ele>
        <time>2019-06-06T12:52:02Z</time>
      </trkpt>
      <trkpt lat="50.45303" lon="3.3181">
        <ele>23.600933</ele>
        <time>2019-06-06T12:52:04Z</time>
      </trkpt>
      <trkpt lat="50.45297" lon="3.31808">
        <ele>23.405186</ele>
        <time>2019-06-06T12:52:06Z</time>
      </trkpt>
      <trkpt lat="50.4529" lon="3.31805">
        <ele>23.171516</ele>
        <time>2019-06-06T12:52:08Z</time>
      </trkpt>
      <trkpt lat="50.45285" lon="3.31803">
        <ele>22.960457</ele>
        <time>2019-06-06T12:52:10Z</time>
      </trkpt>
      <trkpt lat="50.45279" lon="3.31801">
        <ele>22.749489</ele>
        <time>2019-06-06T12:52:12Z</time>
      </trkpt>
      <trkpt lat="50.45273" lon="3.31797">
        <ele>22.552536</ele>
        <time>2019-06-06T12:52:14Z</time>
      </trkpt>
      <trkpt lat="50.45268" lon="3.3179">
        <ele>22.444263</ele>
        <time>2019-06-06T12:52:16Z</time>
      </trkpt>
      <trkpt lat="50.45265" lon="3.3178">
        <ele>22.074871</ele>
        <time>2019-06-06T12:52:18Z</time>
      </trkpt>
      <trkpt lat="50.45265" lon="3.31769">
        <ele>21.943348</ele>
        <time>2019-06-06T12:52:20Z</time>
      </trkpt>
      <trkpt lat="50.45267" lon="3.31757">
        <ele>21.653919</ele>
        <time>2019-06-06T12:52:22Z</time>
      </trkpt>
      <trkpt lat="50.45269" lon="3.31744">
        <ele>21.403393</ele>
        <time>2019-06-06T12:52:24Z</time>
      </trkpt>
      <trkpt lat="50.45272" lon="3.31733">
        <ele>21.178379</ele>
        <time>2019-06-06T12:52:26Z</time>
      </trkpt>
      <trkpt lat="50.45274" lon="3.31721">
        <ele>20.851051</ele>
        <time>2019-06-06T12:52:28Z</time>
      </trkpt>
      <trkpt lat="50.45277" lon="3.31709">
        <ele>20.570311</ele>
        <time>2019-06-06T12:52:30Z</time>
      </trkpt>
      <trkpt lat="50.45279" lon="3.31697">
        <ele>20.303532</ele>
        <time>2019-06-06T12:52:32Z</time>
      </trkpt>
      <trkpt lat="50.45281" lon="3.31686">
        <ele>20.147121</ele>
        <time>2019-06-06T12:52:34Z</time>
      </trkpt>
      <trkpt lat="50.45284" lon="3.31675">
        <ele>19.865194</ele>
        <time>2019-06-06T12:52:36Z</time>
      </trkpt>
      <trkpt lat="50.45286" lon="3.31663">
        <ele>19.648716</ele>
        <time>2019-06-06T12:52:38Z</time>
      </trkpt>
      <trkpt lat="50.45288" lon="3.31651">
        <ele>19.445047</ele>
        <time>2019-06-06T12:52:40Z</time>
      </trkpt>
      <trkpt lat="50.45291" lon="3.31638">
        <ele>19.232784</ele>
        <time>2019-06-06T12:52:42Z</time>
      </trkpt>
      <trkpt lat="50.45294" lon="3.31624">
        <ele>19.064732</ele>
        <time>2019-06-06T12:52:44Z</time>
      </trkpt>
      <trkpt lat="50.45297" lon="3.3161">
        <ele>18.894947</ele>
        <time>2019-06-06T12:52:46Z</time>
      </trkpt>
      <trkpt lat="50.453" lon="3.31595">
        <ele>18.741482</ele>
        <time>2019-06-06T12:52:48Z</time>
      </trkpt>
      <trkpt lat="50.45303" lon="3.31581">
        <ele>18.620678</ele>
        <time>2019-06-06T12:52:50Z</time>
      </trkpt>
      <trkpt lat="50.45306" lon="3.31566">
        <ele>18.573696</ele>
        <time>2019-06-06T12:52:52Z</time>
      </trkpt>
      <trkpt lat="50.45309" lon="3.31552">
        <ele>18.462915</ele>
        <time>2019-06-06T12:52:54Z</time>
      </trkpt>
      <trkpt lat="50.45313" lon="3.31538">
        <ele>18.319874</ele>
        <time>2019-06-06T12:52:56Z</time>
      </trkpt>
      <trkpt lat="50.45317" lon="3.31517">
        <ele>18.162428</ele>
        <time>2019-06-06T12:52:59Z</time>
      </trkpt>
      <trkpt lat="50.4532" lon="3.31503">
        <ele>18.072861</ele>
        <time>2019-06-06T12:53:01Z</time>
      </trkpt>
      <trkpt lat="50.45322" lon="3.3149">
        <ele>18.009121</ele>
        <time>2019-06-06T12:53:03Z</time>
      </trkpt>
      <trkpt lat="50.45326" lon="3.31476">
        <ele>17.999407</ele>
        <time>2019-06-06T12:53:05Z</time>
      </trkpt>
      <trkpt lat="50.45328" lon="3.31462">
        <ele>17.996798</ele>
        <time>2019-06-06T12:53:07Z</time>
      </trkpt>
      <trkpt lat="50.45331" lon="3.31448">
        <ele>18.011337</ele>
        <time>2019-06-06T12:53:09Z</time>
      </trkpt>
      <trkpt lat="50.45334" lon="3.31433">
        <ele>18.040174</ele>
        <time>2019-06-06T12:53:11Z</time>
      </trkpt>
      <trkpt lat="50.45337" lon="3.31418">
        <ele>18.069542</ele>
        <time>2019-06-06T12:53:13Z</time>
      </trkpt>
      <trkpt lat="50.4534" lon="3.31403">
        <ele>18.110113</ele>
        <time>2019-06-06T12:53:15Z</time>
      </trkpt>
      <trkpt lat="50.45343" lon="3.31388">
        <ele>18.151062</ele>
        <time>2019-06-06T12:53:17Z</time>
      </trkpt>
      <trkpt lat="50.45347" lon="3.31372">
        <ele>18.157307</ele>
        <time>2019-06-06T12:53:19Z</time>
      </trkpt>
      <trkpt lat="50.4535" lon="3.31357">
        <ele>18.196165</ele>
        <time>2019-06-06T12:53:21Z</time>
      </trkpt>
      <trkpt lat="50.45353" lon="3.31341">
        <ele>18.276503</ele>
        <time>2019-06-06T12:53:23Z</time>
      </trkpt>
      <trkpt lat="50.45356" lon="3.31327">
        <ele>18.343065</ele>
        <time>2019-06-06T12:53:25Z</time>
      </trkpt>
      <trkpt lat="50.45359" lon="3.31313">
        <ele>18.376884</ele>
        <time>2019-06-06T12:53:27Z</time>
      </trkpt>
      <trkpt lat="50.45362" lon="3.31299">
        <ele>18.45229</ele>
        <time>2019-06-06T12:53:29Z</time>
      </trkpt>
      <trkpt lat="50.45365" lon="3.31284">
        <ele>18.519886</ele>
        <time>2019-06-06T12:53:31Z</time>
      </trkpt>
      <trkpt lat="50.45368" lon="3.31269">
        <ele>18.551867</ele>
        <time>2019-06-06T12:53:33Z</time>
      </trkpt>
      <trkpt lat="50.45371" lon="3.31254">
        <ele>18.623201</ele>
        <time>2019-06-06T12:53:35Z</time>
      </trkpt>
      <trkpt lat="50.45375" lon="3.3124">
        <ele>18.698565</ele>
        <time>2019-06-06T12:53:37Z</time>
      </trkpt>
      <trkpt lat="50.45378" lon="3.31225">
        <ele>18.763821</ele>
        <time>2019-06-06T12:53:39Z</time>
      </trkpt>
      <trkpt lat="50.45381" lon="3.3121">
        <ele>18.79974</ele>
        <time>2019-06-06T12:53:41Z</time>
      </trkpt>
      <trkpt lat="50.45384" lon="3.31195">
        <ele>18.798632</ele>
        <time>2019-06-06T12:53:43Z</time>
      </trkpt>
      <trkpt lat="50.45387" lon="3.31179">
        <ele>18.838331</ele>
        <time>2019-06-06T12:53:45Z</time>
      </trkpt>
      <trkpt lat="50.4539" lon="3.31164">
        <ele>18.911192</ele>
        <time>2019-06-06T12:53:47Z</time>
      </trkpt>
      <trkpt lat="50.45393" lon="3.31149">
        <ele>18.916943</ele>
        <time>2019-06-06T12:53:49Z</time>
      </trkpt>
      <trkpt lat="50.45397" lon="3.31133">
        <ele>18.922199</ele>
        <time>2019-06-06T12:53:51Z</time>
      </trkpt>
      <trkpt lat="50.454" lon="3.31117">
        <ele>18.918917</ele>
        <time>2019-06-06T12:53:53Z</time>
      </trkpt>
      <trkpt lat="50.45404" lon="3.31101">
        <ele>18.919506</ele>
        <time>2019-06-06T12:53:55Z</time>
      </trkpt>
      <trkpt lat="50.45407" lon="3.31085">
        <ele>18.922859</ele>
        <time>2019-06-06T12:53:57Z</time>
      </trkpt>
      <trkpt lat="50.45411" lon="3.31069">
        <ele>18.92078</ele>
        <time>2019-06-06T12:53:59Z</time>
      </trkpt>
      <trkpt lat="50.45414" lon="3.31053">
        <ele>18.924517</ele>
        <time>2019-06-06T12:54:01Z</time>
      </trkpt>
      <trkpt lat="50.45417" lon="3.31035">
        <ele>18.946012</ele>
        <time>2019-06-06T12:54:03Z</time>
      </trkpt>
      <trkpt lat="50.45421" lon="3.31019">
        <ele>18.961733</ele>
        <time>2019-06-06T12:54:05Z</time>
      </trkpt>
      <trkpt lat="50.45424" lon="3.31002">
        <ele>18.937204</ele>
        <time>2019-06-06T12:54:07Z</time>
      </trkpt>
      <trkpt lat="50.45428" lon="3.30985">
        <ele>18.928879</ele>
        <time>2019-06-06T12:54:09Z</time>
      </trkpt>
      <trkpt lat="50.45431" lon="3.30969">
        <ele>18.929007</ele>
        <time>2019-06-06T12:54:11Z</time>
      </trkpt>
      <trkpt lat="50.45435" lon="3.30952">
        <ele>18.911306</ele>
        <time>2019-06-06T12:54:13Z</time>
      </trkpt>
      <trkpt lat="50.45438" lon="3.30937">
        <ele>18.923679</ele>
        <time>2019-06-06T12:54:15Z</time>
      </trkpt>
      <trkpt lat="50.4544" lon="3.30923">
        <ele>18.918484</ele>
        <time>2019-06-06T12:54:17Z</time>
      </trkpt>
      <trkpt lat="50.45443" lon="3.30908">
        <ele>18.920034</ele>
        <time>2019-06-06T12:54:19Z</time>
      </trkpt>
      <trkpt lat="50.45446" lon="3.30896">
        <ele>18.927914</ele>
        <time>2019-06-06T12:54:21Z</time>
      </trkpt>
      <trkpt lat="50.45448" lon="3.30885">
        <ele>18.936935</ele>
        <time>2019-06-06T12:54:23Z</time>
      </trkpt>
      <trkpt lat="50.4545" lon="3.30873">
        <ele>18.990185</ele>
        <time>2019-06-06T12:54:25Z</time>
      </trkpt>
      <trkpt lat="50.45449" lon="3.30861">
        <ele>19.051449</ele>
        <time>2019-06-06T12:54:27Z</time>
      </trkpt>
      <trkpt lat="50.45445" lon="3.30851">
        <ele>19.091242</ele>
        <time>2019-06-06T12:54:29Z</time>
      </trkpt>
      <trkpt lat="50.45438" lon="3.30843">
        <ele>19.06834</ele>
        <time>2019-06-06T12:54:31Z</time>
      </trkpt>
      <trkpt lat="50.45432" lon="3.30834">
        <ele>19.114532</ele>
        <time>2019-06-06T12:54:33Z</time>
      </trkpt>
      <trkpt lat="50.45427" lon="3.30827">
        <ele>19.139614</ele>
        <time>2019-06-06T12:54:35Z</time>
      </trkpt>
      <trkpt lat="50.45422" lon="3.30821">
        <ele>19.163904</ele>
        <time>2019-06-06T12:54:37Z</time>
      </trkpt>
      <trkpt lat="50.45419" lon="3.30816">
        <ele>19.183905</ele>
        <time>2019-06-06T12:54:39Z</time>
      </trkpt>
      <trkpt lat="50.45414" lon="3.30809">
        <ele>19.184025</ele>
        <time>2019-06-06T12:54:41Z</time>
      </trkpt>
      <trkpt lat="50.45409" lon="3.30802">
        <ele>19.20306</ele>
        <time>2019-06-06T12:54:43Z</time>
      </trkpt>
      <trkpt lat="50.45403" lon="3.30793">
        <ele>19.219715</ele>
        <time>2019-06-06T12:54:45Z</time>
      </trkpt>
      <trkpt lat="50.45398" lon="3.30784">
        <ele>19.230612</ele>
        <time>2019-06-06T12:54:47Z</time>
      </trkpt>
      <trkpt lat="50.45392" lon="3.30775">
        <ele>19.225723</ele>
        <time>2019-06-06T12:54:49Z</time>
      </trkpt>
      <trkpt lat="50.45386" lon="3.30765">
        <ele>19.179279</ele>
        <time>2019-06-06T12:54:51Z</time>
      </trkpt>
      <trkpt lat="50.4538" lon="3.30755">
        <ele>19.20034</ele>
        <time>2019-06-06T12:54:53Z</time>
      </trkpt>
      <trkpt lat="50.45374" lon="3.30746">
        <ele>19.204975</ele>
        <time>2019-06-06T12:54:55Z</time>
      </trkpt>
      <trkpt lat="50.45369" lon="3.30737">
        <ele>19.177572</ele>
        <time>2019-06-06T12:54:57Z</time>
      </trkpt>
      <trkpt lat="50.45364" lon="3.30729">
        <ele>19.136568</ele>
        <time>2019-06-06T12:54:59Z</time>
      </trkpt>
      <trkpt lat="50.45359" lon="3.30721">
        <ele>19.101521</ele>
        <time>2019-06-06T12:55:01Z</time>
      </trkpt>
      <trkpt lat="50.45354" lon="3.30713">
        <ele>19.094296</ele>
        <time>2019-06-06T12:55:03Z</time>
      </trkpt>
      <trkpt lat="50.45349" lon="3.30704">
        <ele>19.053818</ele>
        <time>2019-06-06T12:55:05Z</time>
      </trkpt>
      <trkpt lat="50.45343" lon="3.30695">
        <ele>19.021763</ele>
        <time>2019-06-06T12:55:07Z</time>
      </trkpt>
      <trkpt lat="50.45338" lon="3.30686">
        <ele>18.941616</ele>
        <time>2019-06-06T12:55:09Z</time>
      </trkpt>
      <trkpt lat="50.45334" lon="3.3068">
        <ele>18.923738</ele>
        <time>2019-06-06T12:55:11Z</time>
      </trkpt>
      <trkpt lat="50.4533" lon="3.30673">
        <ele>18.85667</ele>
        <time>2019-06-06T12:55:13Z</time>
      </trkpt>
      <trkpt lat="50.45327" lon="3.30666">
        <ele>18.782284</ele>
        <time>2019-06-06T12:55:15Z</time>
      </trkpt>
      <trkpt lat="50.45326" lon="3.30656">
        <ele>18.713608</ele>
        <time>2019-06-06T12:55:17Z</time>
      </trkpt>
      <trkpt lat="50.45328" lon="3.30646">
        <ele>18.636429</ele>
        <time>2019-06-06T12:55:19Z</time>
      </trkpt>
      <trkpt lat="50.45333" lon="3.30638">
        <ele>18.612791</ele>
        <time>2019-06-06T12:55:21Z</time>
      </trkpt>
      <trkpt lat="50.4534" lon="3.3063">
        <ele>18.531467</ele>
        <time>2019-06-06T12:55:23Z</time>
      </trkpt>
      <trkpt lat="50.45348" lon="3.30623">
        <ele>18.406698</ele>
        <time>2019-06-06T12:55:25Z</time>
      </trkpt>
      <trkpt lat="50.45356" lon="3.30614">
        <ele>18.370045</ele>
        <time>2019-06-06T12:55:27Z</time>
      </trkpt>
      <trkpt lat="50.45365" lon="3.30606">
        <ele>18.249592</ele>
        <time>2019-06-06T12:55:29Z</time>
      </trkpt>
      <trkpt lat="50.45374" lon="3.30597">
        <ele>18.180506</ele>
        <time>2019-06-06T12:55:31Z</time>
      </trkpt>
      <trkpt lat="50.45383" lon="3.30588">
        <ele>18.079348</ele>
        <time>2019-06-06T12:55:33Z</time>
      </trkpt>
      <trkpt lat="50.45391" lon="3.30578">
        <ele>18.064774</ele>
        <time>2019-06-06T12:55:35Z</time>
      </trkpt>
      <trkpt lat="50.45399" lon="3.30568">
        <ele>17.985588</ele>
        <time>2019-06-06T12:55:37Z</time>
      </trkpt>
      <trkpt lat="50.45407" lon="3.30558">
        <ele>17.93771</ele>
        <time>2019-06-06T12:55:39Z</time>
      </trkpt>
      <trkpt lat="50.45414" lon="3.30547">
        <ele>17.874489</ele>
        <time>2019-06-06T12:55:41Z</time>
      </trkpt>
      <trkpt lat="50.45421" lon="3.30537">
        <ele>17.834942</ele>
        <time>2019-06-06T12:55:43Z</time>
      </trkpt>
      <trkpt lat="50.45427" lon="3.30526">
        <ele>17.799129</ele>
        <time>2019-06-06T12:55:45Z</time>
      </trkpt>
      <trkpt lat="50.45434" lon="3.30515">
        <ele>17.746525</ele>
        <time>2019-06-06T12:55:47Z</time>
      </trkpt>
      <trkpt lat="50.45441" lon="3.30504">
        <ele>17.713552</ele>
        <time>2019-06-06T12:55:49Z</time>
      </trkpt>
      <trkpt lat="50.45447" lon="3.30492">
        <ele>17.683664</ele>
        <time>2019-06-06T12:55:51Z</time>
      </trkpt>
      <trkpt lat="50.45453" lon="3.30479">
        <ele>17.639408</ele>
        <time>2019-06-06T12:55:53Z</time>
      </trkpt>
      <trkpt lat="50.45458" lon="3.30465">
        <ele>17.600834</ele>
        <time>2019-06-06T12:55:55Z</time>
      </trkpt>
      <trkpt lat="50.45462" lon="3.30451">
        <ele>17.573143</ele>
        <time>2019-06-06T12:55:57Z</time>
      </trkpt>
      <trkpt lat="50.45467" lon="3.30439">
        <ele>17.537901</ele>
        <time>2019-06-06T12:55:59Z</time>
      </trkpt>
      <trkpt lat="50.45473" lon="3.30428">
        <ele>17.537291</ele>
        <time>2019-06-06T12:56:01Z</time>
      </trkpt>
      <trkpt lat="50.45479" lon="3.30418">
        <ele>17.522072</ele>
        <time>2019-06-06T12:56:03Z</time>
      </trkpt>
      <trkpt lat="50.45486" lon="3.30409">
        <ele>17.520731</ele>
        <time>2019-06-06T12:56:05Z</time>
      </trkpt>
      <trkpt lat="50.45493" lon="3.304">
        <ele>17.506649</ele>
        <time>2019-06-06T12:56:07Z</time>
      </trkpt>
      <trkpt lat="50.45499" lon="3.30389">
        <ele>17.512325</ele>
        <time>2019-06-06T12:56:09Z</time>
      </trkpt>
      <trkpt lat="50.45505" lon="3.30377">
        <ele>17.457445</ele>
        <time>2019-06-06T12:56:11Z</time>
      </trkpt>
      <trkpt lat="50.45511" lon="3.30364">
        <ele>17.442783</ele>
        <time>2019-06-06T12:56:13Z</time>
      </trkpt>
      <trkpt lat="50.45516" lon="3.30351">
        <ele>17.443981</ele>
        <time>2019-06-06T12:56:15Z</time>
      </trkpt>
      <trkpt lat="50.4552" lon="3.30337">
        <ele>17.368767</ele>
        <time>2019-06-06T12:56:17Z</time>
      </trkpt>
      <trkpt lat="50.45525" lon="3.30323">
        <ele>17.304251</ele>
        <time>2019-06-06T12:56:19Z</time>
      </trkpt>
      <trkpt lat="50.4553" lon="3.30309">
        <ele>17.242748</ele>
        <time>2019-06-06T12:56:21Z</time>
      </trkpt>
      <trkpt lat="50.45535" lon="3.30294">
        <ele>17.151705</ele>
        <time>2019-06-06T12:56:23Z</time>
      </trkpt>
      <trkpt lat="50.45538" lon="3.30278">
        <ele>17.07983</ele>
        <time>2019-06-06T12:56:25Z</time>
      </trkpt>
      <trkpt lat="50.45541" lon="3.30262">
        <ele>16.964947</ele>
        <time>2019-06-06T12:56:27Z</time>
      </trkpt>
      <trkpt lat="50.45544" lon="3.30246">
        <ele>16.877968</ele>
        <time>2019-06-06T12:56:29Z</time>
      </trkpt>
      <trkpt lat="50.45545" lon="3.30231">
        <ele>16.744396</ele>
        <time>2019-06-06T12:56:31Z</time>
      </trkpt>
      <trkpt lat="50.45547" lon="3.30217">
        <ele>16.584948</ele>
        <time>2019-06-06T12:56:33Z</time>
      </trkpt>
      <trkpt lat="50.45549" lon="3.30202">
        <ele>16.438063</ele>
        <time>2019-06-06T12:56:35Z</time>
      </trkpt>
      <trkpt lat="50.45551" lon="3.30187">
        <ele>16.372953</ele>
        <time>2019-06-06T12:56:37Z</time>
      </trkpt>
      <trkpt lat="50.45554" lon="3.30173">
        <ele>16.26371</ele>
        <time>2019-06-06T12:56:39Z</time>
      </trkpt>
      <trkpt lat="50.45556" lon="3.30158">
        <ele>16.162464</ele>
        <time>2019-06-06T12:56:41Z</time>
      </trkpt>
      <trkpt lat="50.45558" lon="3.30143">
        <ele>16.071083</ele>
        <time>2019-06-06T12:56:43Z</time>
      </trkpt>
      <trkpt lat="50.4556" lon="3.30127">
        <ele>16.041945</ele>
        <time>2019-06-06T12:56:45Z</time>
      </trkpt>
      <trkpt lat="50.45562" lon="3.30111">
        <ele>15.970448</ele>
        <time>2019-06-06T12:56:47Z</time>
      </trkpt>
      <trkpt lat="50.45563" lon="3.30095">
        <ele>15.948717</ele>
        <time>2019-06-06T12:56:49Z</time>
      </trkpt>
      <trkpt lat="50.45563" lon="3.30078">
        <ele>15.900044</ele>
        <time>2019-06-06T12:56:51Z</time>
      </trkpt>
      <trkpt lat="50.45562" lon="3.30062">
        <ele>15.898634</ele>
        <time>2019-06-06T12:56:53Z</time>
      </trkpt>
      <trkpt lat="50.45561" lon="3.30047">
        <ele>15.928102</ele>
        <time>2019-06-06T12:56:55Z</time>
      </trkpt>
      <trkpt lat="50.4556" lon="3.30031">
        <ele>15.940554</ele>
        <time>2019-06-06T12:56:57Z</time>
      </trkpt>
      <trkpt lat="50.45559" lon="3.30014">
        <ele>15.989733</ele>
        <time>2019-06-06T12:56:59Z</time>
      </trkpt>
      <trkpt lat="50.45558" lon="3.29998">
        <ele>16.08773</ele>
        <time>2019-06-06T12:57:01Z</time>
      </trkpt>
      <trkpt lat="50.45559" lon="3.29981">
        <ele>16.110916</ele>
        <time>2019-06-06T12:57:03Z</time>
      </trkpt>
      <trkpt lat="50.45559" lon="3.29965">
        <ele>16.240749</ele>
        <time>2019-06-06T12:57:05Z</time>
      </trkpt>
      <trkpt lat="50.45561" lon="3.29948">
        <ele>16.340334</ele>
        <time>2019-06-06T12:57:07Z</time>
      </trkpt>
      <trkpt lat="50.45563" lon="3.29931">
        <ele>16.428278</ele>
        <time>2019-06-06T12:57:09Z</time>
      </trkpt>
      <trkpt lat="50.45567" lon="3.29916">
        <ele>16.529675</ele>
        <time>2019-06-06T12:57:11Z</time>
      </trkpt>
      <trkpt lat="50.45571" lon="3.29902">
        <ele>16.665972</ele>
        <time>2019-06-06T12:57:13Z</time>
      </trkpt>
      <trkpt lat="50.45576" lon="3.29887">
        <ele>16.805626</ele>
        <time>2019-06-06T12:57:15Z</time>
      </trkpt>
      <trkpt lat="50.45581" lon="3.29872">
        <ele>16.849325</ele>
        <time>2019-06-06T12:57:17Z</time>
      </trkpt>
      <trkpt lat="50.45586" lon="3.29857">
        <ele>16.947302</ele>
        <time>2019-06-06T12:57:19Z</time>
      </trkpt>
      <trkpt lat="50.45592" lon="3.29842">
        <ele>17.014526</ele>
        <time>2019-06-06T12:57:21Z</time>
      </trkpt>
      <trkpt lat="50.45597" lon="3.29828">
        <ele>17.04649</ele>
        <time>2019-06-06T12:57:23Z</time>
      </trkpt>
      <trkpt lat="50.45601" lon="3.29813">
        <ele>17.042744</ele>
        <time>2019-06-06T12:57:25Z</time>
      </trkpt>
      <trkpt lat="50.45603" lon="3.29797">
        <ele>17.059444</ele>
        <time>2019-06-06T12:57:27Z</time>
      </trkpt>
      <trkpt lat="50.45603" lon="3.29782">
        <ele>17.03068</ele>
        <time>2019-06-06T12:57:29Z</time>
      </trkpt>
      <trkpt lat="50.45603" lon="3.29767">
        <ele>16.943924</ele>
        <time>2019-06-06T12:57:31Z</time>
      </trkpt>
      <trkpt lat="50.45602" lon="3.2975">
        <ele>16.86631</ele>
        <time>2019-06-06T12:57:33Z</time>
      </trkpt>
      <trkpt lat="50.456" lon="3.29734">
        <ele>16.743525</ele>
        <time>2019-06-06T12:57:35Z</time>
      </trkpt>
      <trkpt lat="50.45598" lon="3.29718">
        <ele>16.677486</ele>
        <time>2019-06-06T12:57:37Z</time>
      </trkpt>
      <trkpt lat="50.45596" lon="3.29702">
        <ele>16.540447</ele>
        <time>2019-06-06T12:57:39Z</time>
      </trkpt>
      <trkpt lat="50.45593" lon="3.29686">
        <ele>16.455265</ele>
        <time>2019-06-06T12:57:41Z</time>
      </trkpt>
      <trkpt lat="50.45589" lon="3.2967">
        <ele>16.401974</ele>
        <time>2019-06-06T12:57:43Z</time>
      </trkpt>
      <trkpt lat="50.45586" lon="3.29654">
        <ele>16.259077</ele>
        <time>2019-06-06T12:57:45Z</time>
      </trkpt>
      <trkpt lat="50.45583" lon="3.29638">
        <ele>16.105434</ele>
        <time>2019-06-06T12:57:47Z</time>
      </trkpt>
      <trkpt lat="50.4558" lon="3.29622">
        <ele>15.979146</ele>
        <time>2019-06-06T12:57:49Z</time>
      </trkpt>
      <trkpt lat="50.45578" lon="3.29605">
        <ele>15.900053</ele>
        <time>2019-06-06T12:57:51Z</time>
      </trkpt>
      <trkpt lat="50.45575" lon="3.29587">
        <ele>15.720434</ele>
        <time>2019-06-06T12:57:53Z</time>
      </trkpt>
      <trkpt lat="50.4557" lon="3.29573">
        <ele>15.564445</ele>
        <time>2019-06-06T12:57:55Z</time>
      </trkpt>
      <trkpt lat="50.45562" lon="3.29562">
        <ele>15.455847</ele>
        <time>2019-06-06T12:57:57Z</time>
      </trkpt>
      <trkpt lat="50.45554" lon="3.29551">
        <ele>15.270894</ele>
        <time>2019-06-06T12:57:59Z</time>
      </trkpt>
      <trkpt lat="50.45546" lon="3.2954">
        <ele>15.095711</ele>
        <time>2019-06-06T12:58:01Z</time>
      </trkpt>
      <trkpt lat="50.45538" lon="3.29529">
        <ele>14.966931</ele>
        <time>2019-06-06T12:58:03Z</time>
      </trkpt>
      <trkpt lat="50.45532" lon="3.29518">
        <ele>14.872393</ele>
        <time>2019-06-06T12:58:05Z</time>
      </trkpt>
      <trkpt lat="50.45525" lon="3.29509">
        <ele>14.846072</ele>
        <time>2019-06-06T12:58:07Z</time>
      </trkpt>
      <trkpt lat="50.4552" lon="3.29501">
        <ele>14.72677</ele>
        <time>2019-06-06T12:58:09Z</time>
      </trkpt>
      <trkpt lat="50.45517" lon="3.29495">
        <ele>14.710124</ele>
        <time>2019-06-06T12:58:11Z</time>
      </trkpt>
      <trkpt lat="50.45513" lon="3.2949">
        <ele>14.660769</ele>
        <time>2019-06-06T12:58:13Z</time>
      </trkpt>
      <trkpt lat="50.45509" lon="3.29484">
        <ele>14.614967</ele>
        <time>2019-06-06T12:58:15Z</time>
      </trkpt>
      <trkpt lat="50.45505" lon="3.29477">
        <ele>14.572873</ele>
        <time>2019-06-06T12:58:17Z</time>
      </trkpt>
      <trkpt lat="50.45501" lon="3.29471">
        <ele>14.564798</ele>
        <time>2019-06-06T12:58:19Z</time>
      </trkpt>
      <trkpt lat="50.45495" lon="3.29473">
        <ele>14.519064</ele>
        <time>2019-06-06T12:58:21Z</time>
      </trkpt>
      <trkpt lat="50.45488" lon="3.2948">
        <ele>14.522238</ele>
        <time>2019-06-06T12:58:23Z</time>
      </trkpt>
      <trkpt lat="50.45481" lon="3.29488">
        <ele>14.51193</ele>
        <time>2019-06-06T12:58:25Z</time>
      </trkpt>
      <trkpt lat="50.45474" lon="3.29497">
        <ele>14.498398</ele>
        <time>2019-06-06T12:58:27Z</time>
      </trkpt>
      <trkpt lat="50.45466" lon="3.29506">
        <ele>14.525612</ele>
        <time>2019-06-06T12:58:29Z</time>
      </trkpt>
      <trkpt lat="50.45458" lon="3.29514">
        <ele>14.511264</ele>
        <time>2019-06-06T12:58:31Z</time>
      </trkpt>
      <trkpt lat="50.4545" lon="3.29523">
        <ele>14.537163</ele>
        <time>2019-06-06T12:58:33Z</time>
      </trkpt>
      <trkpt lat="50.45442" lon="3.29532">
        <ele>14.545488</ele>
        <time>2019-06-06T12:58:35Z</time>
      </trkpt>
      <trkpt lat="50.45433" lon="3.29541">
        <ele>14.644888</ele>
        <time>2019-06-06T12:58:37Z</time>
      </trkpt>
      <trkpt lat="50.45424" lon="3.2955">
        <ele>14.713137</ele>
        <time>2019-06-06T12:58:39Z</time>
      </trkpt>
      <trkpt lat="50.45415" lon="3.29559">
        <ele>14.806116</ele>
        <time>2019-06-06T12:58:41Z</time>
      </trkpt>
      <trkpt lat="50.45405" lon="3.29567">
        <ele>14.883115</ele>
        <time>2019-06-06T12:58:43Z</time>
      </trkpt>
      <trkpt lat="50.45395" lon="3.29574">
        <ele>15.03919</ele>
        <time>2019-06-06T12:58:45Z</time>
      </trkpt>
      <trkpt lat="50.45385" lon="3.29581">
        <ele>15.210381</ele>
        <time>2019-06-06T12:58:47Z</time>
      </trkpt>
      <trkpt lat="50.45375" lon="3.29588">
        <ele>15.372088</ele>
        <time>2019-06-06T12:58:49Z</time>
      </trkpt>
      <trkpt lat="50.45365" lon="3.29594">
        <ele>15.439262</ele>
        <time>2019-06-06T12:58:51Z</time>
      </trkpt>
      <trkpt lat="50.45355" lon="3.29598">
        <ele>15.567375</ele>
        <time>2019-06-06T12:58:53Z</time>
      </trkpt>
      <trkpt lat="50.45344" lon="3.29601">
        <ele>15.731959</ele>
        <time>2019-06-06T12:58:55Z</time>
      </trkpt>
      <trkpt lat="50.45334" lon="3.29604">
        <ele>15.871837</ele>
        <time>2019-06-06T12:58:57Z</time>
      </trkpt>
      <trkpt lat="50.45323" lon="3.29606">
        <ele>16.06745</ele>
        <time>2019-06-06T12:58:59Z</time>
      </trkpt>
      <trkpt lat="50.45312" lon="3.29607">
        <ele>16.158236</ele>
        <time>2019-06-06T12:59:01Z</time>
      </trkpt>
      <trkpt lat="50.45301" lon="3.29608">
        <ele>16.312645</ele>
        <time>2019-06-06T12:59:03Z</time>
      </trkpt>
      <trkpt lat="50.4529" lon="3.29609">
        <ele>16.467447</ele>
        <time>2019-06-06T12:59:05Z</time>
      </trkpt>
      <trkpt lat="50.45279" lon="3.29609">
        <ele>16.622137</ele>
        <time>2019-06-06T12:59:07Z</time>
      </trkpt>
      <trkpt lat="50.45267" lon="3.2961">
        <ele>16.776138</ele>
        <time>2019-06-06T12:59:09Z</time>
      </trkpt>
      <trkpt lat="50.45256" lon="3.2961">
        <ele>16.828167</ele>
        <time>2019-06-06T12:59:11Z</time>
      </trkpt>
      <trkpt lat="50.45245" lon="3.2961">
        <ele>16.963657</ele>
        <time>2019-06-06T12:59:13Z</time>
      </trkpt>
      <trkpt lat="50.45235" lon="3.2961">
        <ele>17.098042</ele>
        <time>2019-06-06T12:59:15Z</time>
      </trkpt>
      <trkpt lat="50.45224" lon="3.29611">
        <ele>17.220608</ele>
        <time>2019-06-06T12:59:17Z</time>
      </trkpt>
      <trkpt lat="50.45214" lon="3.29612">
        <ele>17.268478</ele>
        <time>2019-06-06T12:59:19Z</time>
      </trkpt>
      <trkpt lat="50.45203" lon="3.29615">
        <ele>17.343855</ele>
        <time>2019-06-06T12:59:21Z</time>
      </trkpt>
      <trkpt lat="50.45192" lon="3.29618">
        <ele>17.441677</ele>
        <time>2019-06-06T12:59:23Z</time>
      </trkpt>
      <trkpt lat="50.45181" lon="3.29622">
        <ele>17.528883</ele>
        <time>2019-06-06T12:59:25Z</time>
      </trkpt>
      <trkpt lat="50.45171" lon="3.29627">
        <ele>17.580711</ele>
        <time>2019-06-06T12:59:27Z</time>
      </trkpt>
      <trkpt lat="50.4516" lon="3.29631">
        <ele>17.57863</ele>
        <time>2019-06-06T12:59:29Z</time>
      </trkpt>
      <trkpt lat="50.45149" lon="3.29636">
        <ele>17.609852</ele>
        <time>2019-06-06T12:59:31Z</time>
      </trkpt>
      <trkpt lat="50.45139" lon="3.29641">
        <ele>17.552418</ele>
        <time>2019-06-06T12:59:33Z</time>
      </trkpt>
      <trkpt lat="50.45129" lon="3.29645">
        <ele>17.540699</ele>
        <time>2019-06-06T12:59:35Z</time>
      </trkpt>
      <trkpt lat="50.45119" lon="3.2965">
        <ele>17.497845</ele>
        <time>2019-06-06T12:59:37Z</time>
      </trkpt>
      <trkpt lat="50.45108" lon="3.29655">
        <ele>17.411598</ele>
        <time>2019-06-06T12:59:39Z</time>
      </trkpt>
      <trkpt lat="50.45098" lon="3.29661">
        <ele>17.26952</ele>
        <time>2019-06-06T12:59:41Z</time>
      </trkpt>
      <trkpt lat="50.45087" lon="3.29666">
        <ele>17.10017</ele>
        <time>2019-06-06T12:59:43Z</time>
      </trkpt>
      <trkpt lat="50.45077" lon="3.29671">
        <ele>16.989872</ele>
        <time>2019-06-06T12:59:45Z</time>
      </trkpt>
      <trkpt lat="50.45066" lon="3.29676">
        <ele>16.881472</ele>
        <time>2019-06-06T12:59:47Z</time>
      </trkpt>
      <trkpt lat="50.45055" lon="3.2968">
        <ele>16.779398</ele>
        <time>2019-06-06T12:59:49Z</time>
      </trkpt>
      <trkpt lat="50.45044" lon="3.29683">
        <ele>16.644136</ele>
        <time>2019-06-06T12:59:51Z</time>
      </trkpt>
      <trkpt lat="50.45033" lon="3.29686">
        <ele>16.489595</ele>
        <time>2019-06-06T12:59:53Z</time>
      </trkpt>
      <trkpt lat="50.45023" lon="3.2969">
        <ele>16.40217</ele>
        <time>2019-06-06T12:59:55Z</time>
      </trkpt>
      <trkpt lat="50.45013" lon="3.29693">
        <ele>16.146214</ele>
        <time>2019-06-06T12:59:57Z</time>
      </trkpt>
      <trkpt lat="50.44998" lon="3.29697">
        <ele>15.79453</ele>
        <time>2019-06-06T13:00:00Z</time>
      </trkpt>
      <trkpt lat="50.44988" lon="3.29699">
        <ele>15.667587</ele>
        <time>2019-06-06T13:00:02Z</time>
      </trkpt>
      <trkpt lat="50.44978" lon="3.297">
        <ele>15.432442</ele>
        <time>2019-06-06T13:00:04Z</time>
      </trkpt>
      <trkpt lat="50.44968" lon="3.29699">
        <ele>15.180191</ele>
        <time>2019-06-06T13:00:06Z</time>
      </trkpt>
      <trkpt lat="50.44958" lon="3.29698">
        <ele>14.899266</ele>
        <time>2019-06-06T13:00:08Z</time>
      </trkpt>
      <trkpt lat="50.44947" lon="3.29696">
        <ele>14.657847</ele>
        <time>2019-06-06T13:00:10Z</time>
      </trkpt>
      <trkpt lat="50.44936" lon="3.29695">
        <ele>14.523865</ele>
        <time>2019-06-06T13:00:12Z</time>
      </trkpt>
      <trkpt lat="50.44926" lon="3.29693">
        <ele>14.276248</ele>
        <time>2019-06-06T13:00:14Z</time>
      </trkpt>
      <trkpt lat="50.44915" lon="3.29691">
        <ele>14.003647</ele>
        <time>2019-06-06T13:00:16Z</time>
      </trkpt>
      <trkpt lat="50.44904" lon="3.29689">
        <ele>13.78639</ele>
        <time>2019-06-06T13:00:18Z</time>
      </trkpt>
      <trkpt lat="50.44893" lon="3.29689">
        <ele>13.582463</ele>
        <time>2019-06-06T13:00:20Z</time>
      </trkpt>
      <trkpt lat="50.44883" lon="3.29688">
        <ele>13.507559</ele>
        <time>2019-06-06T13:00:22Z</time>
      </trkpt>
      <trkpt lat="50.44872" lon="3.29688">
        <ele>13.374392</ele>
        <time>2019-06-06T13:00:24Z</time>
      </trkpt>
      <trkpt lat="50.44861" lon="3.29689">
        <ele>13.328613</ele>
        <time>2019-06-06T13:00:26Z</time>
      </trkpt>
      <trkpt lat="50.44851" lon="3.2969">
        <ele>13.257874</ele>
        <time>2019-06-06T13:00:28Z</time>
      </trkpt>
      <trkpt lat="50.4484" lon="3.29691">
        <ele>13.27244</ele>
        <time>2019-06-06T13:00:30Z</time>
      </trkpt>
      <trkpt lat="50.44829" lon="3.29692">
        <ele>13.146436</ele>
        <time>2019-06-06T13:00:32Z</time>
      </trkpt>
      <trkpt lat="50.44818" lon="3.29692">
        <ele>13.05706</ele>
        <time>2019-06-06T13:00:34Z</time>
      </trkpt>
      <trkpt lat="50.44807" lon="3.29692">
        <ele>13.011597</ele>
        <time>2019-06-06T13:00:36Z</time>
      </trkpt>
      <trkpt lat="50.44797" lon="3.2969">
        <ele>12.96535</ele>
        <time>2019-06-06T13:00:38Z</time>
      </trkpt>
      <trkpt lat="50.44787" lon="3.29687">
        <ele>12.940401</ele>
        <time>2019-06-06T13:00:40Z</time>
      </trkpt>
      <trkpt lat="50.44776" lon="3.29683">
        <ele>12.978244</ele>
        <time>2019-06-06T13:00:42Z</time>
      </trkpt>
      <trkpt lat="50.44766" lon="3.2968">
        <ele>12.994626</ele>
        <time>2019-06-06T13:00:44Z</time>
      </trkpt>
      <trkpt lat="50.44756" lon="3.29677">
        <ele>13.005483</ele>
        <time>2019-06-06T13:00:46Z</time>
      </trkpt>
      <trkpt lat="50.44746" lon="3.29673">
        <ele>13.006716</ele>
        <time>2019-06-06T13:00:48Z</time>
      </trkpt>
      <trkpt lat="50.44737" lon="3.29669">
        <ele>13.036356</ele>
        <time>2019-06-06T13:00:50Z</time>
      </trkpt>
      <trkpt lat="50.44727" lon="3.29662">
        <ele>13.081325</ele>
        <time>2019-06-06T13:00:52Z</time>
      </trkpt>
      <trkpt lat="50.44717" lon="3.29655">
        <ele>13.102598</ele>
        <time>2019-06-06T13:00:54Z</time>
      </trkpt>
      <trkpt lat="50.44708" lon="3.29648">
        <ele>13.127457</ele>
        <time>2019-06-06T13:00:56Z</time>
      </trkpt>
      <trkpt lat="50.44698" lon="3.2964">
        <ele>13.186506</ele>
        <time>2019-06-06T13:00:58Z</time>
      </trkpt>
      <trkpt lat="50.44688" lon="3.29632">
        <ele>13.275969</ele>
        <time>2019-06-06T13:01:00Z</time>
      </trkpt>
      <trkpt lat="50.44678" lon="3.29623">
        <ele>13.32798</ele>
        <time>2019-06-06T13:01:02Z</time>
      </trkpt>
      <trkpt lat="50.44668" lon="3.29615">
        <ele>13.338384</ele>
        <time>2019-06-06T13:01:04Z</time>
      </trkpt>
      <trkpt lat="50.44658" lon="3.29607">
        <ele>13.432013</ele>
        <time>2019-06-06T13:01:06Z</time>
      </trkpt>
      <trkpt lat="50.44647" lon="3.29599">
        <ele>13.523358</ele>
        <time>2019-06-06T13:01:08Z</time>
      </trkpt>
      <trkpt lat="50.44636" lon="3.29592">
        <ele>13.560808</ele>
        <time>2019-06-06T13:01:10Z</time>
      </trkpt>
      <trkpt lat="50.44626" lon="3.29585">
        <ele>13.677336</ele>
        <time>2019-06-06T13:01:12Z</time>
      </trkpt>
      <trkpt lat="50.44616" lon="3.29578">
        <ele>13.791774</ele>
        <time>2019-06-06T13:01:14Z</time>
      </trkpt>
      <trkpt lat="50.44605" lon="3.29572">
        <ele>13.882419</ele>
        <time>2019-06-06T13:01:16Z</time>
      </trkpt>
      <trkpt lat="50.44595" lon="3.29566">
        <ele>13.957492</ele>
        <time>2019-06-06T13:01:18Z</time>
      </trkpt>
      <trkpt lat="50.44585" lon="3.2956">
        <ele>14.044972</ele>
        <time>2019-06-06T13:01:20Z</time>
      </trkpt>
      <trkpt lat="50.44577" lon="3.29554">
        <ele>14.116608</ele>
        <time>2019-06-06T13:01:22Z</time>
      </trkpt>
      <trkpt lat="50.44568" lon="3.29549">
        <ele>14.211847</ele>
        <time>2019-06-06T13:01:24Z</time>
      </trkpt>
      <trkpt lat="50.44558" lon="3.29543">
        <ele>14.269396</ele>
        <time>2019-06-06T13:01:26Z</time>
      </trkpt>
      <trkpt lat="50.44549" lon="3.29536">
        <ele>14.377408</ele>
        <time>2019-06-06T13:01:28Z</time>
      </trkpt>
      <trkpt lat="50.44539" lon="3.2953">
        <ele>14.489067</ele>
        <time>2019-06-06T13:01:30Z</time>
      </trkpt>
      <trkpt lat="50.4453" lon="3.29524">
        <ele>14.606209</ele>
        <time>2019-06-06T13:01:32Z</time>
      </trkpt>
      <trkpt lat="50.4452" lon="3.29518">
        <ele>14.731341</ele>
        <time>2019-06-06T13:01:34Z</time>
      </trkpt>
      <trkpt lat="50.4451" lon="3.29512">
        <ele>14.795975</ele>
        <time>2019-06-06T13:01:36Z</time>
      </trkpt>
      <trkpt lat="50.44499" lon="3.29505">
        <ele>14.927763</ele>
        <time>2019-06-06T13:01:38Z</time>
      </trkpt>
      <trkpt lat="50.44489" lon="3.29499">
        <ele>15.0582</ele>
        <time>2019-06-06T13:01:40Z</time>
      </trkpt>
      <trkpt lat="50.44479" lon="3.29492">
        <ele>15.177559</ele>
        <time>2019-06-06T13:01:42Z</time>
      </trkpt>
      <trkpt lat="50.44468" lon="3.29486">
        <ele>15.196286</ele>
        <time>2019-06-06T13:01:44Z</time>
      </trkpt>
      <trkpt lat="50.44459" lon="3.2948">
        <ele>15.258014</ele>
        <time>2019-06-06T13:01:46Z</time>
      </trkpt>
      <trkpt lat="50.44449" lon="3.29474">
        <ele>15.343323</ele>
        <time>2019-06-06T13:01:48Z</time>
      </trkpt>
      <trkpt lat="50.4444" lon="3.29467">
        <ele>15.39118</ele>
        <time>2019-06-06T13:01:50Z</time>
      </trkpt>
      <trkpt lat="50.44431" lon="3.29462">
        <ele>15.380777</ele>
        <time>2019-06-06T13:01:52Z</time>
      </trkpt>
      <trkpt lat="50.44421" lon="3.29456">
        <ele>15.397626</ele>
        <time>2019-06-06T13:01:54Z</time>
      </trkpt>
      <trkpt lat="50.44413" lon="3.2945">
        <ele>15.40595</ele>
        <time>2019-06-06T13:01:56Z</time>
      </trkpt>
      <trkpt lat="50.44404" lon="3.29445">
        <ele>15.365954</ele>
        <time>2019-06-06T13:01:58Z</time>
      </trkpt>
      <trkpt lat="50.44394" lon="3.29438">
        <ele>15.365065</ele>
        <time>2019-06-06T13:02:00Z</time>
      </trkpt>
      <trkpt lat="50.44385" lon="3.29432">
        <ele>15.390038</ele>
        <time>2019-06-06T13:02:02Z</time>
      </trkpt>
      <trkpt lat="50.44376" lon="3.29426">
        <ele>15.426481</ele>
        <time>2019-06-06T13:02:04Z</time>
      </trkpt>
      <trkpt lat="50.44367" lon="3.2942">
        <ele>15.462784</ele>
        <time>2019-06-06T13:02:06Z</time>
      </trkpt>
      <trkpt lat="50.44358" lon="3.29415">
        <ele>15.434851</ele>
        <time>2019-06-06T13:02:08Z</time>
      </trkpt>
      <trkpt lat="50.4435" lon="3.2941">
        <ele>15.429085</ele>
        <time>2019-06-06T13:02:10Z</time>
      </trkpt>
      <trkpt lat="50.44341" lon="3.29404">
        <ele>15.420786</ele>
        <time>2019-06-06T13:02:12Z</time>
      </trkpt>
      <trkpt lat="50.44332" lon="3.29399">
        <ele>15.392138</ele>
        <time>2019-06-06T13:02:14Z</time>
      </trkpt>
      <trkpt lat="50.44323" lon="3.29393">
        <ele>15.404135</ele>
        <time>2019-06-06T13:02:16Z</time>
      </trkpt>
      <trkpt lat="50.44314" lon="3.29386">
        <ele>15.480043</ele>
        <time>2019-06-06T13:02:18Z</time>
      </trkpt>
      <trkpt lat="50.44305" lon="3.2938">
        <ele>15.513596</ele>
        <time>2019-06-06T13:02:20Z</time>
      </trkpt>
      <trkpt lat="50.44295" lon="3.29374">
        <ele>15.53618</ele>
        <time>2019-06-06T13:02:22Z</time>
      </trkpt>
      <trkpt lat="50.44285" lon="3.29368">
        <ele>15.574713</ele>
        <time>2019-06-06T13:02:24Z</time>
      </trkpt>
      <trkpt lat="50.44276" lon="3.29362">
        <ele>15.610286</ele>
        <time>2019-06-06T13:02:26Z</time>
      </trkpt>
      <trkpt lat="50.44266" lon="3.29356">
        <ele>15.65463</ele>
        <time>2019-06-06T13:02:28Z</time>
      </trkpt>
      <trkpt lat="50.44256" lon="3.2935">
        <ele>15.72331</ele>
        <time>2019-06-06T13:02:30Z</time>
      </trkpt>
      <trkpt lat="50.44247" lon="3.29344">
        <ele>15.786441</ele>
        <time>2019-06-06T13:02:32Z</time>
      </trkpt>
      <trkpt lat="50.44238" lon="3.29339">
        <ele>15.878008</ele>
        <time>2019-06-06T13:02:34Z</time>
      </trkpt>
      <trkpt lat="50.44228" lon="3.29332">
        <ele>15.994547</ele>
        <time>2019-06-06T13:02:36Z</time>
      </trkpt>
      <trkpt lat="50.44219" lon="3.29327">
        <ele>16.111103</ele>
        <time>2019-06-06T13:02:38Z</time>
      </trkpt>
      <trkpt lat="50.44209" lon="3.29323">
        <ele>16.290091</ele>
        <time>2019-06-06T13:02:40Z</time>
      </trkpt>
      <trkpt lat="50.442" lon="3.29322">
        <ele>16.410273</ele>
        <time>2019-06-06T13:02:42Z</time>
      </trkpt>
      <trkpt lat="50.4419" lon="3.29322">
        <ele>16.497889</ele>
        <time>2019-06-06T13:02:44Z</time>
      </trkpt>
      <trkpt lat="50.44181" lon="3.29325">
        <ele>16.516811</ele>
        <time>2019-06-06T13:02:46Z</time>
      </trkpt>
      <trkpt lat="50.44171" lon="3.2933">
        <ele>16.596052</ele>
        <time>2019-06-06T13:02:48Z</time>
      </trkpt>
      <trkpt lat="50.44161" lon="3.29336">
        <ele>16.653135</ele>
        <time>2019-06-06T13:02:50Z</time>
      </trkpt>
      <trkpt lat="50.44151" lon="3.29341">
        <ele>16.748859</ele>
        <time>2019-06-06T13:02:52Z</time>
      </trkpt>
      <trkpt lat="50.44141" lon="3.29348">
        <ele>16.802967</ele>
        <time>2019-06-06T13:02:54Z</time>
      </trkpt>
      <trkpt lat="50.44132" lon="3.29352">
        <ele>16.825859</ele>
        <time>2019-06-06T13:02:56Z</time>
      </trkpt>
      <trkpt lat="50.44121" lon="3.29358">
        <ele>16.888288</ele>
        <time>2019-06-06T13:02:58Z</time>
      </trkpt>
      <trkpt lat="50.4411" lon="3.29364">
        <ele>16.99579</ele>
        <time>2019-06-06T13:03:00Z</time>
      </trkpt>
      <trkpt lat="50.44101" lon="3.29371">
        <ele>17.086172</ele>
        <time>2019-06-06T13:03:02Z</time>
      </trkpt>
      <trkpt lat="50.44092" lon="3.29377">
        <ele>17.109066</ele>
        <time>2019-06-06T13:03:04Z</time>
      </trkpt>
      <trkpt lat="50.44082" lon="3.29379">
        <ele>17.181917</ele>
        <time>2019-06-06T13:03:06Z</time>
      </trkpt>
      <trkpt lat="50.44074" lon="3.29384">
        <ele>17.296398</ele>
        <time>2019-06-06T13:03:08Z</time>
      </trkpt>
      <trkpt lat="50.44063" lon="3.29383">
        <ele>17.380774</ele>
        <time>2019-06-06T13:03:10Z</time>
      </trkpt>
      <trkpt lat="50.44054" lon="3.29385">
        <ele>17.477428</ele>
        <time>2019-06-06T13:03:12Z</time>
      </trkpt>
      <trkpt lat="50.44045" lon="3.29389">
        <ele>17.578915</ele>
        <time>2019-06-06T13:03:14Z</time>
      </trkpt>
      <trkpt lat="50.44033" lon="3.29393">
        <ele>17.687809</ele>
        <time>2019-06-06T13:03:16Z</time>
      </trkpt>
      <trkpt lat="50.44023" lon="3.29397">
        <ele>17.773151</ele>
        <time>2019-06-06T13:03:18Z</time>
      </trkpt>
      <trkpt lat="50.44013" lon="3.29404">
        <ele>17.837673</ele>
        <time>2019-06-06T13:03:20Z</time>
      </trkpt>
      <trkpt lat="50.44002" lon="3.2941">
        <ele>17.935503</ele>
        <time>2019-06-06T13:03:22Z</time>
      </trkpt>
      <trkpt lat="50.43992" lon="3.29416">
        <ele>17.868891</ele>
        <time>2019-06-06T13:03:24Z</time>
      </trkpt>
      <trkpt lat="50.4398" lon="3.29423">
        <ele>17.907448</ele>
        <time>2019-06-06T13:03:26Z</time>
      </trkpt>
      <trkpt lat="50.43971" lon="3.2943">
        <ele>17.947533</ele>
        <time>2019-06-06T13:03:28Z</time>
      </trkpt>
      <trkpt lat="50.43961" lon="3.29438">
        <ele>17.992182</ele>
        <time>2019-06-06T13:03:30Z</time>
      </trkpt>
      <trkpt lat="50.43951" lon="3.29445">
        <ele>18.053198</ele>
        <time>2019-06-06T13:03:32Z</time>
      </trkpt>
      <trkpt lat="50.43942" lon="3.29452">
        <ele>18.075939</ele>
        <time>2019-06-06T13:03:34Z</time>
      </trkpt>
      <trkpt lat="50.43934" lon="3.29458">
        <ele>18.095867</ele>
        <time>2019-06-06T13:03:36Z</time>
      </trkpt>
      <trkpt lat="50.43924" lon="3.29463">
        <ele>18.140022</ele>
        <time>2019-06-06T13:03:38Z</time>
      </trkpt>
      <trkpt lat="50.43915" lon="3.29468">
        <ele>18.172171</ele>
        <time>2019-06-06T13:03:40Z</time>
      </trkpt>
      <trkpt lat="50.43905" lon="3.29471">
        <ele>18.226933</ele>
        <time>2019-06-06T13:03:42Z</time>
      </trkpt>
      <trkpt lat="50.43893" lon="3.29472">
        <ele>18.279392</ele>
        <time>2019-06-06T13:03:44Z</time>
      </trkpt>
      <trkpt lat="50.43882" lon="3.29471">
        <ele>18.295147</ele>
        <time>2019-06-06T13:03:46Z</time>
      </trkpt>
      <trkpt lat="50.4387" lon="3.29468">
        <ele>18.253515</ele>
        <time>2019-06-06T13:03:48Z</time>
      </trkpt>
      <trkpt lat="50.43859" lon="3.29466">
        <ele>18.255039</ele>
        <time>2019-06-06T13:03:50Z</time>
      </trkpt>
      <trkpt lat="50.43848" lon="3.29464">
        <ele>18.253235</ele>
        <time>2019-06-06T13:03:52Z</time>
      </trkpt>
      <trkpt lat="50.43839" lon="3.29464">
        <ele>18.174137</ele>
        <time>2019-06-06T13:03:54Z</time>
      </trkpt>
      <trkpt lat="50.43829" lon="3.29464">
        <ele>18.092957</ele>
        <time>2019-06-06T13:03:56Z</time>
      </trkpt>
      <trkpt lat="50.43821" lon="3.29466">
        <ele>18.047092</ele>
        <time>2019-06-06T13:03:58Z</time>
      </trkpt>
      <trkpt lat="50.43814" lon="3.29467">
        <ele>17.937435</ele>
        <time>2019-06-06T13:04:00Z</time>
      </trkpt>
      <trkpt lat="50.438" lon="3.29468">
        <ele>17.753353</ele>
        <time>2019-06-06T13:04:03Z</time>
      </trkpt>
      <trkpt lat="50.43791" lon="3.29469">
        <ele>17.713808</ele>
        <time>2019-06-06T13:04:05Z</time>
      </trkpt>
      <trkpt lat="50.43782" lon="3.2947">
        <ele>17.613899</ele>
        <time>2019-06-06T13:04:07Z</time>
      </trkpt>
      <trkpt lat="50.43773" lon="3.29471">
        <ele>17.524395</ele>
        <time>2019-06-06T13:04:09Z</time>
      </trkpt>
      <trkpt lat="50.43765" lon="3.29472">
        <ele>17.471268</ele>
        <time>2019-06-06T13:04:11Z</time>
      </trkpt>
      <trkpt lat="50.43756" lon="3.29472">
        <ele>17.394272</ele>
        <time>2019-06-06T13:04:13Z</time>
      </trkpt>
      <trkpt lat="50.43748" lon="3.29473">
        <ele>17.431732</ele>
        <time>2019-06-06T13:04:15Z</time>
      </trkpt>
      <trkpt lat="50.43741" lon="3.29474">
        <ele>17.410259</ele>
        <time>2019-06-06T13:04:17Z</time>
      </trkpt>
      <trkpt lat="50.43734" lon="3.29475">
        <ele>17.395599</ele>
        <time>2019-06-06T13:04:19Z</time>
      </trkpt>
      <trkpt lat="50.43729" lon="3.29475">
        <ele>17.38452</ele>
        <time>2019-06-06T13:04:21Z</time>
      </trkpt>
      <trkpt lat="50.43722" lon="3.29476">
        <ele>17.402596</ele>
        <time>2019-06-06T13:04:23Z</time>
      </trkpt>
      <trkpt lat="50.43717" lon="3.29477">
        <ele>17.396534</ele>
        <time>2019-06-06T13:04:25Z</time>
      </trkpt>
      <trkpt lat="50.43712" lon="3.29477">
        <ele>17.383625</ele>
        <time>2019-06-06T13:04:27Z</time>
      </trkpt>
      <trkpt lat="50.43707" lon="3.29478">
        <ele>17.386105</ele>
        <time>2019-06-06T13:04:29Z</time>
      </trkpt>
      <trkpt lat="50.43702" lon="3.29478">
        <ele>17.391918</ele>
        <time>2019-06-06T13:04:31Z</time>
      </trkpt>
      <trkpt lat="50.43697" lon="3.2948">
        <ele>17.382069</ele>
        <time>2019-06-06T13:04:33Z</time>
      </trkpt>
      <trkpt lat="50.43693" lon="3.29482">
        <ele>17.360285</ele>
        <time>2019-06-06T13:04:35Z</time>
      </trkpt>
      <trkpt lat="50.4369" lon="3.29484">
        <ele>17.29368</ele>
        <time>2019-06-06T13:04:37Z</time>
      </trkpt>
      <trkpt lat="50.43688" lon="3.29488">
        <ele>17.288343</ele>
        <time>2019-06-06T13:04:39Z</time>
      </trkpt>
      <trkpt lat="50.43686" lon="3.2949">
        <ele>17.258261</ele>
        <time>2019-06-06T13:04:41Z</time>
      </trkpt>
      <trkpt lat="50.43683" lon="3.29493">
        <ele>17.253202</ele>
        <time>2019-06-06T13:04:43Z</time>
      </trkpt>
      <trkpt lat="50.43681" lon="3.29497">
        <ele>17.218472</ele>
        <time>2019-06-06T13:04:45Z</time>
      </trkpt>
      <trkpt lat="50.43682" lon="3.29501">
        <ele>17.164272</ele>
        <time>2019-06-06T13:04:47Z</time>
      </trkpt>
      <trkpt lat="50.43681" lon="3.29504">
        <ele>17.12253</ele>
        <time>2019-06-06T13:04:49Z</time>
      </trkpt>
      <trkpt lat="50.43682" lon="3.29508">
        <ele>17.099636</ele>
        <time>2019-06-06T13:04:51Z</time>
      </trkpt>
      <trkpt lat="50.43683" lon="3.29512">
        <ele>17.060528</ele>
        <time>2019-06-06T13:04:53Z</time>
      </trkpt>
      <trkpt lat="50.43684" lon="3.29519">
        <ele>16.962866</ele>
        <time>2019-06-06T13:04:55Z</time>
      </trkpt>
      <trkpt lat="50.43686" lon="3.29525">
        <ele>16.93066</ele>
        <time>2019-06-06T13:04:57Z</time>
      </trkpt>
      <trkpt lat="50.43687" lon="3.29532">
        <ele>16.824162</ele>
        <time>2019-06-06T13:04:59Z</time>
      </trkpt>
      <trkpt lat="50.43691" lon="3.29536">
        <ele>16.527271</ele>
        <time>2019-06-06T13:11:57Z</time>
      </trkpt>
      <trkpt lat="50.43692" lon="3.29536">
        <ele>16.441837</ele>
        <time>2019-06-06T13:11:59Z</time>
      </trkpt>
      <trkpt lat="50.43692" lon="3.29533">
        <ele>16.371073</ele>
        <time>2019-06-06T13:12:01Z</time>
      </trkpt>
      <trkpt lat="50.43691" lon="3.29529">
        <ele>16.274284</ele>
        <time>2019-06-06T13:12:03Z</time>
      </trkpt>
      <trkpt lat="50.43689" lon="3.29524">
        <ele>16.297262</ele>
        <time>2019-06-06T13:12:20Z</time>
      </trkpt>
      <trkpt lat="50.43686" lon="3.29515">
        <ele>16.374266</ele>
        <time>2019-06-06T13:12:22Z</time>
      </trkpt>
      <trkpt lat="50.43686" lon="3.29513">
        <ele>16.411728</ele>
        <time>2019-06-06T13:12:24Z</time>
      </trkpt>
      <trkpt lat="50.43686" lon="3.29511">
        <ele>16.445026</ele>
        <time>2019-06-06T13:12:26Z</time>
      </trkpt>
      <trkpt lat="50.43686" lon="3.2951">
        <ele>16.523092</ele>
        <time>2019-06-06T13:12:28Z</time>
      </trkpt>
      <trkpt lat="50.43684" lon="3.29504">
        <ele>16.630016</ele>
        <time>2019-06-06T13:12:34Z</time>
      </trkpt>
      <trkpt lat="50.43681" lon="3.29494">
        <ele>14.968658</ele>
        <time>2019-06-06T13:14:10Z</time>
      </trkpt>
      <trkpt lat="50.43682" lon="3.29486">
        <ele>14.957535</ele>
        <time>2019-06-06T13:14:12Z</time>
      </trkpt>
      <trkpt lat="50.43685" lon="3.2948">
        <ele>14.926105</ele>
        <time>2019-06-06T13:14:14Z</time>
      </trkpt>
      <trkpt lat="50.43688" lon="3.29474">
        <ele>14.885348</ele>
        <time>2019-06-06T13:14:16Z</time>
      </trkpt>
      <trkpt lat="50.43689" lon="3.29466">
        <ele>14.859403</ele>
        <time>2019-06-06T13:14:18Z</time>
      </trkpt>
      <trkpt lat="50.43689" lon="3.2946">
        <ele>14.811618</ele>
        <time>2019-06-06T13:14:20Z</time>
      </trkpt>
      <trkpt lat="50.43688" lon="3.2945">
        <ele>14.800554</ele>
        <time>2019-06-06T13:14:22Z</time>
      </trkpt>
      <trkpt lat="50.43686" lon="3.2944">
        <ele>14.789721</ele>
        <time>2019-06-06T13:14:24Z</time>
      </trkpt>
      <trkpt lat="50.43684" lon="3.29429">
        <ele>14.784389</ele>
        <time>2019-06-06T13:14:26Z</time>
      </trkpt>
      <trkpt lat="50.43685" lon="3.29423">
        <ele>14.79141</ele>
        <time>2019-06-06T13:14:27Z</time>
      </trkpt>
      <trkpt lat="50.43684" lon="3.29411">
        <ele>14.81014</ele>
        <time>2019-06-06T13:14:29Z</time>
      </trkpt>
      <trkpt lat="50.43683" lon="3.29399">
        <ele>14.806959</ele>
        <time>2019-06-06T13:14:31Z</time>
      </trkpt>
      <trkpt lat="50.43684" lon="3.29386">
        <ele>14.880527</ele>
        <time>2019-06-06T13:14:33Z</time>
      </trkpt>
      <trkpt lat="50.43685" lon="3.29374">
        <ele>14.916391</ele>
        <time>2019-06-06T13:14:35Z</time>
      </trkpt>
      <trkpt lat="50.43687" lon="3.2936">
        <ele>15.036</ele>
        <time>2019-06-06T13:14:37Z</time>
      </trkpt>
      <trkpt lat="50.43687" lon="3.29348">
        <ele>15.180644</ele>
        <time>2019-06-06T13:14:39Z</time>
      </trkpt>
      <trkpt lat="50.43688" lon="3.29336">
        <ele>15.252131</ele>
        <time>2019-06-06T13:14:41Z</time>
      </trkpt>
      <trkpt lat="50.43689" lon="3.29325">
        <ele>15.444136</ele>
        <time>2019-06-06T13:14:43Z</time>
      </trkpt>
      <trkpt lat="50.43689" lon="3.29314">
        <ele>15.592692</ele>
        <time>2019-06-06T13:14:45Z</time>
      </trkpt>
      <trkpt lat="50.43688" lon="3.29302">
        <ele>15.823766</ele>
        <time>2019-06-06T13:14:47Z</time>
      </trkpt>
      <trkpt lat="50.4369" lon="3.2929">
        <ele>16.079662</ele>
        <time>2019-06-06T13:14:49Z</time>
      </trkpt>
      <trkpt lat="50.43692" lon="3.29278">
        <ele>16.381376</ele>
        <time>2019-06-06T13:14:51Z</time>
      </trkpt>
      <trkpt lat="50.43695" lon="3.29265">
        <ele>16.547895</ele>
        <time>2019-06-06T13:14:53Z</time>
      </trkpt>
      <trkpt lat="50.43696" lon="3.29251">
        <ele>16.864798</ele>
        <time>2019-06-06T13:14:55Z</time>
      </trkpt>
      <trkpt lat="50.43698" lon="3.29237">
        <ele>17.169201</ele>
        <time>2019-06-06T13:14:57Z</time>
      </trkpt>
      <trkpt lat="50.437" lon="3.29223">
        <ele>17.344997</ele>
        <time>2019-06-06T13:14:59Z</time>
      </trkpt>
      <trkpt lat="50.43699" lon="3.29204">
        <ele>17.682808</ele>
        <time>2019-06-06T13:15:01Z</time>
      </trkpt>
      <trkpt lat="50.43698" lon="3.29188">
        <ele>18.052006</ele>
        <time>2019-06-06T13:15:03Z</time>
      </trkpt>
      <trkpt lat="50.43699" lon="3.29172">
        <ele>18.229908</ele>
        <time>2019-06-06T13:15:05Z</time>
      </trkpt>
      <trkpt lat="50.437" lon="3.29157">
        <ele>18.621361</ele>
        <time>2019-06-06T13:15:07Z</time>
      </trkpt>
      <trkpt lat="50.43701" lon="3.29144">
        <ele>18.979832</ele>
        <time>2019-06-06T13:15:09Z</time>
      </trkpt>
      <trkpt lat="50.43702" lon="3.29129">
        <ele>19.135868</ele>
        <time>2019-06-06T13:15:11Z</time>
      </trkpt>
      <trkpt lat="50.43703" lon="3.29115">
        <ele>19.487602</ele>
        <time>2019-06-06T13:15:13Z</time>
      </trkpt>
      <trkpt lat="50.43702" lon="3.29099">
        <ele>19.631233</ele>
        <time>2019-06-06T13:15:15Z</time>
      </trkpt>
      <trkpt lat="50.43702" lon="3.29082">
        <ele>19.930981</ele>
        <time>2019-06-06T13:15:17Z</time>
      </trkpt>
      <trkpt lat="50.43703" lon="3.29068">
        <ele>20.218159</ele>
        <time>2019-06-06T13:15:19Z</time>
      </trkpt>
      <trkpt lat="50.43703" lon="3.29053">
        <ele>20.426405</ele>
        <time>2019-06-06T13:15:21Z</time>
      </trkpt>
      <trkpt lat="50.43704" lon="3.29039">
        <ele>20.54254</ele>
        <time>2019-06-06T13:15:23Z</time>
      </trkpt>
      <trkpt lat="50.43705" lon="3.29024">
        <ele>20.694069</ele>
        <time>2019-06-06T13:15:25Z</time>
      </trkpt>
      <trkpt lat="50.43705" lon="3.29009">
        <ele>20.802608</ele>
        <time>2019-06-06T13:15:27Z</time>
      </trkpt>
      <trkpt lat="50.43705" lon="3.28994">
        <ele>20.864326</ele>
        <time>2019-06-06T13:15:29Z</time>
      </trkpt>
      <trkpt lat="50.43706" lon="3.28979">
        <ele>20.871202</ele>
        <time>2019-06-06T13:15:31Z</time>
      </trkpt>
      <trkpt lat="50.43707" lon="3.28965">
        <ele>20.844168</ele>
        <time>2019-06-06T13:15:33Z</time>
      </trkpt>
      <trkpt lat="50.43707" lon="3.28951">
        <ele>20.852497</ele>
        <time>2019-06-06T13:15:35Z</time>
      </trkpt>
      <trkpt lat="50.43707" lon="3.28935">
        <ele>20.783016</ele>
        <time>2019-06-06T13:15:37Z</time>
      </trkpt>
      <trkpt lat="50.43707" lon="3.2892">
        <ele>20.701366</ele>
        <time>2019-06-06T13:15:39Z</time>
      </trkpt>
      <trkpt lat="50.43708" lon="3.28906">
        <ele>20.646801</ele>
        <time>2019-06-06T13:15:41Z</time>
      </trkpt>
      <trkpt lat="50.43709" lon="3.2889">
        <ele>20.53911</ele>
        <time>2019-06-06T13:15:43Z</time>
      </trkpt>
      <trkpt lat="50.43709" lon="3.28876">
        <ele>20.407413</ele>
        <time>2019-06-06T13:15:45Z</time>
      </trkpt>
      <trkpt lat="50.43708" lon="3.28862">
        <ele>20.339836</ele>
        <time>2019-06-06T13:15:47Z</time>
      </trkpt>
      <trkpt lat="50.43708" lon="3.28848">
        <ele>20.194092</ele>
        <time>2019-06-06T13:15:49Z</time>
      </trkpt>
      <trkpt lat="50.43708" lon="3.28833">
        <ele>20.02993</ele>
        <time>2019-06-06T13:15:51Z</time>
      </trkpt>
      <trkpt lat="50.43708" lon="3.28818">
        <ele>19.94965</ele>
        <time>2019-06-06T13:15:53Z</time>
      </trkpt>
      <trkpt lat="50.43708" lon="3.28803">
        <ele>19.753401</ele>
        <time>2019-06-06T13:15:55Z</time>
      </trkpt>
      <trkpt lat="50.43708" lon="3.28788">
        <ele>19.557156</ele>
        <time>2019-06-06T13:15:57Z</time>
      </trkpt>
      <trkpt lat="50.43709" lon="3.28773">
        <ele>19.453148</ele>
        <time>2019-06-06T13:15:59Z</time>
      </trkpt>
      <trkpt lat="50.4371" lon="3.28758">
        <ele>19.241699</ele>
        <time>2019-06-06T13:16:01Z</time>
      </trkpt>
      <trkpt lat="50.43711" lon="3.28743">
        <ele>19.155537</ele>
        <time>2019-06-06T13:16:03Z</time>
      </trkpt>
      <trkpt lat="50.43712" lon="3.28727">
        <ele>18.997</ele>
        <time>2019-06-06T13:16:05Z</time>
      </trkpt>
      <trkpt lat="50.43713" lon="3.28711">
        <ele>18.833706</ele>
        <time>2019-06-06T13:16:07Z</time>
      </trkpt>
      <trkpt lat="50.43715" lon="3.28696">
        <ele>18.705433</ele>
        <time>2019-06-06T13:16:09Z</time>
      </trkpt>
      <trkpt lat="50.43716" lon="3.28679">
        <ele>18.637169</ele>
        <time>2019-06-06T13:16:11Z</time>
      </trkpt>
      <trkpt lat="50.43715" lon="3.28662">
        <ele>18.528339</ele>
        <time>2019-06-06T13:16:13Z</time>
      </trkpt>
      <trkpt lat="50.43715" lon="3.28646">
        <ele>18.524176</ele>
        <time>2019-06-06T13:16:15Z</time>
      </trkpt>
      <trkpt lat="50.43715" lon="3.28629">
        <ele>18.467543</ele>
        <time>2019-06-06T13:16:17Z</time>
      </trkpt>
      <trkpt lat="50.43716" lon="3.28614">
        <ele>18.472046</ele>
        <time>2019-06-06T13:16:19Z</time>
      </trkpt>
      <trkpt lat="50.43716" lon="3.28599">
        <ele>18.496147</ele>
        <time>2019-06-06T13:16:21Z</time>
      </trkpt>
      <trkpt lat="50.43716" lon="3.28584">
        <ele>18.475342</ele>
        <time>2019-06-06T13:16:23Z</time>
      </trkpt>
      <trkpt lat="50.43717" lon="3.2857">
        <ele>18.562315</ele>
        <time>2019-06-06T13:16:25Z</time>
      </trkpt>
      <trkpt lat="50.43718" lon="3.28556">
        <ele>18.624153</ele>
        <time>2019-06-06T13:16:27Z</time>
      </trkpt>
      <trkpt lat="50.43719" lon="3.2854">
        <ele>18.660097</ele>
        <time>2019-06-06T13:16:29Z</time>
      </trkpt>
      <trkpt lat="50.43719" lon="3.28525">
        <ele>18.756439</ele>
        <time>2019-06-06T13:16:31Z</time>
      </trkpt>
      <trkpt lat="50.43718" lon="3.28509">
        <ele>18.910786</ele>
        <time>2019-06-06T13:16:33Z</time>
      </trkpt>
      <trkpt lat="50.43719" lon="3.28494">
        <ele>18.977894</ele>
        <time>2019-06-06T13:16:35Z</time>
      </trkpt>
      <trkpt lat="50.4372" lon="3.28478">
        <ele>19.135706</ele>
        <time>2019-06-06T13:16:37Z</time>
      </trkpt>
      <trkpt lat="50.43722" lon="3.28463">
        <ele>19.282417</ele>
        <time>2019-06-06T13:16:39Z</time>
      </trkpt>
      <trkpt lat="50.43725" lon="3.28449">
        <ele>19.363331</ele>
        <time>2019-06-06T13:16:41Z</time>
      </trkpt>
      <trkpt lat="50.43726" lon="3.28433">
        <ele>19.526817</ele>
        <time>2019-06-06T13:16:43Z</time>
      </trkpt>
      <trkpt lat="50.43726" lon="3.28417">
        <ele>19.706696</ele>
        <time>2019-06-06T13:16:45Z</time>
      </trkpt>
      <trkpt lat="50.43728" lon="3.28403">
        <ele>19.860779</ele>
        <time>2019-06-06T13:16:47Z</time>
      </trkpt>
      <trkpt lat="50.43731" lon="3.28388">
        <ele>19.975159</ele>
        <time>2019-06-06T13:16:49Z</time>
      </trkpt>
      <trkpt lat="50.43731" lon="3.28372">
        <ele>20.119638</ele>
        <time>2019-06-06T13:16:51Z</time>
      </trkpt>
      <trkpt lat="50.43732" lon="3.28355">
        <ele>20.304293</ele>
        <time>2019-06-06T13:16:53Z</time>
      </trkpt>
      <trkpt lat="50.43735" lon="3.28341">
        <ele>20.368071</ele>
        <time>2019-06-06T13:16:55Z</time>
      </trkpt>
      <trkpt lat="50.43735" lon="3.28324">
        <ele>20.487484</ele>
        <time>2019-06-06T13:16:57Z</time>
      </trkpt>
      <trkpt lat="50.43736" lon="3.28309">
        <ele>20.606722</ele>
        <time>2019-06-06T13:16:59Z</time>
      </trkpt>
      <trkpt lat="50.43738" lon="3.28293">
        <ele>20.646276</ele>
        <time>2019-06-06T13:17:01Z</time>
      </trkpt>
      <trkpt lat="50.43734" lon="3.28273">
        <ele>20.716982</ele>
        <time>2019-06-06T13:17:03Z</time>
      </trkpt>
      <trkpt lat="50.43734" lon="3.28258">
        <ele>20.787432</ele>
        <time>2019-06-06T13:17:05Z</time>
      </trkpt>
      <trkpt lat="50.43734" lon="3.28244">
        <ele>20.830622</ele>
        <time>2019-06-06T13:17:07Z</time>
      </trkpt>
      <trkpt lat="50.43735" lon="3.28229">
        <ele>20.832338</ele>
        <time>2019-06-06T13:17:09Z</time>
      </trkpt>
      <trkpt lat="50.43736" lon="3.28215">
        <ele>20.87319</ele>
        <time>2019-06-06T13:17:11Z</time>
      </trkpt>
      <trkpt lat="50.43739" lon="3.28203">
        <ele>20.870186</ele>
        <time>2019-06-06T13:17:13Z</time>
      </trkpt>
      <trkpt lat="50.43738" lon="3.28187">
        <ele>20.860188</ele>
        <time>2019-06-06T13:17:15Z</time>
      </trkpt>
      <trkpt lat="50.43739" lon="3.28171">
        <ele>20.88829</ele>
        <time>2019-06-06T13:17:17Z</time>
      </trkpt>
      <trkpt lat="50.43741" lon="3.28157">
        <ele>20.900682</ele>
        <time>2019-06-06T13:17:19Z</time>
      </trkpt>
      <trkpt lat="50.43741" lon="3.28144">
        <ele>20.887363</ele>
        <time>2019-06-06T13:17:21Z</time>
      </trkpt>
      <trkpt lat="50.43742" lon="3.28131">
        <ele>20.866053</ele>
        <time>2019-06-06T13:17:23Z</time>
      </trkpt>
      <trkpt lat="50.43744" lon="3.2812">
        <ele>20.865015</ele>
        <time>2019-06-06T13:17:25Z</time>
      </trkpt>
      <trkpt lat="50.43746" lon="3.28107">
        <ele>20.863247</ele>
        <time>2019-06-06T13:17:27Z</time>
      </trkpt>
      <trkpt lat="50.43748" lon="3.28095">
        <ele>20.874678</ele>
        <time>2019-06-06T13:17:29Z</time>
      </trkpt>
      <trkpt lat="50.43748" lon="3.28082">
        <ele>20.799429</ele>
        <time>2019-06-06T13:17:31Z</time>
      </trkpt>
      <trkpt lat="50.4375" lon="3.28068">
        <ele>20.788492</ele>
        <time>2019-06-06T13:17:33Z</time>
      </trkpt>
      <trkpt lat="50.43751" lon="3.28058">
        <ele>20.777111</ele>
        <time>2019-06-06T13:17:35Z</time>
      </trkpt>
      <trkpt lat="50.43754" lon="3.28051">
        <ele>20.69718</ele>
        <time>2019-06-06T13:17:37Z</time>
      </trkpt>
      <trkpt lat="50.43758" lon="3.2805">
        <ele>20.693016</ele>
        <time>2019-06-06T13:17:39Z</time>
      </trkpt>
      <trkpt lat="50.43763" lon="3.28051">
        <ele>20.614038</ele>
        <time>2019-06-06T13:17:41Z</time>
      </trkpt>
      <trkpt lat="50.4377" lon="3.28053">
        <ele>20.54495</ele>
        <time>2019-06-06T13:17:43Z</time>
      </trkpt>
      <trkpt lat="50.43777" lon="3.28056">
        <ele>20.528296</ele>
        <time>2019-06-06T13:17:45Z</time>
      </trkpt>
      <trkpt lat="50.43784" lon="3.28057">
        <ele>20.418026</ele>
        <time>2019-06-06T13:17:47Z</time>
      </trkpt>
      <trkpt lat="50.43793" lon="3.28061">
        <ele>20.327314</ele>
        <time>2019-06-06T13:17:49Z</time>
      </trkpt>
      <trkpt lat="50.43803" lon="3.28064">
        <ele>20.212246</ele>
        <time>2019-06-06T13:17:51Z</time>
      </trkpt>
      <trkpt lat="50.43812" lon="3.28069">
        <ele>20.038536</ele>
        <time>2019-06-06T13:17:53Z</time>
      </trkpt>
      <trkpt lat="50.43829" lon="3.28078">
        <ele>19.756071</ele>
        <time>2019-06-06T13:17:56Z</time>
      </trkpt>
      <trkpt lat="50.4384" lon="3.28083">
        <ele>19.535015</ele>
        <time>2019-06-06T13:17:58Z</time>
      </trkpt>
      <trkpt lat="50.43851" lon="3.28089">
        <ele>19.295589</ele>
        <time>2019-06-06T13:18:00Z</time>
      </trkpt>
      <trkpt lat="50.4386" lon="3.28093">
        <ele>19.000349</ele>
        <time>2019-06-06T13:18:02Z</time>
      </trkpt>
      <trkpt lat="50.43869" lon="3.28098">
        <ele>18.840067</ele>
        <time>2019-06-06T13:18:04Z</time>
      </trkpt>
      <trkpt lat="50.43878" lon="3.28102">
        <ele>18.559885</ele>
        <time>2019-06-06T13:18:06Z</time>
      </trkpt>
      <trkpt lat="50.43888" lon="3.28109">
        <ele>18.293131</ele>
        <time>2019-06-06T13:18:08Z</time>
      </trkpt>
      <trkpt lat="50.43896" lon="3.28113">
        <ele>18.011381</ele>
        <time>2019-06-06T13:18:10Z</time>
      </trkpt>
      <trkpt lat="50.43904" lon="3.28117">
        <ele>17.700008</ele>
        <time>2019-06-06T13:18:12Z</time>
      </trkpt>
      <trkpt lat="50.43912" lon="3.2812">
        <ele>17.435673</ele>
        <time>2019-06-06T13:18:14Z</time>
      </trkpt>
      <trkpt lat="50.4392" lon="3.28124">
        <ele>17.167683</ele>
        <time>2019-06-06T13:18:16Z</time>
      </trkpt>
      <trkpt lat="50.43928" lon="3.28127">
        <ele>16.937208</ele>
        <time>2019-06-06T13:18:18Z</time>
      </trkpt>
      <trkpt lat="50.43936" lon="3.2813">
        <ele>16.685198</ele>
        <time>2019-06-06T13:18:20Z</time>
      </trkpt>
      <trkpt lat="50.43945" lon="3.28134">
        <ele>16.540285</ele>
        <time>2019-06-06T13:18:22Z</time>
      </trkpt>
      <trkpt lat="50.43956" lon="3.28139">
        <ele>16.426054</ele>
        <time>2019-06-06T13:18:24Z</time>
      </trkpt>
      <trkpt lat="50.43965" lon="3.28144">
        <ele>16.282433</ele>
        <time>2019-06-06T13:18:26Z</time>
      </trkpt>
      <trkpt lat="50.43974" lon="3.28149">
        <ele>16.217907</ele>
        <time>2019-06-06T13:18:28Z</time>
      </trkpt>
      <trkpt lat="50.43982" lon="3.28153">
        <ele>16.127287</ele>
        <time>2019-06-06T13:18:30Z</time>
      </trkpt>
      <trkpt lat="50.4399" lon="3.28157">
        <ele>16.048586</ele>
        <time>2019-06-06T13:18:32Z</time>
      </trkpt>
      <trkpt lat="50.43999" lon="3.28162">
        <ele>16.056725</ele>
        <time>2019-06-06T13:18:34Z</time>
      </trkpt>
      <trkpt lat="50.44008" lon="3.28167">
        <ele>15.989775</ele>
        <time>2019-06-06T13:18:36Z</time>
      </trkpt>
      <trkpt lat="50.44017" lon="3.28172">
        <ele>16.017216</ele>
        <time>2019-06-06T13:18:38Z</time>
      </trkpt>
      <trkpt lat="50.44027" lon="3.28176">
        <ele>16.052595</ele>
        <time>2019-06-06T13:18:40Z</time>
      </trkpt>
      <trkpt lat="50.44037" lon="3.28181">
        <ele>16.063713</ele>
        <time>2019-06-06T13:18:42Z</time>
      </trkpt>
      <trkpt lat="50.44046" lon="3.28186">
        <ele>16.090767</ele>
        <time>2019-06-06T13:18:44Z</time>
      </trkpt>
      <trkpt lat="50.44056" lon="3.28191">
        <ele>16.154003</ele>
        <time>2019-06-06T13:18:46Z</time>
      </trkpt>
      <trkpt lat="50.44064" lon="3.28195">
        <ele>16.181425</ele>
        <time>2019-06-06T13:18:48Z</time>
      </trkpt>
      <trkpt lat="50.44072" lon="3.28199">
        <ele>16.206942</ele>
        <time>2019-06-06T13:18:50Z</time>
      </trkpt>
      <trkpt lat="50.44079" lon="3.28203">
        <ele>16.229137</ele>
        <time>2019-06-06T13:18:52Z</time>
      </trkpt>
      <trkpt lat="50.44088" lon="3.28207">
        <ele>16.276138</ele>
        <time>2019-06-06T13:18:54Z</time>
      </trkpt>
      <trkpt lat="50.44097" lon="3.2821">
        <ele>16.255329</ele>
        <time>2019-06-06T13:18:56Z</time>
      </trkpt>
      <trkpt lat="50.44108" lon="3.28214">
        <ele>16.292358</ele>
        <time>2019-06-06T13:18:58Z</time>
      </trkpt>
      <trkpt lat="50.44119" lon="3.28213">
        <ele>16.297977</ele>
        <time>2019-06-06T13:19:00Z</time>
      </trkpt>
      <trkpt lat="50.44128" lon="3.28207">
        <ele>16.247005</ele>
        <time>2019-06-06T13:19:02Z</time>
      </trkpt>
      <trkpt lat="50.44136" lon="3.28197">
        <ele>16.212017</ele>
        <time>2019-06-06T13:19:04Z</time>
      </trkpt>
      <trkpt lat="50.44143" lon="3.28186">
        <ele>16.195366</ele>
        <time>2019-06-06T13:19:06Z</time>
      </trkpt>
      <trkpt lat="50.4415" lon="3.28175">
        <ele>16.166962</ele>
        <time>2019-06-06T13:19:08Z</time>
      </trkpt>
      <trkpt lat="50.44158" lon="3.28164">
        <ele>16.124264</ele>
        <time>2019-06-06T13:19:10Z</time>
      </trkpt>
      <trkpt lat="50.44167" lon="3.28154">
        <ele>16.135273</ele>
        <time>2019-06-06T13:19:12Z</time>
      </trkpt>
      <trkpt lat="50.44175" lon="3.28145">
        <ele>16.150517</ele>
        <time>2019-06-06T13:19:14Z</time>
      </trkpt>
      <trkpt lat="50.44184" lon="3.28137">
        <ele>16.147982</ele>
        <time>2019-06-06T13:19:16Z</time>
      </trkpt>
      <trkpt lat="50.44193" lon="3.2813">
        <ele>16.166172</ele>
        <time>2019-06-06T13:19:18Z</time>
      </trkpt>
      <trkpt lat="50.44201" lon="3.28122">
        <ele>16.21604</ele>
        <time>2019-06-06T13:19:20Z</time>
      </trkpt>
      <trkpt lat="50.44209" lon="3.28112">
        <ele>16.295132</ele>
        <time>2019-06-06T13:19:22Z</time>
      </trkpt>
      <trkpt lat="50.44215" lon="3.28101">
        <ele>16.361307</ele>
        <time>2019-06-06T13:19:24Z</time>
      </trkpt>
      <trkpt lat="50.44223" lon="3.2809">
        <ele>16.410763</ele>
        <time>2019-06-06T13:19:26Z</time>
      </trkpt>
      <trkpt lat="50.4423" lon="3.28079">
        <ele>16.486065</ele>
        <time>2019-06-06T13:19:28Z</time>
      </trkpt>
      <trkpt lat="50.44237" lon="3.28067">
        <ele>16.544964</ele>
        <time>2019-06-06T13:19:30Z</time>
      </trkpt>
      <trkpt lat="50.44244" lon="3.28056">
        <ele>16.593714</ele>
        <time>2019-06-06T13:19:32Z</time>
      </trkpt>
      <trkpt lat="50.44252" lon="3.28045">
        <ele>16.649265</ele>
        <time>2019-06-06T13:19:34Z</time>
      </trkpt>
      <trkpt lat="50.44259" lon="3.28034">
        <ele>16.695051</ele>
        <time>2019-06-06T13:19:36Z</time>
      </trkpt>
      <trkpt lat="50.44266" lon="3.28023">
        <ele>16.764679</ele>
        <time>2019-06-06T13:19:38Z</time>
      </trkpt>
      <trkpt lat="50.44272" lon="3.28012">
        <ele>16.89077</ele>
        <time>2019-06-06T13:19:40Z</time>
      </trkpt>
      <trkpt lat="50.44279" lon="3.28002">
        <ele>16.964544</ele>
        <time>2019-06-06T13:19:42Z</time>
      </trkpt>
      <trkpt lat="50.44286" lon="3.27991">
        <ele>17.001879</ele>
        <time>2019-06-06T13:19:44Z</time>
      </trkpt>
      <trkpt lat="50.44292" lon="3.2798">
        <ele>17.090868</ele>
        <time>2019-06-06T13:19:46Z</time>
      </trkpt>
      <trkpt lat="50.44299" lon="3.27969">
        <ele>17.152508</ele>
        <time>2019-06-06T13:19:48Z</time>
      </trkpt>
      <trkpt lat="50.44306" lon="3.27958">
        <ele>17.220482</ele>
        <time>2019-06-06T13:19:50Z</time>
      </trkpt>
      <trkpt lat="50.44313" lon="3.27947">
        <ele>17.267616</ele>
        <time>2019-06-06T13:19:52Z</time>
      </trkpt>
      <trkpt lat="50.44321" lon="3.27938">
        <ele>17.314959</ele>
        <time>2019-06-06T13:19:54Z</time>
      </trkpt>
      <trkpt lat="50.4433" lon="3.27931">
        <ele>17.350231</ele>
        <time>2019-06-06T13:19:56Z</time>
      </trkpt>
      <trkpt lat="50.44338" lon="3.27924">
        <ele>17.381474</ele>
        <time>2019-06-06T13:19:58Z</time>
      </trkpt>
      <trkpt lat="50.44346" lon="3.27918">
        <ele>17.400648</ele>
        <time>2019-06-06T13:20:00Z</time>
      </trkpt>
      <trkpt lat="50.44355" lon="3.27912">
        <ele>17.424461</ele>
        <time>2019-06-06T13:20:02Z</time>
      </trkpt>
      <trkpt lat="50.44364" lon="3.27907">
        <ele>17.432377</ele>
        <time>2019-06-06T13:20:04Z</time>
      </trkpt>
      <trkpt lat="50.44373" lon="3.27901">
        <ele>17.422213</ele>
        <time>2019-06-06T13:20:06Z</time>
      </trkpt>
      <trkpt lat="50.44382" lon="3.27895">
        <ele>17.422127</ele>
        <time>2019-06-06T13:20:08Z</time>
      </trkpt>
      <trkpt lat="50.44391" lon="3.27889">
        <ele>17.396217</ele>
        <time>2019-06-06T13:20:10Z</time>
      </trkpt>
      <trkpt lat="50.44399" lon="3.27883">
        <ele>17.393297</ele>
        <time>2019-06-06T13:20:12Z</time>
      </trkpt>
      <trkpt lat="50.44408" lon="3.27877">
        <ele>17.379061</ele>
        <time>2019-06-06T13:20:14Z</time>
      </trkpt>
      <trkpt lat="50.44418" lon="3.27873">
        <ele>17.388542</ele>
        <time>2019-06-06T13:20:16Z</time>
      </trkpt>
      <trkpt lat="50.44426" lon="3.27868">
        <ele>17.408571</ele>
        <time>2019-06-06T13:20:18Z</time>
      </trkpt>
      <trkpt lat="50.44436" lon="3.27865">
        <ele>17.400158</ele>
        <time>2019-06-06T13:20:20Z</time>
      </trkpt>
      <trkpt lat="50.44445" lon="3.27862">
        <ele>17.434206</ele>
        <time>2019-06-06T13:20:22Z</time>
      </trkpt>
      <trkpt lat="50.44455" lon="3.27862">
        <ele>17.441273</ele>
        <time>2019-06-06T13:20:24Z</time>
      </trkpt>
      <trkpt lat="50.44464" lon="3.27866">
        <ele>17.443695</ele>
        <time>2019-06-06T13:20:26Z</time>
      </trkpt>
      <trkpt lat="50.44473" lon="3.2787">
        <ele>17.404037</ele>
        <time>2019-06-06T13:20:28Z</time>
      </trkpt>
      <trkpt lat="50.44482" lon="3.27873">
        <ele>17.38719</ele>
        <time>2019-06-06T13:20:30Z</time>
      </trkpt>
      <trkpt lat="50.44491" lon="3.27876">
        <ele>17.376575</ele>
        <time>2019-06-06T13:20:32Z</time>
      </trkpt>
      <trkpt lat="50.44501" lon="3.27876">
        <ele>17.354202</ele>
        <time>2019-06-06T13:20:34Z</time>
      </trkpt>
      <trkpt lat="50.4451" lon="3.27874">
        <ele>17.311298</ele>
        <time>2019-06-06T13:20:36Z</time>
      </trkpt>
      <trkpt lat="50.44519" lon="3.27871">
        <ele>17.294531</ele>
        <time>2019-06-06T13:20:38Z</time>
      </trkpt>
      <trkpt lat="50.44529" lon="3.27867">
        <ele>17.280148</ele>
        <time>2019-06-06T13:20:40Z</time>
      </trkpt>
      <trkpt lat="50.44538" lon="3.27862">
        <ele>17.242176</ele>
        <time>2019-06-06T13:20:42Z</time>
      </trkpt>
      <trkpt lat="50.44548" lon="3.27855">
        <ele>17.212412</ele>
        <time>2019-06-06T13:20:44Z</time>
      </trkpt>
      <trkpt lat="50.44556" lon="3.27848">
        <ele>17.177807</ele>
        <time>2019-06-06T13:20:46Z</time>
      </trkpt>
      <trkpt lat="50.44566" lon="3.27841">
        <ele>17.123926</ele>
        <time>2019-06-06T13:20:48Z</time>
      </trkpt>
      <trkpt lat="50.44574" lon="3.27833">
        <ele>17.109421</ele>
        <time>2019-06-06T13:20:50Z</time>
      </trkpt>
      <trkpt lat="50.44582" lon="3.27826">
        <ele>17.10601</ele>
        <time>2019-06-06T13:20:52Z</time>
      </trkpt>
      <trkpt lat="50.44591" lon="3.27816">
        <ele>17.089008</ele>
        <time>2019-06-06T13:20:54Z</time>
      </trkpt>
      <trkpt lat="50.44599" lon="3.27807">
        <ele>17.082615</ele>
        <time>2019-06-06T13:20:56Z</time>
      </trkpt>
      <trkpt lat="50.44606" lon="3.27797">
        <ele>17.079628</ele>
        <time>2019-06-06T13:20:58Z</time>
      </trkpt>
      <trkpt lat="50.44614" lon="3.27787">
        <ele>17.072857</ele>
        <time>2019-06-06T13:21:00Z</time>
      </trkpt>
      <trkpt lat="50.44622" lon="3.27776">
        <ele>17.096951</ele>
        <time>2019-06-06T13:21:02Z</time>
      </trkpt>
      <trkpt lat="50.4463" lon="3.27765">
        <ele>17.117765</ele>
        <time>2019-06-06T13:21:04Z</time>
      </trkpt>
      <trkpt lat="50.44637" lon="3.27753">
        <ele>17.113285</ele>
        <time>2019-06-06T13:21:06Z</time>
      </trkpt>
      <trkpt lat="50.44644" lon="3.27741">
        <ele>17.142269</ele>
        <time>2019-06-06T13:21:08Z</time>
      </trkpt>
      <trkpt lat="50.44649" lon="3.27728">
        <ele>17.14229</ele>
        <time>2019-06-06T13:21:10Z</time>
      </trkpt>
      <trkpt lat="50.44655" lon="3.27716">
        <ele>17.218924</ele>
        <time>2019-06-06T13:21:12Z</time>
      </trkpt>
      <trkpt lat="50.4466" lon="3.27703">
        <ele>17.277412</ele>
        <time>2019-06-06T13:21:14Z</time>
      </trkpt>
      <trkpt lat="50.44666" lon="3.27692">
        <ele>17.286743</ele>
        <time>2019-06-06T13:21:16Z</time>
      </trkpt>
      <trkpt lat="50.44672" lon="3.27682">
        <ele>17.336399</ele>
        <time>2019-06-06T13:21:18Z</time>
      </trkpt>
      <trkpt lat="50.44679" lon="3.27671">
        <ele>17.414074</ele>
        <time>2019-06-06T13:21:20Z</time>
      </trkpt>
      <trkpt lat="50.44685" lon="3.27661">
        <ele>17.467125</ele>
        <time>2019-06-06T13:21:22Z</time>
      </trkpt>
      <trkpt lat="50.44693" lon="3.27653">
        <ele>17.49482</ele>
        <time>2019-06-06T13:21:24Z</time>
      </trkpt>
      <trkpt lat="50.44703" lon="3.27646">
        <ele>17.499706</ele>
        <time>2019-06-06T13:21:26Z</time>
      </trkpt>
      <trkpt lat="50.44712" lon="3.27641">
        <ele>17.536665</ele>
        <time>2019-06-06T13:21:28Z</time>
      </trkpt>
      <trkpt lat="50.44722" lon="3.27637">
        <ele>17.56831</ele>
        <time>2019-06-06T13:21:30Z</time>
      </trkpt>
      <trkpt lat="50.44732" lon="3.27632">
        <ele>17.581457</ele>
        <time>2019-06-06T13:21:32Z</time>
      </trkpt>
      <trkpt lat="50.44741" lon="3.27627">
        <ele>17.615383</ele>
        <time>2019-06-06T13:21:34Z</time>
      </trkpt>
      <trkpt lat="50.44751" lon="3.27623">
        <ele>17.619715</ele>
        <time>2019-06-06T13:21:36Z</time>
      </trkpt>
      <trkpt lat="50.4476" lon="3.27618">
        <ele>17.612026</ele>
        <time>2019-06-06T13:21:38Z</time>
      </trkpt>
      <trkpt lat="50.4477" lon="3.27614">
        <ele>17.635616</ele>
        <time>2019-06-06T13:21:40Z</time>
      </trkpt>
      <trkpt lat="50.4478" lon="3.2761">
        <ele>17.604418</ele>
        <time>2019-06-06T13:21:42Z</time>
      </trkpt>
      <trkpt lat="50.44789" lon="3.27606">
        <ele>17.59515</ele>
        <time>2019-06-06T13:21:44Z</time>
      </trkpt>
      <trkpt lat="50.44799" lon="3.27601">
        <ele>17.568556</ele>
        <time>2019-06-06T13:21:46Z</time>
      </trkpt>
      <trkpt lat="50.44807" lon="3.27596">
        <ele>17.535419</ele>
        <time>2019-06-06T13:21:48Z</time>
      </trkpt>
      <trkpt lat="50.44816" lon="3.27591">
        <ele>17.47076</ele>
        <time>2019-06-06T13:21:50Z</time>
      </trkpt>
      <trkpt lat="50.44826" lon="3.27585">
        <ele>17.405245</ele>
        <time>2019-06-06T13:21:52Z</time>
      </trkpt>
      <trkpt lat="50.44835" lon="3.2758">
        <ele>17.307327</ele>
        <time>2019-06-06T13:21:54Z</time>
      </trkpt>
      <trkpt lat="50.44845" lon="3.27573">
        <ele>17.250628</ele>
        <time>2019-06-06T13:21:56Z</time>
      </trkpt>
      <trkpt lat="50.44855" lon="3.27566">
        <ele>17.180286</ele>
        <time>2019-06-06T13:21:58Z</time>
      </trkpt>
      <trkpt lat="50.44866" lon="3.27561">
        <ele>17.146984</ele>
        <time>2019-06-06T13:22:00Z</time>
      </trkpt>
      <trkpt lat="50.44877" lon="3.27556">
        <ele>17.074759</ele>
        <time>2019-06-06T13:22:02Z</time>
      </trkpt>
      <trkpt lat="50.44888" lon="3.27552">
        <ele>17.021461</ele>
        <time>2019-06-06T13:22:04Z</time>
      </trkpt>
      <trkpt lat="50.44899" lon="3.27551">
        <ele>16.988724</ele>
        <time>2019-06-06T13:22:06Z</time>
      </trkpt>
      <trkpt lat="50.4491" lon="3.27552">
        <ele>16.970667</ele>
        <time>2019-06-06T13:22:08Z</time>
      </trkpt>
      <trkpt lat="50.4492" lon="3.27552">
        <ele>16.937702</ele>
        <time>2019-06-06T13:22:10Z</time>
      </trkpt>
      <trkpt lat="50.44931" lon="3.27552">
        <ele>16.89814</ele>
        <time>2019-06-06T13:22:12Z</time>
      </trkpt>
      <trkpt lat="50.44942" lon="3.27553">
        <ele>16.858185</ele>
        <time>2019-06-06T13:22:14Z</time>
      </trkpt>
      <trkpt lat="50.44952" lon="3.27553">
        <ele>16.82542</ele>
        <time>2019-06-06T13:22:16Z</time>
      </trkpt>
      <trkpt lat="50.44962" lon="3.27553">
        <ele>16.787699</ele>
        <time>2019-06-06T13:22:18Z</time>
      </trkpt>
      <trkpt lat="50.44972" lon="3.27553">
        <ele>16.797686</ele>
        <time>2019-06-06T13:22:20Z</time>
      </trkpt>
      <trkpt lat="50.44982" lon="3.27554">
        <ele>16.760525</ele>
        <time>2019-06-06T13:22:22Z</time>
      </trkpt>
      <trkpt lat="50.44993" lon="3.27554">
        <ele>16.760967</ele>
        <time>2019-06-06T13:22:24Z</time>
      </trkpt>
      <trkpt lat="50.45002" lon="3.27552">
        <ele>16.757275</ele>
        <time>2019-06-06T13:22:26Z</time>
      </trkpt>
      <trkpt lat="50.45012" lon="3.27549">
        <ele>16.783489</ele>
        <time>2019-06-06T13:22:28Z</time>
      </trkpt>
      <trkpt lat="50.4502" lon="3.27547">
        <ele>16.802132</ele>
        <time>2019-06-06T13:22:30Z</time>
      </trkpt>
      <trkpt lat="50.45028" lon="3.27544">
        <ele>16.835163</ele>
        <time>2019-06-06T13:22:32Z</time>
      </trkpt>
      <trkpt lat="50.45035" lon="3.27538">
        <ele>16.911182</ele>
        <time>2019-06-06T13:22:34Z</time>
      </trkpt>
      <trkpt lat="50.45043" lon="3.27528">
        <ele>16.953575</ele>
        <time>2019-06-06T13:22:36Z</time>
      </trkpt>
      <trkpt lat="50.4505" lon="3.27519">
        <ele>17.080896</ele>
        <time>2019-06-06T13:22:38Z</time>
      </trkpt>
      <trkpt lat="50.45056" lon="3.27509">
        <ele>17.198961</ele>
        <time>2019-06-06T13:22:40Z</time>
      </trkpt>
      <trkpt lat="50.45062" lon="3.275">
        <ele>17.379128</ele>
        <time>2019-06-06T13:22:42Z</time>
      </trkpt>
      <trkpt lat="50.45068" lon="3.27491">
        <ele>17.49778</ele>
        <time>2019-06-06T13:22:44Z</time>
      </trkpt>
      <trkpt lat="50.45073" lon="3.27484">
        <ele>17.66577</ele>
        <time>2019-06-06T13:22:46Z</time>
      </trkpt>
      <trkpt lat="50.45076" lon="3.27476">
        <ele>17.857845</ele>
        <time>2019-06-06T13:22:48Z</time>
      </trkpt>
      <trkpt lat="50.45081" lon="3.27469">
        <ele>17.964556</ele>
        <time>2019-06-06T13:22:50Z</time>
      </trkpt>
      <trkpt lat="50.45085" lon="3.27462">
        <ele>18.13685</ele>
        <time>2019-06-06T13:22:52Z</time>
      </trkpt>
      <trkpt lat="50.45092" lon="3.27458">
        <ele>18.303364</ele>
        <time>2019-06-06T13:22:54Z</time>
      </trkpt>
      <trkpt lat="50.45101" lon="3.2746">
        <ele>18.353062</ele>
        <time>2019-06-06T13:22:56Z</time>
      </trkpt>
      <trkpt lat="50.4511" lon="3.27462">
        <ele>18.413424</ele>
        <time>2019-06-06T13:22:58Z</time>
      </trkpt>
      <trkpt lat="50.4512" lon="3.27464">
        <ele>18.549435</ele>
        <time>2019-06-06T13:23:00Z</time>
      </trkpt>
      <trkpt lat="50.4513" lon="3.27465">
        <ele>18.655996</ele>
        <time>2019-06-06T13:23:02Z</time>
      </trkpt>
      <trkpt lat="50.4514" lon="3.27464">
        <ele>18.719164</ele>
        <time>2019-06-06T13:23:04Z</time>
      </trkpt>
      <trkpt lat="50.4515" lon="3.27463">
        <ele>18.815319</ele>
        <time>2019-06-06T13:23:06Z</time>
      </trkpt>
      <trkpt lat="50.4516" lon="3.27462">
        <ele>18.91869</ele>
        <time>2019-06-06T13:23:08Z</time>
      </trkpt>
      <trkpt lat="50.45169" lon="3.27461">
        <ele>18.993725</ele>
        <time>2019-06-06T13:23:10Z</time>
      </trkpt>
      <trkpt lat="50.45179" lon="3.27459">
        <ele>19.030672</ele>
        <time>2019-06-06T13:23:12Z</time>
      </trkpt>
      <trkpt lat="50.45189" lon="3.27458">
        <ele>19.067944</ele>
        <time>2019-06-06T13:23:14Z</time>
      </trkpt>
      <trkpt lat="50.45197" lon="3.27457">
        <ele>19.13245</ele>
        <time>2019-06-06T13:23:16Z</time>
      </trkpt>
      <trkpt lat="50.45206" lon="3.27456">
        <ele>19.186178</ele>
        <time>2019-06-06T13:23:18Z</time>
      </trkpt>
      <trkpt lat="50.45215" lon="3.27455">
        <ele>19.206018</ele>
        <time>2019-06-06T13:23:20Z</time>
      </trkpt>
      <trkpt lat="50.45224" lon="3.27454">
        <ele>19.218029</ele>
        <time>2019-06-06T13:23:22Z</time>
      </trkpt>
      <trkpt lat="50.45233" lon="3.27453">
        <ele>19.176407</ele>
        <time>2019-06-06T13:23:24Z</time>
      </trkpt>
      <trkpt lat="50.45243" lon="3.27453">
        <ele>19.118114</ele>
        <time>2019-06-06T13:23:26Z</time>
      </trkpt>
      <trkpt lat="50.45252" lon="3.27455">
        <ele>19.04212</ele>
        <time>2019-06-06T13:23:28Z</time>
      </trkpt>
      <trkpt lat="50.45262" lon="3.27458">
        <ele>19.027151</ele>
        <time>2019-06-06T13:23:30Z</time>
      </trkpt>
      <trkpt lat="50.45271" lon="3.27463">
        <ele>18.935823</ele>
        <time>2019-06-06T13:23:32Z</time>
      </trkpt>
      <trkpt lat="50.45281" lon="3.27468">
        <ele>18.82667</ele>
        <time>2019-06-06T13:23:34Z</time>
      </trkpt>
      <trkpt lat="50.45289" lon="3.27474">
        <ele>18.780039</ele>
        <time>2019-06-06T13:23:36Z</time>
      </trkpt>
      <trkpt lat="50.45298" lon="3.2748">
        <ele>18.690807</ele>
        <time>2019-06-06T13:23:38Z</time>
      </trkpt>
      <trkpt lat="50.45308" lon="3.27486">
        <ele>18.711063</ele>
        <time>2019-06-06T13:23:40Z</time>
      </trkpt>
      <trkpt lat="50.45317" lon="3.27492">
        <ele>18.669668</ele>
        <time>2019-06-06T13:23:42Z</time>
      </trkpt>
      <trkpt lat="50.45326" lon="3.27499">
        <ele>18.617603</ele>
        <time>2019-06-06T13:23:44Z</time>
      </trkpt>
      <trkpt lat="50.45334" lon="3.27505">
        <ele>18.599613</ele>
        <time>2019-06-06T13:23:46Z</time>
      </trkpt>
      <trkpt lat="50.45342" lon="3.27511">
        <ele>18.609196</ele>
        <time>2019-06-06T13:23:48Z</time>
      </trkpt>
      <trkpt lat="50.45351" lon="3.27517">
        <ele>18.600883</ele>
        <time>2019-06-06T13:23:50Z</time>
      </trkpt>
      <trkpt lat="50.4536" lon="3.27524">
        <ele>18.573711</ele>
        <time>2019-06-06T13:23:52Z</time>
      </trkpt>
      <trkpt lat="50.45368" lon="3.2753">
        <ele>18.577568</ele>
        <time>2019-06-06T13:23:54Z</time>
      </trkpt>
      <trkpt lat="50.45377" lon="3.27537">
        <ele>18.596996</ele>
        <time>2019-06-06T13:23:56Z</time>
      </trkpt>
      <trkpt lat="50.45386" lon="3.27544">
        <ele>18.631758</ele>
        <time>2019-06-06T13:23:58Z</time>
      </trkpt>
      <trkpt lat="50.45395" lon="3.2755">
        <ele>18.661755</ele>
        <time>2019-06-06T13:24:00Z</time>
      </trkpt>
      <trkpt lat="50.45404" lon="3.27557">
        <ele>18.703114</ele>
        <time>2019-06-06T13:24:02Z</time>
      </trkpt>
      <trkpt lat="50.45413" lon="3.27563">
        <ele>18.717762</ele>
        <time>2019-06-06T13:24:04Z</time>
      </trkpt>
      <trkpt lat="50.45422" lon="3.2757">
        <ele>18.713264</ele>
        <time>2019-06-06T13:24:06Z</time>
      </trkpt>
      <trkpt lat="50.45431" lon="3.27575">
        <ele>18.726711</ele>
        <time>2019-06-06T13:24:08Z</time>
      </trkpt>
      <trkpt lat="50.4544" lon="3.27581">
        <ele>18.745998</ele>
        <time>2019-06-06T13:24:10Z</time>
      </trkpt>
      <trkpt lat="50.45449" lon="3.27586">
        <ele>18.759809</ele>
        <time>2019-06-06T13:24:12Z</time>
      </trkpt>
      <trkpt lat="50.45458" lon="3.2759">
        <ele>18.721666</ele>
        <time>2019-06-06T13:24:14Z</time>
      </trkpt>
      <trkpt lat="50.45467" lon="3.27594">
        <ele>18.733696</ele>
        <time>2019-06-06T13:24:16Z</time>
      </trkpt>
      <trkpt lat="50.45476" lon="3.27597">
        <ele>18.76609</ele>
        <time>2019-06-06T13:24:18Z</time>
      </trkpt>
      <trkpt lat="50.45485" lon="3.276">
        <ele>18.80736</ele>
        <time>2019-06-06T13:24:20Z</time>
      </trkpt>
      <trkpt lat="50.45494" lon="3.27602">
        <ele>18.848757</ele>
        <time>2019-06-06T13:24:22Z</time>
      </trkpt>
      <trkpt lat="50.45503" lon="3.27605">
        <ele>18.884331</ele>
        <time>2019-06-06T13:24:24Z</time>
      </trkpt>
      <trkpt lat="50.45511" lon="3.27607">
        <ele>18.911394</ele>
        <time>2019-06-06T13:24:26Z</time>
      </trkpt>
      <trkpt lat="50.4552" lon="3.27609">
        <ele>19.00066</ele>
        <time>2019-06-06T13:24:28Z</time>
      </trkpt>
      <trkpt lat="50.45528" lon="3.27611">
        <ele>19.072987</ele>
        <time>2019-06-06T13:24:30Z</time>
      </trkpt>
      <trkpt lat="50.45537" lon="3.27613">
        <ele>19.127871</ele>
        <time>2019-06-06T13:24:32Z</time>
      </trkpt>
      <trkpt lat="50.45545" lon="3.27615">
        <ele>19.22591</ele>
        <time>2019-06-06T13:24:34Z</time>
      </trkpt>
      <trkpt lat="50.45553" lon="3.27617">
        <ele>19.263277</ele>
        <time>2019-06-06T13:24:36Z</time>
      </trkpt>
      <trkpt lat="50.45561" lon="3.27619">
        <ele>19.328465</ele>
        <time>2019-06-06T13:24:38Z</time>
      </trkpt>
      <trkpt lat="50.4557" lon="3.2762">
        <ele>19.395752</ele>
        <time>2019-06-06T13:24:40Z</time>
      </trkpt>
      <trkpt lat="50.45578" lon="3.27622">
        <ele>19.449453</ele>
        <time>2019-06-06T13:24:42Z</time>
      </trkpt>
      <trkpt lat="50.45586" lon="3.27624">
        <ele>19.555151</ele>
        <time>2019-06-06T13:24:44Z</time>
      </trkpt>
      <trkpt lat="50.45594" lon="3.27626">
        <ele>19.704792</ele>
        <time>2019-06-06T13:24:46Z</time>
      </trkpt>
      <trkpt lat="50.45602" lon="3.27629">
        <ele>19.911329</ele>
        <time>2019-06-06T13:24:48Z</time>
      </trkpt>
      <trkpt lat="50.4561" lon="3.27631">
        <ele>20.084156</ele>
        <time>2019-06-06T13:24:50Z</time>
      </trkpt>
      <trkpt lat="50.45618" lon="3.27634">
        <ele>20.384155</ele>
        <time>2019-06-06T13:24:52Z</time>
      </trkpt>
      <trkpt lat="50.45626" lon="3.27637">
        <ele>20.69368</ele>
        <time>2019-06-06T13:24:54Z</time>
      </trkpt>
      <trkpt lat="50.45633" lon="3.2764">
        <ele>21.051388</ele>
        <time>2019-06-06T13:24:56Z</time>
      </trkpt>
      <trkpt lat="50.45641" lon="3.27643">
        <ele>21.393951</ele>
        <time>2019-06-06T13:24:58Z</time>
      </trkpt>
      <trkpt lat="50.45648" lon="3.27646">
        <ele>21.620792</ele>
        <time>2019-06-06T13:25:00Z</time>
      </trkpt>
      <trkpt lat="50.45655" lon="3.2765">
        <ele>22.079098</ele>
        <time>2019-06-06T13:25:02Z</time>
      </trkpt>
      <trkpt lat="50.45662" lon="3.27654">
        <ele>22.524143</ele>
        <time>2019-06-06T13:25:04Z</time>
      </trkpt>
      <trkpt lat="50.4567" lon="3.27658">
        <ele>23.035568</ele>
        <time>2019-06-06T13:25:06Z</time>
      </trkpt>
      <trkpt lat="50.45676" lon="3.27663">
        <ele>23.56258</ele>
        <time>2019-06-06T13:25:08Z</time>
      </trkpt>
      <trkpt lat="50.45683" lon="3.27668">
        <ele>23.813675</ele>
        <time>2019-06-06T13:25:10Z</time>
      </trkpt>
      <trkpt lat="50.45689" lon="3.27673">
        <ele>24.339264</ele>
        <time>2019-06-06T13:25:12Z</time>
      </trkpt>
      <trkpt lat="50.45696" lon="3.27677">
        <ele>24.914362</ele>
        <time>2019-06-06T13:25:14Z</time>
      </trkpt>
      <trkpt lat="50.45702" lon="3.27681">
        <ele>25.505825</ele>
        <time>2019-06-06T13:25:16Z</time>
      </trkpt>
      <trkpt lat="50.45709" lon="3.27687">
        <ele>26.085964</ele>
        <time>2019-06-06T13:25:18Z</time>
      </trkpt>
      <trkpt lat="50.45715" lon="3.27691">
        <ele>26.407431</ele>
        <time>2019-06-06T13:25:20Z</time>
      </trkpt>
      <trkpt lat="50.45722" lon="3.27698">
        <ele>27.043264</ele>
        <time>2019-06-06T13:25:22Z</time>
      </trkpt>
      <trkpt lat="50.45729" lon="3.27705">
        <ele>27.662853</ele>
        <time>2019-06-06T13:25:24Z</time>
      </trkpt>
      <trkpt lat="50.45738" lon="3.27711">
        <ele>28.250607</ele>
        <time>2019-06-06T13:25:26Z</time>
      </trkpt>
      <trkpt lat="50.45745" lon="3.27717">
        <ele>28.783428</ele>
        <time>2019-06-06T13:25:28Z</time>
      </trkpt>
      <trkpt lat="50.45751" lon="3.27723">
        <ele>29.018921</ele>
        <time>2019-06-06T13:25:30Z</time>
      </trkpt>
      <trkpt lat="50.45759" lon="3.27729">
        <ele>29.476284</ele>
        <time>2019-06-06T13:25:32Z</time>
      </trkpt>
      <trkpt lat="50.45767" lon="3.27734">
        <ele>29.848812</ele>
        <time>2019-06-06T13:25:34Z</time>
      </trkpt>
      <trkpt lat="50.45775" lon="3.27741">
        <ele>30.17255</ele>
        <time>2019-06-06T13:25:36Z</time>
      </trkpt>
      <trkpt lat="50.45784" lon="3.27748">
        <ele>30.423283</ele>
        <time>2019-06-06T13:25:38Z</time>
      </trkpt>
      <trkpt lat="50.45794" lon="3.27758">
        <ele>30.512009</ele>
        <time>2019-06-06T13:25:40Z</time>
      </trkpt>
      <trkpt lat="50.45805" lon="3.27768">
        <ele>30.657028</ele>
        <time>2019-06-06T13:25:42Z</time>
      </trkpt>
      <trkpt lat="50.45817" lon="3.27779">
        <ele>30.73439</ele>
        <time>2019-06-06T13:25:44Z</time>
      </trkpt>
      <trkpt lat="50.45828" lon="3.27791">
        <ele>30.751505</ele>
        <time>2019-06-06T13:25:46Z</time>
      </trkpt>
      <trkpt lat="50.45839" lon="3.27804">
        <ele>30.774502</ele>
        <time>2019-06-06T13:25:48Z</time>
      </trkpt>
      <trkpt lat="50.45852" lon="3.27819">
        <ele>30.695871</ele>
        <time>2019-06-06T13:25:50Z</time>
      </trkpt>
      <trkpt lat="50.45863" lon="3.27836">
        <ele>30.542765</ele>
        <time>2019-06-06T13:25:52Z</time>
      </trkpt>
      <trkpt lat="50.45875" lon="3.27852">
        <ele>30.476089</ele>
        <time>2019-06-06T13:25:54Z</time>
      </trkpt>
      <trkpt lat="50.45887" lon="3.2787">
        <ele>30.312809</ele>
        <time>2019-06-06T13:25:56Z</time>
      </trkpt>
      <trkpt lat="50.45898" lon="3.27888">
        <ele>30.184238</ele>
        <time>2019-06-06T13:25:58Z</time>
      </trkpt>
      <trkpt lat="50.45909" lon="3.27907">
        <ele>30.090916</ele>
        <time>2019-06-06T13:26:00Z</time>
      </trkpt>
      <trkpt lat="50.45919" lon="3.27927">
        <ele>29.830631</ele>
        <time>2019-06-06T13:26:02Z</time>
      </trkpt>
      <trkpt lat="50.45928" lon="3.27946">
        <ele>29.567184</ele>
        <time>2019-06-06T13:26:04Z</time>
      </trkpt>
      <trkpt lat="50.45937" lon="3.27964">
        <ele>29.271658</ele>
        <time>2019-06-06T13:26:06Z</time>
      </trkpt>
      <trkpt lat="50.45945" lon="3.27984">
        <ele>28.949162</ele>
        <time>2019-06-06T13:26:08Z</time>
      </trkpt>
      <trkpt lat="50.45953" lon="3.28002">
        <ele>28.652914</ele>
        <time>2019-06-06T13:26:10Z</time>
      </trkpt>
      <trkpt lat="50.45959" lon="3.28021">
        <ele>28.395401</ele>
        <time>2019-06-06T13:26:12Z</time>
      </trkpt>
      <trkpt lat="50.45965" lon="3.28039">
        <ele>28.145279</ele>
        <time>2019-06-06T13:26:14Z</time>
      </trkpt>
      <trkpt lat="50.45971" lon="3.28057">
        <ele>27.877853</ele>
        <time>2019-06-06T13:26:16Z</time>
      </trkpt>
      <trkpt lat="50.45976" lon="3.28074">
        <ele>27.796591</ele>
        <time>2019-06-06T13:26:18Z</time>
      </trkpt>
      <trkpt lat="50.45981" lon="3.28089">
        <ele>27.569134</ele>
        <time>2019-06-06T13:26:20Z</time>
      </trkpt>
      <trkpt lat="50.45985" lon="3.28103">
        <ele>27.408228</ele>
        <time>2019-06-06T13:26:22Z</time>
      </trkpt>
      <trkpt lat="50.45989" lon="3.28116">
        <ele>27.316854</ele>
        <time>2019-06-06T13:26:24Z</time>
      </trkpt>
      <trkpt lat="50.45993" lon="3.28128">
        <ele>27.182644</ele>
        <time>2019-06-06T13:26:26Z</time>
      </trkpt>
      <trkpt lat="50.45996" lon="3.28138">
        <ele>27.088705</ele>
        <time>2019-06-06T13:26:28Z</time>
      </trkpt>
      <trkpt lat="50.45998" lon="3.28145">
        <ele>26.979908</ele>
        <time>2019-06-06T13:26:30Z</time>
      </trkpt>
      <trkpt lat="50.46001" lon="3.28151">
        <ele>26.928402</ele>
        <time>2019-06-06T13:26:32Z</time>
      </trkpt>
      <trkpt lat="50.46003" lon="3.28155">
        <ele>26.881079</ele>
        <time>2019-06-06T13:26:34Z</time>
      </trkpt>
      <trkpt lat="50.46005" lon="3.28158">
        <ele>26.847757</ele>
        <time>2019-06-06T13:26:36Z</time>
      </trkpt>
      <trkpt lat="50.46006" lon="3.28162">
        <ele>26.501654</ele>
        <time>2019-06-06T13:26:48Z</time>
      </trkpt>
      <trkpt lat="50.46008" lon="3.28167">
        <ele>26.457907</ele>
        <time>2019-06-06T13:26:50Z</time>
      </trkpt>
      <trkpt lat="50.46009" lon="3.28174">
        <ele>26.322514</ele>
        <time>2019-06-06T13:26:52Z</time>
      </trkpt>
      <trkpt lat="50.46008" lon="3.28184">
        <ele>26.176697</ele>
        <time>2019-06-06T13:26:54Z</time>
      </trkpt>
      <trkpt lat="50.46006" lon="3.28195">
        <ele>26.101711</ele>
        <time>2019-06-06T13:26:56Z</time>
      </trkpt>
      <trkpt lat="50.46002" lon="3.28208">
        <ele>25.885092</ele>
        <time>2019-06-06T13:26:58Z</time>
      </trkpt>
      <trkpt lat="50.45999" lon="3.28221">
        <ele>25.6539</ele>
        <time>2019-06-06T13:27:00Z</time>
      </trkpt>
      <trkpt lat="50.45996" lon="3.28235">
        <ele>25.397724</ele>
        <time>2019-06-06T13:27:02Z</time>
      </trkpt>
      <trkpt lat="50.45992" lon="3.2825">
        <ele>25.149862</ele>
        <time>2019-06-06T13:27:04Z</time>
      </trkpt>
      <trkpt lat="50.45989" lon="3.28264">
        <ele>24.802036</ele>
        <time>2019-06-06T13:27:06Z</time>
      </trkpt>
      <trkpt lat="50.45985" lon="3.28279">
        <ele>24.683319</ele>
        <time>2019-06-06T13:27:08Z</time>
      </trkpt>
      <trkpt lat="50.45981" lon="3.28293">
        <ele>24.381329</ele>
        <time>2019-06-06T13:27:10Z</time>
      </trkpt>
      <trkpt lat="50.45977" lon="3.28308">
        <ele>24.116823</ele>
        <time>2019-06-06T13:27:12Z</time>
      </trkpt>
      <trkpt lat="50.45974" lon="3.28322">
        <ele>23.885645</ele>
        <time>2019-06-06T13:27:14Z</time>
      </trkpt>
      <trkpt lat="50.4597" lon="3.28336">
        <ele>23.633642</ele>
        <time>2019-06-06T13:27:16Z</time>
      </trkpt>
      <trkpt lat="50.45967" lon="3.2835">
        <ele>23.394136</ele>
        <time>2019-06-06T13:27:18Z</time>
      </trkpt>
      <trkpt lat="50.45964" lon="3.28361">
        <ele>23.183779</ele>
        <time>2019-06-06T13:27:20Z</time>
      </trkpt>
      <trkpt lat="50.45963" lon="3.28372">
        <ele>23.094219</ele>
        <time>2019-06-06T13:27:22Z</time>
      </trkpt>
      <trkpt lat="50.45961" lon="3.28384">
        <ele>22.940098</ele>
        <time>2019-06-06T13:27:24Z</time>
      </trkpt>
      <trkpt lat="50.45959" lon="3.28396">
        <ele>22.777649</ele>
        <time>2019-06-06T13:27:26Z</time>
      </trkpt>
      <trkpt lat="50.45958" lon="3.28409">
        <ele>22.615192</ele>
        <time>2019-06-06T13:27:28Z</time>
      </trkpt>
      <trkpt lat="50.45957" lon="3.28423">
        <ele>22.463154</ele>
        <time>2019-06-06T13:27:30Z</time>
      </trkpt>
      <trkpt lat="50.45956" lon="3.28437">
        <ele>22.30695</ele>
        <time>2019-06-06T13:27:32Z</time>
      </trkpt>
      <trkpt lat="50.45955" lon="3.28452">
        <ele>22.213232</ele>
        <time>2019-06-06T13:27:34Z</time>
      </trkpt>
      <trkpt lat="50.45954" lon="3.28468">
        <ele>22.100779</ele>
        <time>2019-06-06T13:27:36Z</time>
      </trkpt>
      <trkpt lat="50.45953" lon="3.28483">
        <ele>21.955004</ele>
        <time>2019-06-06T13:27:38Z</time>
      </trkpt>
      <trkpt lat="50.45952" lon="3.28499">
        <ele>21.830067</ele>
        <time>2019-06-06T13:27:40Z</time>
      </trkpt>
      <trkpt lat="50.45951" lon="3.28514">
        <ele>21.742611</ele>
        <time>2019-06-06T13:27:42Z</time>
      </trkpt>
      <trkpt lat="50.4595" lon="3.2853">
        <ele>21.686392</ele>
        <time>2019-06-06T13:27:44Z</time>
      </trkpt>
      <trkpt lat="50.45947" lon="3.28545">
        <ele>21.638506</ele>
        <time>2019-06-06T13:27:46Z</time>
      </trkpt>
      <trkpt lat="50.45945" lon="3.28561">
        <ele>21.515659</ele>
        <time>2019-06-06T13:27:48Z</time>
      </trkpt>
      <trkpt lat="50.45943" lon="3.28576">
        <ele>21.467772</ele>
        <time>2019-06-06T13:27:50Z</time>
      </trkpt>
      <trkpt lat="50.4594" lon="3.28591">
        <ele>21.415722</ele>
        <time>2019-06-06T13:27:52Z</time>
      </trkpt>
      <trkpt lat="50.45937" lon="3.28606">
        <ele>21.359505</ele>
        <time>2019-06-06T13:27:54Z</time>
      </trkpt>
      <trkpt lat="50.45934" lon="3.28621">
        <ele>21.282469</ele>
        <time>2019-06-06T13:27:56Z</time>
      </trkpt>
      <trkpt lat="50.45931" lon="3.28637">
        <ele>21.236664</ele>
        <time>2019-06-06T13:27:58Z</time>
      </trkpt>
      <trkpt lat="50.45926" lon="3.28651">
        <ele>21.178366</ele>
        <time>2019-06-06T13:28:00Z</time>
      </trkpt>
      <trkpt lat="50.45919" lon="3.28665">
        <ele>21.136724</ele>
        <time>2019-06-06T13:28:02Z</time>
      </trkpt>
      <trkpt lat="50.45912" lon="3.28678">
        <ele>21.024292</ele>
        <time>2019-06-06T13:28:04Z</time>
      </trkpt>
      <trkpt lat="50.45905" lon="3.28691">
        <ele>20.910843</ele>
        <time>2019-06-06T13:28:06Z</time>
      </trkpt>
      <trkpt lat="50.45899" lon="3.28704">
        <ele>20.867113</ele>
        <time>2019-06-06T13:28:08Z</time>
      </trkpt>
      <trkpt lat="50.45893" lon="3.28717">
        <ele>20.794237</ele>
        <time>2019-06-06T13:28:10Z</time>
      </trkpt>
      <trkpt lat="50.45889" lon="3.28732">
        <ele>20.660976</ele>
        <time>2019-06-06T13:28:12Z</time>
      </trkpt>
      <trkpt lat="50.45886" lon="3.28747">
        <ele>20.523556</ele>
        <time>2019-06-06T13:28:14Z</time>
      </trkpt>
      <trkpt lat="50.45883" lon="3.28763">
        <ele>20.373644</ele>
        <time>2019-06-06T13:28:16Z</time>
      </trkpt>
      <trkpt lat="50.45881" lon="3.28779">
        <ele>20.28828</ele>
        <time>2019-06-06T13:28:18Z</time>
      </trkpt>
      <trkpt lat="50.45878" lon="3.28794">
        <ele>20.18626</ele>
        <time>2019-06-06T13:28:20Z</time>
      </trkpt>
      <trkpt lat="50.45876" lon="3.28809">
        <ele>20.086327</ele>
        <time>2019-06-06T13:28:22Z</time>
      </trkpt>
      <trkpt lat="50.45873" lon="3.28823">
        <ele>20.05718</ele>
        <time>2019-06-06T13:28:24Z</time>
      </trkpt>
      <trkpt lat="50.4587" lon="3.28837">
        <ele>19.978069</ele>
        <time>2019-06-06T13:28:26Z</time>
      </trkpt>
      <trkpt lat="50.45868" lon="3.28848">
        <ele>19.926022</ele>
        <time>2019-06-06T13:28:28Z</time>
      </trkpt>
      <trkpt lat="50.45866" lon="3.28858">
        <ele>19.882305</ele>
        <time>2019-06-06T13:28:30Z</time>
      </trkpt>
      <trkpt lat="50.45865" lon="3.28867">
        <ele>19.842751</ele>
        <time>2019-06-06T13:28:32Z</time>
      </trkpt>
      <trkpt lat="50.45864" lon="3.28875">
        <ele>19.80736</ele>
        <time>2019-06-06T13:28:34Z</time>
      </trkpt>
      <trkpt lat="50.45863" lon="3.28885">
        <ele>19.776131</ele>
        <time>2019-06-06T13:28:36Z</time>
      </trkpt>
      <trkpt lat="50.45866" lon="3.28894">
        <ele>19.724085</ele>
        <time>2019-06-06T13:28:38Z</time>
      </trkpt>
      <trkpt lat="50.45872" lon="3.28897">
        <ele>19.676205</ele>
        <time>2019-06-06T13:28:40Z</time>
      </trkpt>
      <trkpt lat="50.4588" lon="3.28895">
        <ele>19.65472</ele>
        <time>2019-06-06T13:28:42Z</time>
      </trkpt>
      <trkpt lat="50.45889" lon="3.28892">
        <ele>19.602665</ele>
        <time>2019-06-06T13:28:44Z</time>
      </trkpt>
      <trkpt lat="50.45898" lon="3.2889">
        <ele>19.573519</ele>
        <time>2019-06-06T13:28:46Z</time>
      </trkpt>
      <trkpt lat="50.45905" lon="3.28887">
        <ele>19.546246</ele>
        <time>2019-06-06T13:28:48Z</time>
      </trkpt>
      <trkpt lat="50.45913" lon="3.28885">
        <ele>19.519131</ele>
        <time>2019-06-06T13:28:50Z</time>
      </trkpt>
      <trkpt lat="50.45921" lon="3.28881">
        <ele>19.485825</ele>
        <time>2019-06-06T13:28:52Z</time>
      </trkpt>
      <trkpt lat="50.45929" lon="3.28878">
        <ele>19.420429</ele>
        <time>2019-06-06T13:28:54Z</time>
      </trkpt>
      <trkpt lat="50.45938" lon="3.28875">
        <ele>19.41254</ele>
        <time>2019-06-06T13:28:56Z</time>
      </trkpt>
      <trkpt lat="50.45946" lon="3.28871">
        <ele>19.427113</ele>
        <time>2019-06-06T13:28:58Z</time>
      </trkpt>
      <trkpt lat="50.45955" lon="3.28867">
        <ele>19.408787</ele>
        <time>2019-06-06T13:29:00Z</time>
      </trkpt>
      <trkpt lat="50.45964" lon="3.28863">
        <ele>19.381161</ele>
        <time>2019-06-06T13:29:02Z</time>
      </trkpt>
      <trkpt lat="50.45974" lon="3.28858">
        <ele>19.362583</ele>
        <time>2019-06-06T13:29:04Z</time>
      </trkpt>
      <trkpt lat="50.45983" lon="3.28853">
        <ele>19.371372</ele>
        <time>2019-06-06T13:29:06Z</time>
      </trkpt>
      <trkpt lat="50.45992" lon="3.28847">
        <ele>19.396194</ele>
        <time>2019-06-06T13:29:08Z</time>
      </trkpt>
      <trkpt lat="50.46" lon="3.28841">
        <ele>19.421543</ele>
        <time>2019-06-06T13:29:10Z</time>
      </trkpt>
      <trkpt lat="50.46009" lon="3.28835">
        <ele>19.434034</ele>
        <time>2019-06-06T13:29:12Z</time>
      </trkpt>
      <trkpt lat="50.46018" lon="3.28829">
        <ele>19.424086</ele>
        <time>2019-06-06T13:29:14Z</time>
      </trkpt>
      <trkpt lat="50.46027" lon="3.28822">
        <ele>19.455135</ele>
        <time>2019-06-06T13:29:16Z</time>
      </trkpt>
      <trkpt lat="50.46035" lon="3.28815">
        <ele>19.473536</ele>
        <time>2019-06-06T13:29:18Z</time>
      </trkpt>
      <trkpt lat="50.46044" lon="3.28808">
        <ele>19.470211</ele>
        <time>2019-06-06T13:29:20Z</time>
      </trkpt>
      <trkpt lat="50.46054" lon="3.28802">
        <ele>19.500153</ele>
        <time>2019-06-06T13:29:22Z</time>
      </trkpt>
      <trkpt lat="50.46063" lon="3.28795">
        <ele>19.486086</ele>
        <time>2019-06-06T13:29:24Z</time>
      </trkpt>
      <trkpt lat="50.46072" lon="3.28789">
        <ele>19.484005</ele>
        <time>2019-06-06T13:29:26Z</time>
      </trkpt>
      <trkpt lat="50.46081" lon="3.28783">
        <ele>19.456127</ele>
        <time>2019-06-06T13:29:28Z</time>
      </trkpt>
      <trkpt lat="50.46091" lon="3.28777">
        <ele>19.430492</ele>
        <time>2019-06-06T13:29:30Z</time>
      </trkpt>
      <trkpt lat="50.461" lon="3.28771">
        <ele>19.424477</ele>
        <time>2019-06-06T13:29:32Z</time>
      </trkpt>
      <trkpt lat="50.4611" lon="3.28764">
        <ele>19.419739</ele>
        <time>2019-06-06T13:29:34Z</time>
      </trkpt>
      <trkpt lat="50.46119" lon="3.28759">
        <ele>19.448038</ele>
        <time>2019-06-06T13:29:36Z</time>
      </trkpt>
      <trkpt lat="50.46129" lon="3.28753">
        <ele>19.406815</ele>
        <time>2019-06-06T13:29:38Z</time>
      </trkpt>
      <trkpt lat="50.46137" lon="3.28747">
        <ele>19.388081</ele>
        <time>2019-06-06T13:29:40Z</time>
      </trkpt>
      <trkpt lat="50.46146" lon="3.28741">
        <ele>19.354757</ele>
        <time>2019-06-06T13:29:42Z</time>
      </trkpt>
      <trkpt lat="50.46156" lon="3.28735">
        <ele>19.326176</ele>
        <time>2019-06-06T13:29:44Z</time>
      </trkpt>
      <trkpt lat="50.46166" lon="3.28729">
        <ele>19.301752</ele>
        <time>2019-06-06T13:29:46Z</time>
      </trkpt>
      <trkpt lat="50.46175" lon="3.28723">
        <ele>19.292906</ele>
        <time>2019-06-06T13:29:48Z</time>
      </trkpt>
      <trkpt lat="50.46184" lon="3.28718">
        <ele>19.293461</ele>
        <time>2019-06-06T13:29:50Z</time>
      </trkpt>
      <trkpt lat="50.46193" lon="3.28712">
        <ele>19.282856</ele>
        <time>2019-06-06T13:29:52Z</time>
      </trkpt>
      <trkpt lat="50.46202" lon="3.28707">
        <ele>19.262011</ele>
        <time>2019-06-06T13:29:54Z</time>
      </trkpt>
      <trkpt lat="50.46209" lon="3.28702">
        <ele>19.282829</ele>
        <time>2019-06-06T13:29:56Z</time>
      </trkpt>
      <trkpt lat="50.46217" lon="3.28697">
        <ele>19.303288</ele>
        <time>2019-06-06T13:29:58Z</time>
      </trkpt>
      <trkpt lat="50.46226" lon="3.28694">
        <ele>19.310436</ele>
        <time>2019-06-06T13:30:00Z</time>
      </trkpt>
      <trkpt lat="50.46235" lon="3.28692">
        <ele>19.306618</ele>
        <time>2019-06-06T13:30:02Z</time>
      </trkpt>
      <trkpt lat="50.46244" lon="3.28693">
        <ele>19.313633</ele>
        <time>2019-06-06T13:30:04Z</time>
      </trkpt>
      <trkpt lat="50.46253" lon="3.28696">
        <ele>19.335173</ele>
        <time>2019-06-06T13:30:06Z</time>
      </trkpt>
      <trkpt lat="50.46262" lon="3.287">
        <ele>19.370121</ele>
        <time>2019-06-06T13:30:08Z</time>
      </trkpt>
      <trkpt lat="50.46272" lon="3.28705">
        <ele>19.430986</ele>
        <time>2019-06-06T13:30:10Z</time>
      </trkpt>
      <trkpt lat="50.46282" lon="3.28711">
        <ele>19.505934</ele>
        <time>2019-06-06T13:30:12Z</time>
      </trkpt>
      <trkpt lat="50.46292" lon="3.28718">
        <ele>19.544155</ele>
        <time>2019-06-06T13:30:14Z</time>
      </trkpt>
      <trkpt lat="50.46301" lon="3.28724">
        <ele>19.64356</ele>
        <time>2019-06-06T13:30:16Z</time>
      </trkpt>
      <trkpt lat="50.46311" lon="3.2873">
        <ele>19.678379</ele>
        <time>2019-06-06T13:30:18Z</time>
      </trkpt>
      <trkpt lat="50.46321" lon="3.28735">
        <ele>19.719408</ele>
        <time>2019-06-06T13:30:20Z</time>
      </trkpt>
      <trkpt lat="50.46331" lon="3.28741">
        <ele>19.750074</ele>
        <time>2019-06-06T13:30:22Z</time>
      </trkpt>
      <trkpt lat="50.46341" lon="3.28748">
        <ele>19.821423</ele>
        <time>2019-06-06T13:30:24Z</time>
      </trkpt>
      <trkpt lat="50.46351" lon="3.28754">
        <ele>19.869307</ele>
        <time>2019-06-06T13:30:26Z</time>
      </trkpt>
      <trkpt lat="50.4636" lon="3.28759">
        <ele>19.917471</ele>
        <time>2019-06-06T13:30:28Z</time>
      </trkpt>
      <trkpt lat="50.46369" lon="3.28765">
        <ele>19.961994</ele>
        <time>2019-06-06T13:30:30Z</time>
      </trkpt>
      <trkpt lat="50.46378" lon="3.28771">
        <ele>20.048185</ele>
        <time>2019-06-06T13:30:32Z</time>
      </trkpt>
      <trkpt lat="50.46387" lon="3.28776">
        <ele>20.077528</ele>
        <time>2019-06-06T13:30:34Z</time>
      </trkpt>
      <trkpt lat="50.46396" lon="3.28781">
        <ele>20.152988</ele>
        <time>2019-06-06T13:30:36Z</time>
      </trkpt>
      <trkpt lat="50.46405" lon="3.28787">
        <ele>20.206497</ele>
        <time>2019-06-06T13:30:38Z</time>
      </trkpt>
      <trkpt lat="50.46414" lon="3.28792">
        <ele>20.270243</ele>
        <time>2019-06-06T13:30:40Z</time>
      </trkpt>
      <trkpt lat="50.46423" lon="3.28798">
        <ele>20.288982</ele>
        <time>2019-06-06T13:30:42Z</time>
      </trkpt>
      <trkpt lat="50.46433" lon="3.28804">
        <ele>20.316467</ele>
        <time>2019-06-06T13:30:44Z</time>
      </trkpt>
      <trkpt lat="50.46441" lon="3.28809">
        <ele>20.349661</ele>
        <time>2019-06-06T13:30:46Z</time>
      </trkpt>
      <trkpt lat="50.46451" lon="3.28814">
        <ele>20.370403</ele>
        <time>2019-06-06T13:30:48Z</time>
      </trkpt>
      <trkpt lat="50.4646" lon="3.2882">
        <ele>20.448872</ele>
        <time>2019-06-06T13:30:50Z</time>
      </trkpt>
      <trkpt lat="50.4647" lon="3.28826">
        <ele>20.493567</ele>
        <time>2019-06-06T13:30:52Z</time>
      </trkpt>
      <trkpt lat="50.46479" lon="3.28831">
        <ele>20.509708</ele>
        <time>2019-06-06T13:30:54Z</time>
      </trkpt>
      <trkpt lat="50.46489" lon="3.28837">
        <ele>20.515951</ele>
        <time>2019-06-06T13:30:56Z</time>
      </trkpt>
      <trkpt lat="50.46498" lon="3.28843">
        <ele>20.520752</ele>
        <time>2019-06-06T13:30:58Z</time>
      </trkpt>
      <trkpt lat="50.46508" lon="3.28851">
        <ele>20.595642</ele>
        <time>2019-06-06T13:31:00Z</time>
      </trkpt>
      <trkpt lat="50.46516" lon="3.28861">
        <ele>20.611807</ele>
        <time>2019-06-06T13:31:02Z</time>
      </trkpt>
      <trkpt lat="50.46525" lon="3.28873">
        <ele>20.668186</ele>
        <time>2019-06-06T13:31:04Z</time>
      </trkpt>
      <trkpt lat="50.46532" lon="3.28886">
        <ele>20.715387</ele>
        <time>2019-06-06T13:31:06Z</time>
      </trkpt>
      <trkpt lat="50.4654" lon="3.28898">
        <ele>20.804388</ele>
        <time>2019-06-06T13:31:08Z</time>
      </trkpt>
      <trkpt lat="50.46547" lon="3.28911">
        <ele>20.917812</ele>
        <time>2019-06-06T13:31:10Z</time>
      </trkpt>
      <trkpt lat="50.46554" lon="3.28924">
        <ele>20.95376</ele>
        <time>2019-06-06T13:31:12Z</time>
      </trkpt>
      <trkpt lat="50.46561" lon="3.28936">
        <ele>21.115942</ele>
        <time>2019-06-06T13:31:14Z</time>
      </trkpt>
      <trkpt lat="50.46568" lon="3.28948">
        <ele>21.328619</ele>
        <time>2019-06-06T13:31:16Z</time>
      </trkpt>
      <trkpt lat="50.46576" lon="3.28959">
        <ele>21.504108</ele>
        <time>2019-06-06T13:31:18Z</time>
      </trkpt>
      <trkpt lat="50.46584" lon="3.28968">
        <ele>21.675959</ele>
        <time>2019-06-06T13:31:20Z</time>
      </trkpt>
      <trkpt lat="50.46593" lon="3.28976">
        <ele>21.749695</ele>
        <time>2019-06-06T13:31:22Z</time>
      </trkpt>
      <trkpt lat="50.46603" lon="3.28983">
        <ele>21.915161</ele>
        <time>2019-06-06T13:31:24Z</time>
      </trkpt>
      <trkpt lat="50.46612" lon="3.28991">
        <ele>22.062208</ele>
        <time>2019-06-06T13:31:26Z</time>
      </trkpt>
      <trkpt lat="50.46621" lon="3.28998">
        <ele>22.128887</ele>
        <time>2019-06-06T13:31:28Z</time>
      </trkpt>
      <trkpt lat="50.4663" lon="3.29005">
        <ele>22.272007</ele>
        <time>2019-06-06T13:31:30Z</time>
      </trkpt>
      <trkpt lat="50.46639" lon="3.29012">
        <ele>22.386337</ele>
        <time>2019-06-06T13:31:32Z</time>
      </trkpt>
      <trkpt lat="50.46648" lon="3.29019">
        <ele>22.448574</ele>
        <time>2019-06-06T13:31:34Z</time>
      </trkpt>
      <trkpt lat="50.46657" lon="3.29026">
        <ele>22.480021</ele>
        <time>2019-06-06T13:31:36Z</time>
      </trkpt>
      <trkpt lat="50.46666" lon="3.29033">
        <ele>22.558987</ele>
        <time>2019-06-06T13:31:38Z</time>
      </trkpt>
      <trkpt lat="50.46675" lon="3.2904">
        <ele>22.658222</ele>
        <time>2019-06-06T13:31:40Z</time>
      </trkpt>
      <trkpt lat="50.46684" lon="3.29046">
        <ele>22.713764</ele>
        <time>2019-06-06T13:31:42Z</time>
      </trkpt>
      <trkpt lat="50.46692" lon="3.29052">
        <ele>22.806419</ele>
        <time>2019-06-06T13:31:44Z</time>
      </trkpt>
      <trkpt lat="50.467" lon="3.29059">
        <ele>22.880655</ele>
        <time>2019-06-06T13:31:46Z</time>
      </trkpt>
      <trkpt lat="50.46709" lon="3.29065">
        <ele>22.889238</ele>
        <time>2019-06-06T13:31:48Z</time>
      </trkpt>
      <trkpt lat="50.46718" lon="3.29071">
        <ele>22.954309</ele>
        <time>2019-06-06T13:31:50Z</time>
      </trkpt>
      <trkpt lat="50.46727" lon="3.29076">
        <ele>22.984566</ele>
        <time>2019-06-06T13:31:52Z</time>
      </trkpt>
      <trkpt lat="50.46737" lon="3.29077">
        <ele>23.008291</ele>
        <time>2019-06-06T13:31:54Z</time>
      </trkpt>
      <trkpt lat="50.46746" lon="3.29076">
        <ele>22.976534</ele>
        <time>2019-06-06T13:31:56Z</time>
      </trkpt>
      <trkpt lat="50.46756" lon="3.29074">
        <ele>23.009663</ele>
        <time>2019-06-06T13:31:58Z</time>
      </trkpt>
      <trkpt lat="50.46764" lon="3.29071">
        <ele>22.979221</ele>
        <time>2019-06-06T13:32:00Z</time>
      </trkpt>
      <trkpt lat="50.46772" lon="3.29067">
        <ele>22.972973</ele>
        <time>2019-06-06T13:32:02Z</time>
      </trkpt>
      <trkpt lat="50.46782" lon="3.29062">
        <ele>22.911409</ele>
        <time>2019-06-06T13:32:04Z</time>
      </trkpt>
      <trkpt lat="50.46791" lon="3.29059">
        <ele>22.897686</ele>
        <time>2019-06-06T13:32:06Z</time>
      </trkpt>
      <trkpt lat="50.468" lon="3.29055">
        <ele>22.883364</ele>
        <time>2019-06-06T13:32:08Z</time>
      </trkpt>
      <trkpt lat="50.46809" lon="3.29054">
        <ele>22.88102</ele>
        <time>2019-06-06T13:32:10Z</time>
      </trkpt>
      <trkpt lat="50.46819" lon="3.29057">
        <ele>22.899862</ele>
        <time>2019-06-06T13:32:12Z</time>
      </trkpt>
      <trkpt lat="50.46829" lon="3.29061">
        <ele>22.921612</ele>
        <time>2019-06-06T13:32:14Z</time>
      </trkpt>
      <trkpt lat="50.46838" lon="3.29067">
        <ele>22.95285</ele>
        <time>2019-06-06T13:32:16Z</time>
      </trkpt>
      <trkpt lat="50.46846" lon="3.29073">
        <ele>23.047424</ele>
        <time>2019-06-06T13:32:18Z</time>
      </trkpt>
      <trkpt lat="50.46854" lon="3.29079">
        <ele>23.158951</ele>
        <time>2019-06-06T13:32:20Z</time>
      </trkpt>
      <trkpt lat="50.46862" lon="3.29085">
        <ele>23.198198</ele>
        <time>2019-06-06T13:32:22Z</time>
      </trkpt>
      <trkpt lat="50.4687" lon="3.2909">
        <ele>23.310207</ele>
        <time>2019-06-06T13:32:24Z</time>
      </trkpt>
      <trkpt lat="50.4688" lon="3.29096">
        <ele>23.422108</ele>
        <time>2019-06-06T13:32:26Z</time>
      </trkpt>
      <trkpt lat="50.46889" lon="3.29102">
        <ele>23.48875</ele>
        <time>2019-06-06T13:32:28Z</time>
      </trkpt>
      <trkpt lat="50.46898" lon="3.29108">
        <ele>23.582146</ele>
        <time>2019-06-06T13:32:30Z</time>
      </trkpt>
      <trkpt lat="50.46907" lon="3.29114">
        <ele>23.724155</ele>
        <time>2019-06-06T13:32:32Z</time>
      </trkpt>
      <trkpt lat="50.46916" lon="3.29121">
        <ele>23.892065</ele>
        <time>2019-06-06T13:32:34Z</time>
      </trkpt>
      <trkpt lat="50.46925" lon="3.29126">
        <ele>23.966522</ele>
        <time>2019-06-06T13:32:36Z</time>
      </trkpt>
      <trkpt lat="50.46933" lon="3.29132">
        <ele>24.146654</ele>
        <time>2019-06-06T13:32:38Z</time>
      </trkpt>
      <trkpt lat="50.46942" lon="3.29138">
        <ele>24.340561</ele>
        <time>2019-06-06T13:32:40Z</time>
      </trkpt>
      <trkpt lat="50.46951" lon="3.29145">
        <ele>24.429028</ele>
        <time>2019-06-06T13:32:42Z</time>
      </trkpt>
      <trkpt lat="50.46959" lon="3.2915">
        <ele>24.626934</ele>
        <time>2019-06-06T13:32:44Z</time>
      </trkpt>
      <trkpt lat="50.46968" lon="3.29156">
        <ele>24.829485</ele>
        <time>2019-06-06T13:32:46Z</time>
      </trkpt>
      <trkpt lat="50.46977" lon="3.29163">
        <ele>24.931566</ele>
        <time>2019-06-06T13:32:48Z</time>
      </trkpt>
      <trkpt lat="50.46985" lon="3.29168">
        <ele>25.12598</ele>
        <time>2019-06-06T13:32:50Z</time>
      </trkpt>
      <trkpt lat="50.46994" lon="3.29174">
        <ele>25.348356</ele>
        <time>2019-06-06T13:32:52Z</time>
      </trkpt>
      <trkpt lat="50.47001" lon="3.2918">
        <ele>25.536486</ele>
        <time>2019-06-06T13:32:54Z</time>
      </trkpt>
      <trkpt lat="50.47009" lon="3.29185">
        <ele>25.627522</ele>
        <time>2019-06-06T13:32:56Z</time>
      </trkpt>
      <trkpt lat="50.47017" lon="3.2919">
        <ele>25.794312</ele>
        <time>2019-06-06T13:32:58Z</time>
      </trkpt>
      <trkpt lat="50.47026" lon="3.29193">
        <ele>25.991776</ele>
        <time>2019-06-06T13:33:00Z</time>
      </trkpt>
      <trkpt lat="50.47033" lon="3.29195">
        <ele>26.107468</ele>
        <time>2019-06-06T13:33:02Z</time>
      </trkpt>
      <trkpt lat="50.47041" lon="3.29196">
        <ele>26.30224</ele>
        <time>2019-06-06T13:33:04Z</time>
      </trkpt>
      <trkpt lat="50.4705" lon="3.29197">
        <ele>26.49172</ele>
        <time>2019-06-06T13:33:06Z</time>
      </trkpt>
      <trkpt lat="50.47057" lon="3.29198">
        <ele>26.569717</ele>
        <time>2019-06-06T13:33:08Z</time>
      </trkpt>
      <trkpt lat="50.47065" lon="3.29198">
        <ele>26.787342</ele>
        <time>2019-06-06T13:33:10Z</time>
      </trkpt>
      <trkpt lat="50.47073" lon="3.29199">
        <ele>27.005835</ele>
        <time>2019-06-06T13:33:12Z</time>
      </trkpt>
      <trkpt lat="50.47081" lon="3.292">
        <ele>27.222372</ele>
        <time>2019-06-06T13:33:14Z</time>
      </trkpt>
      <trkpt lat="50.4709" lon="3.292">
        <ele>27.342297</ele>
        <time>2019-06-06T13:33:16Z</time>
      </trkpt>
      <trkpt lat="50.47098" lon="3.292">
        <ele>27.549337</ele>
        <time>2019-06-06T13:33:18Z</time>
      </trkpt>
      <trkpt lat="50.47106" lon="3.292">
        <ele>27.766251</ele>
        <time>2019-06-06T13:33:20Z</time>
      </trkpt>
      <trkpt lat="50.47114" lon="3.29202">
        <ele>27.883514</ele>
        <time>2019-06-06T13:33:22Z</time>
      </trkpt>
      <trkpt lat="50.47121" lon="3.29209">
        <ele>28.103741</ele>
        <time>2019-06-06T13:33:24Z</time>
      </trkpt>
      <trkpt lat="50.47126" lon="3.29222">
        <ele>28.343119</ele>
        <time>2019-06-06T13:33:26Z</time>
      </trkpt>
      <trkpt lat="50.47128" lon="3.29237">
        <ele>28.541225</ele>
        <time>2019-06-06T13:33:28Z</time>
      </trkpt>
      <trkpt lat="50.4713" lon="3.29252">
        <ele>28.650951</ele>
        <time>2019-06-06T13:33:30Z</time>
      </trkpt>
      <trkpt lat="50.47131" lon="3.29268">
        <ele>28.917339</ele>
        <time>2019-06-06T13:33:32Z</time>
      </trkpt>
      <trkpt lat="50.47131" lon="3.29285">
        <ele>29.211689</ele>
        <time>2019-06-06T13:33:34Z</time>
      </trkpt>
      <trkpt lat="50.47132" lon="3.29302">
        <ele>29.499172</ele>
        <time>2019-06-06T13:33:36Z</time>
      </trkpt>
      <trkpt lat="50.47133" lon="3.29318">
        <ele>29.641857</ele>
        <time>2019-06-06T13:33:38Z</time>
      </trkpt>
      <trkpt lat="50.47136" lon="3.29334">
        <ele>29.86463</ele>
        <time>2019-06-06T13:33:40Z</time>
      </trkpt>
      <trkpt lat="50.47139" lon="3.2935">
        <ele>30.109701</ele>
        <time>2019-06-06T13:33:42Z</time>
      </trkpt>
      <trkpt lat="50.47144" lon="3.29366">
        <ele>30.360531</ele>
        <time>2019-06-06T13:33:44Z</time>
      </trkpt>
      <trkpt lat="50.47147" lon="3.29382">
        <ele>30.599186</ele>
        <time>2019-06-06T13:33:46Z</time>
      </trkpt>
      <trkpt lat="50.47152" lon="3.29398">
        <ele>30.702448</ele>
        <time>2019-06-06T13:33:48Z</time>
      </trkpt>
      <trkpt lat="50.47156" lon="3.29414">
        <ele>30.93996</ele>
        <time>2019-06-06T13:33:50Z</time>
      </trkpt>
      <trkpt lat="50.4716" lon="3.29431">
        <ele>31.171604</ele>
        <time>2019-06-06T13:33:52Z</time>
      </trkpt>
      <trkpt lat="50.47164" lon="3.29447">
        <ele>31.403259</ele>
        <time>2019-06-06T13:33:54Z</time>
      </trkpt>
      <trkpt lat="50.47168" lon="3.29463">
        <ele>31.637043</ele>
        <time>2019-06-06T13:33:56Z</time>
      </trkpt>
      <trkpt lat="50.47173" lon="3.2948">
        <ele>31.754681</ele>
        <time>2019-06-06T13:33:58Z</time>
      </trkpt>
      <trkpt lat="50.47177" lon="3.29499">
        <ele>31.98208</ele>
        <time>2019-06-06T13:34:00Z</time>
      </trkpt>
      <trkpt lat="50.47181" lon="3.29517">
        <ele>32.213905</ele>
        <time>2019-06-06T13:34:02Z</time>
      </trkpt>
      <trkpt lat="50.47184" lon="3.29536">
        <ele>32.444786</ele>
        <time>2019-06-06T13:34:04Z</time>
      </trkpt>
      <trkpt lat="50.47189" lon="3.29554">
        <ele>32.699074</ele>
        <time>2019-06-06T13:34:06Z</time>
      </trkpt>
      <trkpt lat="50.47193" lon="3.29573">
        <ele>32.829445</ele>
        <time>2019-06-06T13:34:08Z</time>
      </trkpt>
      <trkpt lat="50.47196" lon="3.29591">
        <ele>33.065544</ele>
        <time>2019-06-06T13:34:10Z</time>
      </trkpt>
      <trkpt lat="50.472" lon="3.29608">
        <ele>33.352367</ele>
        <time>2019-06-06T13:34:12Z</time>
      </trkpt>
      <trkpt lat="50.47203" lon="3.29626">
        <ele>33.61557</ele>
        <time>2019-06-06T13:34:14Z</time>
      </trkpt>
      <trkpt lat="50.47207" lon="3.29641">
        <ele>33.735779</ele>
        <time>2019-06-06T13:34:16Z</time>
      </trkpt>
      <trkpt lat="50.47209" lon="3.29657">
        <ele>33.955757</ele>
        <time>2019-06-06T13:34:18Z</time>
      </trkpt>
      <trkpt lat="50.47212" lon="3.29671">
        <ele>34.155525</ele>
        <time>2019-06-06T13:34:20Z</time>
      </trkpt>
      <trkpt lat="50.47217" lon="3.29685">
        <ele>34.35157</ele>
        <time>2019-06-06T13:34:22Z</time>
      </trkpt>
      <trkpt lat="50.47223" lon="3.29699">
        <ele>34.567802</ele>
        <time>2019-06-06T13:34:24Z</time>
      </trkpt>
      <trkpt lat="50.47229" lon="3.29712">
        <ele>34.680309</ele>
        <time>2019-06-06T13:34:26Z</time>
      </trkpt>
      <trkpt lat="50.47235" lon="3.29724">
        <ele>34.908058</ele>
        <time>2019-06-06T13:34:28Z</time>
      </trkpt>
      <trkpt lat="50.47242" lon="3.29735">
        <ele>35.129623</ele>
        <time>2019-06-06T13:34:30Z</time>
      </trkpt>
      <trkpt lat="50.47248" lon="3.29745">
        <ele>35.337048</ele>
        <time>2019-06-06T13:34:32Z</time>
      </trkpt>
      <trkpt lat="50.47255" lon="3.29755">
        <ele>35.526604</ele>
        <time>2019-06-06T13:34:34Z</time>
      </trkpt>
      <trkpt lat="50.47261" lon="3.29765">
        <ele>35.69519</ele>
        <time>2019-06-06T13:34:36Z</time>
      </trkpt>
      <trkpt lat="50.47269" lon="3.29776">
        <ele>35.837448</ele>
        <time>2019-06-06T13:34:38Z</time>
      </trkpt>
      <trkpt lat="50.47276" lon="3.29784">
        <ele>35.94775</ele>
        <time>2019-06-06T13:34:40Z</time>
      </trkpt>
      <trkpt lat="50.47282" lon="3.29791">
        <ele>36.019646</ele>
        <time>2019-06-06T13:34:42Z</time>
      </trkpt>
      <trkpt lat="50.4729" lon="3.29799">
        <ele>36.000717</ele>
        <time>2019-06-06T13:34:44Z</time>
      </trkpt>
      <trkpt lat="50.47298" lon="3.29806">
        <ele>35.995895</ele>
        <time>2019-06-06T13:34:46Z</time>
      </trkpt>
      <trkpt lat="50.47308" lon="3.29811">
        <ele>35.36927</ele>
        <time>2019-06-06T13:34:48Z</time>
      </trkpt>
      <trkpt lat="50.47316" lon="3.29815">
        <ele>35.217312</ele>
        <time>2019-06-06T13:34:50Z</time>
      </trkpt>
      <trkpt lat="50.47324" lon="3.2982">
        <ele>35.099442</ele>
        <time>2019-06-06T13:34:52Z</time>
      </trkpt>
      <trkpt lat="50.47333" lon="3.29824">
        <ele>34.903481</ele>
        <time>2019-06-06T13:34:54Z</time>
      </trkpt>
      <trkpt lat="50.47342" lon="3.29828">
        <ele>34.695107</ele>
        <time>2019-06-06T13:34:56Z</time>
      </trkpt>
      <trkpt lat="50.47352" lon="3.29831">
        <ele>34.552059</ele>
        <time>2019-06-06T13:34:58Z</time>
      </trkpt>
      <trkpt lat="50.47361" lon="3.29833">
        <ele>34.823502</ele>
        <time>2019-06-06T13:35:00Z</time>
      </trkpt>
      <trkpt lat="50.47371" lon="3.29834">
        <ele>34.517056</ele>
        <time>2019-06-06T13:35:02Z</time>
      </trkpt>
      <trkpt lat="50.4738" lon="3.29835">
        <ele>34.374577</ele>
        <time>2019-06-06T13:35:04Z</time>
      </trkpt>
      <trkpt lat="50.4739" lon="3.29835">
        <ele>34.067116</ele>
        <time>2019-06-06T13:35:06Z</time>
      </trkpt>
      <trkpt lat="50.47398" lon="3.29836">
        <ele>33.754868</ele>
        <time>2019-06-06T13:35:08Z</time>
      </trkpt>
      <trkpt lat="50.47406" lon="3.29836">
        <ele>33.599461</ele>
        <time>2019-06-06T13:35:10Z</time>
      </trkpt>
      <trkpt lat="50.47415" lon="3.29837">
        <ele>33.304619</ele>
        <time>2019-06-06T13:35:12Z</time>
      </trkpt>
      <trkpt lat="50.47424" lon="3.2984">
        <ele>33.049198</ele>
        <time>2019-06-06T13:35:14Z</time>
      </trkpt>
      <trkpt lat="50.47432" lon="3.29845">
        <ele>32.900211</ele>
        <time>2019-06-06T13:35:16Z</time>
      </trkpt>
      <trkpt lat="50.47439" lon="3.2985">
        <ele>32.605705</ele>
        <time>2019-06-06T13:35:18Z</time>
      </trkpt>
      <trkpt lat="50.47446" lon="3.29856">
        <ele>32.373138</ele>
        <time>2019-06-06T13:35:20Z</time>
      </trkpt>
      <trkpt lat="50.47452" lon="3.29861">
        <ele>32.24625</ele>
        <time>2019-06-06T13:35:22Z</time>
      </trkpt>
      <trkpt lat="50.47457" lon="3.29866">
        <ele>32.03064</ele>
        <time>2019-06-06T13:35:24Z</time>
      </trkpt>
      <trkpt lat="50.47462" lon="3.29871">
        <ele>31.846844</ele>
        <time>2019-06-06T13:35:26Z</time>
      </trkpt>
      <trkpt lat="50.47465" lon="3.29882">
        <ele>31.767218</ele>
        <time>2019-06-06T13:35:28Z</time>
      </trkpt>
      <trkpt lat="50.47464" lon="3.29893">
        <ele>31.55238</ele>
        <time>2019-06-06T13:35:30Z</time>
      </trkpt>
      <trkpt lat="50.47461" lon="3.29904">
        <ele>31.538721</ele>
        <time>2019-06-06T13:35:32Z</time>
      </trkpt>
      <trkpt lat="50.47458" lon="3.29915">
        <ele>31.437353</ele>
        <time>2019-06-06T13:35:34Z</time>
      </trkpt>
      <trkpt lat="50.47454" lon="3.29928">
        <ele>32.037437</ele>
        <time>2019-06-06T13:35:36Z</time>
      </trkpt>
      <trkpt lat="50.4745" lon="3.2994">
        <ele>32.048561</ele>
        <time>2019-06-06T13:35:38Z</time>
      </trkpt>
      <trkpt lat="50.47446" lon="3.29953">
        <ele>32.176567</ele>
        <time>2019-06-06T13:35:40Z</time>
      </trkpt>
      <trkpt lat="50.47442" lon="3.29966">
        <ele>32.337379</ele>
        <time>2019-06-06T13:35:42Z</time>
      </trkpt>
      <trkpt lat="50.47439" lon="3.29979">
        <ele>32.52832</ele>
        <time>2019-06-06T13:35:44Z</time>
      </trkpt>
      <trkpt lat="50.47435" lon="3.29992">
        <ele>32.142303</ele>
        <time>2019-06-06T13:35:46Z</time>
      </trkpt>
      <trkpt lat="50.47432" lon="3.30005">
        <ele>32.204853</ele>
        <time>2019-06-06T13:35:48Z</time>
      </trkpt>
      <trkpt lat="50.47428" lon="3.30017">
        <ele>32.352772</ele>
        <time>2019-06-06T13:35:50Z</time>
      </trkpt>
      <trkpt lat="50.47425" lon="3.3003">
        <ele>32.479725</ele>
        <time>2019-06-06T13:35:52Z</time>
      </trkpt>
      <trkpt lat="50.4742" lon="3.30043">
        <ele>32.603291</ele>
        <time>2019-06-06T13:35:54Z</time>
      </trkpt>
      <trkpt lat="50.47414" lon="3.30056">
        <ele>32.66444</ele>
        <time>2019-06-06T13:35:56Z</time>
      </trkpt>
      <trkpt lat="50.47409" lon="3.30069">
        <ele>32.772308</ele>
        <time>2019-06-06T13:35:58Z</time>
      </trkpt>
      <trkpt lat="50.47405" lon="3.30082">
        <ele>32.841179</ele>
        <time>2019-06-06T13:36:00Z</time>
      </trkpt>
      <trkpt lat="50.474" lon="3.30093">
        <ele>32.980145</ele>
        <time>2019-06-06T13:36:02Z</time>
      </trkpt>
      <trkpt lat="50.47393" lon="3.30103">
        <ele>33.044533</ele>
        <time>2019-06-06T13:36:04Z</time>
      </trkpt>
      <trkpt lat="50.47385" lon="3.30113">
        <ele>33.091499</ele>
        <time>2019-06-06T13:36:06Z</time>
      </trkpt>
      <trkpt lat="50.47378" lon="3.30123">
        <ele>33.090714</ele>
        <time>2019-06-06T13:36:08Z</time>
      </trkpt>
      <trkpt lat="50.47371" lon="3.30133">
        <ele>33.117462</ele>
        <time>2019-06-06T13:36:10Z</time>
      </trkpt>
      <trkpt lat="50.47364" lon="3.30144">
        <ele>33.149681</ele>
        <time>2019-06-06T13:36:12Z</time>
      </trkpt>
      <trkpt lat="50.47358" lon="3.30157">
        <ele>33.167816</ele>
        <time>2019-06-06T13:36:14Z</time>
      </trkpt>
      <trkpt lat="50.47352" lon="3.3017">
        <ele>33.195648</ele>
        <time>2019-06-06T13:36:16Z</time>
      </trkpt>
      <trkpt lat="50.47347" lon="3.30183">
        <ele>33.225971</ele>
        <time>2019-06-06T13:36:18Z</time>
      </trkpt>
      <trkpt lat="50.47342" lon="3.30196">
        <ele>33.2342</ele>
        <time>2019-06-06T13:36:20Z</time>
      </trkpt>
      <trkpt lat="50.47337" lon="3.30208">
        <ele>33.200138</ele>
        <time>2019-06-06T13:36:22Z</time>
      </trkpt>
      <trkpt lat="50.47332" lon="3.30219">
        <ele>33.136684</ele>
        <time>2019-06-06T13:36:24Z</time>
      </trkpt>
      <trkpt lat="50.47329" lon="3.3023">
        <ele>33.046822</ele>
        <time>2019-06-06T13:36:26Z</time>
      </trkpt>
      <trkpt lat="50.47323" lon="3.30241">
        <ele>32.936211</ele>
        <time>2019-06-06T13:36:28Z</time>
      </trkpt>
      <trkpt lat="50.47318" lon="3.30253">
        <ele>32.892696</ele>
        <time>2019-06-06T13:36:30Z</time>
      </trkpt>
      <trkpt lat="50.47315" lon="3.30263">
        <ele>32.811447</ele>
        <time>2019-06-06T13:36:32Z</time>
      </trkpt>
      <trkpt lat="50.4731" lon="3.30272">
        <ele>32.724846</ele>
        <time>2019-06-06T13:36:34Z</time>
      </trkpt>
      <trkpt lat="50.47305" lon="3.30283">
        <ele>32.634056</ele>
        <time>2019-06-06T13:36:36Z</time>
      </trkpt>
      <trkpt lat="50.47305" lon="3.30298">
        <ele>32.548775</ele>
        <time>2019-06-06T13:36:38Z</time>
      </trkpt>
      <trkpt lat="50.47306" lon="3.30313">
        <ele>32.515553</ele>
        <time>2019-06-06T13:36:40Z</time>
      </trkpt>
      <trkpt lat="50.47308" lon="3.30327">
        <ele>32.458538</ele>
        <time>2019-06-06T13:36:42Z</time>
      </trkpt>
      <trkpt lat="50.4731" lon="3.30342">
        <ele>32.416054</ele>
        <time>2019-06-06T13:36:44Z</time>
      </trkpt>
      <trkpt lat="50.47312" lon="3.30356">
        <ele>32.403587</ele>
        <time>2019-06-06T13:36:46Z</time>
      </trkpt>
      <trkpt lat="50.47315" lon="3.30369">
        <ele>32.396183</ele>
        <time>2019-06-06T13:36:48Z</time>
      </trkpt>
      <trkpt lat="50.47319" lon="3.30382">
        <ele>32.3801</ele>
        <time>2019-06-06T13:36:50Z</time>
      </trkpt>
      <trkpt lat="50.47324" lon="3.30394">
        <ele>32.371616</ele>
        <time>2019-06-06T13:36:52Z</time>
      </trkpt>
      <trkpt lat="50.47331" lon="3.30406">
        <ele>32.349052</ele>
        <time>2019-06-06T13:36:54Z</time>
      </trkpt>
      <trkpt lat="50.47336" lon="3.30416">
        <ele>32.317493</ele>
        <time>2019-06-06T13:36:56Z</time>
      </trkpt>
      <trkpt lat="50.47343" lon="3.30425">
        <ele>32.301796</ele>
        <time>2019-06-06T13:36:58Z</time>
      </trkpt>
      <trkpt lat="50.47349" lon="3.30437">
        <ele>32.274181</ele>
        <time>2019-06-06T13:37:00Z</time>
      </trkpt>
      <trkpt lat="50.47356" lon="3.30447">
        <ele>32.256634</ele>
        <time>2019-06-06T13:37:02Z</time>
      </trkpt>
      <trkpt lat="50.47363" lon="3.30458">
        <ele>32.256001</ele>
        <time>2019-06-06T13:37:04Z</time>
      </trkpt>
      <trkpt lat="50.47371" lon="3.30466">
        <ele>32.268414</ele>
        <time>2019-06-06T13:37:06Z</time>
      </trkpt>
      <trkpt lat="50.47377" lon="3.30474">
        <ele>32.270527</ele>
        <time>2019-06-06T13:37:08Z</time>
      </trkpt>
      <trkpt lat="50.47385" lon="3.30483">
        <ele>32.275375</ele>
        <time>2019-06-06T13:37:10Z</time>
      </trkpt>
      <trkpt lat="50.47393" lon="3.30491">
        <ele>32.307789</ele>
        <time>2019-06-06T13:37:12Z</time>
      </trkpt>
      <trkpt lat="50.47401" lon="3.30499">
        <ele>32.317436</ele>
        <time>2019-06-06T13:37:14Z</time>
      </trkpt>
      <trkpt lat="50.47409" lon="3.30506">
        <ele>32.351982</ele>
        <time>2019-06-06T13:37:16Z</time>
      </trkpt>
      <trkpt lat="50.47416" lon="3.30514">
        <ele>32.369011</ele>
        <time>2019-06-06T13:37:18Z</time>
      </trkpt>
      <trkpt lat="50.47425" lon="3.30523">
        <ele>32.434967</ele>
        <time>2019-06-06T13:37:20Z</time>
      </trkpt>
      <trkpt lat="50.47433" lon="3.30532">
        <ele>32.45092</ele>
        <time>2019-06-06T13:37:22Z</time>
      </trkpt>
      <trkpt lat="50.4744" lon="3.3054">
        <ele>32.411774</ele>
        <time>2019-06-06T13:37:24Z</time>
      </trkpt>
      <trkpt lat="50.47449" lon="3.30548">
        <ele>31.889332</ele>
        <time>2019-06-06T13:37:26Z</time>
      </trkpt>
      <trkpt lat="50.47456" lon="3.30556">
        <ele>31.902622</ele>
        <time>2019-06-06T13:37:28Z</time>
      </trkpt>
      <trkpt lat="50.47463" lon="3.30563">
        <ele>31.83404</ele>
        <time>2019-06-06T13:37:30Z</time>
      </trkpt>
      <trkpt lat="50.4747" lon="3.30571">
        <ele>31.684927</ele>
        <time>2019-06-06T13:37:32Z</time>
      </trkpt>
      <trkpt lat="50.47476" lon="3.30577">
        <ele>31.650259</ele>
        <time>2019-06-06T13:37:34Z</time>
      </trkpt>
      <trkpt lat="50.47483" lon="3.30585">
        <ele>31.55043</ele>
        <time>2019-06-06T13:37:36Z</time>
      </trkpt>
      <trkpt lat="50.47491" lon="3.30593">
        <ele>31.457901</ele>
        <time>2019-06-06T13:37:38Z</time>
      </trkpt>
      <trkpt lat="50.47498" lon="3.30601">
        <ele>31.367447</ele>
        <time>2019-06-06T13:37:40Z</time>
      </trkpt>
      <trkpt lat="50.47504" lon="3.30607">
        <ele>31.208378</ele>
        <time>2019-06-06T13:37:42Z</time>
      </trkpt>
      <trkpt lat="50.47512" lon="3.30613">
        <ele>31.033035</ele>
        <time>2019-06-06T13:37:44Z</time>
      </trkpt>
      <trkpt lat="50.47519" lon="3.30619">
        <ele>30.950064</ele>
        <time>2019-06-06T13:37:46Z</time>
      </trkpt>
      <trkpt lat="50.47526" lon="3.30623">
        <ele>30.759731</ele>
        <time>2019-06-06T13:37:48Z</time>
      </trkpt>
      <trkpt lat="50.47533" lon="3.30628">
        <ele>30.560623</ele>
        <time>2019-06-06T13:37:50Z</time>
      </trkpt>
      <trkpt lat="50.4754" lon="3.30632">
        <ele>30.453098</ele>
        <time>2019-06-06T13:37:52Z</time>
      </trkpt>
      <trkpt lat="50.47547" lon="3.30637">
        <ele>30.223282</ele>
        <time>2019-06-06T13:37:54Z</time>
      </trkpt>
      <trkpt lat="50.47555" lon="3.3064">
        <ele>29.968863</ele>
        <time>2019-06-06T13:37:56Z</time>
      </trkpt>
      <trkpt lat="50.47562" lon="3.30643">
        <ele>29.749905</ele>
        <time>2019-06-06T13:37:58Z</time>
      </trkpt>
      <trkpt lat="50.4757" lon="3.30645">
        <ele>29.661362</ele>
        <time>2019-06-06T13:38:00Z</time>
      </trkpt>
      <trkpt lat="50.47578" lon="3.30647">
        <ele>29.460464</ele>
        <time>2019-06-06T13:38:02Z</time>
      </trkpt>
      <trkpt lat="50.47586" lon="3.30649">
        <ele>29.27911</ele>
        <time>2019-06-06T13:38:04Z</time>
      </trkpt>
      <trkpt lat="50.47595" lon="3.3065">
        <ele>29.085342</ele>
        <time>2019-06-06T13:38:06Z</time>
      </trkpt>
      <trkpt lat="50.47604" lon="3.30652">
        <ele>29.040115</ele>
        <time>2019-06-06T13:38:08Z</time>
      </trkpt>
      <trkpt lat="50.47612" lon="3.30652">
        <ele>28.949276</ele>
        <time>2019-06-06T13:38:10Z</time>
      </trkpt>
      <trkpt lat="50.4762" lon="3.30654">
        <ele>29.419773</ele>
        <time>2019-06-06T13:38:12Z</time>
      </trkpt>
      <trkpt lat="50.47628" lon="3.30656">
        <ele>29.251148</ele>
        <time>2019-06-06T13:38:14Z</time>
      </trkpt>
      <trkpt lat="50.47636" lon="3.30659">
        <ele>29.159857</ele>
        <time>2019-06-06T13:38:16Z</time>
      </trkpt>
      <trkpt lat="50.47643" lon="3.30663">
        <ele>29.147354</ele>
        <time>2019-06-06T13:38:18Z</time>
      </trkpt>
      <trkpt lat="50.47651" lon="3.30669">
        <ele>29.074274</ele>
        <time>2019-06-06T13:38:20Z</time>
      </trkpt>
      <trkpt lat="50.47658" lon="3.30678">
        <ele>28.958241</ele>
        <time>2019-06-06T13:38:22Z</time>
      </trkpt>
      <trkpt lat="50.4766" lon="3.30692">
        <ele>28.974741</ele>
        <time>2019-06-06T13:38:24Z</time>
      </trkpt>
      <trkpt lat="50.47659" lon="3.30706">
        <ele>28.931385</ele>
        <time>2019-06-06T13:38:26Z</time>
      </trkpt>
      <trkpt lat="50.47658" lon="3.30721">
        <ele>28.961252</ele>
        <time>2019-06-06T13:38:28Z</time>
      </trkpt>
      <trkpt lat="50.47656" lon="3.30736">
        <ele>28.951008</ele>
        <time>2019-06-06T13:38:30Z</time>
      </trkpt>
      <trkpt lat="50.47653" lon="3.30752">
        <ele>28.989023</ele>
        <time>2019-06-06T13:38:32Z</time>
      </trkpt>
      <trkpt lat="50.47651" lon="3.30768">
        <ele>29.013992</ele>
        <time>2019-06-06T13:38:34Z</time>
      </trkpt>
      <trkpt lat="50.47648" lon="3.30783">
        <ele>29.030537</ele>
        <time>2019-06-06T13:38:36Z</time>
      </trkpt>
      <trkpt lat="50.47645" lon="3.30798">
        <ele>29.06669</ele>
        <time>2019-06-06T13:38:38Z</time>
      </trkpt>
      <trkpt lat="50.47643" lon="3.30813">
        <ele>29.130451</ele>
        <time>2019-06-06T13:38:40Z</time>
      </trkpt>
      <trkpt lat="50.47639" lon="3.30827">
        <ele>29.158594</ele>
        <time>2019-06-06T13:38:42Z</time>
      </trkpt>
      <trkpt lat="50.47636" lon="3.3084">
        <ele>29.2237</ele>
        <time>2019-06-06T13:38:44Z</time>
      </trkpt>
      <trkpt lat="50.47632" lon="3.30852">
        <ele>29.26099</ele>
        <time>2019-06-06T13:38:46Z</time>
      </trkpt>
      <trkpt lat="50.47628" lon="3.30865">
        <ele>29.321558</ele>
        <time>2019-06-06T13:38:48Z</time>
      </trkpt>
      <trkpt lat="50.47626" lon="3.30879">
        <ele>29.346432</ele>
        <time>2019-06-06T13:38:50Z</time>
      </trkpt>
      <trkpt lat="50.47626" lon="3.30894">
        <ele>29.386923</ele>
        <time>2019-06-06T13:38:52Z</time>
      </trkpt>
      <trkpt lat="50.4763" lon="3.30909">
        <ele>29.434109</ele>
        <time>2019-06-06T13:38:54Z</time>
      </trkpt>
      <trkpt lat="50.47635" lon="3.30921">
        <ele>29.464804</ele>
        <time>2019-06-06T13:38:56Z</time>
      </trkpt>
      <trkpt lat="50.47641" lon="3.30933">
        <ele>29.48789</ele>
        <time>2019-06-06T13:38:58Z</time>
      </trkpt>
      <trkpt lat="50.47648" lon="3.30945">
        <ele>29.516094</ele>
        <time>2019-06-06T13:39:00Z</time>
      </trkpt>
      <trkpt lat="50.47654" lon="3.30958">
        <ele>29.551331</ele>
        <time>2019-06-06T13:39:02Z</time>
      </trkpt>
      <trkpt lat="50.4766" lon="3.3097">
        <ele>29.613297</ele>
        <time>2019-06-06T13:39:04Z</time>
      </trkpt>
      <trkpt lat="50.47666" lon="3.30981">
        <ele>29.682428</ele>
        <time>2019-06-06T13:39:06Z</time>
      </trkpt>
      <trkpt lat="50.47672" lon="3.30993">
        <ele>29.739094</ele>
        <time>2019-06-06T13:39:08Z</time>
      </trkpt>
      <trkpt lat="50.47678" lon="3.31004">
        <ele>29.764542</ele>
        <time>2019-06-06T13:39:10Z</time>
      </trkpt>
      <trkpt lat="50.47684" lon="3.31015">
        <ele>29.810268</ele>
        <time>2019-06-06T13:39:12Z</time>
      </trkpt>
      <trkpt lat="50.47689" lon="3.31026">
        <ele>29.847321</ele>
        <time>2019-06-06T13:39:14Z</time>
      </trkpt>
      <trkpt lat="50.47695" lon="3.31037">
        <ele>29.877506</ele>
        <time>2019-06-06T13:39:16Z</time>
      </trkpt>
      <trkpt lat="50.47701" lon="3.31048">
        <ele>29.901745</ele>
        <time>2019-06-06T13:39:18Z</time>
      </trkpt>
      <trkpt lat="50.47707" lon="3.3106">
        <ele>29.916561</ele>
        <time>2019-06-06T13:39:20Z</time>
      </trkpt>
      <trkpt lat="50.47713" lon="3.31071">
        <ele>29.920483</ele>
        <time>2019-06-06T13:39:22Z</time>
      </trkpt>
      <trkpt lat="50.47719" lon="3.31082">
        <ele>29.923893</ele>
        <time>2019-06-06T13:39:24Z</time>
      </trkpt>
      <trkpt lat="50.47725" lon="3.31092">
        <ele>29.922586</ele>
        <time>2019-06-06T13:39:26Z</time>
      </trkpt>
      <trkpt lat="50.47731" lon="3.31104">
        <ele>29.920023</ele>
        <time>2019-06-06T13:39:28Z</time>
      </trkpt>
      <trkpt lat="50.47737" lon="3.31115">
        <ele>29.921711</ele>
        <time>2019-06-06T13:39:30Z</time>
      </trkpt>
      <trkpt lat="50.47743" lon="3.31127">
        <ele>29.927578</ele>
        <time>2019-06-06T13:39:32Z</time>
      </trkpt>
      <trkpt lat="50.47749" lon="3.31138">
        <ele>29.943066</ele>
        <time>2019-06-06T13:39:34Z</time>
      </trkpt>
      <trkpt lat="50.47755" lon="3.3115">
        <ele>29.953396</ele>
        <time>2019-06-06T13:39:36Z</time>
      </trkpt>
      <trkpt lat="50.47762" lon="3.31161">
        <ele>29.976788</ele>
        <time>2019-06-06T13:39:38Z</time>
      </trkpt>
      <trkpt lat="50.47768" lon="3.31172">
        <ele>29.999594</ele>
        <time>2019-06-06T13:39:40Z</time>
      </trkpt>
      <trkpt lat="50.47775" lon="3.31182">
        <ele>30.018307</ele>
        <time>2019-06-06T13:39:42Z</time>
      </trkpt>
      <trkpt lat="50.47781" lon="3.31193">
        <ele>30.027466</ele>
        <time>2019-06-06T13:39:44Z</time>
      </trkpt>
      <trkpt lat="50.47788" lon="3.31203">
        <ele>30.026089</ele>
        <time>2019-06-06T13:39:46Z</time>
      </trkpt>
      <trkpt lat="50.47795" lon="3.31213">
        <ele>30.016275</ele>
        <time>2019-06-06T13:39:48Z</time>
      </trkpt>
      <trkpt lat="50.47802" lon="3.31223">
        <ele>30.009769</ele>
        <time>2019-06-06T13:39:50Z</time>
      </trkpt>
      <trkpt lat="50.47808" lon="3.31234">
        <ele>29.994663</ele>
        <time>2019-06-06T13:39:52Z</time>
      </trkpt>
      <trkpt lat="50.47815" lon="3.31244">
        <ele>29.980642</ele>
        <time>2019-06-06T13:39:54Z</time>
      </trkpt>
      <trkpt lat="50.47821" lon="3.31255">
        <ele>29.971619</ele>
        <time>2019-06-06T13:39:56Z</time>
      </trkpt>
      <trkpt lat="50.47828" lon="3.31265">
        <ele>29.967875</ele>
        <time>2019-06-06T13:39:58Z</time>
      </trkpt>
      <trkpt lat="50.47834" lon="3.31276">
        <ele>29.984762</ele>
        <time>2019-06-06T13:40:00Z</time>
      </trkpt>
      <trkpt lat="50.47841" lon="3.31286">
        <ele>30.046329</ele>
        <time>2019-06-06T13:40:02Z</time>
      </trkpt>
      <trkpt lat="50.47848" lon="3.31296">
        <ele>30.137104</ele>
        <time>2019-06-06T13:40:04Z</time>
      </trkpt>
      <trkpt lat="50.47855" lon="3.31307">
        <ele>30.248463</ele>
        <time>2019-06-06T13:40:06Z</time>
      </trkpt>
      <trkpt lat="50.47861" lon="3.31318">
        <ele>30.310734</ele>
        <time>2019-06-06T13:40:08Z</time>
      </trkpt>
      <trkpt lat="50.47867" lon="3.31329">
        <ele>30.422192</ele>
        <time>2019-06-06T13:40:10Z</time>
      </trkpt>
      <trkpt lat="50.47873" lon="3.31341">
        <ele>30.52972</ele>
        <time>2019-06-06T13:40:12Z</time>
      </trkpt>
      <trkpt lat="50.47878" lon="3.31353">
        <ele>30.646656</ele>
        <time>2019-06-06T13:40:14Z</time>
      </trkpt>
      <trkpt lat="50.47884" lon="3.31365">
        <ele>30.777195</ele>
        <time>2019-06-06T13:40:16Z</time>
      </trkpt>
      <trkpt lat="50.47889" lon="3.31377">
        <ele>30.846277</ele>
        <time>2019-06-06T13:40:18Z</time>
      </trkpt>
      <trkpt lat="50.47894" lon="3.31389">
        <ele>30.992355</ele>
        <time>2019-06-06T13:40:20Z</time>
      </trkpt>
      <trkpt lat="50.47898" lon="3.31402">
        <ele>31.14797</ele>
        <time>2019-06-06T13:40:22Z</time>
      </trkpt>
      <trkpt lat="50.47902" lon="3.31415">
        <ele>31.314808</ele>
        <time>2019-06-06T13:40:24Z</time>
      </trkpt>
      <trkpt lat="50.47907" lon="3.31429">
        <ele>31.49828</ele>
        <time>2019-06-06T13:40:26Z</time>
      </trkpt>
      <trkpt lat="50.47912" lon="3.31442">
        <ele>31.597815</ele>
        <time>2019-06-06T13:40:28Z</time>
      </trkpt>
      <trkpt lat="50.47916" lon="3.31456">
        <ele>31.813492</ele>
        <time>2019-06-06T13:40:30Z</time>
      </trkpt>
      <trkpt lat="50.47921" lon="3.3147">
        <ele>32.047821</ele>
        <time>2019-06-06T13:40:32Z</time>
      </trkpt>
      <trkpt lat="50.47926" lon="3.31483">
        <ele>32.300011</ele>
        <time>2019-06-06T13:40:34Z</time>
      </trkpt>
      <trkpt lat="50.47931" lon="3.31497">
        <ele>32.433231</ele>
        <time>2019-06-06T13:40:36Z</time>
      </trkpt>
      <trkpt lat="50.47936" lon="3.3151">
        <ele>32.70866</ele>
        <time>2019-06-06T13:40:38Z</time>
      </trkpt>
      <trkpt lat="50.47941" lon="3.31523">
        <ele>32.992401</ele>
        <time>2019-06-06T13:40:40Z</time>
      </trkpt>
      <trkpt lat="50.47945" lon="3.31536">
        <ele>33.283417</ele>
        <time>2019-06-06T13:40:42Z</time>
      </trkpt>
      <trkpt lat="50.4795" lon="3.31549">
        <ele>33.430393</ele>
        <time>2019-06-06T13:40:44Z</time>
      </trkpt>
      <trkpt lat="50.47956" lon="3.31562">
        <ele>33.695869</ele>
        <time>2019-06-06T13:40:46Z</time>
      </trkpt>
      <trkpt lat="50.47961" lon="3.31575">
        <ele>33.934631</ele>
        <time>2019-06-06T13:40:48Z</time>
      </trkpt>
      <trkpt lat="50.47967" lon="3.31587">
        <ele>34.153614</ele>
        <time>2019-06-06T13:40:50Z</time>
      </trkpt>
      <trkpt lat="50.47973" lon="3.31599">
        <ele>34.351524</ele>
        <time>2019-06-06T13:40:52Z</time>
      </trkpt>
      <trkpt lat="50.47979" lon="3.31611">
        <ele>34.552734</ele>
        <time>2019-06-06T13:40:54Z</time>
      </trkpt>
      <trkpt lat="50.47984" lon="3.31623">
        <ele>34.653599</ele>
        <time>2019-06-06T13:40:56Z</time>
      </trkpt>
      <trkpt lat="50.4799" lon="3.31634">
        <ele>34.846046</ele>
        <time>2019-06-06T13:40:58Z</time>
      </trkpt>
      <trkpt lat="50.47996" lon="3.31647">
        <ele>35.017761</ele>
        <time>2019-06-06T13:41:00Z</time>
      </trkpt>
      <trkpt lat="50.48002" lon="3.31659">
        <ele>35.167812</ele>
        <time>2019-06-06T13:41:02Z</time>
      </trkpt>
      <trkpt lat="50.48009" lon="3.31672">
        <ele>35.301445</ele>
        <time>2019-06-06T13:41:04Z</time>
      </trkpt>
      <trkpt lat="50.48015" lon="3.31684">
        <ele>35.364605</ele>
        <time>2019-06-06T13:41:06Z</time>
      </trkpt>
      <trkpt lat="50.48021" lon="3.31695">
        <ele>35.480171</ele>
        <time>2019-06-06T13:41:08Z</time>
      </trkpt>
      <trkpt lat="50.48028" lon="3.31706">
        <ele>35.580147</ele>
        <time>2019-06-06T13:41:10Z</time>
      </trkpt>
      <trkpt lat="50.48035" lon="3.31716">
        <ele>35.658146</ele>
        <time>2019-06-06T13:41:12Z</time>
      </trkpt>
      <trkpt lat="50.48042" lon="3.31726">
        <ele>35.711704</ele>
        <time>2019-06-06T13:41:14Z</time>
      </trkpt>
      <trkpt lat="50.48049" lon="3.31736">
        <ele>35.749126</ele>
        <time>2019-06-06T13:41:16Z</time>
      </trkpt>
      <trkpt lat="50.48056" lon="3.31747">
        <ele>35.775597</ele>
        <time>2019-06-06T13:41:18Z</time>
      </trkpt>
      <trkpt lat="50.48063" lon="3.31757">
        <ele>35.786594</ele>
        <time>2019-06-06T13:41:20Z</time>
      </trkpt>
      <trkpt lat="50.4807" lon="3.31767">
        <ele>35.809868</ele>
        <time>2019-06-06T13:41:22Z</time>
      </trkpt>
      <trkpt lat="50.48077" lon="3.31777">
        <ele>35.834568</ele>
        <time>2019-06-06T13:41:24Z</time>
      </trkpt>
      <trkpt lat="50.48084" lon="3.31788">
        <ele>35.857815</ele>
        <time>2019-06-06T13:41:26Z</time>
      </trkpt>
      <trkpt lat="50.48091" lon="3.31798">
        <ele>35.877365</ele>
        <time>2019-06-06T13:41:28Z</time>
      </trkpt>
      <trkpt lat="50.48098" lon="3.31808">
        <ele>35.891273</ele>
        <time>2019-06-06T13:41:30Z</time>
      </trkpt>
      <trkpt lat="50.48105" lon="3.31817">
        <ele>35.898594</ele>
        <time>2019-06-06T13:41:32Z</time>
      </trkpt>
      <trkpt lat="50.48112" lon="3.31827">
        <ele>35.903904</ele>
        <time>2019-06-06T13:41:34Z</time>
      </trkpt>
      <trkpt lat="50.48119" lon="3.31837">
        <ele>35.907906</ele>
        <time>2019-06-06T13:41:36Z</time>
      </trkpt>
      <trkpt lat="50.48125" lon="3.31847">
        <ele>35.909317</ele>
        <time>2019-06-06T13:41:38Z</time>
      </trkpt>
      <trkpt lat="50.48132" lon="3.31856">
        <ele>35.915379</ele>
        <time>2019-06-06T13:41:40Z</time>
      </trkpt>
      <trkpt lat="50.48139" lon="3.31866">
        <ele>35.922188</ele>
        <time>2019-06-06T13:41:42Z</time>
      </trkpt>
      <trkpt lat="50.48145" lon="3.31877">
        <ele>35.927238</ele>
        <time>2019-06-06T13:41:44Z</time>
      </trkpt>
      <trkpt lat="50.48153" lon="3.31888">
        <ele>35.93412</ele>
        <time>2019-06-06T13:41:46Z</time>
      </trkpt>
      <trkpt lat="50.48159" lon="3.31899">
        <ele>35.934212</ele>
        <time>2019-06-06T13:41:48Z</time>
      </trkpt>
      <trkpt lat="50.48165" lon="3.31911">
        <ele>35.934292</ele>
        <time>2019-06-06T13:41:50Z</time>
      </trkpt>
      <trkpt lat="50.48171" lon="3.31923">
        <ele>35.935936</ele>
        <time>2019-06-06T13:41:52Z</time>
      </trkpt>
      <trkpt lat="50.48177" lon="3.31936">
        <ele>35.945763</ele>
        <time>2019-06-06T13:41:54Z</time>
      </trkpt>
      <trkpt lat="50.48183" lon="3.31948">
        <ele>35.962311</ele>
        <time>2019-06-06T13:41:56Z</time>
      </trkpt>
      <trkpt lat="50.48188" lon="3.31961">
        <ele>35.982029</ele>
        <time>2019-06-06T13:41:58Z</time>
      </trkpt>
      <trkpt lat="50.48194" lon="3.31974">
        <ele>36.000446</ele>
        <time>2019-06-06T13:42:00Z</time>
      </trkpt>
      <trkpt lat="50.482" lon="3.31987">
        <ele>36.014351</ele>
        <time>2019-06-06T13:42:02Z</time>
      </trkpt>
      <trkpt lat="50.48206" lon="3.32">
        <ele>36.018459</ele>
        <time>2019-06-06T13:42:04Z</time>
      </trkpt>
      <trkpt lat="50.48212" lon="3.32013">
        <ele>36.021164</ele>
        <time>2019-06-06T13:42:06Z</time>
      </trkpt>
      <trkpt lat="50.48218" lon="3.32026">
        <ele>36.019039</ele>
        <time>2019-06-06T13:42:08Z</time>
      </trkpt>
      <trkpt lat="50.48224" lon="3.32039">
        <ele>36.012268</ele>
        <time>2019-06-06T13:42:10Z</time>
      </trkpt>
      <trkpt lat="50.48229" lon="3.32051">
        <ele>36.007824</ele>
        <time>2019-06-06T13:42:12Z</time>
      </trkpt>
      <trkpt lat="50.48234" lon="3.32063">
        <ele>36.000706</ele>
        <time>2019-06-06T13:42:14Z</time>
      </trkpt>
      <trkpt lat="50.4824" lon="3.32075">
        <ele>35.996841</ele>
        <time>2019-06-06T13:42:16Z</time>
      </trkpt>
      <trkpt lat="50.48245" lon="3.32086">
        <ele>35.987865</ele>
        <time>2019-06-06T13:42:18Z</time>
      </trkpt>
      <trkpt lat="50.4825" lon="3.32099">
        <ele>35.97007</ele>
        <time>2019-06-06T13:42:20Z</time>
      </trkpt>
      <trkpt lat="50.48256" lon="3.32111">
        <ele>35.956718</ele>
        <time>2019-06-06T13:42:22Z</time>
      </trkpt>
      <trkpt lat="50.48261" lon="3.32124">
        <ele>35.913063</ele>
        <time>2019-06-06T13:42:24Z</time>
      </trkpt>
      <trkpt lat="50.48267" lon="3.32136">
        <ele>35.855263</ele>
        <time>2019-06-06T13:42:26Z</time>
      </trkpt>
      <trkpt lat="50.48273" lon="3.32149">
        <ele>35.789333</ele>
        <time>2019-06-06T13:42:28Z</time>
      </trkpt>
      <trkpt lat="50.48278" lon="3.32162">
        <ele>35.752071</ele>
        <time>2019-06-06T13:42:30Z</time>
      </trkpt>
      <trkpt lat="50.48284" lon="3.32174">
        <ele>35.674583</ele>
        <time>2019-06-06T13:42:32Z</time>
      </trkpt>
      <trkpt lat="50.4829" lon="3.32188">
        <ele>35.593239</ele>
        <time>2019-06-06T13:42:34Z</time>
      </trkpt>
      <trkpt lat="50.48295" lon="3.32201">
        <ele>35.50386</ele>
        <time>2019-06-06T13:42:36Z</time>
      </trkpt>
      <trkpt lat="50.48301" lon="3.32213">
        <ele>35.457092</ele>
        <time>2019-06-06T13:42:38Z</time>
      </trkpt>
      <trkpt lat="50.48306" lon="3.32226">
        <ele>35.365471</ele>
        <time>2019-06-06T13:42:40Z</time>
      </trkpt>
      <trkpt lat="50.48312" lon="3.32238">
        <ele>35.27581</ele>
        <time>2019-06-06T13:42:42Z</time>
      </trkpt>
      <trkpt lat="50.48317" lon="3.3225">
        <ele>35.188869</ele>
        <time>2019-06-06T13:42:44Z</time>
      </trkpt>
      <trkpt lat="50.48322" lon="3.32263">
        <ele>35.100792</ele>
        <time>2019-06-06T13:42:46Z</time>
      </trkpt>
      <trkpt lat="50.48328" lon="3.32276">
        <ele>35.055569</ele>
        <time>2019-06-06T13:42:48Z</time>
      </trkpt>
      <trkpt lat="50.48333" lon="3.32289">
        <ele>34.960934</ele>
        <time>2019-06-06T13:42:50Z</time>
      </trkpt>
      <trkpt lat="50.48339" lon="3.32303">
        <ele>34.862965</ele>
        <time>2019-06-06T13:42:52Z</time>
      </trkpt>
      <trkpt lat="50.48345" lon="3.32316">
        <ele>34.765541</ele>
        <time>2019-06-06T13:42:54Z</time>
      </trkpt>
      <trkpt lat="50.48351" lon="3.3233">
        <ele>34.716026</ele>
        <time>2019-06-06T13:42:56Z</time>
      </trkpt>
      <trkpt lat="50.48357" lon="3.32343">
        <ele>34.614433</ele>
        <time>2019-06-06T13:42:58Z</time>
      </trkpt>
      <trkpt lat="50.48362" lon="3.32355">
        <ele>34.507278</ele>
        <time>2019-06-06T13:43:00Z</time>
      </trkpt>
      <trkpt lat="50.48367" lon="3.32367">
        <ele>34.399837</ele>
        <time>2019-06-06T13:43:02Z</time>
      </trkpt>
      <trkpt lat="50.48372" lon="3.3238">
        <ele>34.299858</ele>
        <time>2019-06-06T13:43:04Z</time>
      </trkpt>
      <trkpt lat="50.48378" lon="3.32391">
        <ele>34.254341</ele>
        <time>2019-06-06T13:43:06Z</time>
      </trkpt>
      <trkpt lat="50.48382" lon="3.32402">
        <ele>34.179153</ele>
        <time>2019-06-06T13:43:08Z</time>
      </trkpt>
      <trkpt lat="50.48387" lon="3.32413">
        <ele>34.1287</ele>
        <time>2019-06-06T13:43:10Z</time>
      </trkpt>
      <trkpt lat="50.4839" lon="3.32422">
        <ele>34.098732</ele>
        <time>2019-06-06T13:43:12Z</time>
      </trkpt>
      <trkpt lat="50.48394" lon="3.32431">
        <ele>34.091133</ele>
        <time>2019-06-06T13:43:14Z</time>
      </trkpt>
      <trkpt lat="50.48399" lon="3.32438">
        <ele>34.089378</ele>
        <time>2019-06-06T13:43:16Z</time>
      </trkpt>
      <trkpt lat="50.48408" lon="3.32444">
        <ele>34.097004</ele>
        <time>2019-06-06T13:43:18Z</time>
      </trkpt>
      <trkpt lat="50.48416" lon="3.32452">
        <ele>34.115814</ele>
        <time>2019-06-06T13:43:20Z</time>
      </trkpt>
      <trkpt lat="50.48419" lon="3.32467">
        <ele>34.1395</ele>
        <time>2019-06-06T13:43:22Z</time>
      </trkpt>
      <trkpt lat="50.4842" lon="3.32482">
        <ele>34.150612</ele>
        <time>2019-06-06T13:43:24Z</time>
      </trkpt>
      <trkpt lat="50.48418" lon="3.32496">
        <ele>34.172279</ele>
        <time>2019-06-06T13:43:26Z</time>
      </trkpt>
      <trkpt lat="50.48417" lon="3.3251">
        <ele>34.194393</ele>
        <time>2019-06-06T13:43:28Z</time>
      </trkpt>
      <trkpt lat="50.48415" lon="3.32525">
        <ele>34.207329</ele>
        <time>2019-06-06T13:43:30Z</time>
      </trkpt>
      <trkpt lat="50.48414" lon="3.32539">
        <ele>34.241028</ele>
        <time>2019-06-06T13:43:32Z</time>
      </trkpt>
      <trkpt lat="50.48412" lon="3.32553">
        <ele>34.290348</ele>
        <time>2019-06-06T13:43:34Z</time>
      </trkpt>
      <trkpt lat="50.48409" lon="3.32567">
        <ele>34.357368</ele>
        <time>2019-06-06T13:43:36Z</time>
      </trkpt>
      <trkpt lat="50.48407" lon="3.32582">
        <ele>34.396065</ele>
        <time>2019-06-06T13:43:38Z</time>
      </trkpt>
      <trkpt lat="50.48409" lon="3.32596">
        <ele>34.481613</ele>
        <time>2019-06-06T13:43:40Z</time>
      </trkpt>
      <trkpt lat="50.48415" lon="3.32609">
        <ele>34.528042</ele>
        <time>2019-06-06T13:43:42Z</time>
      </trkpt>
      <trkpt lat="50.48421" lon="3.3262">
        <ele>34.627182</ele>
        <time>2019-06-06T13:43:44Z</time>
      </trkpt>
      <trkpt lat="50.48427" lon="3.3263">
        <ele>34.730427</ele>
        <time>2019-06-06T13:43:46Z</time>
      </trkpt>
      <trkpt lat="50.48434" lon="3.3264">
        <ele>34.835472</ele>
        <time>2019-06-06T13:43:48Z</time>
      </trkpt>
      <trkpt lat="50.4844" lon="3.32651">
        <ele>34.93874</ele>
        <time>2019-06-06T13:43:50Z</time>
      </trkpt>
      <trkpt lat="50.48446" lon="3.32662">
        <ele>35.037018</ele>
        <time>2019-06-06T13:43:52Z</time>
      </trkpt>
      <trkpt lat="50.48453" lon="3.32672">
        <ele>35.082542</ele>
        <time>2019-06-06T13:43:54Z</time>
      </trkpt>
      <trkpt lat="50.48459" lon="3.32683">
        <ele>35.166016</ele>
        <time>2019-06-06T13:43:56Z</time>
      </trkpt>
      <trkpt lat="50.48465" lon="3.32694">
        <ele>35.237583</ele>
        <time>2019-06-06T13:43:58Z</time>
      </trkpt>
      <trkpt lat="50.48472" lon="3.32706">
        <ele>35.298946</ele>
        <time>2019-06-06T13:44:00Z</time>
      </trkpt>
      <trkpt lat="50.48479" lon="3.32718">
        <ele>35.326042</ele>
        <time>2019-06-06T13:44:02Z</time>
      </trkpt>
      <trkpt lat="50.48486" lon="3.32729">
        <ele>35.375244</ele>
        <time>2019-06-06T13:44:04Z</time>
      </trkpt>
      <trkpt lat="50.48493" lon="3.3274">
        <ele>35.41642</ele>
        <time>2019-06-06T13:44:06Z</time>
      </trkpt>
      <trkpt lat="50.485" lon="3.32751">
        <ele>35.448357</ele>
        <time>2019-06-06T13:44:08Z</time>
      </trkpt>
      <trkpt lat="50.48507" lon="3.32762">
        <ele>35.470661</ele>
        <time>2019-06-06T13:44:10Z</time>
      </trkpt>
      <trkpt lat="50.48513" lon="3.32772">
        <ele>35.483822</ele>
        <time>2019-06-06T13:44:12Z</time>
      </trkpt>
      <trkpt lat="50.4852" lon="3.32782">
        <ele>35.491096</ele>
        <time>2019-06-06T13:44:14Z</time>
      </trkpt>
      <trkpt lat="50.48526" lon="3.32793">
        <ele>35.489727</ele>
        <time>2019-06-06T13:44:16Z</time>
      </trkpt>
      <trkpt lat="50.48533" lon="3.32804">
        <ele>35.48558</ele>
        <time>2019-06-06T13:44:18Z</time>
      </trkpt>
      <trkpt lat="50.48539" lon="3.32815">
        <ele>35.47224</ele>
        <time>2019-06-06T13:44:20Z</time>
      </trkpt>
      <trkpt lat="50.48546" lon="3.32826">
        <ele>35.451</ele>
        <time>2019-06-06T13:44:22Z</time>
      </trkpt>
      <trkpt lat="50.48552" lon="3.32838">
        <ele>35.419727</ele>
        <time>2019-06-06T13:44:24Z</time>
      </trkpt>
      <trkpt lat="50.48556" lon="3.32852">
        <ele>35.383865</ele>
        <time>2019-06-06T13:44:26Z</time>
      </trkpt>
      <trkpt lat="50.4856" lon="3.32866">
        <ele>35.367363</ele>
        <time>2019-06-06T13:44:28Z</time>
      </trkpt>
      <trkpt lat="50.48562" lon="3.32879">
        <ele>35.336449</ele>
        <time>2019-06-06T13:44:30Z</time>
      </trkpt>
      <trkpt lat="50.48565" lon="3.32892">
        <ele>35.306446</ele>
        <time>2019-06-06T13:44:32Z</time>
      </trkpt>
      <trkpt lat="50.4857" lon="3.32905">
        <ele>35.291813</ele>
        <time>2019-06-06T13:44:34Z</time>
      </trkpt>
      <trkpt lat="50.48571" lon="3.32919">
        <ele>35.263287</ele>
        <time>2019-06-06T13:44:36Z</time>
      </trkpt>
      <trkpt lat="50.48574" lon="3.32933">
        <ele>35.228676</ele>
        <time>2019-06-06T13:44:38Z</time>
      </trkpt>
      <trkpt lat="50.48578" lon="3.32946">
        <ele>35.210896</ele>
        <time>2019-06-06T13:44:40Z</time>
      </trkpt>
      <trkpt lat="50.4858" lon="3.3296">
        <ele>35.17844</ele>
        <time>2019-06-06T13:44:42Z</time>
      </trkpt>
      <trkpt lat="50.48583" lon="3.32973">
        <ele>35.151649</ele>
        <time>2019-06-06T13:44:44Z</time>
      </trkpt>
      <trkpt lat="50.48585" lon="3.32985">
        <ele>35.136406</ele>
        <time>2019-06-06T13:44:46Z</time>
      </trkpt>
      <trkpt lat="50.48587" lon="3.32998">
        <ele>35.132702</ele>
        <time>2019-06-06T13:44:48Z</time>
      </trkpt>
      <trkpt lat="50.4859" lon="3.33013">
        <ele>35.131924</ele>
        <time>2019-06-06T13:44:50Z</time>
      </trkpt>
      <trkpt lat="50.48592" lon="3.33028">
        <ele>35.139816</ele>
        <time>2019-06-06T13:44:52Z</time>
      </trkpt>
      <trkpt lat="50.48595" lon="3.33044">
        <ele>35.147881</ele>
        <time>2019-06-06T13:44:54Z</time>
      </trkpt>
      <trkpt lat="50.48599" lon="3.3306">
        <ele>35.175816</ele>
        <time>2019-06-06T13:44:56Z</time>
      </trkpt>
      <trkpt lat="50.48601" lon="3.33075">
        <ele>35.218536</ele>
        <time>2019-06-06T13:44:58Z</time>
      </trkpt>
      <trkpt lat="50.48602" lon="3.3309">
        <ele>35.24192</ele>
        <time>2019-06-06T13:45:00Z</time>
      </trkpt>
      <trkpt lat="50.48605" lon="3.33106">
        <ele>35.293175</ele>
        <time>2019-06-06T13:45:02Z</time>
      </trkpt>
      <trkpt lat="50.48608" lon="3.33121">
        <ele>35.338207</ele>
        <time>2019-06-06T13:45:04Z</time>
      </trkpt>
      <trkpt lat="50.48611" lon="3.33138">
        <ele>35.354725</ele>
        <time>2019-06-06T13:45:06Z</time>
      </trkpt>
      <trkpt lat="50.48613" lon="3.33154">
        <ele>35.372581</ele>
        <time>2019-06-06T13:45:08Z</time>
      </trkpt>
      <trkpt lat="50.48616" lon="3.3317">
        <ele>35.379734</ele>
        <time>2019-06-06T13:45:10Z</time>
      </trkpt>
      <trkpt lat="50.48618" lon="3.33184">
        <ele>35.37949</ele>
        <time>2019-06-06T13:45:12Z</time>
      </trkpt>
      <trkpt lat="50.48621" lon="3.33198">
        <ele>35.371552</ele>
        <time>2019-06-06T13:45:14Z</time>
      </trkpt>
      <trkpt lat="50.48623" lon="3.33212">
        <ele>35.347557</ele>
        <time>2019-06-06T13:45:16Z</time>
      </trkpt>
      <trkpt lat="50.48625" lon="3.33225">
        <ele>35.331211</ele>
        <time>2019-06-06T13:45:18Z</time>
      </trkpt>
      <trkpt lat="50.48628" lon="3.3324">
        <ele>35.290405</ele>
        <time>2019-06-06T13:45:20Z</time>
      </trkpt>
      <trkpt lat="50.48631" lon="3.33253">
        <ele>35.239822</ele>
        <time>2019-06-06T13:45:22Z</time>
      </trkpt>
      <trkpt lat="50.48632" lon="3.33267">
        <ele>35.22134</ele>
        <time>2019-06-06T13:45:24Z</time>
      </trkpt>
      <trkpt lat="50.48635" lon="3.33281">
        <ele>35.204617</ele>
        <time>2019-06-06T13:45:26Z</time>
      </trkpt>
      <trkpt lat="50.48638" lon="3.33295">
        <ele>35.197769</ele>
        <time>2019-06-06T13:45:28Z</time>
      </trkpt>
      <trkpt lat="50.48641" lon="3.3331">
        <ele>35.193501</ele>
        <time>2019-06-06T13:45:30Z</time>
      </trkpt>
      <trkpt lat="50.48643" lon="3.33326">
        <ele>35.180397</ele>
        <time>2019-06-06T13:45:32Z</time>
      </trkpt>
      <trkpt lat="50.48646" lon="3.33341">
        <ele>35.133121</ele>
        <time>2019-06-06T13:45:34Z</time>
      </trkpt>
      <trkpt lat="50.48649" lon="3.33356">
        <ele>35.098476</ele>
        <time>2019-06-06T13:45:36Z</time>
      </trkpt>
      <trkpt lat="50.48651" lon="3.33372">
        <ele>35.015957</ele>
        <time>2019-06-06T13:45:38Z</time>
      </trkpt>
      <trkpt lat="50.48651" lon="3.33388">
        <ele>34.923256</ele>
        <time>2019-06-06T13:45:40Z</time>
      </trkpt>
      <trkpt lat="50.4865" lon="3.33403">
        <ele>34.87225</ele>
        <time>2019-06-06T13:45:42Z</time>
      </trkpt>
      <trkpt lat="50.48649" lon="3.33419">
        <ele>34.758797</ele>
        <time>2019-06-06T13:45:44Z</time>
      </trkpt>
      <trkpt lat="50.48647" lon="3.33434">
        <ele>34.629738</ele>
        <time>2019-06-06T13:45:46Z</time>
      </trkpt>
      <trkpt lat="50.48646" lon="3.33449">
        <ele>34.560463</ele>
        <time>2019-06-06T13:45:48Z</time>
      </trkpt>
      <trkpt lat="50.48644" lon="3.33463">
        <ele>34.41254</ele>
        <time>2019-06-06T13:45:50Z</time>
      </trkpt>
      <trkpt lat="50.48642" lon="3.33478">
        <ele>34.337975</ele>
        <time>2019-06-06T13:45:52Z</time>
      </trkpt>
      <trkpt lat="50.48641" lon="3.33492">
        <ele>34.208244</ele>
        <time>2019-06-06T13:45:54Z</time>
      </trkpt>
      <trkpt lat="50.4864" lon="3.33506">
        <ele>34.113663</ele>
        <time>2019-06-06T13:45:56Z</time>
      </trkpt>
      <trkpt lat="50.4864" lon="3.3352">
        <ele>34.075371</ele>
        <time>2019-06-06T13:45:58Z</time>
      </trkpt>
      <trkpt lat="50.48639" lon="3.33533">
        <ele>34.011894</ele>
        <time>2019-06-06T13:46:00Z</time>
      </trkpt>
      <trkpt lat="50.48639" lon="3.33545">
        <ele>33.95887</ele>
        <time>2019-06-06T13:46:02Z</time>
      </trkpt>
      <trkpt lat="50.48638" lon="3.33555">
        <ele>33.927189</ele>
        <time>2019-06-06T13:46:04Z</time>
      </trkpt>
      <trkpt lat="50.48638" lon="3.33563">
        <ele>33.851234</ele>
        <time>2019-06-06T13:46:06Z</time>
      </trkpt>
      <trkpt lat="50.48639" lon="3.33569">
        <ele>33.76693</ele>
        <time>2019-06-06T13:46:08Z</time>
      </trkpt>
      <trkpt lat="50.4864" lon="3.33574">
        <ele>33.73254</ele>
        <time>2019-06-06T13:46:10Z</time>
      </trkpt>
      <trkpt lat="50.4864" lon="3.33579">
        <ele>32.788673</ele>
        <time>2019-06-06T13:46:32Z</time>
      </trkpt>
      <trkpt lat="50.48646" lon="3.33577">
        <ele>30.851658</ele>
        <time>2019-06-06T13:47:13Z</time>
      </trkpt>
      <trkpt lat="50.48654" lon="3.33571">
        <ele>30.78278</ele>
        <time>2019-06-06T13:47:15Z</time>
      </trkpt>
      <trkpt lat="50.48663" lon="3.33567">
        <ele>30.720718</ele>
        <time>2019-06-06T13:47:17Z</time>
      </trkpt>
      <trkpt lat="50.48672" lon="3.33568">
        <ele>30.663647</ele>
        <time>2019-06-06T13:47:19Z</time>
      </trkpt>
      <trkpt lat="50.48681" lon="3.3357">
        <ele>30.635859</ele>
        <time>2019-06-06T13:47:21Z</time>
      </trkpt>
      <trkpt lat="50.48691" lon="3.33572">
        <ele>30.552021</ele>
        <time>2019-06-06T13:47:23Z</time>
      </trkpt>
      <trkpt lat="50.48702" lon="3.33574">
        <ele>30.49058</ele>
        <time>2019-06-06T13:47:25Z</time>
      </trkpt>
      <trkpt lat="50.48713" lon="3.33576">
        <ele>30.457779</ele>
        <time>2019-06-06T13:47:27Z</time>
      </trkpt>
      <trkpt lat="50.48724" lon="3.33578">
        <ele>30.3895</ele>
        <time>2019-06-06T13:47:29Z</time>
      </trkpt>
      <trkpt lat="50.48736" lon="3.33581">
        <ele>30.317358</ele>
        <time>2019-06-06T13:47:31Z</time>
      </trkpt>
      <trkpt lat="50.48748" lon="3.33583">
        <ele>30.243183</ele>
        <time>2019-06-06T13:47:33Z</time>
      </trkpt>
      <trkpt lat="50.48758" lon="3.33586">
        <ele>30.170532</ele>
        <time>2019-06-06T13:47:35Z</time>
      </trkpt>
      <trkpt lat="50.48766" lon="3.33587">
        <ele>30.100445</ele>
        <time>2019-06-06T13:47:37Z</time>
      </trkpt>
      <trkpt lat="50.48772" lon="3.33588">
        <ele>30.035786</ele>
        <time>2019-06-06T13:47:39Z</time>
      </trkpt>
      <trkpt lat="50.4878" lon="3.3359">
        <ele>29.978601</ele>
        <time>2019-06-06T13:47:41Z</time>
      </trkpt>
      <trkpt lat="50.48787" lon="3.33596">
        <ele>29.924683</ele>
        <time>2019-06-06T13:47:43Z</time>
      </trkpt>
      <trkpt lat="50.48795" lon="3.33604">
        <ele>29.868546</ele>
        <time>2019-06-06T13:47:45Z</time>
      </trkpt>
      <trkpt lat="50.48803" lon="3.33612">
        <ele>29.838581</ele>
        <time>2019-06-06T13:47:47Z</time>
      </trkpt>
      <trkpt lat="50.48811" lon="3.33621">
        <ele>29.773045</ele>
        <time>2019-06-06T13:47:49Z</time>
      </trkpt>
      <trkpt lat="50.48819" lon="3.33631">
        <ele>29.700779</ele>
        <time>2019-06-06T13:47:51Z</time>
      </trkpt>
      <trkpt lat="50.48827" lon="3.33639">
        <ele>29.626373</ele>
        <time>2019-06-06T13:47:53Z</time>
      </trkpt>
      <trkpt lat="50.48835" lon="3.33648">
        <ele>29.55246</ele>
        <time>2019-06-06T13:47:55Z</time>
      </trkpt>
      <trkpt lat="50.48844" lon="3.33658">
        <ele>29.477489</ele>
        <time>2019-06-06T13:47:57Z</time>
      </trkpt>
      <trkpt lat="50.48853" lon="3.33667">
        <ele>29.398748</ele>
        <time>2019-06-06T13:47:59Z</time>
      </trkpt>
      <trkpt lat="50.48861" lon="3.33676">
        <ele>29.317322</ele>
        <time>2019-06-06T13:48:01Z</time>
      </trkpt>
      <trkpt lat="50.48868" lon="3.33685">
        <ele>29.275049</ele>
        <time>2019-06-06T13:48:03Z</time>
      </trkpt>
      <trkpt lat="50.48875" lon="3.33696">
        <ele>29.187592</ele>
        <time>2019-06-06T13:48:05Z</time>
      </trkpt>
      <trkpt lat="50.48882" lon="3.33708">
        <ele>29.099533</ele>
        <time>2019-06-06T13:48:07Z</time>
      </trkpt>
      <trkpt lat="50.48888" lon="3.33719">
        <ele>29.018871</ele>
        <time>2019-06-06T13:48:09Z</time>
      </trkpt>
      <trkpt lat="50.48895" lon="3.33731">
        <ele>28.980692</ele>
        <time>2019-06-06T13:48:11Z</time>
      </trkpt>
      <trkpt lat="50.489" lon="3.33742">
        <ele>28.911587</ele>
        <time>2019-06-06T13:48:13Z</time>
      </trkpt>
      <trkpt lat="50.48906" lon="3.33753">
        <ele>28.851471</ele>
        <time>2019-06-06T13:48:15Z</time>
      </trkpt>
      <trkpt lat="50.48912" lon="3.33765">
        <ele>28.794882</ele>
        <time>2019-06-06T13:48:17Z</time>
      </trkpt>
      <trkpt lat="50.48919" lon="3.33776">
        <ele>28.76623</ele>
        <time>2019-06-06T13:48:19Z</time>
      </trkpt>
      <trkpt lat="50.48926" lon="3.33786">
        <ele>28.709396</ele>
        <time>2019-06-06T13:48:21Z</time>
      </trkpt>
      <trkpt lat="50.48934" lon="3.33793">
        <ele>28.65398</ele>
        <time>2019-06-06T13:48:23Z</time>
      </trkpt>
      <trkpt lat="50.48943" lon="3.33798">
        <ele>28.599636</ele>
        <time>2019-06-06T13:48:25Z</time>
      </trkpt>
      <trkpt lat="50.48953" lon="3.33802">
        <ele>28.550577</ele>
        <time>2019-06-06T13:48:27Z</time>
      </trkpt>
      <trkpt lat="50.48962" lon="3.33805">
        <ele>28.509604</ele>
        <time>2019-06-06T13:48:29Z</time>
      </trkpt>
      <trkpt lat="50.48971" lon="3.33808">
        <ele>28.476206</ele>
        <time>2019-06-06T13:48:31Z</time>
      </trkpt>
      <trkpt lat="50.48979" lon="3.33812">
        <ele>28.45422</ele>
        <time>2019-06-06T13:48:33Z</time>
      </trkpt>
      <trkpt lat="50.48988" lon="3.33815">
        <ele>28.444855</ele>
        <time>2019-06-06T13:48:35Z</time>
      </trkpt>
      <trkpt lat="50.48996" lon="3.33819">
        <ele>28.443655</ele>
        <time>2019-06-06T13:48:37Z</time>
      </trkpt>
      <trkpt lat="50.49003" lon="3.33825">
        <ele>28.450083</ele>
        <time>2019-06-06T13:48:39Z</time>
      </trkpt>
      <trkpt lat="50.49009" lon="3.33834">
        <ele>28.468653</ele>
        <time>2019-06-06T13:48:41Z</time>
      </trkpt>
      <trkpt lat="50.49014" lon="3.33845">
        <ele>28.497364</ele>
        <time>2019-06-06T13:48:43Z</time>
      </trkpt>
      <trkpt lat="50.49017" lon="3.33858">
        <ele>28.52969</ele>
        <time>2019-06-06T13:48:45Z</time>
      </trkpt>
      <trkpt lat="50.49021" lon="3.33872">
        <ele>28.545792</ele>
        <time>2019-06-06T13:48:47Z</time>
      </trkpt>
      <trkpt lat="50.49025" lon="3.33886">
        <ele>28.57465</ele>
        <time>2019-06-06T13:48:49Z</time>
      </trkpt>
      <trkpt lat="50.49028" lon="3.33899">
        <ele>28.595392</ele>
        <time>2019-06-06T13:48:51Z</time>
      </trkpt>
      <trkpt lat="50.49033" lon="3.33911">
        <ele>28.600788</ele>
        <time>2019-06-06T13:48:53Z</time>
      </trkpt>
      <trkpt lat="50.49038" lon="3.33923">
        <ele>28.604733</ele>
        <time>2019-06-06T13:48:55Z</time>
      </trkpt>
      <trkpt lat="50.49044" lon="3.33935">
        <ele>28.599691</ele>
        <time>2019-06-06T13:48:57Z</time>
      </trkpt>
      <trkpt lat="50.4905" lon="3.33948">
        <ele>28.595768</ele>
        <time>2019-06-06T13:48:59Z</time>
      </trkpt>
      <trkpt lat="50.49056" lon="3.33959">
        <ele>28.586655</ele>
        <time>2019-06-06T13:49:01Z</time>
      </trkpt>
      <trkpt lat="50.49064" lon="3.33969">
        <ele>28.582882</ele>
        <time>2019-06-06T13:49:03Z</time>
      </trkpt>
      <trkpt lat="50.49072" lon="3.33979">
        <ele>28.584829</ele>
        <time>2019-06-06T13:49:05Z</time>
      </trkpt>
      <trkpt lat="50.4908" lon="3.33989">
        <ele>28.587229</ele>
        <time>2019-06-06T13:49:07Z</time>
      </trkpt>
      <trkpt lat="50.49087" lon="3.33999">
        <ele>28.58643</ele>
        <time>2019-06-06T13:49:09Z</time>
      </trkpt>
      <trkpt lat="50.49094" lon="3.34009">
        <ele>28.578836</ele>
        <time>2019-06-06T13:49:11Z</time>
      </trkpt>
      <trkpt lat="50.491" lon="3.34019">
        <ele>28.563076</ele>
        <time>2019-06-06T13:49:13Z</time>
      </trkpt>
      <trkpt lat="50.49105" lon="3.34031">
        <ele>28.537241</ele>
        <time>2019-06-06T13:49:15Z</time>
      </trkpt>
      <trkpt lat="50.49108" lon="3.34045">
        <ele>28.50466</ele>
        <time>2019-06-06T13:49:17Z</time>
      </trkpt>
      <trkpt lat="50.49108" lon="3.34061">
        <ele>28.485617</ele>
        <time>2019-06-06T13:49:19Z</time>
      </trkpt>
      <trkpt lat="50.49104" lon="3.34074">
        <ele>28.442362</ele>
        <time>2019-06-06T13:49:21Z</time>
      </trkpt>
      <trkpt lat="50.49099" lon="3.34087">
        <ele>28.418087</ele>
        <time>2019-06-06T13:49:23Z</time>
      </trkpt>
      <trkpt lat="50.49095" lon="3.34102">
        <ele>28.36237</ele>
        <time>2019-06-06T13:49:25Z</time>
      </trkpt>
      <trkpt lat="50.49092" lon="3.34116">
        <ele>28.295919</ele>
        <time>2019-06-06T13:49:27Z</time>
      </trkpt>
      <trkpt lat="50.4909" lon="3.3413">
        <ele>28.259792</ele>
        <time>2019-06-06T13:49:29Z</time>
      </trkpt>
      <trkpt lat="50.49087" lon="3.34145">
        <ele>28.18121</ele>
        <time>2019-06-06T13:49:31Z</time>
      </trkpt>
      <trkpt lat="50.49085" lon="3.34159">
        <ele>28.09985</ele>
        <time>2019-06-06T13:49:33Z</time>
      </trkpt>
      <trkpt lat="50.49083" lon="3.34173">
        <ele>28.060263</ele>
        <time>2019-06-06T13:49:35Z</time>
      </trkpt>
      <trkpt lat="50.49081" lon="3.34187">
        <ele>27.985312</ele>
        <time>2019-06-06T13:49:37Z</time>
      </trkpt>
      <trkpt lat="50.49081" lon="3.34202">
        <ele>27.950312</ele>
        <time>2019-06-06T13:49:39Z</time>
      </trkpt>
      <trkpt lat="50.49084" lon="3.34216">
        <ele>27.885746</ele>
        <time>2019-06-06T13:49:41Z</time>
      </trkpt>
      <trkpt lat="50.49088" lon="3.34231">
        <ele>27.828135</ele>
        <time>2019-06-06T13:49:43Z</time>
      </trkpt>
      <trkpt lat="50.49093" lon="3.34245">
        <ele>27.801004</ele>
        <time>2019-06-06T13:49:45Z</time>
      </trkpt>
      <trkpt lat="50.49099" lon="3.34258">
        <ele>27.748703</ele>
        <time>2019-06-06T13:49:47Z</time>
      </trkpt>
      <trkpt lat="50.49106" lon="3.34268">
        <ele>27.697687</ele>
        <time>2019-06-06T13:49:49Z</time>
      </trkpt>
      <trkpt lat="50.49114" lon="3.34276">
        <ele>27.67131</ele>
        <time>2019-06-06T13:49:51Z</time>
      </trkpt>
      <trkpt lat="50.49122" lon="3.34284">
        <ele>27.61676</ele>
        <time>2019-06-06T13:49:53Z</time>
      </trkpt>
      <trkpt lat="50.49129" lon="3.34293">
        <ele>27.56255</ele>
        <time>2019-06-06T13:49:55Z</time>
      </trkpt>
      <trkpt lat="50.49134" lon="3.34303">
        <ele>27.510025</ele>
        <time>2019-06-06T13:49:57Z</time>
      </trkpt>
      <trkpt lat="50.49139" lon="3.34315">
        <ele>27.459967</ele>
        <time>2019-06-06T13:49:59Z</time>
      </trkpt>
      <trkpt lat="50.49144" lon="3.34328">
        <ele>27.43718</ele>
        <time>2019-06-06T13:50:01Z</time>
      </trkpt>
      <trkpt lat="50.49146" lon="3.34343">
        <ele>27.395473</ele>
        <time>2019-06-06T13:50:03Z</time>
      </trkpt>
      <trkpt lat="50.49147" lon="3.34357">
        <ele>27.356436</ele>
        <time>2019-06-06T13:50:05Z</time>
      </trkpt>
      <trkpt lat="50.49148" lon="3.34372">
        <ele>27.338531</ele>
        <time>2019-06-06T13:50:07Z</time>
      </trkpt>
      <trkpt lat="50.49148" lon="3.34387">
        <ele>27.304012</ele>
        <time>2019-06-06T13:50:09Z</time>
      </trkpt>
      <trkpt lat="50.49148" lon="3.34401">
        <ele>27.269739</ele>
        <time>2019-06-06T13:50:11Z</time>
      </trkpt>
      <trkpt lat="50.49149" lon="3.34417">
        <ele>27.252918</ele>
        <time>2019-06-06T13:50:13Z</time>
      </trkpt>
      <trkpt lat="50.49149" lon="3.34432">
        <ele>27.220123</ele>
        <time>2019-06-06T13:50:15Z</time>
      </trkpt>
      <trkpt lat="50.49149" lon="3.34447">
        <ele>27.203299</ele>
        <time>2019-06-06T13:50:17Z</time>
      </trkpt>
      <trkpt lat="50.4915" lon="3.34463">
        <ele>27.172634</ele>
        <time>2019-06-06T13:50:19Z</time>
      </trkpt>
      <trkpt lat="50.49151" lon="3.34478">
        <ele>27.15802</ele>
        <time>2019-06-06T13:50:21Z</time>
      </trkpt>
      <trkpt lat="50.49152" lon="3.34492">
        <ele>27.129847</ele>
        <time>2019-06-06T13:50:23Z</time>
      </trkpt>
      <trkpt lat="50.49152" lon="3.34503">
        <ele>27.10523</ele>
        <time>2019-06-06T13:50:25Z</time>
      </trkpt>
      <trkpt lat="50.49152" lon="3.34511">
        <ele>27.094151</ele>
        <time>2019-06-06T13:50:27Z</time>
      </trkpt>
      <trkpt lat="50.49153" lon="3.34517">
        <ele>27.0711</ele>
        <time>2019-06-06T13:50:29Z</time>
      </trkpt>
      <trkpt lat="50.49154" lon="3.34523">
        <ele>27.058109</ele>
        <time>2019-06-06T13:50:31Z</time>
      </trkpt>
      <trkpt lat="50.49154" lon="3.34531">
        <ele>27.029474</ele>
        <time>2019-06-06T13:50:33Z</time>
      </trkpt>
      <trkpt lat="50.49152" lon="3.34539">
        <ele>26.9958</ele>
        <time>2019-06-06T13:50:35Z</time>
      </trkpt>
      <trkpt lat="50.49146" lon="3.34541">
        <ele>26.977253</ele>
        <time>2019-06-06T13:50:37Z</time>
      </trkpt>
      <trkpt lat="50.49139" lon="3.34541">
        <ele>26.937695</ele>
        <time>2019-06-06T13:50:39Z</time>
      </trkpt>
      <trkpt lat="50.49133" lon="3.34541">
        <ele>26.896341</ele>
        <time>2019-06-06T13:50:41Z</time>
      </trkpt>
      <trkpt lat="50.49126" lon="3.34543">
        <ele>26.852118</ele>
        <time>2019-06-06T13:50:43Z</time>
      </trkpt>
      <trkpt lat="50.49117" lon="3.34545">
        <ele>26.810276</ele>
        <time>2019-06-06T13:50:45Z</time>
      </trkpt>
      <trkpt lat="50.49109" lon="3.34548">
        <ele>26.790823</ele>
        <time>2019-06-06T13:50:47Z</time>
      </trkpt>
      <trkpt lat="50.49101" lon="3.34552">
        <ele>26.75423</ele>
        <time>2019-06-06T13:50:49Z</time>
      </trkpt>
      <trkpt lat="50.49093" lon="3.34557">
        <ele>26.72648</ele>
        <time>2019-06-06T13:50:51Z</time>
      </trkpt>
      <trkpt lat="50.49085" lon="3.34562">
        <ele>26.709162</ele>
        <time>2019-06-06T13:50:53Z</time>
      </trkpt>
      <trkpt lat="50.49076" lon="3.34566">
        <ele>26.699875</ele>
        <time>2019-06-06T13:50:55Z</time>
      </trkpt>
      <trkpt lat="50.49069" lon="3.3457">
        <ele>26.698267</ele>
        <time>2019-06-06T13:50:57Z</time>
      </trkpt>
      <trkpt lat="50.4906" lon="3.34574">
        <ele>26.699478</ele>
        <time>2019-06-06T13:50:59Z</time>
      </trkpt>
      <trkpt lat="50.49051" lon="3.34579">
        <ele>26.705067</ele>
        <time>2019-06-06T13:51:01Z</time>
      </trkpt>
      <trkpt lat="50.49043" lon="3.34583">
        <ele>26.711975</ele>
        <time>2019-06-06T13:51:03Z</time>
      </trkpt>
      <trkpt lat="50.49035" lon="3.34587">
        <ele>26.718761</ele>
        <time>2019-06-06T13:51:05Z</time>
      </trkpt>
      <trkpt lat="50.49027" lon="3.34593">
        <ele>26.725788</ele>
        <time>2019-06-06T13:51:07Z</time>
      </trkpt>
      <trkpt lat="50.49018" lon="3.34598">
        <ele>26.732037</ele>
        <time>2019-06-06T13:51:09Z</time>
      </trkpt>
      <trkpt lat="50.49011" lon="3.34603">
        <ele>26.734951</ele>
        <time>2019-06-06T13:51:11Z</time>
      </trkpt>
      <trkpt lat="50.49003" lon="3.34609">
        <ele>26.742756</ele>
        <time>2019-06-06T13:51:13Z</time>
      </trkpt>
      <trkpt lat="50.48996" lon="3.34613">
        <ele>26.755352</ele>
        <time>2019-06-06T13:51:15Z</time>
      </trkpt>
      <trkpt lat="50.48989" lon="3.34618">
        <ele>26.775473</ele>
        <time>2019-06-06T13:51:17Z</time>
      </trkpt>
      <trkpt lat="50.48983" lon="3.34622">
        <ele>26.806107</ele>
        <time>2019-06-06T13:51:19Z</time>
      </trkpt>
      <trkpt lat="50.48975" lon="3.34626">
        <ele>26.844717</ele>
        <time>2019-06-06T13:51:21Z</time>
      </trkpt>
      <trkpt lat="50.48967" lon="3.34631">
        <ele>26.891077</ele>
        <time>2019-06-06T13:51:23Z</time>
      </trkpt>
      <trkpt lat="50.48959" lon="3.34636">
        <ele>26.942356</ele>
        <time>2019-06-06T13:51:25Z</time>
      </trkpt>
      <trkpt lat="50.48952" lon="3.34642">
        <ele>26.968445</ele>
        <time>2019-06-06T13:51:27Z</time>
      </trkpt>
      <trkpt lat="50.48944" lon="3.34647">
        <ele>27.020832</ele>
        <time>2019-06-06T13:51:29Z</time>
      </trkpt>
      <trkpt lat="50.48937" lon="3.34655">
        <ele>27.071369</ele>
        <time>2019-06-06T13:51:31Z</time>
      </trkpt>
      <trkpt lat="50.48931" lon="3.34666">
        <ele>27.117809</ele>
        <time>2019-06-06T13:51:33Z</time>
      </trkpt>
      <trkpt lat="50.48926" lon="3.34677">
        <ele>27.159281</ele>
        <time>2019-06-06T13:51:35Z</time>
      </trkpt>
      <trkpt lat="50.48924" lon="3.3469">
        <ele>27.178074</ele>
        <time>2019-06-06T13:51:37Z</time>
      </trkpt>
      <trkpt lat="50.48924" lon="3.34704">
        <ele>27.21134</ele>
        <time>2019-06-06T13:51:39Z</time>
      </trkpt>
      <trkpt lat="50.48922" lon="3.34718">
        <ele>27.225754</ele>
        <time>2019-06-06T13:51:41Z</time>
      </trkpt>
      <trkpt lat="50.48918" lon="3.34734">
        <ele>27.252163</ele>
        <time>2019-06-06T13:51:43Z</time>
      </trkpt>
      <trkpt lat="50.48912" lon="3.34747">
        <ele>27.276749</ele>
        <time>2019-06-06T13:51:45Z</time>
      </trkpt>
      <trkpt lat="50.48905" lon="3.34759">
        <ele>27.289715</ele>
        <time>2019-06-06T13:51:47Z</time>
      </trkpt>
      <trkpt lat="50.48899" lon="3.3477">
        <ele>27.318018</ele>
        <time>2019-06-06T13:51:49Z</time>
      </trkpt>
      <trkpt lat="50.48895" lon="3.34783">
        <ele>27.347927</ele>
        <time>2019-06-06T13:51:51Z</time>
      </trkpt>
      <trkpt lat="50.48893" lon="3.34798">
        <ele>27.361959</ele>
        <time>2019-06-06T13:51:53Z</time>
      </trkpt>
      <trkpt lat="50.48891" lon="3.34814">
        <ele>27.386105</ele>
        <time>2019-06-06T13:51:55Z</time>
      </trkpt>
      <trkpt lat="50.4889" lon="3.3483">
        <ele>27.394587</ele>
        <time>2019-06-06T13:51:57Z</time>
      </trkpt>
      <trkpt lat="50.48889" lon="3.34846">
        <ele>27.40131</ele>
        <time>2019-06-06T13:51:59Z</time>
      </trkpt>
      <trkpt lat="50.48888" lon="3.34862">
        <ele>27.399643</ele>
        <time>2019-06-06T13:52:01Z</time>
      </trkpt>
      <trkpt lat="50.48887" lon="3.34877">
        <ele>27.388065</ele>
        <time>2019-06-06T13:52:03Z</time>
      </trkpt>
      <trkpt lat="50.48885" lon="3.34893">
        <ele>27.363886</ele>
        <time>2019-06-06T13:52:05Z</time>
      </trkpt>
      <trkpt lat="50.48884" lon="3.34908">
        <ele>27.34672</ele>
        <time>2019-06-06T13:52:07Z</time>
      </trkpt>
      <trkpt lat="50.48883" lon="3.34923">
        <ele>27.305302</ele>
        <time>2019-06-06T13:52:09Z</time>
      </trkpt>
      <trkpt lat="50.48883" lon="3.34937">
        <ele>27.281284</ele>
        <time>2019-06-06T13:52:11Z</time>
      </trkpt>
      <trkpt lat="50.48883" lon="3.34953">
        <ele>27.226261</ele>
        <time>2019-06-06T13:52:13Z</time>
      </trkpt>
      <trkpt lat="50.48884" lon="3.34969">
        <ele>27.16531</ele>
        <time>2019-06-06T13:52:15Z</time>
      </trkpt>
      <trkpt lat="50.48885" lon="3.34985">
        <ele>27.132732</ele>
        <time>2019-06-06T13:52:17Z</time>
      </trkpt>
      <trkpt lat="50.48887" lon="3.35002">
        <ele>27.063629</ele>
        <time>2019-06-06T13:52:19Z</time>
      </trkpt>
      <trkpt lat="50.48888" lon="3.35018">
        <ele>27.027161</ele>
        <time>2019-06-06T13:52:21Z</time>
      </trkpt>
      <trkpt lat="50.4889" lon="3.35035">
        <ele>26.950266</ele>
        <time>2019-06-06T13:52:23Z</time>
      </trkpt>
      <trkpt lat="50.48891" lon="3.3505">
        <ele>26.867817</ele>
        <time>2019-06-06T13:52:25Z</time>
      </trkpt>
      <trkpt lat="50.48893" lon="3.35063">
        <ele>26.82489</ele>
        <time>2019-06-06T13:52:27Z</time>
      </trkpt>
      <trkpt lat="50.48894" lon="3.35075">
        <ele>26.735367</ele>
        <time>2019-06-06T13:52:29Z</time>
      </trkpt>
      <trkpt lat="50.48895" lon="3.35087">
        <ele>26.688049</ele>
        <time>2019-06-06T13:52:31Z</time>
      </trkpt>
      <trkpt lat="50.48896" lon="3.35099">
        <ele>26.586761</ele>
        <time>2019-06-06T13:52:33Z</time>
      </trkpt>
      <trkpt lat="50.48898" lon="3.35111">
        <ele>26.531973</ele>
        <time>2019-06-06T13:52:35Z</time>
      </trkpt>
      <trkpt lat="50.48899" lon="3.35122">
        <ele>26.414753</ele>
        <time>2019-06-06T13:52:37Z</time>
      </trkpt>
      <trkpt lat="50.489" lon="3.35134">
        <ele>26.287857</ele>
        <time>2019-06-06T13:52:39Z</time>
      </trkpt>
      <trkpt lat="50.489" lon="3.35145">
        <ele>26.222187</ele>
        <time>2019-06-06T13:52:41Z</time>
      </trkpt>
      <trkpt lat="50.48901" lon="3.35156">
        <ele>26.091282</ele>
        <time>2019-06-06T13:52:43Z</time>
      </trkpt>
      <trkpt lat="50.48906" lon="3.35167">
        <ele>26.028219</ele>
        <time>2019-06-06T13:52:45Z</time>
      </trkpt>
      <trkpt lat="50.48911" lon="3.3518">
        <ele>25.908213</ele>
        <time>2019-06-06T13:52:47Z</time>
      </trkpt>
      <trkpt lat="50.48914" lon="3.35194">
        <ele>25.852741</ele>
        <time>2019-06-06T13:52:49Z</time>
      </trkpt>
      <trkpt lat="50.48917" lon="3.35208">
        <ele>25.749989</ele>
        <time>2019-06-06T13:52:51Z</time>
      </trkpt>
      <trkpt lat="50.4892" lon="3.35222">
        <ele>25.653091</ele>
        <time>2019-06-06T13:52:53Z</time>
      </trkpt>
      <trkpt lat="50.48923" lon="3.35237">
        <ele>25.606272</ele>
        <time>2019-06-06T13:52:55Z</time>
      </trkpt>
      <trkpt lat="50.48927" lon="3.35252">
        <ele>25.517548</ele>
        <time>2019-06-06T13:52:57Z</time>
      </trkpt>
      <trkpt lat="50.4893" lon="3.35266">
        <ele>25.475311</ele>
        <time>2019-06-06T13:52:59Z</time>
      </trkpt>
      <trkpt lat="50.48932" lon="3.35279">
        <ele>25.395803</ele>
        <time>2019-06-06T13:53:01Z</time>
      </trkpt>
      <trkpt lat="50.48935" lon="3.35292">
        <ele>25.32515</ele>
        <time>2019-06-06T13:53:03Z</time>
      </trkpt>
      <trkpt lat="50.48937" lon="3.35306">
        <ele>25.292166</ele>
        <time>2019-06-06T13:53:05Z</time>
      </trkpt>
      <trkpt lat="50.48939" lon="3.3532">
        <ele>25.230228</ele>
        <time>2019-06-06T13:53:07Z</time>
      </trkpt>
      <trkpt lat="50.48941" lon="3.35335">
        <ele>25.200985</ele>
        <time>2019-06-06T13:53:09Z</time>
      </trkpt>
      <trkpt lat="50.48942" lon="3.3535">
        <ele>25.145441</ele>
        <time>2019-06-06T13:53:11Z</time>
      </trkpt>
      <trkpt lat="50.48943" lon="3.35365">
        <ele>25.091635</ele>
        <time>2019-06-06T13:53:13Z</time>
      </trkpt>
      <trkpt lat="50.48944" lon="3.35381">
        <ele>25.065207</ele>
        <time>2019-06-06T13:53:15Z</time>
      </trkpt>
      <trkpt lat="50.48944" lon="3.35397">
        <ele>25.012915</ele>
        <time>2019-06-06T13:53:17Z</time>
      </trkpt>
      <trkpt lat="50.48944" lon="3.35411">
        <ele>24.986237</ele>
        <time>2019-06-06T13:53:19Z</time>
      </trkpt>
      <trkpt lat="50.48945" lon="3.35426">
        <ele>24.932138</ele>
        <time>2019-06-06T13:53:21Z</time>
      </trkpt>
      <trkpt lat="50.48946" lon="3.35442">
        <ele>24.906378</ele>
        <time>2019-06-06T13:53:23Z</time>
      </trkpt>
      <trkpt lat="50.48948" lon="3.35457">
        <ele>24.85911</ele>
        <time>2019-06-06T13:53:25Z</time>
      </trkpt>
      <trkpt lat="50.48951" lon="3.35472">
        <ele>24.816299</ele>
        <time>2019-06-06T13:53:27Z</time>
      </trkpt>
      <trkpt lat="50.48955" lon="3.35486">
        <ele>24.796753</ele>
        <time>2019-06-06T13:53:29Z</time>
      </trkpt>
      <trkpt lat="50.48959" lon="3.355">
        <ele>24.760126</ele>
        <time>2019-06-06T13:53:31Z</time>
      </trkpt>
      <trkpt lat="50.48962" lon="3.35513">
        <ele>24.741154</ele>
        <time>2019-06-06T13:53:33Z</time>
      </trkpt>
      <trkpt lat="50.48965" lon="3.35527">
        <ele>24.698828</ele>
        <time>2019-06-06T13:53:35Z</time>
      </trkpt>
      <trkpt lat="50.48968" lon="3.35541">
        <ele>24.649906</ele>
        <time>2019-06-06T13:53:37Z</time>
      </trkpt>
      <trkpt lat="50.48971" lon="3.35556">
        <ele>24.624249</ele>
        <time>2019-06-06T13:53:39Z</time>
      </trkpt>
      <trkpt lat="50.48974" lon="3.3557">
        <ele>24.573475</ele>
        <time>2019-06-06T13:53:41Z</time>
      </trkpt>
      <trkpt lat="50.48976" lon="3.35585">
        <ele>24.549698</ele>
        <time>2019-06-06T13:53:43Z</time>
      </trkpt>
      <trkpt lat="50.48979" lon="3.35599">
        <ele>24.507376</ele>
        <time>2019-06-06T13:53:45Z</time>
      </trkpt>
      <trkpt lat="50.48981" lon="3.35614">
        <ele>24.470617</ele>
        <time>2019-06-06T13:53:47Z</time>
      </trkpt>
      <trkpt lat="50.48983" lon="3.35629">
        <ele>24.451965</ele>
        <time>2019-06-06T13:53:49Z</time>
      </trkpt>
      <trkpt lat="50.48985" lon="3.35646">
        <ele>24.410946</ele>
        <time>2019-06-06T13:53:51Z</time>
      </trkpt>
      <trkpt lat="50.48986" lon="3.35662">
        <ele>24.388062</ele>
        <time>2019-06-06T13:53:53Z</time>
      </trkpt>
      <trkpt lat="50.4899" lon="3.35678">
        <ele>24.336721</ele>
        <time>2019-06-06T13:53:55Z</time>
      </trkpt>
      <trkpt lat="50.48992" lon="3.35693">
        <ele>24.281643</ele>
        <time>2019-06-06T13:53:57Z</time>
      </trkpt>
      <trkpt lat="50.48993" lon="3.35709">
        <ele>24.255405</ele>
        <time>2019-06-06T13:53:59Z</time>
      </trkpt>
      <trkpt lat="50.48995" lon="3.35726">
        <ele>24.208445</ele>
        <time>2019-06-06T13:54:01Z</time>
      </trkpt>
      <trkpt lat="50.48997" lon="3.35741">
        <ele>24.188272</ele>
        <time>2019-06-06T13:54:03Z</time>
      </trkpt>
      <trkpt lat="50.48999" lon="3.35756">
        <ele>24.155203</ele>
        <time>2019-06-06T13:54:05Z</time>
      </trkpt>
      <trkpt lat="50.49003" lon="3.35771">
        <ele>24.131189</ele>
        <time>2019-06-06T13:54:07Z</time>
      </trkpt>
      <trkpt lat="50.49007" lon="3.35786">
        <ele>24.121456</ele>
        <time>2019-06-06T13:54:09Z</time>
      </trkpt>
      <trkpt lat="50.49012" lon="3.35799">
        <ele>24.104122</ele>
        <time>2019-06-06T13:54:11Z</time>
      </trkpt>
      <trkpt lat="50.49016" lon="3.35813">
        <ele>24.09494</ele>
        <time>2019-06-06T13:54:13Z</time>
      </trkpt>
      <trkpt lat="50.4902" lon="3.35828">
        <ele>24.075464</ele>
        <time>2019-06-06T13:54:15Z</time>
      </trkpt>
      <trkpt lat="50.49025" lon="3.35842">
        <ele>24.053488</ele>
        <time>2019-06-06T13:54:17Z</time>
      </trkpt>
      <trkpt lat="50.4903" lon="3.35857">
        <ele>24.041525</ele>
        <time>2019-06-06T13:54:19Z</time>
      </trkpt>
      <trkpt lat="50.49035" lon="3.35871">
        <ele>24.016184</ele>
        <time>2019-06-06T13:54:21Z</time>
      </trkpt>
      <trkpt lat="50.49038" lon="3.35885">
        <ele>24.003605</ele>
        <time>2019-06-06T13:54:23Z</time>
      </trkpt>
      <trkpt lat="50.49044" lon="3.359">
        <ele>23.975979</ele>
        <time>2019-06-06T13:54:25Z</time>
      </trkpt>
      <trkpt lat="50.49048" lon="3.35913">
        <ele>23.943298</ele>
        <time>2019-06-06T13:54:27Z</time>
      </trkpt>
      <trkpt lat="50.49052" lon="3.35925">
        <ele>23.923138</ele>
        <time>2019-06-06T13:54:29Z</time>
      </trkpt>
      <trkpt lat="50.49057" lon="3.35937">
        <ele>23.875618</ele>
        <time>2019-06-06T13:54:31Z</time>
      </trkpt>
      <trkpt lat="50.49064" lon="3.35949">
        <ele>23.816296</ele>
        <time>2019-06-06T13:54:33Z</time>
      </trkpt>
      <trkpt lat="50.49071" lon="3.3596">
        <ele>23.781462</ele>
        <time>2019-06-06T13:54:35Z</time>
      </trkpt>
      <trkpt lat="50.49079" lon="3.35971">
        <ele>23.703703</ele>
        <time>2019-06-06T13:54:37Z</time>
      </trkpt>
      <trkpt lat="50.49087" lon="3.3598">
        <ele>23.662075</ele>
        <time>2019-06-06T13:54:39Z</time>
      </trkpt>
      <trkpt lat="50.49095" lon="3.35989">
        <ele>23.57299</ele>
        <time>2019-06-06T13:54:41Z</time>
      </trkpt>
      <trkpt lat="50.49103" lon="3.35998">
        <ele>23.478664</ele>
        <time>2019-06-06T13:54:43Z</time>
      </trkpt>
      <trkpt lat="50.4911" lon="3.36007">
        <ele>23.381893</ele>
        <time>2019-06-06T13:54:45Z</time>
      </trkpt>
      <trkpt lat="50.49117" lon="3.36017">
        <ele>23.280745</ele>
        <time>2019-06-06T13:54:47Z</time>
      </trkpt>
      <trkpt lat="50.49123" lon="3.36027">
        <ele>23.169476</ele>
        <time>2019-06-06T13:54:49Z</time>
      </trkpt>
      <trkpt lat="50.4913" lon="3.36038">
        <ele>23.109541</ele>
        <time>2019-06-06T13:54:51Z</time>
      </trkpt>
      <trkpt lat="50.49137" lon="3.3605">
        <ele>22.981249</ele>
        <time>2019-06-06T13:54:53Z</time>
      </trkpt>
      <trkpt lat="50.49143" lon="3.36062">
        <ele>22.844679</ele>
        <time>2019-06-06T13:54:55Z</time>
      </trkpt>
      <trkpt lat="50.49149" lon="3.36074">
        <ele>22.774843</ele>
        <time>2019-06-06T13:54:57Z</time>
      </trkpt>
      <trkpt lat="50.49154" lon="3.36087">
        <ele>22.636793</ele>
        <time>2019-06-06T13:54:59Z</time>
      </trkpt>
      <trkpt lat="50.4916" lon="3.36102">
        <ele>22.569715</ele>
        <time>2019-06-06T13:55:01Z</time>
      </trkpt>
      <trkpt lat="50.49164" lon="3.36116">
        <ele>22.441805</ele>
        <time>2019-06-06T13:55:03Z</time>
      </trkpt>
      <trkpt lat="50.49168" lon="3.36129">
        <ele>22.32246</ele>
        <time>2019-06-06T13:55:05Z</time>
      </trkpt>
      <trkpt lat="50.49171" lon="3.36143">
        <ele>22.265425</ele>
        <time>2019-06-06T13:55:07Z</time>
      </trkpt>
      <trkpt lat="50.49175" lon="3.36156">
        <ele>22.156765</ele>
        <time>2019-06-06T13:55:09Z</time>
      </trkpt>
      <trkpt lat="50.4918" lon="3.36169">
        <ele>22.105492</ele>
        <time>2019-06-06T13:55:11Z</time>
      </trkpt>
      <trkpt lat="50.49184" lon="3.36183">
        <ele>22.010973</ele>
        <time>2019-06-06T13:55:13Z</time>
      </trkpt>
      <trkpt lat="50.49189" lon="3.36196">
        <ele>21.928488</ele>
        <time>2019-06-06T13:55:15Z</time>
      </trkpt>
      <trkpt lat="50.49195" lon="3.36209">
        <ele>21.892155</ele>
        <time>2019-06-06T13:55:17Z</time>
      </trkpt>
      <trkpt lat="50.492" lon="3.36222">
        <ele>21.827417</ele>
        <time>2019-06-06T13:55:19Z</time>
      </trkpt>
      <trkpt lat="50.49205" lon="3.36234">
        <ele>21.77387</ele>
        <time>2019-06-06T13:55:21Z</time>
      </trkpt>
      <trkpt lat="50.4921" lon="3.36246">
        <ele>21.75108</ele>
        <time>2019-06-06T13:55:23Z</time>
      </trkpt>
      <trkpt lat="50.49214" lon="3.36259">
        <ele>21.71467</ele>
        <time>2019-06-06T13:55:25Z</time>
      </trkpt>
      <trkpt lat="50.49219" lon="3.36271">
        <ele>21.701746</ele>
        <time>2019-06-06T13:55:27Z</time>
      </trkpt>
      <trkpt lat="50.49224" lon="3.36283">
        <ele>21.687916</ele>
        <time>2019-06-06T13:55:29Z</time>
      </trkpt>
      <trkpt lat="50.49228" lon="3.36296">
        <ele>21.687908</ele>
        <time>2019-06-06T13:55:31Z</time>
      </trkpt>
      <trkpt lat="50.49232" lon="3.36309">
        <ele>21.693277</ele>
        <time>2019-06-06T13:55:33Z</time>
      </trkpt>
      <trkpt lat="50.49236" lon="3.36323">
        <ele>21.710623</ele>
        <time>2019-06-06T13:55:35Z</time>
      </trkpt>
      <trkpt lat="50.4924" lon="3.36337">
        <ele>21.732555</ele>
        <time>2019-06-06T13:55:37Z</time>
      </trkpt>
      <trkpt lat="50.49242" lon="3.36351">
        <ele>21.745077</ele>
        <time>2019-06-06T13:55:39Z</time>
      </trkpt>
      <trkpt lat="50.49244" lon="3.36366">
        <ele>21.773659</ele>
        <time>2019-06-06T13:55:41Z</time>
      </trkpt>
      <trkpt lat="50.49246" lon="3.36381">
        <ele>21.788605</ele>
        <time>2019-06-06T13:55:43Z</time>
      </trkpt>
      <trkpt lat="50.49247" lon="3.36396">
        <ele>21.819778</ele>
        <time>2019-06-06T13:55:45Z</time>
      </trkpt>
      <trkpt lat="50.49247" lon="3.36411">
        <ele>21.853848</ele>
        <time>2019-06-06T13:55:47Z</time>
      </trkpt>
      <trkpt lat="50.49246" lon="3.36427">
        <ele>21.871885</ele>
        <time>2019-06-06T13:55:49Z</time>
      </trkpt>
      <trkpt lat="50.49246" lon="3.36443">
        <ele>21.907202</ele>
        <time>2019-06-06T13:55:51Z</time>
      </trkpt>
      <trkpt lat="50.49244" lon="3.36457">
        <ele>21.924635</ele>
        <time>2019-06-06T13:55:53Z</time>
      </trkpt>
      <trkpt lat="50.49242" lon="3.36471">
        <ele>21.959812</ele>
        <time>2019-06-06T13:55:55Z</time>
      </trkpt>
      <trkpt lat="50.49239" lon="3.36484">
        <ele>21.977552</ele>
        <time>2019-06-06T13:55:57Z</time>
      </trkpt>
      <trkpt lat="50.49236" lon="3.36499">
        <ele>22.011433</ele>
        <time>2019-06-06T13:55:59Z</time>
      </trkpt>
      <trkpt lat="50.49233" lon="3.36513">
        <ele>22.026648</ele>
        <time>2019-06-06T13:56:01Z</time>
      </trkpt>
      <trkpt lat="50.49229" lon="3.36527">
        <ele>22.052954</ele>
        <time>2019-06-06T13:56:03Z</time>
      </trkpt>
      <trkpt lat="50.49225" lon="3.36541">
        <ele>22.071947</ele>
        <time>2019-06-06T13:56:05Z</time>
      </trkpt>
      <trkpt lat="50.49221" lon="3.36555">
        <ele>22.078129</ele>
        <time>2019-06-06T13:56:07Z</time>
      </trkpt>
      <trkpt lat="50.49218" lon="3.3657">
        <ele>22.085279</ele>
        <time>2019-06-06T13:56:09Z</time>
      </trkpt>
      <trkpt lat="50.49217" lon="3.36585">
        <ele>22.088209</ele>
        <time>2019-06-06T13:56:11Z</time>
      </trkpt>
      <trkpt lat="50.49216" lon="3.36599">
        <ele>22.092451</ele>
        <time>2019-06-06T13:56:13Z</time>
      </trkpt>
      <trkpt lat="50.49216" lon="3.36614">
        <ele>22.095201</ele>
        <time>2019-06-06T13:56:15Z</time>
      </trkpt>
      <trkpt lat="50.49218" lon="3.36629">
        <ele>22.095243</ele>
        <time>2019-06-06T13:56:17Z</time>
      </trkpt>
      <trkpt lat="50.4922" lon="3.36643">
        <ele>22.092312</ele>
        <time>2019-06-06T13:56:19Z</time>
      </trkpt>
      <trkpt lat="50.49224" lon="3.36655">
        <ele>22.088545</ele>
        <time>2019-06-06T13:56:21Z</time>
      </trkpt>
      <trkpt lat="50.49229" lon="3.36667">
        <ele>22.076601</ele>
        <time>2019-06-06T13:56:23Z</time>
      </trkpt>
      <trkpt lat="50.49236" lon="3.36678">
        <ele>22.061739</ele>
        <time>2019-06-06T13:56:25Z</time>
      </trkpt>
      <trkpt lat="50.49243" lon="3.36688">
        <ele>22.055111</ele>
        <time>2019-06-06T13:56:27Z</time>
      </trkpt>
      <trkpt lat="50.49251" lon="3.36698">
        <ele>22.044415</ele>
        <time>2019-06-06T13:56:29Z</time>
      </trkpt>
      <trkpt lat="50.49259" lon="3.36707">
        <ele>22.037273</ele>
        <time>2019-06-06T13:56:31Z</time>
      </trkpt>
      <trkpt lat="50.49266" lon="3.36717">
        <ele>22.034412</ele>
        <time>2019-06-06T13:56:33Z</time>
      </trkpt>
      <trkpt lat="50.49274" lon="3.36726">
        <ele>22.022871</ele>
        <time>2019-06-06T13:56:35Z</time>
      </trkpt>
      <trkpt lat="50.49281" lon="3.36735">
        <ele>22.014784</ele>
        <time>2019-06-06T13:56:37Z</time>
      </trkpt>
      <trkpt lat="50.49289" lon="3.36745">
        <ele>22.000917</ele>
        <time>2019-06-06T13:56:39Z</time>
      </trkpt>
      <trkpt lat="50.49297" lon="3.36754">
        <ele>21.94508</ele>
        <time>2019-06-06T13:56:41Z</time>
      </trkpt>
      <trkpt lat="50.49304" lon="3.36764">
        <ele>21.915783</ele>
        <time>2019-06-06T13:56:43Z</time>
      </trkpt>
      <trkpt lat="50.49312" lon="3.36776">
        <ele>21.882694</ele>
        <time>2019-06-06T13:56:45Z</time>
      </trkpt>
      <trkpt lat="50.49319" lon="3.36788">
        <ele>21.859741</ele>
        <time>2019-06-06T13:56:47Z</time>
      </trkpt>
      <trkpt lat="50.49326" lon="3.36802">
        <ele>21.808765</ele>
        <time>2019-06-06T13:56:49Z</time>
      </trkpt>
      <trkpt lat="50.49332" lon="3.36816">
        <ele>21.782856</ele>
        <time>2019-06-06T13:56:51Z</time>
      </trkpt>
      <trkpt lat="50.49337" lon="3.36831">
        <ele>21.766973</ele>
        <time>2019-06-06T13:56:53Z</time>
      </trkpt>
      <trkpt lat="50.49342" lon="3.36846">
        <ele>21.711428</ele>
        <time>2019-06-06T13:56:55Z</time>
      </trkpt>
      <trkpt lat="50.49347" lon="3.36861">
        <ele>21.685703</ele>
        <time>2019-06-06T13:56:57Z</time>
      </trkpt>
      <trkpt lat="50.4935" lon="3.36876">
        <ele>21.642967</ele>
        <time>2019-06-06T13:56:59Z</time>
      </trkpt>
      <trkpt lat="50.49353" lon="3.36891">
        <ele>21.615414</ele>
        <time>2019-06-06T13:57:01Z</time>
      </trkpt>
      <trkpt lat="50.49356" lon="3.36906">
        <ele>21.585995</ele>
        <time>2019-06-06T13:57:03Z</time>
      </trkpt>
      <trkpt lat="50.49358" lon="3.36922">
        <ele>21.485846</ele>
        <time>2019-06-06T13:57:05Z</time>
      </trkpt>
      <trkpt lat="50.49359" lon="3.36938">
        <ele>21.420221</ele>
        <time>2019-06-06T13:57:07Z</time>
      </trkpt>
      <trkpt lat="50.4936" lon="3.36956">
        <ele>21.39106</ele>
        <time>2019-06-06T13:57:09Z</time>
      </trkpt>
      <trkpt lat="50.49359" lon="3.36975">
        <ele>21.332016</ele>
        <time>2019-06-06T13:57:11Z</time>
      </trkpt>
      <trkpt lat="50.49358" lon="3.36993">
        <ele>21.301971</ele>
        <time>2019-06-06T13:57:13Z</time>
      </trkpt>
      <trkpt lat="50.49357" lon="3.37011">
        <ele>21.238789</ele>
        <time>2019-06-06T13:57:15Z</time>
      </trkpt>
      <trkpt lat="50.49355" lon="3.37027">
        <ele>21.20635</ele>
        <time>2019-06-06T13:57:17Z</time>
      </trkpt>
      <trkpt lat="50.49352" lon="3.37043">
        <ele>21.138706</ele>
        <time>2019-06-06T13:57:19Z</time>
      </trkpt>
      <trkpt lat="50.49349" lon="3.37056">
        <ele>21.066196</ele>
        <time>2019-06-06T13:57:21Z</time>
      </trkpt>
      <trkpt lat="50.49347" lon="3.37069">
        <ele>21.034737</ele>
        <time>2019-06-06T13:57:23Z</time>
      </trkpt>
      <trkpt lat="50.49346" lon="3.37081">
        <ele>20.960796</ele>
        <time>2019-06-06T13:57:25Z</time>
      </trkpt>
      <trkpt lat="50.49346" lon="3.37094">
        <ele>20.913458</ele>
        <time>2019-06-06T13:57:27Z</time>
      </trkpt>
      <trkpt lat="50.49348" lon="3.37107">
        <ele>20.848999</ele>
        <time>2019-06-06T13:57:29Z</time>
      </trkpt>
      <trkpt lat="50.49354" lon="3.37119">
        <ele>20.832331</ele>
        <time>2019-06-06T13:57:31Z</time>
      </trkpt>
      <trkpt lat="50.49361" lon="3.3713">
        <ele>20.751755</ele>
        <time>2019-06-06T13:57:33Z</time>
      </trkpt>
      <trkpt lat="50.49369" lon="3.37138">
        <ele>20.670322</ele>
        <time>2019-06-06T13:57:35Z</time>
      </trkpt>
      <trkpt lat="50.49378" lon="3.37144">
        <ele>20.635267</ele>
        <time>2019-06-06T13:57:37Z</time>
      </trkpt>
      <trkpt lat="50.49388" lon="3.37151">
        <ele>20.570662</ele>
        <time>2019-06-06T13:57:39Z</time>
      </trkpt>
      <trkpt lat="50.49398" lon="3.37159">
        <ele>20.485077</ele>
        <time>2019-06-06T13:57:41Z</time>
      </trkpt>
      <trkpt lat="50.49407" lon="3.37166">
        <ele>20.421364</ele>
        <time>2019-06-06T13:57:43Z</time>
      </trkpt>
      <trkpt lat="50.49416" lon="3.37173">
        <ele>20.38343</ele>
        <time>2019-06-06T13:57:45Z</time>
      </trkpt>
      <trkpt lat="50.49425" lon="3.3718">
        <ele>20.34824</ele>
        <time>2019-06-06T13:57:47Z</time>
      </trkpt>
      <trkpt lat="50.49434" lon="3.37186">
        <ele>20.293066</ele>
        <time>2019-06-06T13:57:49Z</time>
      </trkpt>
      <trkpt lat="50.49443" lon="3.37193">
        <ele>20.241711</ele>
        <time>2019-06-06T13:57:51Z</time>
      </trkpt>
      <trkpt lat="50.49452" lon="3.372">
        <ele>20.232691</ele>
        <time>2019-06-06T13:57:53Z</time>
      </trkpt>
      <trkpt lat="50.49461" lon="3.37206">
        <ele>20.18121</ele>
        <time>2019-06-06T13:57:55Z</time>
      </trkpt>
      <trkpt lat="50.4947" lon="3.37213">
        <ele>20.152033</ele>
        <time>2019-06-06T13:57:57Z</time>
      </trkpt>
      <trkpt lat="50.49479" lon="3.37219">
        <ele>20.09317</ele>
        <time>2019-06-06T13:57:59Z</time>
      </trkpt>
      <trkpt lat="50.49487" lon="3.37226">
        <ele>20.033655</ele>
        <time>2019-06-06T13:58:01Z</time>
      </trkpt>
      <trkpt lat="50.49496" lon="3.37233">
        <ele>19.975464</ele>
        <time>2019-06-06T13:58:03Z</time>
      </trkpt>
      <trkpt lat="50.49504" lon="3.37239">
        <ele>19.918203</ele>
        <time>2019-06-06T13:58:05Z</time>
      </trkpt>
      <trkpt lat="50.49513" lon="3.37247">
        <ele>19.890051</ele>
        <time>2019-06-06T13:58:07Z</time>
      </trkpt>
      <trkpt lat="50.4952" lon="3.37256">
        <ele>19.83865</ele>
        <time>2019-06-06T13:58:09Z</time>
      </trkpt>
      <trkpt lat="50.49526" lon="3.37268">
        <ele>19.799374</ele>
        <time>2019-06-06T13:58:11Z</time>
      </trkpt>
      <trkpt lat="50.49529" lon="3.37282">
        <ele>19.784042</ele>
        <time>2019-06-06T13:58:13Z</time>
      </trkpt>
      <trkpt lat="50.49531" lon="3.37297">
        <ele>19.759415</ele>
        <time>2019-06-06T13:58:15Z</time>
      </trkpt>
      <trkpt lat="50.4953" lon="3.37312">
        <ele>19.74946</ele>
        <time>2019-06-06T13:58:17Z</time>
      </trkpt>
      <trkpt lat="50.49529" lon="3.37327">
        <ele>19.731756</ele>
        <time>2019-06-06T13:58:19Z</time>
      </trkpt>
      <trkpt lat="50.49527" lon="3.37342">
        <ele>19.722713</ele>
        <time>2019-06-06T13:58:21Z</time>
      </trkpt>
      <trkpt lat="50.49524" lon="3.37357">
        <ele>19.703304</ele>
        <time>2019-06-06T13:58:23Z</time>
      </trkpt>
      <trkpt lat="50.49522" lon="3.37372">
        <ele>19.684727</ele>
        <time>2019-06-06T13:58:25Z</time>
      </trkpt>
      <trkpt lat="50.49519" lon="3.37387">
        <ele>19.677059</ele>
        <time>2019-06-06T13:58:27Z</time>
      </trkpt>
      <trkpt lat="50.49517" lon="3.37402">
        <ele>19.665262</ele>
        <time>2019-06-06T13:58:29Z</time>
      </trkpt>
      <trkpt lat="50.49516" lon="3.37417">
        <ele>19.659237</ele>
        <time>2019-06-06T13:58:31Z</time>
      </trkpt>
      <trkpt lat="50.49513" lon="3.37432">
        <ele>19.647388</ele>
        <time>2019-06-06T13:58:33Z</time>
      </trkpt>
      <trkpt lat="50.49511" lon="3.37446">
        <ele>19.641722</ele>
        <time>2019-06-06T13:58:35Z</time>
      </trkpt>
      <trkpt lat="50.49509" lon="3.3746">
        <ele>19.630445</ele>
        <time>2019-06-06T13:58:37Z</time>
      </trkpt>
      <trkpt lat="50.49506" lon="3.37474">
        <ele>19.62429</ele>
        <time>2019-06-06T13:58:39Z</time>
      </trkpt>
      <trkpt lat="50.49504" lon="3.37488">
        <ele>19.613773</ele>
        <time>2019-06-06T13:58:41Z</time>
      </trkpt>
      <trkpt lat="50.49502" lon="3.37503">
        <ele>19.610964</ele>
        <time>2019-06-06T13:58:43Z</time>
      </trkpt>
      <trkpt lat="50.495" lon="3.37516">
        <ele>19.612263</ele>
        <time>2019-06-06T13:58:45Z</time>
      </trkpt>
      <trkpt lat="50.49498" lon="3.3753">
        <ele>19.61606</ele>
        <time>2019-06-06T13:58:47Z</time>
      </trkpt>
      <trkpt lat="50.49496" lon="3.37544">
        <ele>19.619259</ele>
        <time>2019-06-06T13:58:49Z</time>
      </trkpt>
      <trkpt lat="50.49495" lon="3.37558">
        <ele>19.625212</ele>
        <time>2019-06-06T13:58:51Z</time>
      </trkpt>
      <trkpt lat="50.49495" lon="3.37573">
        <ele>19.625751</ele>
        <time>2019-06-06T13:58:53Z</time>
      </trkpt>
      <trkpt lat="50.49497" lon="3.37588">
        <ele>19.619892</ele>
        <time>2019-06-06T13:58:55Z</time>
      </trkpt>
      <trkpt lat="50.49502" lon="3.37602">
        <ele>19.615971</ele>
        <time>2019-06-06T13:58:57Z</time>
      </trkpt>
      <trkpt lat="50.49508" lon="3.37613">
        <ele>19.609739</ele>
        <time>2019-06-06T13:58:59Z</time>
      </trkpt>
      <trkpt lat="50.49517" lon="3.37622">
        <ele>19.601469</ele>
        <time>2019-06-06T13:59:01Z</time>
      </trkpt>
      <trkpt lat="50.49526" lon="3.37629">
        <ele>19.59634</ele>
        <time>2019-06-06T13:59:03Z</time>
      </trkpt>
      <trkpt lat="50.49535" lon="3.37636">
        <ele>19.586199</ele>
        <time>2019-06-06T13:59:05Z</time>
      </trkpt>
      <trkpt lat="50.49544" lon="3.37643">
        <ele>19.575279</ele>
        <time>2019-06-06T13:59:07Z</time>
      </trkpt>
      <trkpt lat="50.49553" lon="3.3765">
        <ele>19.562614</ele>
        <time>2019-06-06T13:59:09Z</time>
      </trkpt>
      <trkpt lat="50.49562" lon="3.37658">
        <ele>19.559984</ele>
        <time>2019-06-06T13:59:11Z</time>
      </trkpt>
      <trkpt lat="50.49571" lon="3.37665">
        <ele>19.56111</ele>
        <time>2019-06-06T13:59:13Z</time>
      </trkpt>
      <trkpt lat="50.4958" lon="3.37672">
        <ele>19.564434</ele>
        <time>2019-06-06T13:59:15Z</time>
      </trkpt>
      <trkpt lat="50.49588" lon="3.37678">
        <ele>19.564184</ele>
        <time>2019-06-06T13:59:17Z</time>
      </trkpt>
      <trkpt lat="50.49597" lon="3.37684">
        <ele>19.554274</ele>
        <time>2019-06-06T13:59:19Z</time>
      </trkpt>
      <trkpt lat="50.49606" lon="3.37691">
        <ele>19.545118</ele>
        <time>2019-06-06T13:59:21Z</time>
      </trkpt>
      <trkpt lat="50.49614" lon="3.37698">
        <ele>19.522459</ele>
        <time>2019-06-06T13:59:23Z</time>
      </trkpt>
      <trkpt lat="50.49622" lon="3.37704">
        <ele>19.501348</ele>
        <time>2019-06-06T13:59:25Z</time>
      </trkpt>
      <trkpt lat="50.49631" lon="3.3771">
        <ele>19.484133</ele>
        <time>2019-06-06T13:59:27Z</time>
      </trkpt>
      <trkpt lat="50.4964" lon="3.37717">
        <ele>19.47506</ele>
        <time>2019-06-06T13:59:29Z</time>
      </trkpt>
      <trkpt lat="50.49648" lon="3.37724">
        <ele>19.455601</ele>
        <time>2019-06-06T13:59:31Z</time>
      </trkpt>
      <trkpt lat="50.49657" lon="3.37731">
        <ele>19.43265</ele>
        <time>2019-06-06T13:59:33Z</time>
      </trkpt>
      <trkpt lat="50.49666" lon="3.37737">
        <ele>19.408354</ele>
        <time>2019-06-06T13:59:35Z</time>
      </trkpt>
      <trkpt lat="50.49675" lon="3.37744">
        <ele>19.397205</ele>
        <time>2019-06-06T13:59:37Z</time>
      </trkpt>
      <trkpt lat="50.49683" lon="3.37751">
        <ele>19.379086</ele>
        <time>2019-06-06T13:59:39Z</time>
      </trkpt>
      <trkpt lat="50.49691" lon="3.37757">
        <ele>19.362961</ele>
        <time>2019-06-06T13:59:41Z</time>
      </trkpt>
      <trkpt lat="50.49699" lon="3.37764">
        <ele>19.351177</ele>
        <time>2019-06-06T13:59:43Z</time>
      </trkpt>
      <trkpt lat="50.49708" lon="3.3777">
        <ele>19.344618</ele>
        <time>2019-06-06T13:59:45Z</time>
      </trkpt>
      <trkpt lat="50.49717" lon="3.37777">
        <ele>19.331728</ele>
        <time>2019-06-06T13:59:47Z</time>
      </trkpt>
      <trkpt lat="50.49725" lon="3.37784">
        <ele>19.320057</ele>
        <time>2019-06-06T13:59:49Z</time>
      </trkpt>
      <trkpt lat="50.49735" lon="3.37791">
        <ele>19.310612</ele>
        <time>2019-06-06T13:59:51Z</time>
      </trkpt>
      <trkpt lat="50.49743" lon="3.37797">
        <ele>19.304138</ele>
        <time>2019-06-06T13:59:53Z</time>
      </trkpt>
      <trkpt lat="50.49751" lon="3.37804">
        <ele>19.301359</ele>
        <time>2019-06-06T13:59:55Z</time>
      </trkpt>
      <trkpt lat="50.49759" lon="3.3781">
        <ele>19.293152</ele>
        <time>2019-06-06T13:59:57Z</time>
      </trkpt>
      <trkpt lat="50.49768" lon="3.37816">
        <ele>19.286615</ele>
        <time>2019-06-06T13:59:59Z</time>
      </trkpt>
      <trkpt lat="50.49776" lon="3.37823">
        <ele>19.285454</ele>
        <time>2019-06-06T14:00:01Z</time>
      </trkpt>
      <trkpt lat="50.49784" lon="3.37831">
        <ele>19.287945</ele>
        <time>2019-06-06T14:00:03Z</time>
      </trkpt>
      <trkpt lat="50.49792" lon="3.3784">
        <ele>19.300129</ele>
        <time>2019-06-06T14:00:05Z</time>
      </trkpt>
      <trkpt lat="50.498" lon="3.37849">
        <ele>19.321459</ele>
        <time>2019-06-06T14:00:07Z</time>
      </trkpt>
      <trkpt lat="50.49807" lon="3.37859">
        <ele>19.333006</ele>
        <time>2019-06-06T14:00:09Z</time>
      </trkpt>
      <trkpt lat="50.49814" lon="3.3787">
        <ele>19.355364</ele>
        <time>2019-06-06T14:00:11Z</time>
      </trkpt>
      <trkpt lat="50.4982" lon="3.37881">
        <ele>19.382175</ele>
        <time>2019-06-06T14:00:13Z</time>
      </trkpt>
      <trkpt lat="50.49826" lon="3.37892">
        <ele>19.420761</ele>
        <time>2019-06-06T14:00:15Z</time>
      </trkpt>
      <trkpt lat="50.49831" lon="3.37903">
        <ele>19.442533</ele>
        <time>2019-06-06T14:00:17Z</time>
      </trkpt>
      <trkpt lat="50.49836" lon="3.37914">
        <ele>19.49136</ele>
        <time>2019-06-06T14:00:19Z</time>
      </trkpt>
      <trkpt lat="50.49841" lon="3.37927">
        <ele>19.517853</ele>
        <time>2019-06-06T14:00:21Z</time>
      </trkpt>
      <trkpt lat="50.49847" lon="3.3794">
        <ele>19.570997</ele>
        <time>2019-06-06T14:00:23Z</time>
      </trkpt>
      <trkpt lat="50.49852" lon="3.37954">
        <ele>19.624361</ele>
        <time>2019-06-06T14:00:25Z</time>
      </trkpt>
      <trkpt lat="50.49857" lon="3.37968">
        <ele>19.653429</ele>
        <time>2019-06-06T14:00:27Z</time>
      </trkpt>
      <trkpt lat="50.49863" lon="3.37982">
        <ele>19.719614</ele>
        <time>2019-06-06T14:00:29Z</time>
      </trkpt>
      <trkpt lat="50.4987" lon="3.37996">
        <ele>19.754738</ele>
        <time>2019-06-06T14:00:31Z</time>
      </trkpt>
      <trkpt lat="50.49877" lon="3.38009">
        <ele>19.829262</ele>
        <time>2019-06-06T14:00:33Z</time>
      </trkpt>
      <trkpt lat="50.49884" lon="3.38021">
        <ele>19.866974</ele>
        <time>2019-06-06T14:00:35Z</time>
      </trkpt>
      <trkpt lat="50.49892" lon="3.38033">
        <ele>19.941547</ele>
        <time>2019-06-06T14:00:37Z</time>
      </trkpt>
      <trkpt lat="50.49899" lon="3.38044">
        <ele>20.006914</ele>
        <time>2019-06-06T14:00:39Z</time>
      </trkpt>
      <trkpt lat="50.49907" lon="3.38054">
        <ele>20.036161</ele>
        <time>2019-06-06T14:00:41Z</time>
      </trkpt>
      <trkpt lat="50.49916" lon="3.38064">
        <ele>20.088749</ele>
        <time>2019-06-06T14:00:43Z</time>
      </trkpt>
      <trkpt lat="50.49925" lon="3.38073">
        <ele>20.133274</ele>
        <time>2019-06-06T14:00:45Z</time>
      </trkpt>
      <trkpt lat="50.49935" lon="3.38082">
        <ele>20.169535</ele>
        <time>2019-06-06T14:00:47Z</time>
      </trkpt>
      <trkpt lat="50.49944" lon="3.3809">
        <ele>20.184706</ele>
        <time>2019-06-06T14:00:49Z</time>
      </trkpt>
      <trkpt lat="50.49954" lon="3.38097">
        <ele>20.211018</ele>
        <time>2019-06-06T14:00:51Z</time>
      </trkpt>
      <trkpt lat="50.49964" lon="3.38104">
        <ele>20.232948</ele>
        <time>2019-06-06T14:00:53Z</time>
      </trkpt>
      <trkpt lat="50.49974" lon="3.38111">
        <ele>20.250824</ele>
        <time>2019-06-06T14:00:55Z</time>
      </trkpt>
      <trkpt lat="50.49984" lon="3.38117">
        <ele>20.257908</ele>
        <time>2019-06-06T14:00:57Z</time>
      </trkpt>
      <trkpt lat="50.49993" lon="3.38124">
        <ele>20.271679</ele>
        <time>2019-06-06T14:00:59Z</time>
      </trkpt>
      <trkpt lat="50.50002" lon="3.38129">
        <ele>20.280933</ele>
        <time>2019-06-06T14:01:01Z</time>
      </trkpt>
      <trkpt lat="50.50011" lon="3.38135">
        <ele>20.278545</ele>
        <time>2019-06-06T14:01:03Z</time>
      </trkpt>
      <trkpt lat="50.5002" lon="3.38141">
        <ele>20.274977</ele>
        <time>2019-06-06T14:01:05Z</time>
      </trkpt>
      <trkpt lat="50.50029" lon="3.38147">
        <ele>20.263086</ele>
        <time>2019-06-06T14:01:07Z</time>
      </trkpt>
      <trkpt lat="50.50039" lon="3.38153">
        <ele>20.241676</ele>
        <time>2019-06-06T14:01:09Z</time>
      </trkpt>
      <trkpt lat="50.50048" lon="3.38159">
        <ele>20.217855</ele>
        <time>2019-06-06T14:01:11Z</time>
      </trkpt>
      <trkpt lat="50.50057" lon="3.38165">
        <ele>20.204014</ele>
        <time>2019-06-06T14:01:13Z</time>
      </trkpt>
      <trkpt lat="50.50066" lon="3.38171">
        <ele>20.170427</ele>
        <time>2019-06-06T14:01:15Z</time>
      </trkpt>
      <trkpt lat="50.50074" lon="3.38177">
        <ele>20.131046</ele>
        <time>2019-06-06T14:01:17Z</time>
      </trkpt>
      <trkpt lat="50.50084" lon="3.38183">
        <ele>20.087147</ele>
        <time>2019-06-06T14:01:19Z</time>
      </trkpt>
      <trkpt lat="50.50093" lon="3.38189">
        <ele>20.064436</ele>
        <time>2019-06-06T14:01:21Z</time>
      </trkpt>
      <trkpt lat="50.50102" lon="3.38195">
        <ele>20.01799</ele>
        <time>2019-06-06T14:01:23Z</time>
      </trkpt>
      <trkpt lat="50.50111" lon="3.38202">
        <ele>19.974209</ele>
        <time>2019-06-06T14:01:25Z</time>
      </trkpt>
      <trkpt lat="50.50119" lon="3.38208">
        <ele>19.934328</ele>
        <time>2019-06-06T14:01:27Z</time>
      </trkpt>
      <trkpt lat="50.50129" lon="3.38214">
        <ele>19.914927</ele>
        <time>2019-06-06T14:01:29Z</time>
      </trkpt>
      <trkpt lat="50.50138" lon="3.3822">
        <ele>19.877319</ele>
        <time>2019-06-06T14:01:31Z</time>
      </trkpt>
      <trkpt lat="50.50147" lon="3.38226">
        <ele>19.84181</ele>
        <time>2019-06-06T14:01:33Z</time>
      </trkpt>
      <trkpt lat="50.50156" lon="3.38231">
        <ele>19.80793</ele>
        <time>2019-06-06T14:01:35Z</time>
      </trkpt>
      <trkpt lat="50.50164" lon="3.38237">
        <ele>19.792233</ele>
        <time>2019-06-06T14:01:37Z</time>
      </trkpt>
      <trkpt lat="50.50172" lon="3.38242">
        <ele>19.765011</ele>
        <time>2019-06-06T14:01:39Z</time>
      </trkpt>
      <trkpt lat="50.50181" lon="3.38248">
        <ele>19.743767</ele>
        <time>2019-06-06T14:01:41Z</time>
      </trkpt>
      <trkpt lat="50.5019" lon="3.38253">
        <ele>19.735401</ele>
        <time>2019-06-06T14:01:43Z</time>
      </trkpt>
      <trkpt lat="50.50199" lon="3.38259">
        <ele>19.719852</ele>
        <time>2019-06-06T14:01:45Z</time>
      </trkpt>
      <trkpt lat="50.50208" lon="3.38265">
        <ele>19.703735</ele>
        <time>2019-06-06T14:01:47Z</time>
      </trkpt>
      <trkpt lat="50.50217" lon="3.38271">
        <ele>19.687641</ele>
        <time>2019-06-06T14:01:49Z</time>
      </trkpt>
      <trkpt lat="50.50226" lon="3.38277">
        <ele>19.679007</ele>
        <time>2019-06-06T14:01:51Z</time>
      </trkpt>
      <trkpt lat="50.50235" lon="3.38283">
        <ele>19.663136</ele>
        <time>2019-06-06T14:01:53Z</time>
      </trkpt>
      <trkpt lat="50.50243" lon="3.38288">
        <ele>19.652735</ele>
        <time>2019-06-06T14:01:55Z</time>
      </trkpt>
      <trkpt lat="50.50248" lon="3.38292">
        <ele>19.650517</ele>
        <time>2019-06-06T14:01:57Z</time>
      </trkpt>
      <trkpt lat="50.50253" lon="3.38295">
        <ele>19.654709</ele>
        <time>2019-06-06T14:01:59Z</time>
      </trkpt>
      <trkpt lat="50.50258" lon="3.38296">
        <ele>19.668903</ele>
        <time>2019-06-06T14:02:01Z</time>
      </trkpt>
      <trkpt lat="50.50264" lon="3.383">
        <ele>19.686661</ele>
        <time>2019-06-06T14:02:03Z</time>
      </trkpt>
      <trkpt lat="50.5027" lon="3.38305">
        <ele>19.703125</ele>
        <time>2019-06-06T14:02:05Z</time>
      </trkpt>
      <trkpt lat="50.50277" lon="3.3831">
        <ele>19.709631</ele>
        <time>2019-06-06T14:02:07Z</time>
      </trkpt>
      <trkpt lat="50.50283" lon="3.38314">
        <ele>19.720341</ele>
        <time>2019-06-06T14:02:09Z</time>
      </trkpt>
      <trkpt lat="50.50291" lon="3.38319">
        <ele>19.729382</ele>
        <time>2019-06-06T14:02:11Z</time>
      </trkpt>
      <trkpt lat="50.50299" lon="3.38323">
        <ele>19.734558</ele>
        <time>2019-06-06T14:02:13Z</time>
      </trkpt>
      <trkpt lat="50.50306" lon="3.38327">
        <ele>19.749014</ele>
        <time>2019-06-06T14:02:15Z</time>
      </trkpt>
      <trkpt lat="50.50311" lon="3.38333">
        <ele>19.767395</ele>
        <time>2019-06-06T14:02:17Z</time>
      </trkpt>
      <trkpt lat="50.50313" lon="3.38343">
        <ele>19.790127</ele>
        <time>2019-06-06T14:02:19Z</time>
      </trkpt>
      <trkpt lat="50.5031" lon="3.38356">
        <ele>19.802319</ele>
        <time>2019-06-06T14:02:21Z</time>
      </trkpt>
      <trkpt lat="50.50306" lon="3.38371">
        <ele>19.815283</ele>
        <time>2019-06-06T14:02:23Z</time>
      </trkpt>
      <trkpt lat="50.50301" lon="3.38387">
        <ele>19.843166</ele>
        <time>2019-06-06T14:02:25Z</time>
      </trkpt>
      <trkpt lat="50.50296" lon="3.38402">
        <ele>19.872269</ele>
        <time>2019-06-06T14:02:27Z</time>
      </trkpt>
      <trkpt lat="50.50293" lon="3.38418">
        <ele>19.886902</ele>
        <time>2019-06-06T14:02:29Z</time>
      </trkpt>
      <trkpt lat="50.5029" lon="3.38432">
        <ele>19.916704</ele>
        <time>2019-06-06T14:02:31Z</time>
      </trkpt>
      <trkpt lat="50.50286" lon="3.38445">
        <ele>19.919079</ele>
        <time>2019-06-06T14:02:33Z</time>
      </trkpt>
      <trkpt lat="50.50282" lon="3.38457">
        <ele>19.908817</ele>
        <time>2019-06-06T14:02:35Z</time>
      </trkpt>
      <trkpt lat="50.50278" lon="3.38471">
        <ele>19.952669</ele>
        <time>2019-06-06T14:02:37Z</time>
      </trkpt>
      <trkpt lat="50.50273" lon="3.3848">
        <ele>19.978096</ele>
        <time>2019-06-06T14:02:39Z</time>
      </trkpt>
      <trkpt lat="50.50268" lon="3.38495">
        <ele>20.034756</ele>
        <time>2019-06-06T14:02:41Z</time>
      </trkpt>
      <trkpt lat="50.50264" lon="3.38509">
        <ele>20.065229</ele>
        <time>2019-06-06T14:02:43Z</time>
      </trkpt>
      <trkpt lat="50.50258" lon="3.38521">
        <ele>20.125633</ele>
        <time>2019-06-06T14:02:45Z</time>
      </trkpt>
      <trkpt lat="50.50252" lon="3.38531">
        <ele>20.185255</ele>
        <time>2019-06-06T14:02:47Z</time>
      </trkpt>
      <trkpt lat="50.50247" lon="3.38543">
        <ele>20.216328</ele>
        <time>2019-06-06T14:02:49Z</time>
      </trkpt>
      <trkpt lat="50.50242" lon="3.38554">
        <ele>20.284218</ele>
        <time>2019-06-06T14:02:51Z</time>
      </trkpt>
      <trkpt lat="50.50236" lon="3.38565">
        <ele>20.321108</ele>
        <time>2019-06-06T14:02:53Z</time>
      </trkpt>
      <trkpt lat="50.50233" lon="3.38577">
        <ele>20.404964</ele>
        <time>2019-06-06T14:02:55Z</time>
      </trkpt>
      <trkpt lat="50.50229" lon="3.38591">
        <ele>20.500273</ele>
        <time>2019-06-06T14:02:57Z</time>
      </trkpt>
      <trkpt lat="50.50223" lon="3.38609">
        <ele>20.607216</ele>
        <time>2019-06-06T14:03:00Z</time>
      </trkpt>
      <trkpt lat="50.5022" lon="3.38621">
        <ele>20.66573</ele>
        <time>2019-06-06T14:03:02Z</time>
      </trkpt>
      <trkpt lat="50.50217" lon="3.38634">
        <ele>20.790699</ele>
        <time>2019-06-06T14:03:04Z</time>
      </trkpt>
      <trkpt lat="50.50217" lon="3.38649">
        <ele>20.855766</ele>
        <time>2019-06-06T14:03:06Z</time>
      </trkpt>
      <trkpt lat="50.50222" lon="3.3866">
        <ele>20.990944</ele>
        <time>2019-06-06T14:03:08Z</time>
      </trkpt>
      <trkpt lat="50.50231" lon="3.38667">
        <ele>21.059933</ele>
        <time>2019-06-06T14:03:10Z</time>
      </trkpt>
      <trkpt lat="50.5024" lon="3.3867">
        <ele>21.199739</ele>
        <time>2019-06-06T14:03:12Z</time>
      </trkpt>
      <trkpt lat="50.50249" lon="3.38673">
        <ele>21.337044</ele>
        <time>2019-06-06T14:03:14Z</time>
      </trkpt>
      <trkpt lat="50.50259" lon="3.38678">
        <ele>21.470833</ele>
        <time>2019-06-06T14:03:16Z</time>
      </trkpt>
      <trkpt lat="50.50267" lon="3.3868">
        <ele>21.536213</ele>
        <time>2019-06-06T14:03:18Z</time>
      </trkpt>
      <trkpt lat="50.50277" lon="3.38683">
        <ele>21.661312</ele>
        <time>2019-06-06T14:03:20Z</time>
      </trkpt>
      <trkpt lat="50.50286" lon="3.38685">
        <ele>21.721243</ele>
        <time>2019-06-06T14:03:22Z</time>
      </trkpt>
      <trkpt lat="50.50295" lon="3.38686">
        <ele>21.872217</ele>
        <time>2019-06-06T14:03:24Z</time>
      </trkpt>
      <trkpt lat="50.50304" lon="3.38687">
        <ele>21.99439</ele>
        <time>2019-06-06T14:03:26Z</time>
      </trkpt>
      <trkpt lat="50.50312" lon="3.38686">
        <ele>22.079126</ele>
        <time>2019-06-06T14:03:28Z</time>
      </trkpt>
      <trkpt lat="50.50322" lon="3.38686">
        <ele>22.116079</ele>
        <time>2019-06-06T14:03:30Z</time>
      </trkpt>
      <trkpt lat="50.5033" lon="3.38686">
        <ele>22.182703</ele>
        <time>2019-06-06T14:03:32Z</time>
      </trkpt>
      <trkpt lat="50.50339" lon="3.38685">
        <ele>22.241428</ele>
        <time>2019-06-06T14:03:34Z</time>
      </trkpt>
      <trkpt lat="50.50348" lon="3.38684">
        <ele>22.266354</ele>
        <time>2019-06-06T14:03:36Z</time>
      </trkpt>
      <trkpt lat="50.50356" lon="3.38682">
        <ele>22.307041</ele>
        <time>2019-06-06T14:03:38Z</time>
      </trkpt>
      <trkpt lat="50.50365" lon="3.38681">
        <ele>22.329983</ele>
        <time>2019-06-06T14:03:40Z</time>
      </trkpt>
      <trkpt lat="50.50373" lon="3.38679">
        <ele>22.332394</ele>
        <time>2019-06-06T14:03:42Z</time>
      </trkpt>
      <trkpt lat="50.50382" lon="3.38677">
        <ele>22.325592</ele>
        <time>2019-06-06T14:03:44Z</time>
      </trkpt>
      <trkpt lat="50.5039" lon="3.38675">
        <ele>22.299078</ele>
        <time>2019-06-06T14:03:46Z</time>
      </trkpt>
      <trkpt lat="50.50399" lon="3.38673">
        <ele>22.258707</ele>
        <time>2019-06-06T14:03:48Z</time>
      </trkpt>
      <trkpt lat="50.50409" lon="3.3867">
        <ele>22.234116</ele>
        <time>2019-06-06T14:03:50Z</time>
      </trkpt>
      <trkpt lat="50.50417" lon="3.38669">
        <ele>22.178553</ele>
        <time>2019-06-06T14:03:52Z</time>
      </trkpt>
      <trkpt lat="50.50425" lon="3.38667">
        <ele>22.120625</ele>
        <time>2019-06-06T14:03:54Z</time>
      </trkpt>
      <trkpt lat="50.50433" lon="3.38666">
        <ele>22.091248</ele>
        <time>2019-06-06T14:03:56Z</time>
      </trkpt>
      <trkpt lat="50.5044" lon="3.38664">
        <ele>22.032181</ele>
        <time>2019-06-06T14:03:58Z</time>
      </trkpt>
      <trkpt lat="50.50448" lon="3.38664">
        <ele>21.973293</ele>
        <time>2019-06-06T14:04:00Z</time>
      </trkpt>
      <trkpt lat="50.50455" lon="3.38664">
        <ele>21.94331</ele>
        <time>2019-06-06T14:04:02Z</time>
      </trkpt>
      <trkpt lat="50.50462" lon="3.38664">
        <ele>21.884068</ele>
        <time>2019-06-06T14:04:04Z</time>
      </trkpt>
      <trkpt lat="50.50469" lon="3.38664">
        <ele>21.830784</ele>
        <time>2019-06-06T14:04:06Z</time>
      </trkpt>
      <trkpt lat="50.50477" lon="3.38663">
        <ele>21.789272</ele>
        <time>2019-06-06T14:04:08Z</time>
      </trkpt>
      <trkpt lat="50.50484" lon="3.38663">
        <ele>21.775043</ele>
        <time>2019-06-06T14:04:10Z</time>
      </trkpt>
      <trkpt lat="50.50491" lon="3.38664">
        <ele>21.763081</ele>
        <time>2019-06-06T14:04:12Z</time>
      </trkpt>
      <trkpt lat="50.50497" lon="3.38665">
        <ele>21.77434</ele>
        <time>2019-06-06T14:04:14Z</time>
      </trkpt>
      <trkpt lat="50.50504" lon="3.38665">
        <ele>21.790369</ele>
        <time>2019-06-06T14:04:16Z</time>
      </trkpt>
      <trkpt lat="50.5051" lon="3.38665">
        <ele>21.842588</ele>
        <time>2019-06-06T14:04:18Z</time>
      </trkpt>
      <trkpt lat="50.50517" lon="3.38665">
        <ele>21.918953</ele>
        <time>2019-06-06T14:04:20Z</time>
      </trkpt>
      <trkpt lat="50.50523" lon="3.38666">
        <ele>21.966343</ele>
        <time>2019-06-06T14:04:22Z</time>
      </trkpt>
      <trkpt lat="50.5053" lon="3.38667">
        <ele>22.079884</ele>
        <time>2019-06-06T14:04:24Z</time>
      </trkpt>
      <trkpt lat="50.50536" lon="3.38668">
        <ele>22.214243</ele>
        <time>2019-06-06T14:04:26Z</time>
      </trkpt>
      <trkpt lat="50.50541" lon="3.38672">
        <ele>22.28879</ele>
        <time>2019-06-06T14:04:28Z</time>
      </trkpt>
      <trkpt lat="50.50544" lon="3.3868">
        <ele>22.453161</ele>
        <time>2019-06-06T14:04:30Z</time>
      </trkpt>
      <trkpt lat="50.50547" lon="3.38691">
        <ele>22.54257</ele>
        <time>2019-06-06T14:04:32Z</time>
      </trkpt>
      <trkpt lat="50.50549" lon="3.38703">
        <ele>22.869677</ele>
        <time>2019-06-06T14:04:34Z</time>
      </trkpt>
      <trkpt lat="50.50552" lon="3.38716">
        <ele>23.105032</ele>
        <time>2019-06-06T14:04:36Z</time>
      </trkpt>
      <trkpt lat="50.50554" lon="3.38728">
        <ele>23.245157</ele>
        <time>2019-06-06T14:04:38Z</time>
      </trkpt>
      <trkpt lat="50.50557" lon="3.3874">
        <ele>23.475164</ele>
        <time>2019-06-06T14:04:40Z</time>
      </trkpt>
      <trkpt lat="50.5056" lon="3.38753">
        <ele>23.741488</ele>
        <time>2019-06-06T14:04:42Z</time>
      </trkpt>
      <trkpt lat="50.50564" lon="3.38766">
        <ele>24.018978</ele>
        <time>2019-06-06T14:04:44Z</time>
      </trkpt>
      <trkpt lat="50.50568" lon="3.38778">
        <ele>24.147869</ele>
        <time>2019-06-06T14:04:46Z</time>
      </trkpt>
      <trkpt lat="50.50573" lon="3.38791">
        <ele>24.416882</ele>
        <time>2019-06-06T14:04:48Z</time>
      </trkpt>
      <trkpt lat="50.50577" lon="3.38804">
        <ele>24.555466</ele>
        <time>2019-06-06T14:04:50Z</time>
      </trkpt>
      <trkpt lat="50.50581" lon="3.38817">
        <ele>24.834305</ele>
        <time>2019-06-06T14:04:52Z</time>
      </trkpt>
      <trkpt lat="50.50585" lon="3.38831">
        <ele>24.974043</ele>
        <time>2019-06-06T14:04:54Z</time>
      </trkpt>
      <trkpt lat="50.50589" lon="3.38844">
        <ele>25.233015</ele>
        <time>2019-06-06T14:04:56Z</time>
      </trkpt>
      <trkpt lat="50.50593" lon="3.38857">
        <ele>25.493246</ele>
        <time>2019-06-06T14:04:58Z</time>
      </trkpt>
      <trkpt lat="50.50597" lon="3.38871">
        <ele>25.768509</ele>
        <time>2019-06-06T14:05:00Z</time>
      </trkpt>
      <trkpt lat="50.50602" lon="3.38885">
        <ele>25.885021</ele>
        <time>2019-06-06T14:05:02Z</time>
      </trkpt>
      <trkpt lat="50.50606" lon="3.38898">
        <ele>26.0938</ele>
        <time>2019-06-06T14:05:04Z</time>
      </trkpt>
      <trkpt lat="50.50611" lon="3.3891">
        <ele>26.292246</ele>
        <time>2019-06-06T14:05:06Z</time>
      </trkpt>
      <trkpt lat="50.50615" lon="3.38923">
        <ele>26.49728</ele>
        <time>2019-06-06T14:05:08Z</time>
      </trkpt>
      <trkpt lat="50.50618" lon="3.38935">
        <ele>26.580729</ele>
        <time>2019-06-06T14:05:10Z</time>
      </trkpt>
      <trkpt lat="50.50622" lon="3.38947">
        <ele>26.7509</ele>
        <time>2019-06-06T14:05:12Z</time>
      </trkpt>
      <trkpt lat="50.50627" lon="3.38958">
        <ele>26.893539</ele>
        <time>2019-06-06T14:05:14Z</time>
      </trkpt>
      <trkpt lat="50.50631" lon="3.38971">
        <ele>26.957373</ele>
        <time>2019-06-06T14:05:16Z</time>
      </trkpt>
      <trkpt lat="50.50634" lon="3.38983">
        <ele>27.091349</ele>
        <time>2019-06-06T14:05:18Z</time>
      </trkpt>
      <trkpt lat="50.50638" lon="3.38995">
        <ele>27.179331</ele>
        <time>2019-06-06T14:05:20Z</time>
      </trkpt>
      <trkpt lat="50.50643" lon="3.39006">
        <ele>27.263342</ele>
        <time>2019-06-06T14:05:22Z</time>
      </trkpt>
      <trkpt lat="50.50649" lon="3.39016">
        <ele>27.315372</ele>
        <time>2019-06-06T14:05:24Z</time>
      </trkpt>
      <trkpt lat="50.50657" lon="3.39026">
        <ele>27.381388</ele>
        <time>2019-06-06T14:05:26Z</time>
      </trkpt>
      <trkpt lat="50.50666" lon="3.39032">
        <ele>27.415134</ele>
        <time>2019-06-06T14:05:28Z</time>
      </trkpt>
      <trkpt lat="50.50673" lon="3.39043">
        <ele>27.405828</ele>
        <time>2019-06-06T14:05:30Z</time>
      </trkpt>
      <trkpt lat="50.50679" lon="3.39056">
        <ele>27.416248</ele>
        <time>2019-06-06T14:05:32Z</time>
      </trkpt>
      <trkpt lat="50.50683" lon="3.39071">
        <ele>27.435293</ele>
        <time>2019-06-06T14:05:33Z</time>
      </trkpt>
      <trkpt lat="50.50687" lon="3.39085">
        <ele>27.442642</ele>
        <time>2019-06-06T14:05:36Z</time>
      </trkpt>
      <trkpt lat="50.50691" lon="3.39099">
        <ele>27.43578</ele>
        <time>2019-06-06T14:05:38Z</time>
      </trkpt>
      <trkpt lat="50.50697" lon="3.39113">
        <ele>27.430368</ele>
        <time>2019-06-06T14:05:40Z</time>
      </trkpt>
      <trkpt lat="50.50702" lon="3.39125">
        <ele>27.419952</ele>
        <time>2019-06-06T14:05:42Z</time>
      </trkpt>
      <trkpt lat="50.50709" lon="3.39137">
        <ele>27.393351</ele>
        <time>2019-06-06T14:05:44Z</time>
      </trkpt>
      <trkpt lat="50.50715" lon="3.3915">
        <ele>27.333942</ele>
        <time>2019-06-06T14:05:46Z</time>
      </trkpt>
      <trkpt lat="50.5072" lon="3.39163">
        <ele>27.314396</ele>
        <time>2019-06-06T14:05:48Z</time>
      </trkpt>
      <trkpt lat="50.50724" lon="3.39176">
        <ele>27.305344</ele>
        <time>2019-06-06T14:05:50Z</time>
      </trkpt>
      <trkpt lat="50.50726" lon="3.3919">
        <ele>27.288214</ele>
        <time>2019-06-06T14:05:52Z</time>
      </trkpt>
      <trkpt lat="50.50728" lon="3.39202">
        <ele>27.251379</ele>
        <time>2019-06-06T14:05:54Z</time>
      </trkpt>
      <trkpt lat="50.50729" lon="3.39213">
        <ele>27.221365</ele>
        <time>2019-06-06T14:05:56Z</time>
      </trkpt>
      <trkpt lat="50.50729" lon="3.39224">
        <ele>27.178442</ele>
        <time>2019-06-06T14:05:58Z</time>
      </trkpt>
      <trkpt lat="50.50731" lon="3.39234">
        <ele>27.146118</ele>
        <time>2019-06-06T14:06:00Z</time>
      </trkpt>
      <trkpt lat="50.50731" lon="3.39244">
        <ele>27.113918</ele>
        <time>2019-06-06T14:06:02Z</time>
      </trkpt>
      <trkpt lat="50.50731" lon="3.39254">
        <ele>27.083797</ele>
        <time>2019-06-06T14:06:04Z</time>
      </trkpt>
      <trkpt lat="50.50731" lon="3.39262">
        <ele>27.061533</ele>
        <time>2019-06-06T14:06:06Z</time>
      </trkpt>
      <trkpt lat="50.50732" lon="3.3927">
        <ele>27.00449</ele>
        <time>2019-06-06T14:06:08Z</time>
      </trkpt>
      <trkpt lat="50.50736" lon="3.39277">
        <ele>26.996485</ele>
        <time>2019-06-06T14:06:10Z</time>
      </trkpt>
      <trkpt lat="50.50741" lon="3.39284">
        <ele>26.968822</ele>
        <time>2019-06-06T14:06:12Z</time>
      </trkpt>
      <trkpt lat="50.50747" lon="3.39289">
        <ele>26.879263</ele>
        <time>2019-06-06T14:06:14Z</time>
      </trkpt>
      <trkpt lat="50.50753" lon="3.39295">
        <ele>26.856344</ele>
        <time>2019-06-06T14:06:16Z</time>
      </trkpt>
      <trkpt lat="50.50759" lon="3.39303">
        <ele>26.879877</ele>
        <time>2019-06-06T14:06:18Z</time>
      </trkpt>
      <trkpt lat="50.50766" lon="3.39312">
        <ele>26.947214</ele>
        <time>2019-06-06T14:06:20Z</time>
      </trkpt>
      <trkpt lat="50.50772" lon="3.39319">
        <ele>26.953213</ele>
        <time>2019-06-06T14:06:22Z</time>
      </trkpt>
      <trkpt lat="50.50777" lon="3.39327">
        <ele>26.987644</ele>
        <time>2019-06-06T14:06:24Z</time>
      </trkpt>
      <trkpt lat="50.50783" lon="3.39333">
        <ele>27.007824</ele>
        <time>2019-06-06T14:06:26Z</time>
      </trkpt>
      <trkpt lat="50.50787" lon="3.3934">
        <ele>27.095325</ele>
        <time>2019-06-06T14:06:28Z</time>
      </trkpt>
      <trkpt lat="50.50789" lon="3.39349">
        <ele>27.191166</ele>
        <time>2019-06-06T14:06:30Z</time>
      </trkpt>
      <trkpt lat="50.5079" lon="3.39359">
        <ele>27.213505</ele>
        <time>2019-06-06T14:06:32Z</time>
      </trkpt>
      <trkpt lat="50.50792" lon="3.3937">
        <ele>27.259781</ele>
        <time>2019-06-06T14:06:34Z</time>
      </trkpt>
      <trkpt lat="50.50794" lon="3.39383">
        <ele>27.317968</ele>
        <time>2019-06-06T14:06:36Z</time>
      </trkpt>
      <trkpt lat="50.50797" lon="3.39396">
        <ele>27.352341</ele>
        <time>2019-06-06T14:06:38Z</time>
      </trkpt>
      <trkpt lat="50.50799" lon="3.39409">
        <ele>27.406998</ele>
        <time>2019-06-06T14:06:40Z</time>
      </trkpt>
      <trkpt lat="50.50801" lon="3.39422">
        <ele>27.466808</ele>
        <time>2019-06-06T14:06:42Z</time>
      </trkpt>
      <trkpt lat="50.50803" lon="3.39434">
        <ele>27.526682</ele>
        <time>2019-06-06T14:06:44Z</time>
      </trkpt>
      <trkpt lat="50.50805" lon="3.39446">
        <ele>27.593634</ele>
        <time>2019-06-06T14:06:46Z</time>
      </trkpt>
      <trkpt lat="50.50808" lon="3.39459">
        <ele>27.679571</ele>
        <time>2019-06-06T14:06:48Z</time>
      </trkpt>
      <trkpt lat="50.5081" lon="3.39471">
        <ele>27.77216</ele>
        <time>2019-06-06T14:06:50Z</time>
      </trkpt>
      <trkpt lat="50.50811" lon="3.39484">
        <ele>27.889368</ele>
        <time>2019-06-06T14:06:52Z</time>
      </trkpt>
      <trkpt lat="50.50814" lon="3.39497">
        <ele>27.995544</ele>
        <time>2019-06-06T14:06:54Z</time>
      </trkpt>
      <trkpt lat="50.50816" lon="3.3951">
        <ele>28.108356</ele>
        <time>2019-06-06T14:06:56Z</time>
      </trkpt>
      <trkpt lat="50.50818" lon="3.39522">
        <ele>28.374308</ele>
        <time>2019-06-06T14:06:58Z</time>
      </trkpt>
      <trkpt lat="50.50821" lon="3.39535">
        <ele>28.560278</ele>
        <time>2019-06-06T14:07:00Z</time>
      </trkpt>
      <trkpt lat="50.50822" lon="3.39547">
        <ele>28.622934</ele>
        <time>2019-06-06T14:07:02Z</time>
      </trkpt>
      <trkpt lat="50.50824" lon="3.39559">
        <ele>28.675028</ele>
        <time>2019-06-06T14:07:04Z</time>
      </trkpt>
      <trkpt lat="50.50826" lon="3.3957">
        <ele>28.808002</ele>
        <time>2019-06-06T14:07:06Z</time>
      </trkpt>
      <trkpt lat="50.50829" lon="3.39582">
        <ele>28.91626</ele>
        <time>2019-06-06T14:07:08Z</time>
      </trkpt>
      <trkpt lat="50.50831" lon="3.39596">
        <ele>29.041208</ele>
        <time>2019-06-06T14:07:10Z</time>
      </trkpt>
      <trkpt lat="50.50833" lon="3.39608">
        <ele>29.18371</ele>
        <time>2019-06-06T14:07:12Z</time>
      </trkpt>
      <trkpt lat="50.50835" lon="3.39621">
        <ele>29.355808</ele>
        <time>2019-06-06T14:07:14Z</time>
      </trkpt>
      <trkpt lat="50.50837" lon="3.39635">
        <ele>29.546688</ele>
        <time>2019-06-06T14:07:16Z</time>
      </trkpt>
      <trkpt lat="50.5084" lon="3.39649">
        <ele>29.736935</ele>
        <time>2019-06-06T14:07:18Z</time>
      </trkpt>
      <trkpt lat="50.50842" lon="3.39664">
        <ele>29.942739</ele>
        <time>2019-06-06T14:07:20Z</time>
      </trkpt>
      <trkpt lat="50.50843" lon="3.39678">
        <ele>30.148342</ele>
        <time>2019-06-06T14:07:22Z</time>
      </trkpt>
      <trkpt lat="50.50845" lon="3.39693">
        <ele>30.330566</ele>
        <time>2019-06-06T14:07:24Z</time>
      </trkpt>
      <trkpt lat="50.50844" lon="3.39709">
        <ele>31.016491</ele>
        <time>2019-06-06T14:07:26Z</time>
      </trkpt>
      <trkpt lat="50.50844" lon="3.39725">
        <ele>31.122677</ele>
        <time>2019-06-06T14:07:28Z</time>
      </trkpt>
      <trkpt lat="50.50844" lon="3.39741">
        <ele>31.283443</ele>
        <time>2019-06-06T14:07:30Z</time>
      </trkpt>
      <trkpt lat="50.50844" lon="3.39757">
        <ele>31.4147</ele>
        <time>2019-06-06T14:07:32Z</time>
      </trkpt>
      <trkpt lat="50.50843" lon="3.39775">
        <ele>31.538855</ele>
        <time>2019-06-06T14:07:34Z</time>
      </trkpt>
      <trkpt lat="50.50843" lon="3.39792">
        <ele>31.658802</ele>
        <time>2019-06-06T14:07:36Z</time>
      </trkpt>
      <trkpt lat="50.50843" lon="3.3981">
        <ele>31.760965</ele>
        <time>2019-06-06T14:07:38Z</time>
      </trkpt>
      <trkpt lat="50.50843" lon="3.39827">
        <ele>31.832022</ele>
        <time>2019-06-06T14:07:40Z</time>
      </trkpt>
      <trkpt lat="50.50843" lon="3.39843">
        <ele>31.889191</ele>
        <time>2019-06-06T14:07:42Z</time>
      </trkpt>
      <trkpt lat="50.50842" lon="3.3986">
        <ele>31.448231</ele>
        <time>2019-06-06T14:07:44Z</time>
      </trkpt>
      <trkpt lat="50.50842" lon="3.39877">
        <ele>31.536686</ele>
        <time>2019-06-06T14:07:46Z</time>
      </trkpt>
      <trkpt lat="50.50842" lon="3.39894">
        <ele>31.542938</ele>
        <time>2019-06-06T14:07:48Z</time>
      </trkpt>
      <trkpt lat="50.50841" lon="3.39911">
        <ele>31.642841</ele>
        <time>2019-06-06T14:07:50Z</time>
      </trkpt>
      <trkpt lat="50.50841" lon="3.39927">
        <ele>31.649715</ele>
        <time>2019-06-06T14:07:52Z</time>
      </trkpt>
      <trkpt lat="50.5084" lon="3.39942">
        <ele>31.6385</ele>
        <time>2019-06-06T14:07:54Z</time>
      </trkpt>
      <trkpt lat="50.5084" lon="3.39957">
        <ele>31.634979</ele>
        <time>2019-06-06T14:07:56Z</time>
      </trkpt>
      <trkpt lat="50.50839" lon="3.39973">
        <ele>31.59556</ele>
        <time>2019-06-06T14:07:58Z</time>
      </trkpt>
      <trkpt lat="50.50839" lon="3.39989">
        <ele>31.532337</ele>
        <time>2019-06-06T14:08:00Z</time>
      </trkpt>
      <trkpt lat="50.50839" lon="3.40004">
        <ele>31.452158</ele>
        <time>2019-06-06T14:08:02Z</time>
      </trkpt>
      <trkpt lat="50.50839" lon="3.4002">
        <ele>31.422977</ele>
        <time>2019-06-06T14:08:04Z</time>
      </trkpt>
      <trkpt lat="50.50839" lon="3.40036">
        <ele>31.376633</ele>
        <time>2019-06-06T14:08:06Z</time>
      </trkpt>
      <trkpt lat="50.5084" lon="3.40052">
        <ele>30.791138</ele>
        <time>2019-06-06T14:08:08Z</time>
      </trkpt>
      <trkpt lat="50.50842" lon="3.40068">
        <ele>30.679615</ele>
        <time>2019-06-06T14:08:10Z</time>
      </trkpt>
      <trkpt lat="50.50844" lon="3.40083">
        <ele>30.632898</ele>
        <time>2019-06-06T14:08:12Z</time>
      </trkpt>
      <trkpt lat="50.50847" lon="3.40099">
        <ele>30.584362</ele>
        <time>2019-06-06T14:08:14Z</time>
      </trkpt>
      <trkpt lat="50.5085" lon="3.40114">
        <ele>30.565063</ele>
        <time>2019-06-06T14:08:16Z</time>
      </trkpt>
      <trkpt lat="50.50854" lon="3.40129">
        <ele>30.526495</ele>
        <time>2019-06-06T14:08:18Z</time>
      </trkpt>
      <trkpt lat="50.50859" lon="3.40143">
        <ele>30.522699</ele>
        <time>2019-06-06T14:08:20Z</time>
      </trkpt>
      <trkpt lat="50.50863" lon="3.40157">
        <ele>30.544437</ele>
        <time>2019-06-06T14:08:22Z</time>
      </trkpt>
      <trkpt lat="50.50868" lon="3.4017">
        <ele>30.561199</ele>
        <time>2019-06-06T14:08:24Z</time>
      </trkpt>
      <trkpt lat="50.50872" lon="3.40183">
        <ele>31.022785</ele>
        <time>2019-06-06T14:08:26Z</time>
      </trkpt>
      <trkpt lat="50.50876" lon="3.40196">
        <ele>31.033207</ele>
        <time>2019-06-06T14:08:28Z</time>
      </trkpt>
      <trkpt lat="50.5088" lon="3.40209">
        <ele>30.997538</ele>
        <time>2019-06-06T14:08:30Z</time>
      </trkpt>
      <trkpt lat="50.50885" lon="3.40222">
        <ele>30.922028</ele>
        <time>2019-06-06T14:08:32Z</time>
      </trkpt>
      <trkpt lat="50.50888" lon="3.40234">
        <ele>30.878967</ele>
        <time>2019-06-06T14:08:34Z</time>
      </trkpt>
      <trkpt lat="50.50893" lon="3.40248">
        <ele>30.855793</ele>
        <time>2019-06-06T14:08:36Z</time>
      </trkpt>
      <trkpt lat="50.50898" lon="3.40262">
        <ele>30.875525</ele>
        <time>2019-06-06T14:08:38Z</time>
      </trkpt>
      <trkpt lat="50.50902" lon="3.40276">
        <ele>30.849548</ele>
        <time>2019-06-06T14:08:40Z</time>
      </trkpt>
      <trkpt lat="50.50907" lon="3.4029">
        <ele>30.844793</ele>
        <time>2019-06-06T14:08:42Z</time>
      </trkpt>
      <trkpt lat="50.50911" lon="3.40305">
        <ele>30.807165</ele>
        <time>2019-06-06T14:08:44Z</time>
      </trkpt>
      <trkpt lat="50.50916" lon="3.40319">
        <ele>30.75528</ele>
        <time>2019-06-06T14:08:46Z</time>
      </trkpt>
      <trkpt lat="50.50921" lon="3.40333">
        <ele>30.700764</ele>
        <time>2019-06-06T14:08:48Z</time>
      </trkpt>
      <trkpt lat="50.50925" lon="3.40348">
        <ele>30.67308</ele>
        <time>2019-06-06T14:08:50Z</time>
      </trkpt>
      <trkpt lat="50.5093" lon="3.40363">
        <ele>30.679993</ele>
        <time>2019-06-06T14:08:52Z</time>
      </trkpt>
      <trkpt lat="50.50935" lon="3.40377">
        <ele>30.627829</ele>
        <time>2019-06-06T14:08:54Z</time>
      </trkpt>
      <trkpt lat="50.5094" lon="3.40392">
        <ele>30.569311</ele>
        <time>2019-06-06T14:08:56Z</time>
      </trkpt>
      <trkpt lat="50.50944" lon="3.40407">
        <ele>30.500065</ele>
        <time>2019-06-06T14:08:58Z</time>
      </trkpt>
      <trkpt lat="50.50949" lon="3.40421">
        <ele>30.441406</ele>
        <time>2019-06-06T14:09:00Z</time>
      </trkpt>
      <trkpt lat="50.50954" lon="3.40436">
        <ele>30.37678</ele>
        <time>2019-06-06T14:09:02Z</time>
      </trkpt>
      <trkpt lat="50.50958" lon="3.40451">
        <ele>30.231159</ele>
        <time>2019-06-06T14:09:04Z</time>
      </trkpt>
      <trkpt lat="50.50963" lon="3.40466">
        <ele>30.180847</ele>
        <time>2019-06-06T14:09:06Z</time>
      </trkpt>
      <trkpt lat="50.50968" lon="3.4048">
        <ele>30.111475</ele>
        <time>2019-06-06T14:09:08Z</time>
      </trkpt>
      <trkpt lat="50.50973" lon="3.40494">
        <ele>30.005726</ele>
        <time>2019-06-06T14:09:10Z</time>
      </trkpt>
      <trkpt lat="50.50977" lon="3.40508">
        <ele>29.884314</ele>
        <time>2019-06-06T14:09:12Z</time>
      </trkpt>
      <trkpt lat="50.50982" lon="3.40523">
        <ele>29.77857</ele>
        <time>2019-06-06T14:09:14Z</time>
      </trkpt>
      <trkpt lat="50.50987" lon="3.40538">
        <ele>29.761169</ele>
        <time>2019-06-06T14:09:16Z</time>
      </trkpt>
      <trkpt lat="50.50991" lon="3.40553">
        <ele>29.652798</ele>
        <time>2019-06-06T14:09:18Z</time>
      </trkpt>
      <trkpt lat="50.50996" lon="3.40568">
        <ele>29.543512</ele>
        <time>2019-06-06T14:09:20Z</time>
      </trkpt>
      <trkpt lat="50.51001" lon="3.40583">
        <ele>29.381994</ele>
        <time>2019-06-06T14:09:22Z</time>
      </trkpt>
      <trkpt lat="50.51006" lon="3.40597">
        <ele>29.289728</ele>
        <time>2019-06-06T14:09:24Z</time>
      </trkpt>
      <trkpt lat="50.51011" lon="3.40611">
        <ele>29.168262</ele>
        <time>2019-06-06T14:09:26Z</time>
      </trkpt>
      <trkpt lat="50.51015" lon="3.40626">
        <ele>29.062408</ele>
        <time>2019-06-06T14:09:28Z</time>
      </trkpt>
      <trkpt lat="50.5102" lon="3.40641">
        <ele>28.971058</ele>
        <time>2019-06-06T14:09:30Z</time>
      </trkpt>
      <trkpt lat="50.51025" lon="3.40656">
        <ele>28.858892</ele>
        <time>2019-06-06T14:09:32Z</time>
      </trkpt>
      <trkpt lat="50.5103" lon="3.4067">
        <ele>28.723114</ele>
        <time>2019-06-06T14:09:34Z</time>
      </trkpt>
      <trkpt lat="50.51034" lon="3.40685">
        <ele>28.590672</ele>
        <time>2019-06-06T14:09:36Z</time>
      </trkpt>
      <trkpt lat="50.51039" lon="3.40699">
        <ele>28.537548</ele>
        <time>2019-06-06T14:09:38Z</time>
      </trkpt>
      <trkpt lat="50.51044" lon="3.40714">
        <ele>28.406076</ele>
        <time>2019-06-06T14:09:40Z</time>
      </trkpt>
      <trkpt lat="50.51049" lon="3.4073">
        <ele>28.276102</ele>
        <time>2019-06-06T14:09:42Z</time>
      </trkpt>
      <trkpt lat="50.51054" lon="3.40745">
        <ele>28.153812</ele>
        <time>2019-06-06T14:09:44Z</time>
      </trkpt>
      <trkpt lat="50.51059" lon="3.40761">
        <ele>28.048672</ele>
        <time>2019-06-06T14:09:46Z</time>
      </trkpt>
      <trkpt lat="50.51064" lon="3.40776">
        <ele>27.894321</ele>
        <time>2019-06-06T14:09:48Z</time>
      </trkpt>
      <trkpt lat="50.51068" lon="3.4079">
        <ele>27.726862</ele>
        <time>2019-06-06T14:09:50Z</time>
      </trkpt>
      <trkpt lat="50.51073" lon="3.40805">
        <ele>27.581005</ele>
        <time>2019-06-06T14:09:52Z</time>
      </trkpt>
      <trkpt lat="50.51078" lon="3.40819">
        <ele>27.499762</ele>
        <time>2019-06-06T14:09:54Z</time>
      </trkpt>
      <trkpt lat="50.51082" lon="3.40833">
        <ele>27.378468</ele>
        <time>2019-06-06T14:09:56Z</time>
      </trkpt>
      <trkpt lat="50.51086" lon="3.40847">
        <ele>27.222464</ele>
        <time>2019-06-06T14:09:58Z</time>
      </trkpt>
      <trkpt lat="50.51091" lon="3.40861">
        <ele>27.088739</ele>
        <time>2019-06-06T14:10:00Z</time>
      </trkpt>
      <trkpt lat="50.51095" lon="3.40874">
        <ele>26.927252</ele>
        <time>2019-06-06T14:10:02Z</time>
      </trkpt>
      <trkpt lat="50.51099" lon="3.40888">
        <ele>26.784143</ele>
        <time>2019-06-06T14:10:04Z</time>
      </trkpt>
      <trkpt lat="50.51103" lon="3.40902">
        <ele>26.626362</ele>
        <time>2019-06-06T14:10:06Z</time>
      </trkpt>
      <trkpt lat="50.51107" lon="3.40916">
        <ele>26.510889</ele>
        <time>2019-06-06T14:10:08Z</time>
      </trkpt>
      <trkpt lat="50.51112" lon="3.4093">
        <ele>26.353802</ele>
        <time>2019-06-06T14:10:10Z</time>
      </trkpt>
      <trkpt lat="50.51117" lon="3.40945">
        <ele>26.185358</ele>
        <time>2019-06-06T14:10:12Z</time>
      </trkpt>
      <trkpt lat="50.51122" lon="3.40962">
        <ele>26.027599</ele>
        <time>2019-06-06T14:10:14Z</time>
      </trkpt>
      <trkpt lat="50.51127" lon="3.40979">
        <ele>25.941183</ele>
        <time>2019-06-06T14:10:16Z</time>
      </trkpt>
      <trkpt lat="50.51131" lon="3.40997">
        <ele>25.723108</ele>
        <time>2019-06-06T14:10:18Z</time>
      </trkpt>
      <trkpt lat="50.51137" lon="3.41015">
        <ele>25.632807</ele>
        <time>2019-06-06T14:10:20Z</time>
      </trkpt>
      <trkpt lat="50.51142" lon="3.41032">
        <ele>25.489388</ele>
        <time>2019-06-06T14:10:22Z</time>
      </trkpt>
      <trkpt lat="50.51147" lon="3.41051">
        <ele>25.289799</ele>
        <time>2019-06-06T14:10:24Z</time>
      </trkpt>
      <trkpt lat="50.51153" lon="3.41069">
        <ele>25.071892</ele>
        <time>2019-06-06T14:10:26Z</time>
      </trkpt>
      <trkpt lat="50.51158" lon="3.41087">
        <ele>24.878635</ele>
        <time>2019-06-06T14:10:28Z</time>
      </trkpt>
      <trkpt lat="50.51163" lon="3.41105">
        <ele>24.707516</ele>
        <time>2019-06-06T14:10:30Z</time>
      </trkpt>
      <trkpt lat="50.51168" lon="3.41121">
        <ele>24.504892</ele>
        <time>2019-06-06T14:10:32Z</time>
      </trkpt>
      <trkpt lat="50.51173" lon="3.41136">
        <ele>24.332264</ele>
        <time>2019-06-06T14:10:34Z</time>
      </trkpt>
      <trkpt lat="50.51177" lon="3.41152">
        <ele>24.162268</ele>
        <time>2019-06-06T14:10:36Z</time>
      </trkpt>
      <trkpt lat="50.51182" lon="3.41167">
        <ele>23.92094</ele>
        <time>2019-06-06T14:10:38Z</time>
      </trkpt>
      <trkpt lat="50.51186" lon="3.41182">
        <ele>23.87512</ele>
        <time>2019-06-06T14:10:40Z</time>
      </trkpt>
      <trkpt lat="50.51191" lon="3.41197">
        <ele>23.663122</ele>
        <time>2019-06-06T14:10:42Z</time>
      </trkpt>
      <trkpt lat="50.51196" lon="3.41209">
        <ele>23.474773</ele>
        <time>2019-06-06T14:10:44Z</time>
      </trkpt>
      <trkpt lat="50.51199" lon="3.41222">
        <ele>23.298582</ele>
        <time>2019-06-06T14:10:46Z</time>
      </trkpt>
      <trkpt lat="50.51204" lon="3.41237">
        <ele>23.074589</ele>
        <time>2019-06-06T14:10:48Z</time>
      </trkpt>
      <trkpt lat="50.51207" lon="3.41253">
        <ele>22.883072</ele>
        <time>2019-06-06T14:10:50Z</time>
      </trkpt>
      <trkpt lat="50.51211" lon="3.41269">
        <ele>22.691875</ele>
        <time>2019-06-06T14:10:52Z</time>
      </trkpt>
      <trkpt lat="50.51214" lon="3.41286">
        <ele>22.518719</ele>
        <time>2019-06-06T14:10:54Z</time>
      </trkpt>
      <trkpt lat="50.51218" lon="3.41303">
        <ele>22.31111</ele>
        <time>2019-06-06T14:10:56Z</time>
      </trkpt>
      <trkpt lat="50.51221" lon="3.41318">
        <ele>22.132685</ele>
        <time>2019-06-06T14:10:58Z</time>
      </trkpt>
      <trkpt lat="50.51226" lon="3.41333">
        <ele>22.044634</ele>
        <time>2019-06-06T14:11:00Z</time>
      </trkpt>
      <trkpt lat="50.51231" lon="3.41346">
        <ele>21.859264</ele>
        <time>2019-06-06T14:11:02Z</time>
      </trkpt>
      <trkpt lat="50.51238" lon="3.41359">
        <ele>21.658344</ele>
        <time>2019-06-06T14:11:04Z</time>
      </trkpt>
      <trkpt lat="50.51244" lon="3.41372">
        <ele>21.541561</ele>
        <time>2019-06-06T14:11:06Z</time>
      </trkpt>
      <trkpt lat="50.5125" lon="3.41386">
        <ele>21.484825</ele>
        <time>2019-06-06T14:11:08Z</time>
      </trkpt>
      <trkpt lat="50.51255" lon="3.41397">
        <ele>21.342426</ele>
        <time>2019-06-06T14:11:10Z</time>
      </trkpt>
      <trkpt lat="50.51261" lon="3.41407">
        <ele>21.202467</ele>
        <time>2019-06-06T14:11:12Z</time>
      </trkpt>
      <trkpt lat="50.51267" lon="3.41418">
        <ele>21.158894</ele>
        <time>2019-06-06T14:11:14Z</time>
      </trkpt>
      <trkpt lat="50.51274" lon="3.41431">
        <ele>21.101053</ele>
        <time>2019-06-06T14:11:16Z</time>
      </trkpt>
      <trkpt lat="50.51281" lon="3.41445">
        <ele>20.96924</ele>
        <time>2019-06-06T14:11:18Z</time>
      </trkpt>
      <trkpt lat="50.51288" lon="3.41461">
        <ele>20.896233</ele>
        <time>2019-06-06T14:11:20Z</time>
      </trkpt>
      <trkpt lat="50.51294" lon="3.41475">
        <ele>20.906513</ele>
        <time>2019-06-06T14:11:22Z</time>
      </trkpt>
      <trkpt lat="50.513" lon="3.4149">
        <ele>20.856535</ele>
        <time>2019-06-06T14:11:24Z</time>
      </trkpt>
      <trkpt lat="50.51307" lon="3.41503">
        <ele>20.840693</ele>
        <time>2019-06-06T14:11:26Z</time>
      </trkpt>
      <trkpt lat="50.51313" lon="3.41518">
        <ele>20.813948</ele>
        <time>2019-06-06T14:11:28Z</time>
      </trkpt>
      <trkpt lat="50.51318" lon="3.41532">
        <ele>20.799801</ele>
        <time>2019-06-06T14:11:30Z</time>
      </trkpt>
      <trkpt lat="50.51323" lon="3.41544">
        <ele>20.848156</ele>
        <time>2019-06-06T14:11:32Z</time>
      </trkpt>
      <trkpt lat="50.51327" lon="3.41556">
        <ele>20.877239</ele>
        <time>2019-06-06T14:11:34Z</time>
      </trkpt>
      <trkpt lat="50.51333" lon="3.41567">
        <ele>20.922308</ele>
        <time>2019-06-06T14:11:36Z</time>
      </trkpt>
      <trkpt lat="50.51337" lon="3.41578">
        <ele>20.950697</ele>
        <time>2019-06-06T14:11:38Z</time>
      </trkpt>
      <trkpt lat="50.51342" lon="3.41589">
        <ele>20.974209</ele>
        <time>2019-06-06T14:11:40Z</time>
      </trkpt>
      <trkpt lat="50.51347" lon="3.41599">
        <ele>21.066975</ele>
        <time>2019-06-06T14:11:42Z</time>
      </trkpt>
      <trkpt lat="50.51351" lon="3.4161">
        <ele>21.172009</ele>
        <time>2019-06-06T14:11:44Z</time>
      </trkpt>
      <trkpt lat="50.51355" lon="3.41621">
        <ele>21.333134</ele>
        <time>2019-06-06T14:11:46Z</time>
      </trkpt>
      <trkpt lat="50.5136" lon="3.41632">
        <ele>21.441839</ele>
        <time>2019-06-06T14:11:48Z</time>
      </trkpt>
      <trkpt lat="50.51364" lon="3.41643">
        <ele>21.601034</ele>
        <time>2019-06-06T14:11:50Z</time>
      </trkpt>
      <trkpt lat="50.51368" lon="3.41654">
        <ele>21.680393</ele>
        <time>2019-06-06T14:11:52Z</time>
      </trkpt>
      <trkpt lat="50.51371" lon="3.41668">
        <ele>21.926903</ele>
        <time>2019-06-06T14:11:54Z</time>
      </trkpt>
      <trkpt lat="50.51374" lon="3.41683">
        <ele>21.994263</ele>
        <time>2019-06-06T14:11:56Z</time>
      </trkpt>
      <trkpt lat="50.51376" lon="3.41698">
        <ele>22.069023</ele>
        <time>2019-06-06T14:11:58Z</time>
      </trkpt>
      <trkpt lat="50.51378" lon="3.41713">
        <ele>22.194714</ele>
        <time>2019-06-06T14:12:00Z</time>
      </trkpt>
      <trkpt lat="50.5138" lon="3.41728">
        <ele>22.374996</ele>
        <time>2019-06-06T14:12:02Z</time>
      </trkpt>
      <trkpt lat="50.51383" lon="3.41742">
        <ele>22.477289</ele>
        <time>2019-06-06T14:12:04Z</time>
      </trkpt>
      <trkpt lat="50.51388" lon="3.41756">
        <ele>22.586418</ele>
        <time>2019-06-06T14:12:06Z</time>
      </trkpt>
      <trkpt lat="50.51395" lon="3.41769">
        <ele>22.730686</ele>
        <time>2019-06-06T14:12:08Z</time>
      </trkpt>
      <trkpt lat="50.51404" lon="3.41783">
        <ele>22.873207</ele>
        <time>2019-06-06T14:12:10Z</time>
      </trkpt>
      <trkpt lat="50.51413" lon="3.41797">
        <ele>22.941313</ele>
        <time>2019-06-06T14:12:12Z</time>
      </trkpt>
      <trkpt lat="50.51426" lon="3.41817">
        <ele>23.050585</ele>
        <time>2019-06-06T14:12:15Z</time>
      </trkpt>
      <trkpt lat="50.51435" lon="3.41832">
        <ele>23.132565</ele>
        <time>2019-06-06T14:12:17Z</time>
      </trkpt>
      <trkpt lat="50.51444" lon="3.41846">
        <ele>23.234089</ele>
        <time>2019-06-06T14:12:19Z</time>
      </trkpt>
      <trkpt lat="50.51453" lon="3.41861">
        <ele>23.405993</ele>
        <time>2019-06-06T14:12:21Z</time>
      </trkpt>
      <trkpt lat="50.51461" lon="3.41876">
        <ele>23.490593</ele>
        <time>2019-06-06T14:12:23Z</time>
      </trkpt>
      <trkpt lat="50.51468" lon="3.41893">
        <ele>23.607235</ele>
        <time>2019-06-06T14:12:25Z</time>
      </trkpt>
      <trkpt lat="50.51472" lon="3.41912">
        <ele>23.645348</ele>
        <time>2019-06-06T14:12:27Z</time>
      </trkpt>
      <trkpt lat="50.51476" lon="3.4193">
        <ele>23.676308</ele>
        <time>2019-06-06T14:12:29Z</time>
      </trkpt>
      <trkpt lat="50.51479" lon="3.41948">
        <ele>23.775173</ele>
        <time>2019-06-06T14:12:31Z</time>
      </trkpt>
      <trkpt lat="50.51483" lon="3.41962">
        <ele>23.854658</ele>
        <time>2019-06-06T14:12:33Z</time>
      </trkpt>
      <trkpt lat="50.51486" lon="3.41974">
        <ele>23.917839</ele>
        <time>2019-06-06T14:12:35Z</time>
      </trkpt>
      <trkpt lat="50.5149" lon="3.41984">
        <ele>23.948753</ele>
        <time>2019-06-06T14:12:37Z</time>
      </trkpt>
      <trkpt lat="50.51495" lon="3.41987">
        <ele>24.000002</ele>
        <time>2019-06-06T14:12:39Z</time>
      </trkpt>
      <trkpt lat="50.51498" lon="3.41981">
        <ele>24.03339</ele>
        <time>2019-06-06T14:12:41Z</time>
      </trkpt>
      <trkpt lat="50.51502" lon="3.41974">
        <ele>24.159208</ele>
        <time>2019-06-06T14:12:43Z</time>
      </trkpt>
      <trkpt lat="50.51508" lon="3.4197">
        <ele>24.218836</ele>
        <time>2019-06-06T14:12:45Z</time>
      </trkpt>
      <trkpt lat="50.51512" lon="3.41965">
        <ele>24.227163</ele>
        <time>2019-06-06T14:12:47Z</time>
      </trkpt>
    </trkseg>
  </trk>
</gpx>